<?xml version="1.0" encoding="utf-8"?>
<gpx xmlns:xsi="http://www.w3.org/2001/XMLSchema-instance" xmlns:xsd="http://www.w3.org/2001/XMLSchema" version="1.1" creator="Shapelink.com" xmlns="http://www.topografix.com/GPX/1/1" xmlns:gpxtpx="http://www.garmin.com/xmlschemas/TrackPointExtension/v1">
  <metadata>
    <name>Cykling 50.51 km, 2012-10-02</name>
    <desc></desc>
    <author><name>Alexander Engvall</name></author> 
    <time>2012-10-02T18:59:21Z</time>
  </metadata>
  <trk>
    <name>Cykling 50.51 km, 2012-10-02</name>
    <trkseg>
      <trkpt lat="59.4577984823" lon="17.8044613324">
        <ele>43.2</ele>
        <time>2012-10-02T18:59:21Z</time>
      </trkpt>
      <trkpt lat="59.4577978955" lon="17.8044469155">
        <ele>43.6</ele>
        <time>2012-10-02T18:59:22Z</time>
      </trkpt>
      <trkpt lat="59.4577799583" lon="17.8044518608">
        <ele>43.6</ele>
        <time>2012-10-02T18:59:23Z</time>
      </trkpt>
      <trkpt lat="59.4576194449" lon="17.8045348416">
        <ele>43.6</ele>
        <time>2012-10-02T18:59:28Z</time>
      </trkpt>
      <trkpt lat="59.4574711691" lon="17.8046647611">
        <ele>43.6</ele>
        <time>2012-10-02T18:59:31Z</time>
      </trkpt>
      <trkpt lat="59.4573707539" lon="17.8047970275">
        <ele>43.6</ele>
        <time>2012-10-02T18:59:33Z</time>
      </trkpt>
      <trkpt lat="59.4573193729" lon="17.8048588859">
        <ele>44.6</ele>
        <time>2012-10-02T18:59:34Z</time>
      </trkpt>
      <trkpt lat="59.457274865" lon="17.8049214149">
        <ele>45</ele>
        <time>2012-10-02T18:59:35Z</time>
      </trkpt>
      <trkpt lat="59.4572339613" lon="17.8049888892">
        <ele>45.6</ele>
        <time>2012-10-02T18:59:36Z</time>
      </trkpt>
      <trkpt lat="59.4571916327" lon="17.8050587104">
        <ele>46</ele>
        <time>2012-10-02T18:59:37Z</time>
      </trkpt>
      <trkpt lat="59.457124326" lon="17.8051908091">
        <ele>46</ele>
        <time>2012-10-02T18:59:39Z</time>
      </trkpt>
      <trkpt lat="59.4570857693" lon="17.8053016179">
        <ele>46</ele>
        <time>2012-10-02T18:59:41Z</time>
      </trkpt>
      <trkpt lat="59.4570867751" lon="17.8054218143">
        <ele>46</ele>
        <time>2012-10-02T18:59:43Z</time>
      </trkpt>
      <trkpt lat="59.457178054" lon="17.8055698387">
        <ele>46</ele>
        <time>2012-10-02T18:59:46Z</time>
      </trkpt>
      <trkpt lat="59.4572746973" lon="17.8056280929">
        <ele>46</ele>
        <time>2012-10-02T18:59:48Z</time>
      </trkpt>
      <trkpt lat="59.457387853" lon="17.8056806474">
        <ele>46</ele>
        <time>2012-10-02T18:59:50Z</time>
      </trkpt>
      <trkpt lat="59.4578850673" lon="17.8058888538">
        <ele>46</ele>
        <time>2012-10-02T18:59:58Z</time>
      </trkpt>
      <trkpt lat="59.4583299785" lon="17.8060621076">
        <ele>46</ele>
        <time>2012-10-02T19:00:05Z</time>
      </trkpt>
      <trkpt lat="59.4587563658" lon="17.8061784484">
        <ele>46.4</ele>
        <time>2012-10-02T19:00:12Z</time>
      </trkpt>
      <trkpt lat="59.4588195653" lon="17.8061911889">
        <ele>46.8</ele>
        <time>2012-10-02T19:00:13Z</time>
      </trkpt>
      <trkpt lat="59.4588806694" lon="17.8062079527">
        <ele>47.2</ele>
        <time>2012-10-02T19:00:14Z</time>
      </trkpt>
      <trkpt lat="59.4589380016" lon="17.8062302486">
        <ele>47.6</ele>
        <time>2012-10-02T19:00:15Z</time>
      </trkpt>
      <trkpt lat="59.4589960043" lon="17.8062493593">
        <ele>48</ele>
        <time>2012-10-02T19:00:16Z</time>
      </trkpt>
      <trkpt lat="59.4591175419" lon="17.8062782768">
        <ele>48</ele>
        <time>2012-10-02T19:00:18Z</time>
      </trkpt>
      <trkpt lat="59.4592968307" lon="17.8063123074">
        <ele>48.4</ele>
        <time>2012-10-02T19:00:21Z</time>
      </trkpt>
      <trkpt lat="59.4593580186" lon="17.8063216113">
        <ele>48.8</ele>
        <time>2012-10-02T19:00:22Z</time>
      </trkpt>
      <trkpt lat="59.4593723516" lon="17.8064418915">
        <ele>49.8</ele>
        <time>2012-10-02T19:00:23Z</time>
      </trkpt>
      <trkpt lat="59.4594224754" lon="17.8064851421">
        <ele>50.2</ele>
        <time>2012-10-02T19:00:24Z</time>
      </trkpt>
      <trkpt lat="59.4595461922" lon="17.8065195917">
        <ele>50.2</ele>
        <time>2012-10-02T19:00:26Z</time>
      </trkpt>
      <trkpt lat="59.4596089727" lon="17.8065309911">
        <ele>50.2</ele>
        <time>2012-10-02T19:00:27Z</time>
      </trkpt>
      <trkpt lat="59.4600374554" lon="17.806606512">
        <ele>50.2</ele>
        <time>2012-10-02T19:00:33Z</time>
      </trkpt>
      <trkpt lat="59.4605978692" lon="17.8066542051">
        <ele>50.2</ele>
        <time>2012-10-02T19:00:40Z</time>
      </trkpt>
      <trkpt lat="59.4606821073" lon="17.8066549594">
        <ele>50.2</ele>
        <time>2012-10-02T19:00:41Z</time>
      </trkpt>
      <trkpt lat="59.461173119" lon="17.8066438953">
        <ele>50.2</ele>
        <time>2012-10-02T19:00:47Z</time>
      </trkpt>
      <trkpt lat="59.4615949801" lon="17.8066184982">
        <ele>50.2</ele>
        <time>2012-10-02T19:00:53Z</time>
      </trkpt>
      <trkpt lat="59.4621661227" lon="17.8066018182">
        <ele>50.2</ele>
        <time>2012-10-02T19:01:01Z</time>
      </trkpt>
      <trkpt lat="59.46252579" lon="17.8064708091">
        <ele>50.2</ele>
        <time>2012-10-02T19:01:06Z</time>
      </trkpt>
      <trkpt lat="59.4629747246" lon="17.8063684661">
        <ele>50.2</ele>
        <time>2012-10-02T19:01:13Z</time>
      </trkpt>
      <trkpt lat="59.4631811708" lon="17.806376848">
        <ele>50.6</ele>
        <time>2012-10-02T19:01:16Z</time>
      </trkpt>
      <trkpt lat="59.4632530037" lon="17.8063895047">
        <ele>51</ele>
        <time>2012-10-02T19:01:17Z</time>
      </trkpt>
      <trkpt lat="59.4633243337" lon="17.8064119682">
        <ele>51.4</ele>
        <time>2012-10-02T19:01:18Z</time>
      </trkpt>
      <trkpt lat="59.4633971724" lon="17.8064414724">
        <ele>51.8</ele>
        <time>2012-10-02T19:01:19Z</time>
      </trkpt>
      <trkpt lat="59.463465904" lon="17.8064687136">
        <ele>52.2</ele>
        <time>2012-10-02T19:01:20Z</time>
      </trkpt>
      <trkpt lat="59.4636697518" lon="17.8065952803">
        <ele>52.2</ele>
        <time>2012-10-02T19:01:23Z</time>
      </trkpt>
      <trkpt lat="59.4637943068" lon="17.8067340007">
        <ele>52.2</ele>
        <time>2012-10-02T19:01:25Z</time>
      </trkpt>
      <trkpt lat="59.4638575901" lon="17.8068263693">
        <ele>52.2</ele>
        <time>2012-10-02T19:01:26Z</time>
      </trkpt>
      <trkpt lat="59.4640112304" lon="17.8071528443">
        <ele>52.2</ele>
        <time>2012-10-02T19:01:29Z</time>
      </trkpt>
      <trkpt lat="59.464053056" lon="17.8072778184">
        <ele>52.2</ele>
        <time>2012-10-02T19:01:30Z</time>
      </trkpt>
      <trkpt lat="59.4641474362" lon="17.8076931416">
        <ele>52.2</ele>
        <time>2012-10-02T19:01:33Z</time>
      </trkpt>
      <trkpt lat="59.4641872503" lon="17.8082865801">
        <ele>52.2</ele>
        <time>2012-10-02T19:01:37Z</time>
      </trkpt>
      <trkpt lat="59.4641830593" lon="17.8084304973">
        <ele>52.2</ele>
        <time>2012-10-02T19:01:38Z</time>
      </trkpt>
      <trkpt lat="59.4641290799" lon="17.8092930786">
        <ele>52.2</ele>
        <time>2012-10-02T19:01:44Z</time>
      </trkpt>
      <trkpt lat="59.4641320135" lon="17.8094333078">
        <ele>52.2</ele>
        <time>2012-10-02T19:01:45Z</time>
      </trkpt>
      <trkpt lat="59.4641731687" lon="17.8097105811">
        <ele>52.2</ele>
        <time>2012-10-02T19:01:47Z</time>
      </trkpt>
      <trkpt lat="59.464383722" lon="17.8106055165">
        <ele>52.2</ele>
        <time>2012-10-02T19:01:54Z</time>
      </trkpt>
      <trkpt lat="59.464582373" lon="17.8113660901">
        <ele>52.2</ele>
        <time>2012-10-02T19:02:00Z</time>
      </trkpt>
      <trkpt lat="59.4647900765" lon="17.8122352094">
        <ele>52.2</ele>
        <time>2012-10-02T19:02:06Z</time>
      </trkpt>
      <trkpt lat="59.4648280465" lon="17.8123603511">
        <ele>52.6</ele>
        <time>2012-10-02T19:02:07Z</time>
      </trkpt>
      <trkpt lat="59.4648707942" lon="17.8124777815">
        <ele>53</ele>
        <time>2012-10-02T19:02:08Z</time>
      </trkpt>
      <trkpt lat="59.4649168108" lon="17.8125871653">
        <ele>53.4</ele>
        <time>2012-10-02T19:02:09Z</time>
      </trkpt>
      <trkpt lat="59.4649627437" lon="17.8126894245">
        <ele>53.8</ele>
        <time>2012-10-02T19:02:10Z</time>
      </trkpt>
      <trkpt lat="59.4650101014" lon="17.812777183">
        <ele>54.2</ele>
        <time>2012-10-02T19:02:11Z</time>
      </trkpt>
      <trkpt lat="59.465125604" lon="17.8129520294">
        <ele>54.2</ele>
        <time>2012-10-02T19:02:14Z</time>
      </trkpt>
      <trkpt lat="59.4651717882" lon="17.8130061765">
        <ele>54.2</ele>
        <time>2012-10-02T19:02:18Z</time>
      </trkpt>
      <trkpt lat="59.4651858698" lon="17.8130190008">
        <ele>54.2</ele>
        <time>2012-10-02T19:02:26Z</time>
      </trkpt>
      <trkpt lat="59.4652148712" lon="17.8130259578">
        <ele>54.2</ele>
        <time>2012-10-02T19:02:27Z</time>
      </trkpt>
      <trkpt lat="59.465302043" lon="17.8129811985">
        <ele>54.2</ele>
        <time>2012-10-02T19:02:29Z</time>
      </trkpt>
      <trkpt lat="59.4654385003" lon="17.8127242932">
        <ele>54.2</ele>
        <time>2012-10-02T19:02:32Z</time>
      </trkpt>
      <trkpt lat="59.46548217" lon="17.8126127301">
        <ele>54.2</ele>
        <time>2012-10-02T19:02:33Z</time>
      </trkpt>
      <trkpt lat="59.4657471219" lon="17.8118904618">
        <ele>54.2</ele>
        <time>2012-10-02T19:02:39Z</time>
      </trkpt>
      <trkpt lat="59.4658830763" lon="17.8114910643">
        <ele>54.2</ele>
        <time>2012-10-02T19:02:42Z</time>
      </trkpt>
      <trkpt lat="59.4660811406" lon="17.810947079">
        <ele>54.2</ele>
        <time>2012-10-02T19:02:46Z</time>
      </trkpt>
      <trkpt lat="59.4664244632" lon="17.8101882656">
        <ele>54.2</ele>
        <time>2012-10-02T19:02:52Z</time>
      </trkpt>
      <trkpt lat="59.4665601662" lon="17.8099718449">
        <ele>53.8</ele>
        <time>2012-10-02T19:02:54Z</time>
      </trkpt>
      <trkpt lat="59.4666353518" lon="17.809872687">
        <ele>53.4</ele>
        <time>2012-10-02T19:02:55Z</time>
      </trkpt>
      <trkpt lat="59.4667133873" lon="17.8097881137">
        <ele>53</ele>
        <time>2012-10-02T19:02:56Z</time>
      </trkpt>
      <trkpt lat="59.4667920095" lon="17.8097057196">
        <ele>52.6</ele>
        <time>2012-10-02T19:02:57Z</time>
      </trkpt>
      <trkpt lat="59.466877002" lon="17.8096291928">
        <ele>52</ele>
        <time>2012-10-02T19:02:58Z</time>
      </trkpt>
      <trkpt lat="59.4672057401" lon="17.8094185557">
        <ele>52</ele>
        <time>2012-10-02T19:03:02Z</time>
      </trkpt>
      <trkpt lat="59.4672925766" lon="17.8093871236">
        <ele>51.6</ele>
        <time>2012-10-02T19:03:03Z</time>
      </trkpt>
      <trkpt lat="59.4673811733" lon="17.8093613911">
        <ele>51.2</ele>
        <time>2012-10-02T19:03:04Z</time>
      </trkpt>
      <trkpt lat="59.4674808341" lon="17.8093458008">
        <ele>50.6</ele>
        <time>2012-10-02T19:03:05Z</time>
      </trkpt>
      <trkpt lat="59.4675757172" lon="17.8093409393">
        <ele>50.2</ele>
        <time>2012-10-02T19:03:06Z</time>
      </trkpt>
      <trkpt lat="59.4676752103" lon="17.8093471419">
        <ele>49.8</ele>
        <time>2012-10-02T19:03:07Z</time>
      </trkpt>
      <trkpt lat="59.4681646295" lon="17.8094965074">
        <ele>49.4</ele>
        <time>2012-10-02T19:03:12Z</time>
      </trkpt>
      <trkpt lat="59.4682621109" lon="17.809541602">
        <ele>49</ele>
        <time>2012-10-02T19:03:13Z</time>
      </trkpt>
      <trkpt lat="59.4683491989" lon="17.8096001076">
        <ele>48.6</ele>
        <time>2012-10-02T19:03:14Z</time>
      </trkpt>
      <trkpt lat="59.468421367" lon="17.8096927276">
        <ele>48.2</ele>
        <time>2012-10-02T19:03:15Z</time>
      </trkpt>
      <trkpt lat="59.4684909368" lon="17.8097992616">
        <ele>47.8</ele>
        <time>2012-10-02T19:03:16Z</time>
      </trkpt>
      <trkpt lat="59.468620521" lon="17.8099700847">
        <ele>47.8</ele>
        <time>2012-10-02T19:03:18Z</time>
      </trkpt>
      <trkpt lat="59.4686902584" lon="17.8100101502">
        <ele>47.8</ele>
        <time>2012-10-02T19:03:19Z</time>
      </trkpt>
      <trkpt lat="59.4689180784" lon="17.8100020197">
        <ele>47.8</ele>
        <time>2012-10-02T19:03:22Z</time>
      </trkpt>
      <trkpt lat="59.4690620795" lon="17.8099996728">
        <ele>47.8</ele>
        <time>2012-10-02T19:03:24Z</time>
      </trkpt>
      <trkpt lat="59.4692724652" lon="17.810042672">
        <ele>47.8</ele>
        <time>2012-10-02T19:03:27Z</time>
      </trkpt>
      <trkpt lat="59.4697405943" lon="17.810098244">
        <ele>47.8</ele>
        <time>2012-10-02T19:03:34Z</time>
      </trkpt>
      <trkpt lat="59.4698094097" lon="17.8101041951">
        <ele>48.2</ele>
        <time>2012-10-02T19:03:35Z</time>
      </trkpt>
      <trkpt lat="59.4698800691" lon="17.8101096433">
        <ele>48.6</ele>
        <time>2012-10-02T19:03:36Z</time>
      </trkpt>
      <trkpt lat="59.4699505609" lon="17.8101208751">
        <ele>49</ele>
        <time>2012-10-02T19:03:37Z</time>
      </trkpt>
      <trkpt lat="59.4700186219" lon="17.8101290893">
        <ele>49.4</ele>
        <time>2012-10-02T19:03:38Z</time>
      </trkpt>
      <trkpt lat="59.4700884431" lon="17.810136214">
        <ele>49.8</ele>
        <time>2012-10-02T19:03:39Z</time>
      </trkpt>
      <trkpt lat="59.4701574262" lon="17.8101443444">
        <ele>49.8</ele>
        <time>2012-10-02T19:03:40Z</time>
      </trkpt>
      <trkpt lat="59.4702285885" lon="17.8101520557">
        <ele>49.8</ele>
        <time>2012-10-02T19:03:41Z</time>
      </trkpt>
      <trkpt lat="59.4704471046" lon="17.8101764471">
        <ele>50.2</ele>
        <time>2012-10-02T19:03:44Z</time>
      </trkpt>
      <trkpt lat="59.4705200272" lon="17.8101937138">
        <ele>50.6</ele>
        <time>2012-10-02T19:03:45Z</time>
      </trkpt>
      <trkpt lat="59.4705932012" lon="17.8102199491">
        <ele>51</ele>
        <time>2012-10-02T19:03:46Z</time>
      </trkpt>
      <trkpt lat="59.4706693926" lon="17.810249202">
        <ele>51.4</ele>
        <time>2012-10-02T19:03:47Z</time>
      </trkpt>
      <trkpt lat="59.4707446621" lon="17.8102640379">
        <ele>52</ele>
        <time>2012-10-02T19:03:48Z</time>
      </trkpt>
      <trkpt lat="59.4708920997" lon="17.8102832325">
        <ele>52.4</ele>
        <time>2012-10-02T19:03:50Z</time>
      </trkpt>
      <trkpt lat="59.4709627591" lon="17.8102926202">
        <ele>52.8</ele>
        <time>2012-10-02T19:03:51Z</time>
      </trkpt>
      <trkpt lat="59.4710369389" lon="17.8103020079">
        <ele>53.2</ele>
        <time>2012-10-02T19:03:52Z</time>
      </trkpt>
      <trkpt lat="59.4711071793" lon="17.8103071209">
        <ele>53.6</ele>
        <time>2012-10-02T19:03:53Z</time>
      </trkpt>
      <trkpt lat="59.471177671" lon="17.8103134073">
        <ele>54</ele>
        <time>2012-10-02T19:03:54Z</time>
      </trkpt>
      <trkpt lat="59.471317565" lon="17.810336709">
        <ele>54</ele>
        <time>2012-10-02T19:03:56Z</time>
      </trkpt>
      <trkpt lat="59.4716050641" lon="17.8104262277">
        <ele>54.4</ele>
        <time>2012-10-02T19:04:00Z</time>
      </trkpt>
      <trkpt lat="59.471674131" lon="17.8104541394">
        <ele>54.8</ele>
        <time>2012-10-02T19:04:01Z</time>
      </trkpt>
      <trkpt lat="59.4717421082" lon="17.8104883376">
        <ele>55.2</ele>
        <time>2012-10-02T19:04:02Z</time>
      </trkpt>
      <trkpt lat="59.4718118456" lon="17.8105280678">
        <ele>55.6</ele>
        <time>2012-10-02T19:04:03Z</time>
      </trkpt>
      <trkpt lat="59.4718791523" lon="17.8105690553">
        <ele>56</ele>
        <time>2012-10-02T19:04:04Z</time>
      </trkpt>
      <trkpt lat="59.4723264943" lon="17.8109083546">
        <ele>56</ele>
        <time>2012-10-02T19:04:11Z</time>
      </trkpt>
      <trkpt lat="59.4726555677" lon="17.8112728834">
        <ele>56</ele>
        <time>2012-10-02T19:04:17Z</time>
      </trkpt>
      <trkpt lat="59.4727487744" lon="17.8117229914">
        <ele>56</ele>
        <time>2012-10-02T19:04:21Z</time>
      </trkpt>
      <trkpt lat="59.4727529653" lon="17.8118477979">
        <ele>56.4</ele>
        <time>2012-10-02T19:04:22Z</time>
      </trkpt>
      <trkpt lat="59.4727720761" lon="17.8119765439">
        <ele>56.8</ele>
        <time>2012-10-02T19:04:23Z</time>
      </trkpt>
      <trkpt lat="59.4728043464" lon="17.8120893643">
        <ele>57.2</ele>
        <time>2012-10-02T19:04:24Z</time>
      </trkpt>
      <trkpt lat="59.4728436575" lon="17.8121891927">
        <ele>57.6</ele>
        <time>2012-10-02T19:04:25Z</time>
      </trkpt>
      <trkpt lat="59.4728898418" lon="17.8122778732">
        <ele>58.2</ele>
        <time>2012-10-02T19:04:26Z</time>
      </trkpt>
      <trkpt lat="59.4730720643" lon="17.8124497022">
        <ele>58.2</ele>
        <time>2012-10-02T19:04:29Z</time>
      </trkpt>
      <trkpt lat="59.4732789296" lon="17.8124959703">
        <ele>58.2</ele>
        <time>2012-10-02T19:04:32Z</time>
      </trkpt>
      <trkpt lat="59.4734114474" lon="17.8125290788">
        <ele>58.2</ele>
        <time>2012-10-02T19:04:34Z</time>
      </trkpt>
      <trkpt lat="59.4735826058" lon="17.8127111336">
        <ele>58.2</ele>
        <time>2012-10-02T19:04:37Z</time>
      </trkpt>
      <trkpt lat="59.4736383454" lon="17.8127884148">
        <ele>58.2</ele>
        <time>2012-10-02T19:04:38Z</time>
      </trkpt>
      <trkpt lat="59.4738265191" lon="17.8131293904">
        <ele>58.2</ele>
        <time>2012-10-02T19:04:42Z</time>
      </trkpt>
      <trkpt lat="59.4738697697" lon="17.8132232677">
        <ele>58.2</ele>
        <time>2012-10-02T19:04:43Z</time>
      </trkpt>
      <trkpt lat="59.4739129365" lon="17.8133183185">
        <ele>58.6</ele>
        <time>2012-10-02T19:04:44Z</time>
      </trkpt>
      <trkpt lat="59.473955768" lon="17.8134149618">
        <ele>59</ele>
        <time>2012-10-02T19:04:45Z</time>
      </trkpt>
      <trkpt lat="59.4740003597" lon="17.8135146226">
        <ele>59.4</ele>
        <time>2012-10-02T19:04:46Z</time>
      </trkpt>
      <trkpt lat="59.4740411795" lon="17.813616295">
        <ele>59.8</ele>
        <time>2012-10-02T19:04:47Z</time>
      </trkpt>
      <trkpt lat="59.4740802392" lon="17.8137184704">
        <ele>60.2</ele>
        <time>2012-10-02T19:04:48Z</time>
      </trkpt>
      <trkpt lat="59.4742016091" lon="17.8140254156">
        <ele>60.2</ele>
        <time>2012-10-02T19:04:51Z</time>
      </trkpt>
      <trkpt lat="59.4744909523" lon="17.8149020785">
        <ele>60.2</ele>
        <time>2012-10-02T19:04:59Z</time>
      </trkpt>
      <trkpt lat="59.4747346141" lon="17.8157269413">
        <ele>60.2</ele>
        <time>2012-10-02T19:05:06Z</time>
      </trkpt>
      <trkpt lat="59.4749284875" lon="17.816468907">
        <ele>60.6</ele>
        <time>2012-10-02T19:05:12Z</time>
      </trkpt>
      <trkpt lat="59.4749595005" lon="17.8165894388">
        <ele>61</ele>
        <time>2012-10-02T19:05:13Z</time>
      </trkpt>
      <trkpt lat="59.4749905974" lon="17.8167139938">
        <ele>61.4</ele>
        <time>2012-10-02T19:05:14Z</time>
      </trkpt>
      <trkpt lat="59.4750227839" lon="17.8168413987">
        <ele>61.8</ele>
        <time>2012-10-02T19:05:15Z</time>
      </trkpt>
      <trkpt lat="59.4750570658" lon="17.8169738327">
        <ele>62.2</ele>
        <time>2012-10-02T19:05:16Z</time>
      </trkpt>
      <trkpt lat="59.4752104546" lon="17.8176160539">
        <ele>62.2</ele>
        <time>2012-10-02T19:05:21Z</time>
      </trkpt>
      <trkpt lat="59.4753037451" lon="17.8180110928">
        <ele>62.2</ele>
        <time>2012-10-02T19:05:24Z</time>
      </trkpt>
      <trkpt lat="59.4755079282" lon="17.8189376281">
        <ele>62.2</ele>
        <time>2012-10-02T19:05:31Z</time>
      </trkpt>
      <trkpt lat="59.4757353292" lon="17.8199965135">
        <ele>62.2</ele>
        <time>2012-10-02T19:05:39Z</time>
      </trkpt>
      <trkpt lat="59.4757620674" lon="17.8201237507">
        <ele>62.8</ele>
        <time>2012-10-02T19:05:40Z</time>
      </trkpt>
      <trkpt lat="59.4757888895" lon="17.8202498983">
        <ele>63.2</ele>
        <time>2012-10-02T19:05:41Z</time>
      </trkpt>
      <trkpt lat="59.4758145381" lon="17.8203761297">
        <ele>63.8</ele>
        <time>2012-10-02T19:05:42Z</time>
      </trkpt>
      <trkpt lat="59.4758381751" lon="17.8205025288">
        <ele>64.2</ele>
        <time>2012-10-02T19:05:43Z</time>
      </trkpt>
      <trkpt lat="59.4758618959" lon="17.8206264133">
        <ele>64.6</ele>
        <time>2012-10-02T19:05:44Z</time>
      </trkpt>
      <trkpt lat="59.4759825114" lon="17.8212499428">
        <ele>64.6</ele>
        <time>2012-10-02T19:05:49Z</time>
      </trkpt>
      <trkpt lat="59.476173032" lon="17.8223577785">
        <ele>64.6</ele>
        <time>2012-10-02T19:05:58Z</time>
      </trkpt>
      <trkpt lat="59.4761959984" lon="17.8224785617">
        <ele>65</ele>
        <time>2012-10-02T19:05:59Z</time>
      </trkpt>
      <trkpt lat="59.4762197192" lon="17.8226019433">
        <ele>65.6</ele>
        <time>2012-10-02T19:06:00Z</time>
      </trkpt>
      <trkpt lat="59.4762419312" lon="17.8227239837">
        <ele>66</ele>
        <time>2012-10-02T19:06:01Z</time>
      </trkpt>
      <trkpt lat="59.4762628021" lon="17.8228541546">
        <ele>66.4</ele>
        <time>2012-10-02T19:06:02Z</time>
      </trkpt>
      <trkpt lat="59.4762828349" lon="17.8229813919">
        <ele>66.8</ele>
        <time>2012-10-02T19:06:03Z</time>
      </trkpt>
      <trkpt lat="59.4763842559" lon="17.8235884091">
        <ele>66.8</ele>
        <time>2012-10-02T19:06:08Z</time>
      </trkpt>
      <trkpt lat="59.4765421709" lon="17.8247099911">
        <ele>66.8</ele>
        <time>2012-10-02T19:06:17Z</time>
      </trkpt>
      <trkpt lat="59.4766859204" lon="17.8257378635">
        <ele>66.8</ele>
        <time>2012-10-02T19:06:25Z</time>
      </trkpt>
      <trkpt lat="59.4767016784" lon="17.8258725607">
        <ele>66.8</ele>
        <time>2012-10-02T19:06:26Z</time>
      </trkpt>
      <trkpt lat="59.4768302568" lon="17.8269900356">
        <ele>66.8</ele>
        <time>2012-10-02T19:06:34Z</time>
      </trkpt>
      <trkpt lat="59.476911645" lon="17.8277392098">
        <ele>66.8</ele>
        <time>2012-10-02T19:06:39Z</time>
      </trkpt>
      <trkpt lat="59.4769847352" lon="17.8285007892">
        <ele>66.8</ele>
        <time>2012-10-02T19:06:44Z</time>
      </trkpt>
      <trkpt lat="59.4770947057" lon="17.8296602574">
        <ele>66.8</ele>
        <time>2012-10-02T19:06:51Z</time>
      </trkpt>
      <trkpt lat="59.4771077815" lon="17.8298335113">
        <ele>66.8</ele>
        <time>2012-10-02T19:06:52Z</time>
      </trkpt>
      <trkpt lat="59.4771985575" lon="17.8309190512">
        <ele>66.8</ele>
        <time>2012-10-02T19:06:58Z</time>
      </trkpt>
      <trkpt lat="59.4772148183" lon="17.8311073087">
        <ele>66.4</ele>
        <time>2012-10-02T19:06:59Z</time>
      </trkpt>
      <trkpt lat="59.4772280617" lon="17.8312953985">
        <ele>66</ele>
        <time>2012-10-02T19:07:00Z</time>
      </trkpt>
      <trkpt lat="59.4772439035" lon="17.8314874278">
        <ele>65.4</ele>
        <time>2012-10-02T19:07:01Z</time>
      </trkpt>
      <trkpt lat="59.4772594939" lon="17.8316910242">
        <ele>65</ele>
        <time>2012-10-02T19:07:02Z</time>
      </trkpt>
      <trkpt lat="59.4772740784" lon="17.8318857357">
        <ele>64.6</ele>
        <time>2012-10-02T19:07:03Z</time>
      </trkpt>
      <trkpt lat="59.4773067678" lon="17.8322873964">
        <ele>64.6</ele>
        <time>2012-10-02T19:07:05Z</time>
      </trkpt>
      <trkpt lat="59.4773198435" lon="17.8324949322">
        <ele>64.2</ele>
        <time>2012-10-02T19:07:06Z</time>
      </trkpt>
      <trkpt lat="59.4773318297" lon="17.832702049">
        <ele>63.8</ele>
        <time>2012-10-02T19:07:07Z</time>
      </trkpt>
      <trkpt lat="59.4773450731" lon="17.8329125185">
        <ele>63.2</ele>
        <time>2012-10-02T19:07:08Z</time>
      </trkpt>
      <trkpt lat="59.4773597414" lon="17.833129442">
        <ele>62.8</ele>
        <time>2012-10-02T19:07:09Z</time>
      </trkpt>
      <trkpt lat="59.4773743259" lon="17.8333524844">
        <ele>62.4</ele>
        <time>2012-10-02T19:07:10Z</time>
      </trkpt>
      <trkpt lat="59.477403914" lon="17.8337797098">
        <ele>61.8</ele>
        <time>2012-10-02T19:07:12Z</time>
      </trkpt>
      <trkpt lat="59.4774165707" lon="17.8339926101">
        <ele>61.2</ele>
        <time>2012-10-02T19:07:13Z</time>
      </trkpt>
      <trkpt lat="59.4774289759" lon="17.8342045884">
        <ele>60.8</ele>
        <time>2012-10-02T19:07:14Z</time>
      </trkpt>
      <trkpt lat="59.4774392856" lon="17.8344162313">
        <ele>60.2</ele>
        <time>2012-10-02T19:07:15Z</time>
      </trkpt>
      <trkpt lat="59.4774482543" lon="17.8346303051">
        <ele>59.6</ele>
        <time>2012-10-02T19:07:16Z</time>
      </trkpt>
      <trkpt lat="59.4774571391" lon="17.8348538503">
        <ele>59</ele>
        <time>2012-10-02T19:07:17Z</time>
      </trkpt>
      <trkpt lat="59.4774653533" lon="17.8350618891">
        <ele>58.2</ele>
        <time>2012-10-02T19:07:18Z</time>
      </trkpt>
      <trkpt lat="59.4774768365" lon="17.8352678324">
        <ele>57.6</ele>
        <time>2012-10-02T19:07:19Z</time>
      </trkpt>
      <trkpt lat="59.4774873139" lon="17.8354713449">
        <ele>57</ele>
        <time>2012-10-02T19:07:20Z</time>
      </trkpt>
      <trkpt lat="59.4774961149" lon="17.8356725105">
        <ele>56.6</ele>
        <time>2012-10-02T19:07:21Z</time>
      </trkpt>
      <trkpt lat="59.4775054188" lon="17.835872335">
        <ele>56</ele>
        <time>2012-10-02T19:07:22Z</time>
      </trkpt>
      <trkpt lat="59.4775137169" lon="17.8360703993">
        <ele>55.2</ele>
        <time>2012-10-02T19:07:23Z</time>
      </trkpt>
      <trkpt lat="59.4775219312" lon="17.8362666196">
        <ele>54.8</ele>
        <time>2012-10-02T19:07:24Z</time>
      </trkpt>
      <trkpt lat="59.4775459034" lon="17.8370750538">
        <ele>54.4</ele>
        <time>2012-10-02T19:07:28Z</time>
      </trkpt>
      <trkpt lat="59.4775520222" lon="17.8372704359">
        <ele>54</ele>
        <time>2012-10-02T19:07:29Z</time>
      </trkpt>
      <trkpt lat="59.477559985" lon="17.8374607889">
        <ele>53.4</ele>
        <time>2012-10-02T19:07:30Z</time>
      </trkpt>
      <trkpt lat="59.4775661038" lon="17.837649214">
        <ele>53</ele>
        <time>2012-10-02T19:07:31Z</time>
      </trkpt>
      <trkpt lat="59.4775728093" lon="17.8378450152">
        <ele>52.6</ele>
        <time>2012-10-02T19:07:32Z</time>
      </trkpt>
      <trkpt lat="59.4776018945" lon="17.8389290463">
        <ele>52.6</ele>
        <time>2012-10-02T19:07:38Z</time>
      </trkpt>
      <trkpt lat="59.4776054987" lon="17.8392872049">
        <ele>52.6</ele>
        <time>2012-10-02T19:07:40Z</time>
      </trkpt>
      <trkpt lat="59.4776241903" lon="17.8405066875">
        <ele>52.6</ele>
        <time>2012-10-02T19:07:47Z</time>
      </trkpt>
      <trkpt lat="59.4776296386" lon="17.8406788517">
        <ele>52.6</ele>
        <time>2012-10-02T19:07:48Z</time>
      </trkpt>
      <trkpt lat="59.4776477435" lon="17.8418612025">
        <ele>52.6</ele>
        <time>2012-10-02T19:07:55Z</time>
      </trkpt>
      <trkpt lat="59.4776284651" lon="17.8430184915">
        <ele>52.6</ele>
        <time>2012-10-02T19:08:02Z</time>
      </trkpt>
      <trkpt lat="59.4776175686" lon="17.8433432901">
        <ele>52.6</ele>
        <time>2012-10-02T19:08:04Z</time>
      </trkpt>
      <trkpt lat="59.4775582248" lon="17.8444719129">
        <ele>52.6</ele>
        <time>2012-10-02T19:08:11Z</time>
      </trkpt>
      <trkpt lat="59.4774926783" lon="17.845404567">
        <ele>52.6</ele>
        <time>2012-10-02T19:08:17Z</time>
      </trkpt>
      <trkpt lat="59.4774797702" lon="17.8455581234">
        <ele>52.6</ele>
        <time>2012-10-02T19:08:18Z</time>
      </trkpt>
      <trkpt lat="59.4773741583" lon="17.846677107">
        <ele>52.6</ele>
        <time>2012-10-02T19:08:25Z</time>
      </trkpt>
      <trkpt lat="59.4773584841" lon="17.8468382071">
        <ele>52.2</ele>
        <time>2012-10-02T19:08:26Z</time>
      </trkpt>
      <trkpt lat="59.477342307" lon="17.8470016542">
        <ele>51.8</ele>
        <time>2012-10-02T19:08:27Z</time>
      </trkpt>
      <trkpt lat="59.4773247889" lon="17.84716661">
        <ele>51.4</ele>
        <time>2012-10-02T19:08:28Z</time>
      </trkpt>
      <trkpt lat="59.4773082765" lon="17.8473323201">
        <ele>51</ele>
        <time>2012-10-02T19:08:29Z</time>
      </trkpt>
      <trkpt lat="59.4772914289" lon="17.8474988685">
        <ele>50.6</ele>
        <time>2012-10-02T19:08:30Z</time>
      </trkpt>
      <trkpt lat="59.477166371" lon="17.8485022657">
        <ele>50.6</ele>
        <time>2012-10-02T19:08:36Z</time>
      </trkpt>
      <trkpt lat="59.4771234556" lon="17.8488260585">
        <ele>50.2</ele>
        <time>2012-10-02T19:08:38Z</time>
      </trkpt>
      <trkpt lat="59.4771014951" lon="17.8489850632">
        <ele>49.8</ele>
        <time>2012-10-02T19:08:39Z</time>
      </trkpt>
      <trkpt lat="59.4770781095" lon="17.8491526174">
        <ele>49.2</ele>
        <time>2012-10-02T19:08:40Z</time>
      </trkpt>
      <trkpt lat="59.4770532991" lon="17.8493091074">
        <ele>48.8</ele>
        <time>2012-10-02T19:08:41Z</time>
      </trkpt>
      <trkpt lat="59.4770284049" lon="17.8494666871">
        <ele>48.4</ele>
        <time>2012-10-02T19:08:42Z</time>
      </trkpt>
      <trkpt lat="59.4769498665" lon="17.8499385881">
        <ele>48.4</ele>
        <time>2012-10-02T19:08:45Z</time>
      </trkpt>
      <trkpt lat="59.4769234635" lon="17.8500967546">
        <ele>48</ele>
        <time>2012-10-02T19:08:46Z</time>
      </trkpt>
      <trkpt lat="59.4768953841" lon="17.8502632191">
        <ele>47.4</ele>
        <time>2012-10-02T19:08:47Z</time>
      </trkpt>
      <trkpt lat="59.4768673048" lon="17.8504213856">
        <ele>47</ele>
        <time>2012-10-02T19:08:48Z</time>
      </trkpt>
      <trkpt lat="59.4768459309" lon="17.8505875148">
        <ele>46.4</ele>
        <time>2012-10-02T19:08:49Z</time>
      </trkpt>
      <trkpt lat="59.4768334419" lon="17.8507544823">
        <ele>46</ele>
        <time>2012-10-02T19:08:50Z</time>
      </trkpt>
      <trkpt lat="59.4768159237" lon="17.8509232099">
        <ele>46</ele>
        <time>2012-10-02T19:08:51Z</time>
      </trkpt>
      <trkpt lat="59.4767924544" lon="17.8510905126">
        <ele>45.6</ele>
        <time>2012-10-02T19:08:52Z</time>
      </trkpt>
      <trkpt lat="59.4767650456" lon="17.8512571448">
        <ele>45</ele>
        <time>2012-10-02T19:08:53Z</time>
      </trkpt>
      <trkpt lat="59.4767371339" lon="17.8514233579">
        <ele>44.6</ele>
        <time>2012-10-02T19:08:54Z</time>
      </trkpt>
      <trkpt lat="59.4767073781" lon="17.8516019762">
        <ele>44.2</ele>
        <time>2012-10-02T19:08:55Z</time>
      </trkpt>
      <trkpt lat="59.4766824001" lon="17.8517662614">
        <ele>43.8</ele>
        <time>2012-10-02T19:08:56Z</time>
      </trkpt>
      <trkpt lat="59.4765826554" lon="17.8523650643">
        <ele>43.2</ele>
        <time>2012-10-02T19:09:00Z</time>
      </trkpt>
      <trkpt lat="59.4765602758" lon="17.8524966602">
        <ele>42.8</ele>
        <time>2012-10-02T19:09:01Z</time>
      </trkpt>
      <trkpt lat="59.4765394048" lon="17.8526251547">
        <ele>42</ele>
        <time>2012-10-02T19:09:02Z</time>
      </trkpt>
      <trkpt lat="59.4765248203" lon="17.8527358796">
        <ele>41.6</ele>
        <time>2012-10-02T19:09:03Z</time>
      </trkpt>
      <trkpt lat="59.4765192045" lon="17.8528244763">
        <ele>41</ele>
        <time>2012-10-02T19:09:04Z</time>
      </trkpt>
      <trkpt lat="59.4765114093" lon="17.8528972312">
        <ele>40.6</ele>
        <time>2012-10-02T19:09:05Z</time>
      </trkpt>
      <trkpt lat="59.4765030274" lon="17.8529536414">
        <ele>40.2</ele>
        <time>2012-10-02T19:09:06Z</time>
      </trkpt>
      <trkpt lat="59.4764943102" lon="17.8529958861">
        <ele>39.6</ele>
        <time>2012-10-02T19:09:07Z</time>
      </trkpt>
      <trkpt lat="59.4764928015" lon="17.8530290785">
        <ele>39.2</ele>
        <time>2012-10-02T19:09:08Z</time>
      </trkpt>
      <trkpt lat="59.4764894487" lon="17.8531153282">
        <ele>39.2</ele>
        <time>2012-10-02T19:09:10Z</time>
      </trkpt>
      <trkpt lat="59.4765813982" lon="17.8533316651">
        <ele>39.2</ele>
        <time>2012-10-02T19:09:13Z</time>
      </trkpt>
      <trkpt lat="59.4767638721" lon="17.8534711399">
        <ele>39.2</ele>
        <time>2012-10-02T19:09:16Z</time>
      </trkpt>
      <trkpt lat="59.4768390578" lon="17.8535154801">
        <ele>39.2</ele>
        <time>2012-10-02T19:09:17Z</time>
      </trkpt>
      <trkpt lat="59.477165868" lon="17.8537149693">
        <ele>39.2</ele>
        <time>2012-10-02T19:09:21Z</time>
      </trkpt>
      <trkpt lat="59.4777298861" lon="17.8540487366">
        <ele>39.2</ele>
        <time>2012-10-02T19:09:28Z</time>
      </trkpt>
      <trkpt lat="59.4778090112" lon="17.8541016264">
        <ele>39.2</ele>
        <time>2012-10-02T19:09:29Z</time>
      </trkpt>
      <trkpt lat="59.478352326" lon="17.8544480503">
        <ele>39.2</ele>
        <time>2012-10-02T19:09:36Z</time>
      </trkpt>
      <trkpt lat="59.4785602809" lon="17.8545778859">
        <ele>39.2</ele>
        <time>2012-10-02T19:09:39Z</time>
      </trkpt>
      <trkpt lat="59.4786213012" lon="17.8546331227">
        <ele>38.8</ele>
        <time>2012-10-02T19:09:40Z</time>
      </trkpt>
      <trkpt lat="59.4786750291" lon="17.8547193724">
        <ele>38.2</ele>
        <time>2012-10-02T19:09:41Z</time>
      </trkpt>
      <trkpt lat="59.4787117419" lon="17.8548311031">
        <ele>37.8</ele>
        <time>2012-10-02T19:09:42Z</time>
      </trkpt>
      <trkpt lat="59.4787353788" lon="17.8549560773">
        <ele>37.4</ele>
        <time>2012-10-02T19:09:43Z</time>
      </trkpt>
      <trkpt lat="59.4787396536" lon="17.8550902715">
        <ele>37</ele>
        <time>2012-10-02T19:09:44Z</time>
      </trkpt>
      <trkpt lat="59.4787365523" lon="17.855218766">
        <ele>37</ele>
        <time>2012-10-02T19:09:45Z</time>
      </trkpt>
      <trkpt lat="59.4788196169" lon="17.8555496834">
        <ele>37</ele>
        <time>2012-10-02T19:09:48Z</time>
      </trkpt>
      <trkpt lat="59.4790229618" lon="17.8556454886">
        <ele>37</ele>
        <time>2012-10-02T19:09:51Z</time>
      </trkpt>
      <trkpt lat="59.4791706509" lon="17.8556522779">
        <ele>37</ele>
        <time>2012-10-02T19:09:53Z</time>
      </trkpt>
      <trkpt lat="59.4794745786" lon="17.855656385">
        <ele>37</ele>
        <time>2012-10-02T19:09:57Z</time>
      </trkpt>
      <trkpt lat="59.479994424" lon="17.8556284733">
        <ele>37</ele>
        <time>2012-10-02T19:10:04Z</time>
      </trkpt>
      <trkpt lat="59.4804963322" lon="17.8554648586">
        <ele>37</ele>
        <time>2012-10-02T19:10:11Z</time>
      </trkpt>
      <trkpt lat="59.4809262398" lon="17.855203511">
        <ele>37</ele>
        <time>2012-10-02T19:10:17Z</time>
      </trkpt>
      <trkpt lat="59.4813605061" lon="17.8549120723">
        <ele>37</ele>
        <time>2012-10-02T19:10:23Z</time>
      </trkpt>
      <trkpt lat="59.4818212591" lon="17.8547412492">
        <ele>37</ele>
        <time>2012-10-02T19:10:29Z</time>
      </trkpt>
      <trkpt lat="59.4823738778" lon="17.8547290954">
        <ele>37</ele>
        <time>2012-10-02T19:10:36Z</time>
      </trkpt>
      <trkpt lat="59.4829212997" lon="17.8547771237">
        <ele>37</ele>
        <time>2012-10-02T19:10:43Z</time>
      </trkpt>
      <trkpt lat="59.4829974911" lon="17.8547816499">
        <ele>37</ele>
        <time>2012-10-02T19:10:44Z</time>
      </trkpt>
      <trkpt lat="59.483230508" lon="17.8548162672">
        <ele>37</ele>
        <time>2012-10-02T19:10:47Z</time>
      </trkpt>
      <trkpt lat="59.4835427337" lon="17.8548474479">
        <ele>37</ele>
        <time>2012-10-02T19:10:51Z</time>
      </trkpt>
      <trkpt lat="59.484147404" lon="17.8549039419">
        <ele>37</ele>
        <time>2012-10-02T19:10:59Z</time>
      </trkpt>
      <trkpt lat="59.4842952607" lon="17.854922885">
        <ele>37</ele>
        <time>2012-10-02T19:11:01Z</time>
      </trkpt>
      <trkpt lat="59.484892052" lon="17.8549814744">
        <ele>37.4</ele>
        <time>2012-10-02T19:11:09Z</time>
      </trkpt>
      <trkpt lat="59.4849663995" lon="17.8549890181">
        <ele>37.8</ele>
        <time>2012-10-02T19:11:10Z</time>
      </trkpt>
      <trkpt lat="59.4850413336" lon="17.8549972324">
        <ele>38.2</ele>
        <time>2012-10-02T19:11:11Z</time>
      </trkpt>
      <trkpt lat="59.4851163517" lon="17.8550005852">
        <ele>38.6</ele>
        <time>2012-10-02T19:11:12Z</time>
      </trkpt>
      <trkpt lat="59.485193968" lon="17.8550045247">
        <ele>39</ele>
        <time>2012-10-02T19:11:13Z</time>
      </trkpt>
      <trkpt lat="59.48556076" lon="17.8550416565">
        <ele>39</ele>
        <time>2012-10-02T19:11:18Z</time>
      </trkpt>
      <trkpt lat="59.4859697129" lon="17.8550839013">
        <ele>39</ele>
        <time>2012-10-02T19:11:24Z</time>
      </trkpt>
      <trkpt lat="59.4863830244" lon="17.8551165907">
        <ele>39.4</ele>
        <time>2012-10-02T19:11:30Z</time>
      </trkpt>
      <trkpt lat="59.486451253" lon="17.855109466">
        <ele>39.8</ele>
        <time>2012-10-02T19:11:31Z</time>
      </trkpt>
      <trkpt lat="59.486519817" lon="17.8551020062">
        <ele>40.2</ele>
        <time>2012-10-02T19:11:32Z</time>
      </trkpt>
      <trkpt lat="59.4865889677" lon="17.8551031796">
        <ele>40.6</ele>
        <time>2012-10-02T19:11:33Z</time>
      </trkpt>
      <trkpt lat="59.4866623931" lon="17.8550891818">
        <ele>41.2</ele>
        <time>2012-10-02T19:11:34Z</time>
      </trkpt>
      <trkpt lat="59.4867313761" lon="17.8550727533">
        <ele>41.2</ele>
        <time>2012-10-02T19:11:35Z</time>
      </trkpt>
      <trkpt lat="59.4867964197" lon="17.8550544808">
        <ele>41.6</ele>
        <time>2012-10-02T19:11:36Z</time>
      </trkpt>
      <trkpt lat="59.4868603736" lon="17.8550350348">
        <ele>42</ele>
        <time>2012-10-02T19:11:37Z</time>
      </trkpt>
      <trkpt lat="59.4869227349" lon="17.8550128227">
        <ele>42.4</ele>
        <time>2012-10-02T19:11:38Z</time>
      </trkpt>
      <trkpt lat="59.4869850963" lon="17.8549905269">
        <ele>42.8</ele>
        <time>2012-10-02T19:11:39Z</time>
      </trkpt>
      <trkpt lat="59.4870446077" lon="17.8549616931">
        <ele>43.2</ele>
        <time>2012-10-02T19:11:40Z</time>
      </trkpt>
      <trkpt lat="59.4871643013" lon="17.854903858">
        <ele>43.2</ele>
        <time>2012-10-02T19:11:42Z</time>
      </trkpt>
      <trkpt lat="59.4874855795" lon="17.8547399081">
        <ele>43.6</ele>
        <time>2012-10-02T19:11:47Z</time>
      </trkpt>
      <trkpt lat="59.4875517965" lon="17.8547065481">
        <ele>44.2</ele>
        <time>2012-10-02T19:11:48Z</time>
      </trkpt>
      <trkpt lat="59.487618265" lon="17.854671428">
        <ele>44.6</ele>
        <time>2012-10-02T19:11:49Z</time>
      </trkpt>
      <trkpt lat="59.4876866613" lon="17.8546358049">
        <ele>45</ele>
        <time>2012-10-02T19:11:50Z</time>
      </trkpt>
      <trkpt lat="59.487752543" lon="17.8546005171">
        <ele>45.4</ele>
        <time>2012-10-02T19:11:51Z</time>
      </trkpt>
      <trkpt lat="59.4882727237" lon="17.8543349785">
        <ele>45.4</ele>
        <time>2012-10-02T19:11:59Z</time>
      </trkpt>
      <trkpt lat="59.488826432" lon="17.8540629858">
        <ele>45.4</ele>
        <time>2012-10-02T19:12:08Z</time>
      </trkpt>
      <trkpt lat="59.4892002648" lon="17.8538393567">
        <ele>45.8</ele>
        <time>2012-10-02T19:12:14Z</time>
      </trkpt>
      <trkpt lat="59.4893845828" lon="17.8537013907">
        <ele>47.2</ele>
        <time>2012-10-02T19:12:15Z</time>
      </trkpt>
      <trkpt lat="59.4894487043" lon="17.853652608">
        <ele>47.6</ele>
        <time>2012-10-02T19:12:18Z</time>
      </trkpt>
      <trkpt lat="59.4899048473" lon="17.8532535457">
        <ele>47.6</ele>
        <time>2012-10-02T19:12:25Z</time>
      </trkpt>
      <trkpt lat="59.4900884947" lon="17.8530823873">
        <ele>48</ele>
        <time>2012-10-02T19:12:28Z</time>
      </trkpt>
      <trkpt lat="59.4901540412" lon="17.8530241331">
        <ele>48.6</ele>
        <time>2012-10-02T19:12:29Z</time>
      </trkpt>
      <trkpt lat="59.4902159834" lon="17.8529663819">
        <ele>49</ele>
        <time>2012-10-02T19:12:30Z</time>
      </trkpt>
      <trkpt lat="59.490280105" lon="17.8529072056">
        <ele>49.4</ele>
        <time>2012-10-02T19:12:31Z</time>
      </trkpt>
      <trkpt lat="59.4903424663" lon="17.8528487838">
        <ele>49.8</ele>
        <time>2012-10-02T19:12:32Z</time>
      </trkpt>
      <trkpt lat="59.4904065878" lon="17.8527864225">
        <ele>49.8</ele>
        <time>2012-10-02T19:12:33Z</time>
      </trkpt>
      <trkpt lat="59.4909167941" lon="17.8523278487">
        <ele>49.8</ele>
        <time>2012-10-02T19:12:41Z</time>
      </trkpt>
      <trkpt lat="59.4909722823" lon="17.8522670799">
        <ele>49.8</ele>
        <time>2012-10-02T19:12:42Z</time>
      </trkpt>
      <trkpt lat="59.4913029482" lon="17.8519562791">
        <ele>49.8</ele>
        <time>2012-10-02T19:12:47Z</time>
      </trkpt>
      <trkpt lat="59.4917217079" lon="17.8515748188">
        <ele>49.8</ele>
        <time>2012-10-02T19:12:53Z</time>
      </trkpt>
      <trkpt lat="59.4922517793" lon="17.8511095395">
        <ele>49.8</ele>
        <time>2012-10-02T19:13:00Z</time>
      </trkpt>
      <trkpt lat="59.4927675176" lon="17.8507312644">
        <ele>49.8</ele>
        <time>2012-10-02T19:13:07Z</time>
      </trkpt>
      <trkpt lat="59.4928428709" lon="17.8506871756">
        <ele>49.8</ele>
        <time>2012-10-02T19:13:08Z</time>
      </trkpt>
      <trkpt lat="59.493370763" lon="17.8504659773">
        <ele>49.8</ele>
        <time>2012-10-02T19:13:15Z</time>
      </trkpt>
      <trkpt lat="59.4939098029" lon="17.8503604491">
        <ele>49.8</ele>
        <time>2012-10-02T19:13:22Z</time>
      </trkpt>
      <trkpt lat="59.4945110366" lon="17.8503576831">
        <ele>49.8</ele>
        <time>2012-10-02T19:13:30Z</time>
      </trkpt>
      <trkpt lat="59.4945863061" lon="17.8503513129">
        <ele>49.8</ele>
        <time>2012-10-02T19:13:31Z</time>
      </trkpt>
      <trkpt lat="59.4950865379" lon="17.8503418413">
        <ele>49.8</ele>
        <time>2012-10-02T19:13:38Z</time>
      </trkpt>
      <trkpt lat="59.4956291821" lon="17.8503237364">
        <ele>49.8</ele>
        <time>2012-10-02T19:13:46Z</time>
      </trkpt>
      <trkpt lat="59.4959613568" lon="17.8503409193">
        <ele>50.2</ele>
        <time>2012-10-02T19:13:51Z</time>
      </trkpt>
      <trkpt lat="59.4960310104" lon="17.8503379018">
        <ele>50.6</ele>
        <time>2012-10-02T19:13:52Z</time>
      </trkpt>
      <trkpt lat="59.4961020889" lon="17.8503376504">
        <ele>51</ele>
        <time>2012-10-02T19:13:53Z</time>
      </trkpt>
      <trkpt lat="59.4961718263" lon="17.8503353034">
        <ele>51.4</ele>
        <time>2012-10-02T19:13:54Z</time>
      </trkpt>
      <trkpt lat="59.4962418152" lon="17.8503348843">
        <ele>51.8</ele>
        <time>2012-10-02T19:13:55Z</time>
      </trkpt>
      <trkpt lat="59.4966612454" lon="17.8503410031">
        <ele>51.8</ele>
        <time>2012-10-02T19:14:01Z</time>
      </trkpt>
      <trkpt lat="59.497243536" lon="17.8504186195">
        <ele>51.8</ele>
        <time>2012-10-02T19:14:09Z</time>
      </trkpt>
      <trkpt lat="59.4973153689" lon="17.8504483753">
        <ele>51.8</ele>
        <time>2012-10-02T19:14:10Z</time>
      </trkpt>
      <trkpt lat="59.4977947298" lon="17.8507452622">
        <ele>51.8</ele>
        <time>2012-10-02T19:14:17Z</time>
      </trkpt>
      <trkpt lat="59.4983248849" lon="17.8512730704">
        <ele>51.8</ele>
        <time>2012-10-02T19:14:25Z</time>
      </trkpt>
      <trkpt lat="59.4988623324" lon="17.8518409441">
        <ele>51.8</ele>
        <time>2012-10-02T19:14:33Z</time>
      </trkpt>
      <trkpt lat="59.4989286332" lon="17.851908167">
        <ele>51.8</ele>
        <time>2012-10-02T19:14:34Z</time>
      </trkpt>
      <trkpt lat="59.4994071559" lon="17.8524085664">
        <ele>51.8</ele>
        <time>2012-10-02T19:14:41Z</time>
      </trkpt>
      <trkpt lat="59.499539087" lon="17.8525544115">
        <ele>51.8</ele>
        <time>2012-10-02T19:14:43Z</time>
      </trkpt>
      <trkpt lat="59.5000736846" lon="17.8530953793">
        <ele>51.8</ele>
        <time>2012-10-02T19:14:51Z</time>
      </trkpt>
      <trkpt lat="59.5003460125" lon="17.8533800286">
        <ele>52.2</ele>
        <time>2012-10-02T19:14:55Z</time>
      </trkpt>
      <trkpt lat="59.5004128162" lon="17.853449766">
        <ele>52.6</ele>
        <time>2012-10-02T19:14:56Z</time>
      </trkpt>
      <trkpt lat="59.5004809611" lon="17.8535143905">
        <ele>53</ele>
        <time>2012-10-02T19:14:57Z</time>
      </trkpt>
      <trkpt lat="59.5005455017" lon="17.8535833735">
        <ele>53.4</ele>
        <time>2012-10-02T19:14:58Z</time>
      </trkpt>
      <trkpt lat="59.5006110482" lon="17.8536527756">
        <ele>53.8</ele>
        <time>2012-10-02T19:14:59Z</time>
      </trkpt>
      <trkpt lat="59.5010068415" lon="17.8540764807">
        <ele>53.8</ele>
        <time>2012-10-02T19:15:05Z</time>
      </trkpt>
      <trkpt lat="59.5014582906" lon="17.8545473758">
        <ele>53.8</ele>
        <time>2012-10-02T19:15:12Z</time>
      </trkpt>
      <trkpt lat="59.5019710114" lon="17.8550916126">
        <ele>53.8</ele>
        <time>2012-10-02T19:15:20Z</time>
      </trkpt>
      <trkpt lat="59.5023709957" lon="17.8554953687">
        <ele>53.8</ele>
        <time>2012-10-02T19:15:26Z</time>
      </trkpt>
      <trkpt lat="59.502850608" lon="17.8559878053">
        <ele>53.8</ele>
        <time>2012-10-02T19:15:33Z</time>
      </trkpt>
      <trkpt lat="59.5029210998" lon="17.8560574589">
        <ele>53.8</ele>
        <time>2012-10-02T19:15:34Z</time>
      </trkpt>
      <trkpt lat="59.5034515064" lon="17.8566255003">
        <ele>53.8</ele>
        <time>2012-10-02T19:15:41Z</time>
      </trkpt>
      <trkpt lat="59.5035321403" lon="17.8567006021">
        <ele>53.4</ele>
        <time>2012-10-02T19:15:42Z</time>
      </trkpt>
      <trkpt lat="59.5036129418" lon="17.8567817389">
        <ele>53</ele>
        <time>2012-10-02T19:15:43Z</time>
      </trkpt>
      <trkpt lat="59.5036986887" lon="17.8568615346">
        <ele>52.4</ele>
        <time>2012-10-02T19:15:44Z</time>
      </trkpt>
      <trkpt lat="59.5037861119" lon="17.8569445154">
        <ele>52</ele>
        <time>2012-10-02T19:15:45Z</time>
      </trkpt>
      <trkpt lat="59.5038773908" lon="17.8570362972">
        <ele>51.4</ele>
        <time>2012-10-02T19:15:46Z</time>
      </trkpt>
      <trkpt lat="59.5039686697" lon="17.8571277437">
        <ele>51.4</ele>
        <time>2012-10-02T19:15:47Z</time>
      </trkpt>
      <trkpt lat="59.5042337054" lon="17.8573956293">
        <ele>51</ele>
        <time>2012-10-02T19:15:50Z</time>
      </trkpt>
      <trkpt lat="59.5043212962" lon="17.8574829687">
        <ele>50.4</ele>
        <time>2012-10-02T19:15:51Z</time>
      </trkpt>
      <trkpt lat="59.5044088871" lon="17.857568464">
        <ele>49.8</ele>
        <time>2012-10-02T19:15:52Z</time>
      </trkpt>
      <trkpt lat="59.5045005012" lon="17.85765924">
        <ele>49.2</ele>
        <time>2012-10-02T19:15:53Z</time>
      </trkpt>
      <trkpt lat="59.5046008326" lon="17.8577458251">
        <ele>48.6</ele>
        <time>2012-10-02T19:15:54Z</time>
      </trkpt>
      <trkpt lat="59.5047070312" lon="17.8578318233">
        <ele>47.8</ele>
        <time>2012-10-02T19:15:55Z</time>
      </trkpt>
      <trkpt lat="59.5048134814" lon="17.857935256">
        <ele>47.2</ele>
        <time>2012-10-02T19:15:56Z</time>
      </trkpt>
      <trkpt lat="59.5049214402" lon="17.8580396106">
        <ele>46.6</ele>
        <time>2012-10-02T19:15:57Z</time>
      </trkpt>
      <trkpt lat="59.50502437" lon="17.8581402773">
        <ele>46</ele>
        <time>2012-10-02T19:15:58Z</time>
      </trkpt>
      <trkpt lat="59.5051231926" lon="17.8582415306">
        <ele>45.4</ele>
        <time>2012-10-02T19:15:59Z</time>
      </trkpt>
      <trkpt lat="59.5052236916" lon="17.858340437">
        <ele>45</ele>
        <time>2012-10-02T19:16:00Z</time>
      </trkpt>
      <trkpt lat="59.5053255316" lon="17.8584421933">
        <ele>43.8</ele>
        <time>2012-10-02T19:16:01Z</time>
      </trkpt>
      <trkpt lat="59.5055182315" lon="17.8586343065">
        <ele>43.8</ele>
        <time>2012-10-02T19:16:03Z</time>
      </trkpt>
      <trkpt lat="59.5056114383" lon="17.8587239928">
        <ele>43.4</ele>
        <time>2012-10-02T19:16:04Z</time>
      </trkpt>
      <trkpt lat="59.5057014599" lon="17.8588204685">
        <ele>43</ele>
        <time>2012-10-02T19:16:05Z</time>
      </trkpt>
      <trkpt lat="59.5057910624" lon="17.8589278406">
        <ele>42.6</ele>
        <time>2012-10-02T19:16:06Z</time>
      </trkpt>
      <trkpt lat="59.5058800781" lon="17.8590331173">
        <ele>42.2</ele>
        <time>2012-10-02T19:16:07Z</time>
      </trkpt>
      <trkpt lat="59.5059685072" lon="17.8591401541">
        <ele>41.6</ele>
        <time>2012-10-02T19:16:08Z</time>
      </trkpt>
      <trkpt lat="59.506058445" lon="17.8592601829">
        <ele>41.2</ele>
        <time>2012-10-02T19:16:09Z</time>
      </trkpt>
      <trkpt lat="59.5061393303" lon="17.8593835645">
        <ele>40.8</ele>
        <time>2012-10-02T19:16:10Z</time>
      </trkpt>
      <trkpt lat="59.5062183716" lon="17.8595088739">
        <ele>40.4</ele>
        <time>2012-10-02T19:16:11Z</time>
      </trkpt>
      <trkpt lat="59.5062966586" lon="17.8596429843">
        <ele>39.8</ele>
        <time>2012-10-02T19:16:12Z</time>
      </trkpt>
      <trkpt lat="59.5063707546" lon="17.8597844708">
        <ele>39.2</ele>
        <time>2012-10-02T19:16:13Z</time>
      </trkpt>
      <trkpt lat="59.5064429227" lon="17.8599376919">
        <ele>38.8</ele>
        <time>2012-10-02T19:16:14Z</time>
      </trkpt>
      <trkpt lat="59.5065149233" lon="17.8600977024">
        <ele>38.2</ele>
        <time>2012-10-02T19:16:15Z</time>
      </trkpt>
      <trkpt lat="59.5065864209" lon="17.8602651727">
        <ele>37.6</ele>
        <time>2012-10-02T19:16:16Z</time>
      </trkpt>
      <trkpt lat="59.5066529731" lon="17.8604339842">
        <ele>37</ele>
        <time>2012-10-02T19:16:17Z</time>
      </trkpt>
      <trkpt lat="59.506716005" lon="17.8606088306">
        <ele>36.4</ele>
        <time>2012-10-02T19:16:18Z</time>
      </trkpt>
      <trkpt lat="59.5067784502" lon="17.8607870298">
        <ele>36</ele>
        <time>2012-10-02T19:16:19Z</time>
      </trkpt>
      <trkpt lat="59.5068339384" lon="17.8609724375">
        <ele>35.4</ele>
        <time>2012-10-02T19:16:20Z</time>
      </trkpt>
      <trkpt lat="59.5068854032" lon="17.8611613655">
        <ele>34.8</ele>
        <time>2012-10-02T19:16:21Z</time>
      </trkpt>
      <trkpt lat="59.5069367843" lon="17.8613474437">
        <ele>34.2</ele>
        <time>2012-10-02T19:16:22Z</time>
      </trkpt>
      <trkpt lat="59.5069855669" lon="17.8615364555">
        <ele>33.6</ele>
        <time>2012-10-02T19:16:23Z</time>
      </trkpt>
      <trkpt lat="59.507032757" lon="17.8617398842">
        <ele>33</ele>
        <time>2012-10-02T19:16:24Z</time>
      </trkpt>
      <trkpt lat="59.5070708947" lon="17.8619369427">
        <ele>32.6</ele>
        <time>2012-10-02T19:16:25Z</time>
      </trkpt>
      <trkpt lat="59.5071152349" lon="17.8621307322">
        <ele>31.4</ele>
        <time>2012-10-02T19:16:26Z</time>
      </trkpt>
      <trkpt lat="59.5071589885" lon="17.8623287127">
        <ele>30.8</ele>
        <time>2012-10-02T19:16:27Z</time>
      </trkpt>
      <trkpt lat="59.5072030772" lon="17.8625236757">
        <ele>30.4</ele>
        <time>2012-10-02T19:16:28Z</time>
      </trkpt>
      <trkpt lat="59.5072473337" lon="17.8627183872">
        <ele>29.8</ele>
        <time>2012-10-02T19:16:29Z</time>
      </trkpt>
      <trkpt lat="59.5072933503" lon="17.8629133502">
        <ele>29.2</ele>
        <time>2012-10-02T19:16:30Z</time>
      </trkpt>
      <trkpt lat="59.5073381097" lon="17.8631156055">
        <ele>28.4</ele>
        <time>2012-10-02T19:16:31Z</time>
      </trkpt>
      <trkpt lat="59.5073834557" lon="17.8633091435">
        <ele>27.8</ele>
        <time>2012-10-02T19:16:32Z</time>
      </trkpt>
      <trkpt lat="59.5074257005" lon="17.8634971496">
        <ele>27.4</ele>
        <time>2012-10-02T19:16:33Z</time>
      </trkpt>
      <trkpt lat="59.5074681129" lon="17.8636812161">
        <ele>26.8</ele>
        <time>2012-10-02T19:16:34Z</time>
      </trkpt>
      <trkpt lat="59.5075111121" lon="17.8638635224">
        <ele>26.2</ele>
        <time>2012-10-02T19:16:35Z</time>
      </trkpt>
      <trkpt lat="59.5075612358" lon="17.8640368601">
        <ele>25.6</ele>
        <time>2012-10-02T19:16:36Z</time>
      </trkpt>
      <trkpt lat="59.5075897343" lon="17.8642294762">
        <ele>25</ele>
        <time>2012-10-02T19:16:37Z</time>
      </trkpt>
      <trkpt lat="59.5076274528" lon="17.8644098546">
        <ele>25</ele>
        <time>2012-10-02T19:16:38Z</time>
      </trkpt>
      <trkpt lat="59.5076683565" lon="17.8645959328">
        <ele>24.6</ele>
        <time>2012-10-02T19:16:39Z</time>
      </trkpt>
      <trkpt lat="59.5077068294" lon="17.8647689352">
        <ele>24.2</ele>
        <time>2012-10-02T19:16:40Z</time>
      </trkpt>
      <trkpt lat="59.5077428716" lon="17.8649332205">
        <ele>23.8</ele>
        <time>2012-10-02T19:16:41Z</time>
      </trkpt>
      <trkpt lat="59.5077831885" lon="17.865095997">
        <ele>23.4</ele>
        <time>2012-10-02T19:16:42Z</time>
      </trkpt>
      <trkpt lat="59.5078207395" lon="17.8652493019">
        <ele>23</ele>
        <time>2012-10-02T19:16:43Z</time>
      </trkpt>
      <trkpt lat="59.5078548538" lon="17.8654029422">
        <ele>23</ele>
        <time>2012-10-02T19:16:44Z</time>
      </trkpt>
      <trkpt lat="59.5080441171" lon="17.8662321635">
        <ele>23</ele>
        <time>2012-10-02T19:16:50Z</time>
      </trkpt>
      <trkpt lat="59.5082110007" lon="17.8669368299">
        <ele>23</ele>
        <time>2012-10-02T19:16:55Z</time>
      </trkpt>
      <trkpt lat="59.5083844222" lon="17.8676026042">
        <ele>23</ele>
        <time>2012-10-02T19:17:00Z</time>
      </trkpt>
      <trkpt lat="59.508654068" lon="17.8685910816">
        <ele>23</ele>
        <time>2012-10-02T19:17:08Z</time>
      </trkpt>
      <trkpt lat="59.5086903616" lon="17.8687184027">
        <ele>23</ele>
        <time>2012-10-02T19:17:09Z</time>
      </trkpt>
      <trkpt lat="59.5089947922" lon="17.8696952293">
        <ele>23</ele>
        <time>2012-10-02T19:17:17Z</time>
      </trkpt>
      <trkpt lat="59.5093342591" lon="17.8706719721">
        <ele>23</ele>
        <time>2012-10-02T19:17:25Z</time>
      </trkpt>
      <trkpt lat="59.509376923" lon="17.8707907437">
        <ele>23</ele>
        <time>2012-10-02T19:17:26Z</time>
      </trkpt>
      <trkpt lat="59.5097007996" lon="17.871667658">
        <ele>23</ele>
        <time>2012-10-02T19:17:33Z</time>
      </trkpt>
      <trkpt lat="59.5100349022" lon="17.8724956221">
        <ele>22.6</ele>
        <time>2012-10-02T19:17:40Z</time>
      </trkpt>
      <trkpt lat="59.5100805835" lon="17.8726201772">
        <ele>22.2</ele>
        <time>2012-10-02T19:17:41Z</time>
      </trkpt>
      <trkpt lat="59.510128528" lon="17.8727307344">
        <ele>21.8</ele>
        <time>2012-10-02T19:17:42Z</time>
      </trkpt>
      <trkpt lat="59.5101764725" lon="17.8728351729">
        <ele>21.4</ele>
        <time>2012-10-02T19:17:43Z</time>
      </trkpt>
      <trkpt lat="59.5102222376" lon="17.8729386055">
        <ele>21</ele>
        <time>2012-10-02T19:17:44Z</time>
      </trkpt>
      <trkpt lat="59.510344781" lon="17.8732525077">
        <ele>21</ele>
        <time>2012-10-02T19:17:47Z</time>
      </trkpt>
      <trkpt lat="59.5104865189" lon="17.8734938226">
        <ele>21</ele>
        <time>2012-10-02T19:17:50Z</time>
      </trkpt>
      <trkpt lat="59.5105430968" lon="17.8735248356">
        <ele>21</ele>
        <time>2012-10-02T19:17:51Z</time>
      </trkpt>
      <trkpt lat="59.5107226371" lon="17.8734491471">
        <ele>21</ele>
        <time>2012-10-02T19:17:54Z</time>
      </trkpt>
      <trkpt lat="59.5108606869" lon="17.8731735502">
        <ele>21</ele>
        <time>2012-10-02T19:17:57Z</time>
      </trkpt>
      <trkpt lat="59.5109510438" lon="17.8726564708">
        <ele>21</ele>
        <time>2012-10-02T19:18:01Z</time>
      </trkpt>
      <trkpt lat="59.5109631138" lon="17.8725268866">
        <ele>21</ele>
        <time>2012-10-02T19:18:02Z</time>
      </trkpt>
      <trkpt lat="59.5110186019" lon="17.8720319354">
        <ele>21.4</ele>
        <time>2012-10-02T19:18:06Z</time>
      </trkpt>
      <trkpt lat="59.5110325997" lon="17.8719171034">
        <ele>21.8</ele>
        <time>2012-10-02T19:18:07Z</time>
      </trkpt>
      <trkpt lat="59.5110460108" lon="17.8717997568">
        <ele>22.2</ele>
        <time>2012-10-02T19:18:08Z</time>
      </trkpt>
      <trkpt lat="59.5110548956" lon="17.8716794765">
        <ele>22.6</ele>
        <time>2012-10-02T19:18:09Z</time>
      </trkpt>
      <trkpt lat="59.5110590027" lon="17.8715905446">
        <ele>23</ele>
        <time>2012-10-02T19:18:10Z</time>
      </trkpt>
      <trkpt lat="59.5110768561" lon="17.8714051369">
        <ele>23</ele>
        <time>2012-10-02T19:18:12Z</time>
      </trkpt>
      <trkpt lat="59.511090351" lon="17.8713106729">
        <ele>23</ele>
        <time>2012-10-02T19:18:13Z</time>
      </trkpt>
      <trkpt lat="59.5112152413" lon="17.8711285342">
        <ele>23</ele>
        <time>2012-10-02T19:18:16Z</time>
      </trkpt>
      <trkpt lat="59.5113869026" lon="17.8712349005">
        <ele>23</ele>
        <time>2012-10-02T19:18:19Z</time>
      </trkpt>
      <trkpt lat="59.5114449892" lon="17.8712816715">
        <ele>23</ele>
        <time>2012-10-02T19:18:20Z</time>
      </trkpt>
      <trkpt lat="59.511623356" lon="17.871370855">
        <ele>23.4</ele>
        <time>2012-10-02T19:18:23Z</time>
      </trkpt>
      <trkpt lat="59.5116866394" lon="17.8713954139">
        <ele>23.8</ele>
        <time>2012-10-02T19:18:24Z</time>
      </trkpt>
      <trkpt lat="59.5117477434" lon="17.8714136865">
        <ele>24.2</ele>
        <time>2012-10-02T19:18:25Z</time>
      </trkpt>
      <trkpt lat="59.5118052433" lon="17.8714265946">
        <ele>24.6</ele>
        <time>2012-10-02T19:18:26Z</time>
      </trkpt>
      <trkpt lat="59.5118651738" lon="17.8714350603">
        <ele>25.2</ele>
        <time>2012-10-02T19:18:27Z</time>
      </trkpt>
      <trkpt lat="59.5120981907" lon="17.8714621339">
        <ele>25.2</ele>
        <time>2012-10-02T19:18:31Z</time>
      </trkpt>
      <trkpt lat="59.5125027012" lon="17.871503289">
        <ele>25.2</ele>
        <time>2012-10-02T19:18:38Z</time>
      </trkpt>
      <trkpt lat="59.5127564213" lon="17.8715255848">
        <ele>25.2</ele>
        <time>2012-10-02T19:18:42Z</time>
      </trkpt>
      <trkpt lat="59.5128852511" lon="17.8715599506">
        <ele>25.2</ele>
        <time>2012-10-02T19:18:44Z</time>
      </trkpt>
      <trkpt lat="59.5129448464" lon="17.8715723558">
        <ele>25.6</ele>
        <time>2012-10-02T19:18:45Z</time>
      </trkpt>
      <trkpt lat="59.5130045255" lon="17.8715869403">
        <ele>26</ele>
        <time>2012-10-02T19:18:46Z</time>
      </trkpt>
      <trkpt lat="59.5130657134" lon="17.8716006867">
        <ele>26.4</ele>
        <time>2012-10-02T19:18:47Z</time>
      </trkpt>
      <trkpt lat="59.51312841" lon="17.8716120022">
        <ele>26.8</ele>
        <time>2012-10-02T19:18:48Z</time>
      </trkpt>
      <trkpt lat="59.5131896817" lon="17.8716257485">
        <ele>27.2</ele>
        <time>2012-10-02T19:18:49Z</time>
      </trkpt>
      <trkpt lat="59.5132519592" lon="17.8716185401">
        <ele>27.2</ele>
        <time>2012-10-02T19:18:50Z</time>
      </trkpt>
      <trkpt lat="59.5133082856" lon="17.8715859345">
        <ele>27.2</ele>
        <time>2012-10-02T19:18:51Z</time>
      </trkpt>
      <trkpt lat="59.5134222794" lon="17.8713476371">
        <ele>27.2</ele>
        <time>2012-10-02T19:18:54Z</time>
      </trkpt>
      <trkpt lat="59.5134537115" lon="17.87107028">
        <ele>27.2</ele>
        <time>2012-10-02T19:18:57Z</time>
      </trkpt>
      <trkpt lat="59.5134525381" lon="17.870987383">
        <ele>27.6</ele>
        <time>2012-10-02T19:18:58Z</time>
      </trkpt>
      <trkpt lat="59.5134470898" lon="17.8709198249">
        <ele>28</ele>
        <time>2012-10-02T19:18:59Z</time>
      </trkpt>
      <trkpt lat="59.5134475927" lon="17.8708508419">
        <ele>28.4</ele>
        <time>2012-10-02T19:19:00Z</time>
      </trkpt>
      <trkpt lat="59.5134475927" lon="17.8707806854">
        <ele>29</ele>
        <time>2012-10-02T19:19:01Z</time>
      </trkpt>
      <trkpt lat="59.5134509455" lon="17.8707165638">
        <ele>29.4</ele>
        <time>2012-10-02T19:19:02Z</time>
      </trkpt>
      <trkpt lat="59.5134506102" lon="17.8706461559">
        <ele>29.8</ele>
        <time>2012-10-02T19:19:03Z</time>
      </trkpt>
      <trkpt lat="59.5134527895" lon="17.870580358">
        <ele>30.2</ele>
        <time>2012-10-02T19:19:04Z</time>
      </trkpt>
      <trkpt lat="59.5134514484" lon="17.8705179966">
        <ele>30.6</ele>
        <time>2012-10-02T19:19:05Z</time>
      </trkpt>
      <trkpt lat="59.5134494368" lon="17.8704558868">
        <ele>31</ele>
        <time>2012-10-02T19:19:06Z</time>
      </trkpt>
      <trkpt lat="59.5134474251" lon="17.8703945312">
        <ele>31.4</ele>
        <time>2012-10-02T19:19:07Z</time>
      </trkpt>
      <trkpt lat="59.5134413901" lon="17.8702684675">
        <ele>31.8</ele>
        <time>2012-10-02T19:19:09Z</time>
      </trkpt>
      <trkpt lat="59.5134385403" lon="17.8702087883">
        <ele>32.2</ele>
        <time>2012-10-02T19:19:10Z</time>
      </trkpt>
      <trkpt lat="59.513438205" lon="17.8701460079">
        <ele>32.6</ele>
        <time>2012-10-02T19:19:11Z</time>
      </trkpt>
      <trkpt lat="59.5134366125" lon="17.8700841495">
        <ele>33</ele>
        <time>2012-10-02T19:19:12Z</time>
      </trkpt>
      <trkpt lat="59.5134324215" lon="17.8700191059">
        <ele>33.6</ele>
        <time>2012-10-02T19:19:13Z</time>
      </trkpt>
      <trkpt lat="59.5134355228" lon="17.8698045293">
        <ele>33.6</ele>
        <time>2012-10-02T19:19:16Z</time>
      </trkpt>
      <trkpt lat="59.5134348523" lon="17.8696284256">
        <ele>34</ele>
        <time>2012-10-02T19:19:18Z</time>
      </trkpt>
      <trkpt lat="59.5134289849" lon="17.8695370629">
        <ele>34.4</ele>
        <time>2012-10-02T19:19:19Z</time>
      </trkpt>
      <trkpt lat="59.5134296555" lon="17.8694521542">
        <ele>34.8</ele>
        <time>2012-10-02T19:19:20Z</time>
      </trkpt>
      <trkpt lat="59.5134269733" lon="17.8693550918">
        <ele>35.6</ele>
        <time>2012-10-02T19:19:21Z</time>
      </trkpt>
      <trkpt lat="59.5134309128" lon="17.8692632262">
        <ele>35.6</ele>
        <time>2012-10-02T19:19:22Z</time>
      </trkpt>
      <trkpt lat="59.5134252131" lon="17.8688411137">
        <ele>36</ele>
        <time>2012-10-02T19:19:26Z</time>
      </trkpt>
      <trkpt lat="59.5134309966" lon="17.8687358371">
        <ele>36.6</ele>
        <time>2012-10-02T19:19:27Z</time>
      </trkpt>
      <trkpt lat="59.5134379536" lon="17.868632153">
        <ele>37</ele>
        <time>2012-10-02T19:19:28Z</time>
      </trkpt>
      <trkpt lat="59.5134477604" lon="17.8685287203">
        <ele>37.4</ele>
        <time>2012-10-02T19:19:29Z</time>
      </trkpt>
      <trkpt lat="59.5134622611" lon="17.86842051">
        <ele>38</ele>
        <time>2012-10-02T19:19:30Z</time>
      </trkpt>
      <trkpt lat="59.5134901728" lon="17.8683201786">
        <ele>38</ele>
        <time>2012-10-02T19:19:31Z</time>
      </trkpt>
      <trkpt lat="59.5136476687" lon="17.8680121438">
        <ele>38</ele>
        <time>2012-10-02T19:19:35Z</time>
      </trkpt>
      <trkpt lat="59.513742468" lon="17.8679032629">
        <ele>38.4</ele>
        <time>2012-10-02T19:19:37Z</time>
      </trkpt>
      <trkpt lat="59.5137924241" lon="17.8678531392">
        <ele>38.8</ele>
        <time>2012-10-02T19:19:38Z</time>
      </trkpt>
      <trkpt lat="59.5138491696" lon="17.8678126546">
        <ele>39.2</ele>
        <time>2012-10-02T19:19:39Z</time>
      </trkpt>
      <trkpt lat="59.5139091002" lon="17.8677655483">
        <ele>39.6</ele>
        <time>2012-10-02T19:19:40Z</time>
      </trkpt>
      <trkpt lat="59.5139655103" lon="17.8677137482">
        <ele>40.2</ele>
        <time>2012-10-02T19:19:41Z</time>
      </trkpt>
      <trkpt lat="59.5143086653" lon="17.8673594453">
        <ele>40.2</ele>
        <time>2012-10-02T19:19:47Z</time>
      </trkpt>
      <trkpt lat="59.5144965875" lon="17.8670248398">
        <ele>40.2</ele>
        <time>2012-10-02T19:19:51Z</time>
      </trkpt>
      <trkpt lat="59.5145321268" lon="17.8669161266">
        <ele>40.2</ele>
        <time>2012-10-02T19:19:52Z</time>
      </trkpt>
      <trkpt lat="59.5146151914" lon="17.8665341634">
        <ele>40.2</ele>
        <time>2012-10-02T19:19:55Z</time>
      </trkpt>
      <trkpt lat="59.5146710987" lon="17.866262506">
        <ele>40.2</ele>
        <time>2012-10-02T19:19:57Z</time>
      </trkpt>
      <trkpt lat="59.5147430992" lon="17.8660381225">
        <ele>40.2</ele>
        <time>2012-10-02T19:19:59Z</time>
      </trkpt>
      <trkpt lat="59.5148392396" lon="17.8658483563">
        <ele>40.2</ele>
        <time>2012-10-02T19:20:01Z</time>
      </trkpt>
      <trkpt lat="59.5150926244" lon="17.8653107413">
        <ele>40.2</ele>
        <time>2012-10-02T19:20:07Z</time>
      </trkpt>
      <trkpt lat="59.5152255614" lon="17.8650327975">
        <ele>40.6</ele>
        <time>2012-10-02T19:20:10Z</time>
      </trkpt>
      <trkpt lat="59.5152693149" lon="17.864935316">
        <ele>41.2</ele>
        <time>2012-10-02T19:20:11Z</time>
      </trkpt>
      <trkpt lat="59.5153134875" lon="17.864838505">
        <ele>41.6</ele>
        <time>2012-10-02T19:20:12Z</time>
      </trkpt>
      <trkpt lat="59.5153629407" lon="17.8647325578">
        <ele>42.2</ele>
        <time>2012-10-02T19:20:13Z</time>
      </trkpt>
      <trkpt lat="59.5154134836" lon="17.8646299633">
        <ele>42.6</ele>
        <time>2012-10-02T19:20:14Z</time>
      </trkpt>
      <trkpt lat="59.5155408885" lon="17.8644127045">
        <ele>42.6</ele>
        <time>2012-10-02T19:20:16Z</time>
      </trkpt>
      <trkpt lat="59.5156922656" lon="17.8641955295">
        <ele>42.2</ele>
        <time>2012-10-02T19:20:18Z</time>
      </trkpt>
      <trkpt lat="59.51576896" lon="17.8641008978">
        <ele>41.6</ele>
        <time>2012-10-02T19:20:19Z</time>
      </trkpt>
      <trkpt lat="59.5158401223" lon="17.8640015723">
        <ele>41.2</ele>
        <time>2012-10-02T19:20:20Z</time>
      </trkpt>
      <trkpt lat="59.5159039085" lon="17.8638899254">
        <ele>40.8</ele>
        <time>2012-10-02T19:20:21Z</time>
      </trkpt>
      <trkpt lat="59.5159539485" lon="17.8637776918">
        <ele>40.2</ele>
        <time>2012-10-02T19:20:22Z</time>
      </trkpt>
      <trkpt lat="59.5159994622" lon="17.8636579144">
        <ele>40.2</ele>
        <time>2012-10-02T19:20:23Z</time>
      </trkpt>
      <trkpt lat="59.5160664336" lon="17.8632436809">
        <ele>39.8</ele>
        <time>2012-10-02T19:20:26Z</time>
      </trkpt>
      <trkpt lat="59.5160732229" lon="17.8631078941">
        <ele>39.4</ele>
        <time>2012-10-02T19:20:27Z</time>
      </trkpt>
      <trkpt lat="59.5160749831" lon="17.8629628034">
        <ele>39</ele>
        <time>2012-10-02T19:20:28Z</time>
      </trkpt>
      <trkpt lat="59.5160722171" lon="17.8628128512">
        <ele>38.6</ele>
        <time>2012-10-02T19:20:29Z</time>
      </trkpt>
      <trkpt lat="59.5160691158" lon="17.8626570317">
        <ele>38.2</ele>
        <time>2012-10-02T19:20:30Z</time>
      </trkpt>
      <trkpt lat="59.516002312" lon="17.8617723222">
        <ele>38.2</ele>
        <time>2012-10-02T19:20:36Z</time>
      </trkpt>
      <trkpt lat="59.5158931797" lon="17.8606624748">
        <ele>38.2</ele>
        <time>2012-10-02T19:20:44Z</time>
      </trkpt>
      <trkpt lat="59.5158820318" lon="17.8596825469">
        <ele>38.2</ele>
        <time>2012-10-02T19:20:50Z</time>
      </trkpt>
      <trkpt lat="59.5159209238" lon="17.8589621226">
        <ele>38.2</ele>
        <time>2012-10-02T19:20:55Z</time>
      </trkpt>
      <trkpt lat="59.5159131286" lon="17.8584824264">
        <ele>38.2</ele>
        <time>2012-10-02T19:20:58Z</time>
      </trkpt>
      <trkpt lat="59.5159047467" lon="17.8583520041">
        <ele>38.2</ele>
        <time>2012-10-02T19:21:00Z</time>
      </trkpt>
      <trkpt lat="59.5158172397" lon="17.8575934421">
        <ele>38.2</ele>
        <time>2012-10-02T19:21:06Z</time>
      </trkpt>
      <trkpt lat="59.5158100313" lon="17.8574585773">
        <ele>38.2</ele>
        <time>2012-10-02T19:21:07Z</time>
      </trkpt>
      <trkpt lat="59.5157765875" lon="17.8568672343">
        <ele>38.2</ele>
        <time>2012-10-02T19:21:11Z</time>
      </trkpt>
      <trkpt lat="59.5157830415" lon="17.8566957406">
        <ele>38.2</ele>
        <time>2012-10-02T19:21:12Z</time>
      </trkpt>
      <trkpt lat="59.5157975422" lon="17.8565289408">
        <ele>37.8</ele>
        <time>2012-10-02T19:21:13Z</time>
      </trkpt>
      <trkpt lat="59.5158236099" lon="17.8563614704">
        <ele>37.4</ele>
        <time>2012-10-02T19:21:14Z</time>
      </trkpt>
      <trkpt lat="59.515856467" lon="17.8561883004">
        <ele>36.8</ele>
        <time>2012-10-02T19:21:15Z</time>
      </trkpt>
      <trkpt lat="59.5159035733" lon="17.8560267812">
        <ele>36.4</ele>
        <time>2012-10-02T19:21:16Z</time>
      </trkpt>
      <trkpt lat="59.5159599835" lon="17.8558717999">
        <ele>35.8</ele>
        <time>2012-10-02T19:21:17Z</time>
      </trkpt>
      <trkpt lat="59.5160217581" lon="17.855724446">
        <ele>35.2</ele>
        <time>2012-10-02T19:21:18Z</time>
      </trkpt>
      <trkpt lat="59.5160792579" lon="17.8555803612">
        <ele>34.6</ele>
        <time>2012-10-02T19:21:19Z</time>
      </trkpt>
      <trkpt lat="59.5161305551" lon="17.8554378689">
        <ele>34</ele>
        <time>2012-10-02T19:21:20Z</time>
      </trkpt>
      <trkpt lat="59.5161736381" lon="17.8552813788">
        <ele>33.4</ele>
        <time>2012-10-02T19:21:21Z</time>
      </trkpt>
      <trkpt lat="59.5162038967" lon="17.8551201111">
        <ele>32.8</ele>
        <time>2012-10-02T19:21:22Z</time>
      </trkpt>
      <trkpt lat="59.5162354127" lon="17.854951132">
        <ele>32.2</ele>
        <time>2012-10-02T19:21:23Z</time>
      </trkpt>
      <trkpt lat="59.5162603907" lon="17.8547755312">
        <ele>31.6</ele>
        <time>2012-10-02T19:21:24Z</time>
      </trkpt>
      <trkpt lat="59.5162841953" lon="17.8545850106">
        <ele>30.6</ele>
        <time>2012-10-02T19:21:25Z</time>
      </trkpt>
      <trkpt lat="59.5163109336" lon="17.8544165344">
        <ele>30</ele>
        <time>2012-10-02T19:21:26Z</time>
      </trkpt>
      <trkpt lat="59.5163461376" lon="17.8542546799">
        <ele>29.4</ele>
        <time>2012-10-02T19:21:27Z</time>
      </trkpt>
      <trkpt lat="59.5163926571" lon="17.8541011235">
        <ele>28.6</ele>
        <time>2012-10-02T19:21:28Z</time>
      </trkpt>
      <trkpt lat="59.5164516657" lon="17.8539603076">
        <ele>28</ele>
        <time>2012-10-02T19:21:29Z</time>
      </trkpt>
      <trkpt lat="59.5165165416" lon="17.8538318968">
        <ele>27.4</ele>
        <time>2012-10-02T19:21:30Z</time>
      </trkpt>
      <trkpt lat="59.5165727842" lon="17.8537120357">
        <ele>26.8</ele>
        <time>2012-10-02T19:21:31Z</time>
      </trkpt>
      <trkpt lat="59.5166434436" lon="17.8535943538">
        <ele>26.8</ele>
        <time>2012-10-02T19:21:32Z</time>
      </trkpt>
      <trkpt lat="59.5167111693" lon="17.8534925137">
        <ele>26.4</ele>
        <time>2012-10-02T19:21:33Z</time>
      </trkpt>
      <trkpt lat="59.5167770511" lon="17.8534072698">
        <ele>26</ele>
        <time>2012-10-02T19:21:34Z</time>
      </trkpt>
      <trkpt lat="59.5168453635" lon="17.8533223611">
        <ele>25.6</ele>
        <time>2012-10-02T19:21:35Z</time>
      </trkpt>
      <trkpt lat="59.5169091498" lon="17.8532415596">
        <ele>25.2</ele>
        <time>2012-10-02T19:21:36Z</time>
      </trkpt>
      <trkpt lat="59.5169689966" lon="17.8531635241">
        <ele>24.8</ele>
        <time>2012-10-02T19:21:37Z</time>
      </trkpt>
      <trkpt lat="59.517064215" lon="17.8529879233">
        <ele>24.8</ele>
        <time>2012-10-02T19:21:39Z</time>
      </trkpt>
      <trkpt lat="59.5171066274" lon="17.8528861671">
        <ele>24.8</ele>
        <time>2012-10-02T19:21:40Z</time>
      </trkpt>
      <trkpt lat="59.5173085473" lon="17.8524104942">
        <ele>24.8</ele>
        <time>2012-10-02T19:21:44Z</time>
      </trkpt>
      <trkpt lat="59.5173626106" lon="17.852283257">
        <ele>24.2</ele>
        <time>2012-10-02T19:21:45Z</time>
      </trkpt>
      <trkpt lat="59.5174210324" lon="17.8521654913">
        <ele>23.8</ele>
        <time>2012-10-02T19:21:46Z</time>
      </trkpt>
      <trkpt lat="59.51748331" lon="17.8520603823">
        <ele>23.4</ele>
        <time>2012-10-02T19:21:47Z</time>
      </trkpt>
      <trkpt lat="59.5175478506" lon="17.8519515852">
        <ele>23</ele>
        <time>2012-10-02T19:21:48Z</time>
      </trkpt>
      <trkpt lat="59.5176131456" lon="17.8518599711">
        <ele>22.6</ele>
        <time>2012-10-02T19:21:49Z</time>
      </trkpt>
      <trkpt lat="59.5178985493" lon="17.8514820312">
        <ele>22</ele>
        <time>2012-10-02T19:21:53Z</time>
      </trkpt>
      <trkpt lat="59.5179747408" lon="17.8514003077">
        <ele>21.6</ele>
        <time>2012-10-02T19:21:54Z</time>
      </trkpt>
      <trkpt lat="59.5180531953" lon="17.8513280557">
        <ele>21.2</ele>
        <time>2012-10-02T19:21:55Z</time>
      </trkpt>
      <trkpt lat="59.5181366791" lon="17.8512568095">
        <ele>20.8</ele>
        <time>2012-10-02T19:21:56Z</time>
      </trkpt>
      <trkpt lat="59.518214044" lon="17.8512002317">
        <ele>20.4</ele>
        <time>2012-10-02T19:21:57Z</time>
      </trkpt>
      <trkpt lat="59.5185133616" lon="17.8509675502">
        <ele>20</ele>
        <time>2012-10-02T19:22:01Z</time>
      </trkpt>
      <trkpt lat="59.518584524" lon="17.8509137384">
        <ele>19.6</ele>
        <time>2012-10-02T19:22:02Z</time>
      </trkpt>
      <trkpt lat="59.5186561892" lon="17.8508612677">
        <ele>19.2</ele>
        <time>2012-10-02T19:22:03Z</time>
      </trkpt>
      <trkpt lat="59.5187328836" lon="17.8508139099">
        <ele>18.8</ele>
        <time>2012-10-02T19:22:04Z</time>
      </trkpt>
      <trkpt lat="59.5188069796" lon="17.8507813043">
        <ele>18.4</ele>
        <time>2012-10-02T19:22:05Z</time>
      </trkpt>
      <trkpt lat="59.5189560936" lon="17.8507400654">
        <ele>18.4</ele>
        <time>2012-10-02T19:22:07Z</time>
      </trkpt>
      <trkpt lat="59.5194326046" lon="17.8506374709">
        <ele>18.4</ele>
        <time>2012-10-02T19:22:13Z</time>
      </trkpt>
      <trkpt lat="59.5195640328" lon="17.8505598545">
        <ele>18.4</ele>
        <time>2012-10-02T19:22:15Z</time>
      </trkpt>
      <trkpt lat="59.5196805412" lon="17.8504731857">
        <ele>18.4</ele>
        <time>2012-10-02T19:22:17Z</time>
      </trkpt>
      <trkpt lat="59.5200389513" lon="17.8501615467">
        <ele>18.4</ele>
        <time>2012-10-02T19:22:23Z</time>
      </trkpt>
      <trkpt lat="59.520342879" lon="17.8497506659">
        <ele>18.4</ele>
        <time>2012-10-02T19:22:28Z</time>
      </trkpt>
      <trkpt lat="59.5206530093" lon="17.8492684552">
        <ele>18.4</ele>
        <time>2012-10-02T19:22:34Z</time>
      </trkpt>
      <trkpt lat="59.5208773089" lon="17.8488600052">
        <ele>18.4</ele>
        <time>2012-10-02T19:22:39Z</time>
      </trkpt>
      <trkpt lat="59.5212044545" lon="17.8482499705">
        <ele>18.4</ele>
        <time>2012-10-02T19:22:46Z</time>
      </trkpt>
      <trkpt lat="59.5213083062" lon="17.848111753">
        <ele>18.4</ele>
        <time>2012-10-02T19:22:48Z</time>
      </trkpt>
      <trkpt lat="59.5213619504" lon="17.8480338852">
        <ele>18.8</ele>
        <time>2012-10-02T19:22:49Z</time>
      </trkpt>
      <trkpt lat="59.5214137505" lon="17.8479549277">
        <ele>19.2</ele>
        <time>2012-10-02T19:22:50Z</time>
      </trkpt>
      <trkpt lat="59.5214641257" lon="17.8478748805">
        <ele>19.6</ele>
        <time>2012-10-02T19:22:51Z</time>
      </trkpt>
      <trkpt lat="59.5215142495" lon="17.847789469">
        <ele>20</ele>
        <time>2012-10-02T19:22:52Z</time>
      </trkpt>
      <trkpt lat="59.5215681451" lon="17.8477037221">
        <ele>20.4</ele>
        <time>2012-10-02T19:22:53Z</time>
      </trkpt>
      <trkpt lat="59.5218019163" lon="17.8472298095">
        <ele>20.4</ele>
        <time>2012-10-02T19:22:58Z</time>
      </trkpt>
      <trkpt lat="59.5222013138" lon="17.8464524721">
        <ele>20.4</ele>
        <time>2012-10-02T19:23:06Z</time>
      </trkpt>
      <trkpt lat="59.5225810139" lon="17.8458301998">
        <ele>20.4</ele>
        <time>2012-10-02T19:23:13Z</time>
      </trkpt>
      <trkpt lat="59.5228364942" lon="17.8453807624">
        <ele>20</ele>
        <time>2012-10-02T19:23:18Z</time>
      </trkpt>
      <trkpt lat="59.5228908927" lon="17.8452860469">
        <ele>19.6</ele>
        <time>2012-10-02T19:23:19Z</time>
      </trkpt>
      <trkpt lat="59.5229410165" lon="17.8451951871">
        <ele>19.2</ele>
        <time>2012-10-02T19:23:20Z</time>
      </trkpt>
      <trkpt lat="59.522993571" lon="17.8451051655">
        <ele>18.8</ele>
        <time>2012-10-02T19:23:21Z</time>
      </trkpt>
      <trkpt lat="59.5230488916" lon="17.8450195025">
        <ele>18.4</ele>
        <time>2012-10-02T19:23:22Z</time>
      </trkpt>
      <trkpt lat="59.5233379833" lon="17.8446407244">
        <ele>18.4</ele>
        <time>2012-10-02T19:23:27Z</time>
      </trkpt>
      <trkpt lat="59.5236925377" lon="17.8442607729">
        <ele>18.4</ele>
        <time>2012-10-02T19:23:33Z</time>
      </trkpt>
      <trkpt lat="59.5240801167" lon="17.8438286859">
        <ele>18.4</ele>
        <time>2012-10-02T19:23:39Z</time>
      </trkpt>
      <trkpt lat="59.5244384429" lon="17.8436051407">
        <ele>18.4</ele>
        <time>2012-10-02T19:23:44Z</time>
      </trkpt>
      <trkpt lat="59.5249464699" lon="17.8434763109">
        <ele>18.4</ele>
        <time>2012-10-02T19:23:51Z</time>
      </trkpt>
      <trkpt lat="59.5254658962" lon="17.8434422803">
        <ele>18.4</ele>
        <time>2012-10-02T19:23:58Z</time>
      </trkpt>
      <trkpt lat="59.5258919482" lon="17.843392408">
        <ele>18.4</ele>
        <time>2012-10-02T19:24:04Z</time>
      </trkpt>
      <trkpt lat="59.5259631944" lon="17.8433851158">
        <ele>18.8</ele>
        <time>2012-10-02T19:24:05Z</time>
      </trkpt>
      <trkpt lat="59.5260344405" lon="17.8433731297">
        <ele>19.2</ele>
        <time>2012-10-02T19:24:06Z</time>
      </trkpt>
      <trkpt lat="59.5261025854" lon="17.8433552762">
        <ele>19.6</ele>
        <time>2012-10-02T19:24:07Z</time>
      </trkpt>
      <trkpt lat="59.5261698082" lon="17.843348906">
        <ele>20</ele>
        <time>2012-10-02T19:24:08Z</time>
      </trkpt>
      <trkpt lat="59.5262394618" lon="17.8433363331">
        <ele>20.4</ele>
        <time>2012-10-02T19:24:09Z</time>
      </trkpt>
      <trkpt lat="59.5263896654" lon="17.8433222515">
        <ele>20.4</ele>
        <time>2012-10-02T19:24:11Z</time>
      </trkpt>
      <trkpt lat="59.5267627438" lon="17.8434246784">
        <ele>20.4</ele>
        <time>2012-10-02T19:24:16Z</time>
      </trkpt>
      <trkpt lat="59.5271760553" lon="17.8435360738">
        <ele>20.4</ele>
        <time>2012-10-02T19:24:22Z</time>
      </trkpt>
      <trkpt lat="59.527565646" lon="17.8434569487">
        <ele>20.4</ele>
        <time>2012-10-02T19:24:27Z</time>
      </trkpt>
      <trkpt lat="59.5278900255" lon="17.8434566134">
        <ele>20.4</ele>
        <time>2012-10-02T19:24:32Z</time>
      </trkpt>
      <trkpt lat="59.5282558117" lon="17.8433642449">
        <ele>20.4</ele>
        <time>2012-10-02T19:24:38Z</time>
      </trkpt>
      <trkpt lat="59.5286088573" lon="17.84311086">
        <ele>20.8</ele>
        <time>2012-10-02T19:24:44Z</time>
      </trkpt>
      <trkpt lat="59.528660406" lon="17.8430630832">
        <ele>21.2</ele>
        <time>2012-10-02T19:24:45Z</time>
      </trkpt>
      <trkpt lat="59.5287152236" lon="17.8430347524">
        <ele>21.6</ele>
        <time>2012-10-02T19:24:46Z</time>
      </trkpt>
      <trkpt lat="59.5287699574" lon="17.8430096905">
        <ele>22</ele>
        <time>2012-10-02T19:24:47Z</time>
      </trkpt>
      <trkpt lat="59.5288285469" lon="17.8429775878">
        <ele>22.4</ele>
        <time>2012-10-02T19:24:48Z</time>
      </trkpt>
      <trkpt lat="59.5288890642" lon="17.8429513525">
        <ele>22.4</ele>
        <time>2012-10-02T19:24:49Z</time>
      </trkpt>
      <trkpt lat="59.5292126894" lon="17.8428754124">
        <ele>23</ele>
        <time>2012-10-02T19:24:54Z</time>
      </trkpt>
      <trkpt lat="59.5292774814" lon="17.842863594">
        <ele>23.4</ele>
        <time>2012-10-02T19:24:55Z</time>
      </trkpt>
      <trkpt lat="59.5293432794" lon="17.8428414657">
        <ele>23.8</ele>
        <time>2012-10-02T19:24:56Z</time>
      </trkpt>
      <trkpt lat="59.5294085744" lon="17.8428165715">
        <ele>24.2</ele>
        <time>2012-10-02T19:24:57Z</time>
      </trkpt>
      <trkpt lat="59.5294742885" lon="17.8427870672">
        <ele>24.8</ele>
        <time>2012-10-02T19:24:58Z</time>
      </trkpt>
      <trkpt lat="59.5297257455" lon="17.8426727381">
        <ele>24.8</ele>
        <time>2012-10-02T19:25:02Z</time>
      </trkpt>
      <trkpt lat="59.5301642865" lon="17.8423716603">
        <ele>24.8</ele>
        <time>2012-10-02T19:25:09Z</time>
      </trkpt>
      <trkpt lat="59.530580364" lon="17.8419052075">
        <ele>24.8</ele>
        <time>2012-10-02T19:25:16Z</time>
      </trkpt>
      <trkpt lat="59.5309230999" lon="17.8415851866">
        <ele>24.8</ele>
        <time>2012-10-02T19:25:22Z</time>
      </trkpt>
      <trkpt lat="59.5310460623" lon="17.8415177961">
        <ele>24.8</ele>
        <time>2012-10-02T19:25:24Z</time>
      </trkpt>
      <trkpt lat="59.5311112735" lon="17.8414991045">
        <ele>25.2</ele>
        <time>2012-10-02T19:25:25Z</time>
      </trkpt>
      <trkpt lat="59.5311721261" lon="17.8414740426">
        <ele>25.6</ele>
        <time>2012-10-02T19:25:26Z</time>
      </trkpt>
      <trkpt lat="59.5312301289" lon="17.8414521658">
        <ele>26</ele>
        <time>2012-10-02T19:25:27Z</time>
      </trkpt>
      <trkpt lat="59.5312908138" lon="17.8414288641">
        <ele>26.6</ele>
        <time>2012-10-02T19:25:28Z</time>
      </trkpt>
      <trkpt lat="59.5313589587" lon="17.8414146987">
        <ele>27</ele>
        <time>2012-10-02T19:25:29Z</time>
      </trkpt>
      <trkpt lat="59.5316222342" lon="17.8413035547">
        <ele>27</ele>
        <time>2012-10-02T19:25:33Z</time>
      </trkpt>
      <trkpt lat="59.5320710849" lon="17.841195093">
        <ele>27</ele>
        <time>2012-10-02T19:25:40Z</time>
      </trkpt>
      <trkpt lat="59.5321197837" lon="17.8411637446">
        <ele>27</ele>
        <time>2012-10-02T19:25:41Z</time>
      </trkpt>
      <trkpt lat="59.5322917803" lon="17.8411038979">
        <ele>27.4</ele>
        <time>2012-10-02T19:25:44Z</time>
      </trkpt>
      <trkpt lat="59.5323525491" lon="17.8410878046">
        <ele>27.8</ele>
        <time>2012-10-02T19:25:45Z</time>
      </trkpt>
      <trkpt lat="59.5324062771" lon="17.8410471524">
        <ele>28.2</ele>
        <time>2012-10-02T19:25:46Z</time>
      </trkpt>
      <trkpt lat="59.5324601727" lon="17.8410228449">
        <ele>28.6</ele>
        <time>2012-10-02T19:25:47Z</time>
      </trkpt>
      <trkpt lat="59.5325111346" lon="17.8409933406">
        <ele>29.2</ele>
        <time>2012-10-02T19:25:48Z</time>
      </trkpt>
      <trkpt lat="59.5326163275" lon="17.8409521855">
        <ele>29.2</ele>
        <time>2012-10-02T19:25:50Z</time>
      </trkpt>
      <trkpt lat="59.5326683791" lon="17.8409383554">
        <ele>29.6</ele>
        <time>2012-10-02T19:25:51Z</time>
      </trkpt>
      <trkpt lat="59.5327186705" lon="17.8409191608">
        <ele>30</ele>
        <time>2012-10-02T19:25:52Z</time>
      </trkpt>
      <trkpt lat="59.5327718117" lon="17.8408955238">
        <ele>30.4</ele>
        <time>2012-10-02T19:25:53Z</time>
      </trkpt>
      <trkpt lat="59.5328276352" lon="17.8408777542">
        <ele>30.8</ele>
        <time>2012-10-02T19:25:54Z</time>
      </trkpt>
      <trkpt lat="59.5328842968" lon="17.8408481661">
        <ele>31.2</ele>
        <time>2012-10-02T19:25:55Z</time>
      </trkpt>
      <trkpt lat="59.5329428025" lon="17.8408266246">
        <ele>31.2</ele>
        <time>2012-10-02T19:25:56Z</time>
      </trkpt>
      <trkpt lat="59.5330027331" lon="17.8407865591">
        <ele>32</ele>
        <time>2012-10-02T19:25:57Z</time>
      </trkpt>
      <trkpt lat="59.5330655135" lon="17.8407446496">
        <ele>32.6</ele>
        <time>2012-10-02T19:25:58Z</time>
      </trkpt>
      <trkpt lat="59.5331158887" lon="17.8406929333">
        <ele>33</ele>
        <time>2012-10-02T19:25:59Z</time>
      </trkpt>
      <trkpt lat="59.5331749811" lon="17.8406450727">
        <ele>33.4</ele>
        <time>2012-10-02T19:26:00Z</time>
      </trkpt>
      <trkpt lat="59.5332298826" lon="17.8405923505">
        <ele>33.4</ele>
        <time>2012-10-02T19:26:01Z</time>
      </trkpt>
      <trkpt lat="59.5333358298" lon="17.840445332">
        <ele>33.4</ele>
        <time>2012-10-02T19:26:03Z</time>
      </trkpt>
      <trkpt lat="59.5334306291" lon="17.840270737">
        <ele>33.4</ele>
        <time>2012-10-02T19:26:05Z</time>
      </trkpt>
      <trkpt lat="59.5334776515" lon="17.8401576652">
        <ele>33.4</ele>
        <time>2012-10-02T19:26:06Z</time>
      </trkpt>
      <trkpt lat="59.5337090758" lon="17.8395704293">
        <ele>33.4</ele>
        <time>2012-10-02T19:26:11Z</time>
      </trkpt>
      <trkpt lat="59.5339829125" lon="17.8390798367">
        <ele>33</ele>
        <time>2012-10-02T19:26:15Z</time>
      </trkpt>
      <trkpt lat="59.5340658933" lon="17.8389734704">
        <ele>32.4</ele>
        <time>2012-10-02T19:26:16Z</time>
      </trkpt>
      <trkpt lat="59.5341456051" lon="17.8388599794">
        <ele>32</ele>
        <time>2012-10-02T19:26:17Z</time>
      </trkpt>
      <trkpt lat="59.5342240597" lon="17.8387428843">
        <ele>31.6</ele>
        <time>2012-10-02T19:26:18Z</time>
      </trkpt>
      <trkpt lat="59.5342968146" lon="17.838617072">
        <ele>31</ele>
        <time>2012-10-02T19:26:19Z</time>
      </trkpt>
      <trkpt lat="59.534366552" lon="17.838484135">
        <ele>31</ele>
        <time>2012-10-02T19:26:20Z</time>
      </trkpt>
      <trkpt lat="59.5344376305" lon="17.8383476777">
        <ele>30.2</ele>
        <time>2012-10-02T19:26:21Z</time>
      </trkpt>
      <trkpt lat="59.534511056" lon="17.8382046825">
        <ele>29.6</ele>
        <time>2012-10-02T19:26:22Z</time>
      </trkpt>
      <trkpt lat="59.5345779436" lon="17.8380802113">
        <ele>29.2</ele>
        <time>2012-10-02T19:26:23Z</time>
      </trkpt>
      <trkpt lat="59.5346479324" lon="17.8379539799">
        <ele>28.8</ele>
        <time>2012-10-02T19:26:24Z</time>
      </trkpt>
      <trkpt lat="59.5347150714" lon="17.8378428359">
        <ele>28.4</ele>
        <time>2012-10-02T19:26:25Z</time>
      </trkpt>
      <trkpt lat="59.534787072" lon="17.8377336197">
        <ele>27.8</ele>
        <time>2012-10-02T19:26:26Z</time>
      </trkpt>
      <trkpt lat="59.5348595754" lon="17.837628846">
        <ele>27.4</ele>
        <time>2012-10-02T19:26:27Z</time>
      </trkpt>
      <trkpt lat="59.5349267144" lon="17.8375293528">
        <ele>27</ele>
        <time>2012-10-02T19:26:28Z</time>
      </trkpt>
      <trkpt lat="59.5349979606" lon="17.8374307817">
        <ele>26.6</ele>
        <time>2012-10-02T19:26:29Z</time>
      </trkpt>
      <trkpt lat="59.5352226793" lon="17.8371909755">
        <ele>26.6</ele>
        <time>2012-10-02T19:26:32Z</time>
      </trkpt>
      <trkpt lat="59.5353068336" lon="17.837147222">
        <ele>26</ele>
        <time>2012-10-02T19:26:33Z</time>
      </trkpt>
      <trkpt lat="59.5353930833" lon="17.8371105093">
        <ele>25.6</ele>
        <time>2012-10-02T19:26:34Z</time>
      </trkpt>
      <trkpt lat="59.5354820153" lon="17.8371051448">
        <ele>25</ele>
        <time>2012-10-02T19:26:35Z</time>
      </trkpt>
      <trkpt lat="59.5355764793" lon="17.8371122695">
        <ele>24.6</ele>
        <time>2012-10-02T19:26:36Z</time>
      </trkpt>
      <trkpt lat="59.5356670038" lon="17.8371105931">
        <ele>24</ele>
        <time>2012-10-02T19:26:37Z</time>
      </trkpt>
      <trkpt lat="59.5361544113" lon="17.8370218288">
        <ele>24</ele>
        <time>2012-10-02T19:26:43Z</time>
      </trkpt>
      <trkpt lat="59.5366956306" lon="17.8369256884">
        <ele>24</ele>
        <time>2012-10-02T19:26:50Z</time>
      </trkpt>
      <trkpt lat="59.5367715706" lon="17.8369019676">
        <ele>24</ele>
        <time>2012-10-02T19:26:51Z</time>
      </trkpt>
      <trkpt lat="59.5373162265" lon="17.8367205833">
        <ele>24</ele>
        <time>2012-10-02T19:26:58Z</time>
      </trkpt>
      <trkpt lat="59.53739795" lon="17.8367028975">
        <ele>24</ele>
        <time>2012-10-02T19:26:59Z</time>
      </trkpt>
      <trkpt lat="59.5378421907" lon="17.8366593954">
        <ele>24</ele>
        <time>2012-10-02T19:27:05Z</time>
      </trkpt>
      <trkpt lat="59.5383871818" lon="17.836639195">
        <ele>24</ele>
        <time>2012-10-02T19:27:13Z</time>
      </trkpt>
      <trkpt lat="59.53885112" lon="17.8366782547">
        <ele>24</ele>
        <time>2012-10-02T19:27:20Z</time>
      </trkpt>
      <trkpt lat="59.5390785209" lon="17.8367020593">
        <ele>24.6</ele>
        <time>2012-10-02T19:27:23Z</time>
      </trkpt>
      <trkpt lat="59.5391608312" lon="17.8366860498">
        <ele>25</ele>
        <time>2012-10-02T19:27:24Z</time>
      </trkpt>
      <trkpt lat="59.5392421356" lon="17.8366616585">
        <ele>25.4</ele>
        <time>2012-10-02T19:27:25Z</time>
      </trkpt>
      <trkpt lat="59.5393222666" lon="17.8366342497">
        <ele>26</ele>
        <time>2012-10-02T19:27:26Z</time>
      </trkpt>
      <trkpt lat="59.5394006374" lon="17.8366008059">
        <ele>26.4</ele>
        <time>2012-10-02T19:27:27Z</time>
      </trkpt>
      <trkpt lat="59.5397276991" lon="17.8364273844">
        <ele>26.4</ele>
        <time>2012-10-02T19:27:31Z</time>
      </trkpt>
      <trkpt lat="59.5402013603" lon="17.8363887439">
        <ele>26.4</ele>
        <time>2012-10-02T19:27:37Z</time>
      </trkpt>
      <trkpt lat="59.5405738519" lon="17.8365297274">
        <ele>26.4</ele>
        <time>2012-10-02T19:27:42Z</time>
      </trkpt>
      <trkpt lat="59.5408503708" lon="17.8366251134">
        <ele>26.8</ele>
        <time>2012-10-02T19:27:46Z</time>
      </trkpt>
      <trkpt lat="59.5409193538" lon="17.8366547854">
        <ele>27.4</ele>
        <time>2012-10-02T19:27:47Z</time>
      </trkpt>
      <trkpt lat="59.5409867443" lon="17.8366854631">
        <ele>27.8</ele>
        <time>2012-10-02T19:27:48Z</time>
      </trkpt>
      <trkpt lat="59.5410527937" lon="17.8367171467">
        <ele>28.2</ele>
        <time>2012-10-02T19:27:49Z</time>
      </trkpt>
      <trkpt lat="59.5411111317" lon="17.8367441364">
        <ele>28.6</ele>
        <time>2012-10-02T19:27:50Z</time>
      </trkpt>
      <trkpt lat="59.5411733254" lon="17.8367731378">
        <ele>28.6</ele>
        <time>2012-10-02T19:27:51Z</time>
      </trkpt>
      <trkpt lat="59.5415023988" lon="17.8369943361">
        <ele>28.6</ele>
        <time>2012-10-02T19:27:56Z</time>
      </trkpt>
      <trkpt lat="59.5415691187" lon="17.837036078">
        <ele>29</ele>
        <time>2012-10-02T19:27:57Z</time>
      </trkpt>
      <trkpt lat="59.5416409516" lon="17.8370651632">
        <ele>29.4</ele>
        <time>2012-10-02T19:27:58Z</time>
      </trkpt>
      <trkpt lat="59.5417080906" lon="17.8370794124">
        <ele>30</ele>
        <time>2012-10-02T19:27:59Z</time>
      </trkpt>
      <trkpt lat="59.5417760678" lon="17.8370950027">
        <ele>30.4</ele>
        <time>2012-10-02T19:28:00Z</time>
      </trkpt>
      <trkpt lat="59.5418487389" lon="17.8371008701">
        <ele>30.8</ele>
        <time>2012-10-02T19:28:01Z</time>
      </trkpt>
      <trkpt lat="59.5419165485" lon="17.8371007024">
        <ele>30.8</ele>
        <time>2012-10-02T19:28:02Z</time>
      </trkpt>
      <trkpt lat="59.5423155269" lon="17.836946224">
        <ele>31.2</ele>
        <time>2012-10-02T19:28:08Z</time>
      </trkpt>
      <trkpt lat="59.5423773853" lon="17.8368969384">
        <ele>31.6</ele>
        <time>2012-10-02T19:28:09Z</time>
      </trkpt>
      <trkpt lat="59.5424393276" lon="17.8368464794">
        <ele>32</ele>
        <time>2012-10-02T19:28:10Z</time>
      </trkpt>
      <trkpt lat="59.5425025271" lon="17.83679711">
        <ele>32.4</ele>
        <time>2012-10-02T19:28:11Z</time>
      </trkpt>
      <trkpt lat="59.5425665648" lon="17.8367558711">
        <ele>32.8</ele>
        <time>2012-10-02T19:28:12Z</time>
      </trkpt>
      <trkpt lat="59.5427547385" lon="17.8366635025">
        <ele>32.8</ele>
        <time>2012-10-02T19:28:15Z</time>
      </trkpt>
      <trkpt lat="59.5428170998" lon="17.8366516841">
        <ele>32.8</ele>
        <time>2012-10-02T19:28:16Z</time>
      </trkpt>
      <trkpt lat="59.542990186" lon="17.8366418772">
        <ele>32.8</ele>
        <time>2012-10-02T19:28:19Z</time>
      </trkpt>
      <trkpt lat="59.5430445846" lon="17.8366505106">
        <ele>33.2</ele>
        <time>2012-10-02T19:28:20Z</time>
      </trkpt>
      <trkpt lat="59.5431108016" lon="17.8366493371">
        <ele>33.6</ele>
        <time>2012-10-02T19:28:21Z</time>
      </trkpt>
      <trkpt lat="59.5431758451" lon="17.8366485828">
        <ele>34</ele>
        <time>2012-10-02T19:28:22Z</time>
      </trkpt>
      <trkpt lat="59.5432400505" lon="17.8366535281">
        <ele>34.4</ele>
        <time>2012-10-02T19:28:23Z</time>
      </trkpt>
      <trkpt lat="59.5433029147" lon="17.8366590601">
        <ele>34.8</ele>
        <time>2012-10-02T19:28:24Z</time>
      </trkpt>
      <trkpt lat="59.5433656951" lon="17.8366612394">
        <ele>35.2</ele>
        <time>2012-10-02T19:28:25Z</time>
      </trkpt>
      <trkpt lat="59.5434273021" lon="17.836663754">
        <ele>35.6</ele>
        <time>2012-10-02T19:28:26Z</time>
      </trkpt>
      <trkpt lat="59.5434879871" lon="17.8366655142">
        <ele>36</ele>
        <time>2012-10-02T19:28:27Z</time>
      </trkpt>
      <trkpt lat="59.5435482529" lon="17.8366695375">
        <ele>36.4</ele>
        <time>2012-10-02T19:28:28Z</time>
      </trkpt>
      <trkpt lat="59.5436070939" lon="17.8366785061">
        <ele>36.8</ele>
        <time>2012-10-02T19:28:29Z</time>
      </trkpt>
      <trkpt lat="59.5437257816" lon="17.8367142968">
        <ele>36.8</ele>
        <time>2012-10-02T19:28:31Z</time>
      </trkpt>
      <trkpt lat="59.5437778332" lon="17.8367550329">
        <ele>36.8</ele>
        <time>2012-10-02T19:28:32Z</time>
      </trkpt>
      <trkpt lat="59.5439679347" lon="17.8369214136">
        <ele>37.4</ele>
        <time>2012-10-02T19:28:36Z</time>
      </trkpt>
      <trkpt lat="59.544019651" lon="17.8369546059">
        <ele>37.8</ele>
        <time>2012-10-02T19:28:37Z</time>
      </trkpt>
      <trkpt lat="59.5440711997" lon="17.8369867924">
        <ele>38.2</ele>
        <time>2012-10-02T19:28:38Z</time>
      </trkpt>
      <trkpt lat="59.5441286995" lon="17.8370064899">
        <ele>38.6</ele>
        <time>2012-10-02T19:28:39Z</time>
      </trkpt>
      <trkpt lat="59.5441880434" lon="17.837021242">
        <ele>39.2</ele>
        <time>2012-10-02T19:28:40Z</time>
      </trkpt>
      <trkpt lat="59.544316957" lon="17.8370182245">
        <ele>39.2</ele>
        <time>2012-10-02T19:28:42Z</time>
      </trkpt>
      <trkpt lat="59.5448601041" lon="17.836905488">
        <ele>39.2</ele>
        <time>2012-10-02T19:28:50Z</time>
      </trkpt>
      <trkpt lat="59.5452784447" lon="17.8368415341">
        <ele>39.6</ele>
        <time>2012-10-02T19:28:56Z</time>
      </trkpt>
      <trkpt lat="59.5453496071" lon="17.8368302185">
        <ele>40</ele>
        <time>2012-10-02T19:28:57Z</time>
      </trkpt>
      <trkpt lat="59.5454205179" lon="17.8368168075">
        <ele>40.4</ele>
        <time>2012-10-02T19:28:58Z</time>
      </trkpt>
      <trkpt lat="59.5454917641" lon="17.8367968586">
        <ele>40.8</ele>
        <time>2012-10-02T19:28:59Z</time>
      </trkpt>
      <trkpt lat="59.5455622559" lon="17.8367725511">
        <ele>41.2</ele>
        <time>2012-10-02T19:29:00Z</time>
      </trkpt>
      <trkpt lat="59.5459846198" lon="17.8365524424">
        <ele>41.2</ele>
        <time>2012-10-02T19:29:06Z</time>
      </trkpt>
      <trkpt lat="59.5464715244" lon="17.8363590719">
        <ele>41.2</ele>
        <time>2012-10-02T19:29:12Z</time>
      </trkpt>
      <trkpt lat="59.5470766976" lon="17.8362379535">
        <ele>41.2</ele>
        <time>2012-10-02T19:29:19Z</time>
      </trkpt>
      <trkpt lat="59.5471660486" lon="17.8362373667">
        <ele>40.8</ele>
        <time>2012-10-02T19:29:20Z</time>
      </trkpt>
      <trkpt lat="59.5472547291" lon="17.8362369476">
        <ele>40.4</ele>
        <time>2012-10-02T19:29:21Z</time>
      </trkpt>
      <trkpt lat="59.5473453374" lon="17.8362368638">
        <ele>40</ele>
        <time>2012-10-02T19:29:22Z</time>
      </trkpt>
      <trkpt lat="59.5474361972" lon="17.8362352713">
        <ele>39.6</ele>
        <time>2012-10-02T19:29:23Z</time>
      </trkpt>
      <trkpt lat="59.5475311642" lon="17.8362361933">
        <ele>39.2</ele>
        <time>2012-10-02T19:29:24Z</time>
      </trkpt>
      <trkpt lat="59.5477092795" lon="17.8362377858">
        <ele>38.8</ele>
        <time>2012-10-02T19:29:26Z</time>
      </trkpt>
      <trkpt lat="59.547797038" lon="17.8362348522">
        <ele>38.4</ele>
        <time>2012-10-02T19:29:27Z</time>
      </trkpt>
      <trkpt lat="59.5478852156" lon="17.8362322538">
        <ele>38</ele>
        <time>2012-10-02T19:29:28Z</time>
      </trkpt>
      <trkpt lat="59.5479739799" lon="17.8362293201">
        <ele>37.6</ele>
        <time>2012-10-02T19:29:29Z</time>
      </trkpt>
      <trkpt lat="59.5480634148" lon="17.8362236204">
        <ele>37.2</ele>
        <time>2012-10-02T19:29:30Z</time>
      </trkpt>
      <trkpt lat="59.5482475652" lon="17.8362010731">
        <ele>36.6</ele>
        <time>2012-10-02T19:29:32Z</time>
      </trkpt>
      <trkpt lat="59.5483375868" lon="17.8361781067">
        <ele>36.2</ele>
        <time>2012-10-02T19:29:33Z</time>
      </trkpt>
      <trkpt lat="59.5484275246" lon="17.8361501112">
        <ele>35.8</ele>
        <time>2012-10-02T19:29:34Z</time>
      </trkpt>
      <trkpt lat="59.5485172109" lon="17.8361181761">
        <ele>35.4</ele>
        <time>2012-10-02T19:29:35Z</time>
      </trkpt>
      <trkpt lat="59.5486071487" lon="17.8360902644">
        <ele>34.8</ele>
        <time>2012-10-02T19:29:36Z</time>
      </trkpt>
      <trkpt lat="59.5488799795" lon="17.8360476005">
        <ele>34.4</ele>
        <time>2012-10-02T19:29:39Z</time>
      </trkpt>
      <trkpt lat="59.5489736053" lon="17.8360429067">
        <ele>34</ele>
        <time>2012-10-02T19:29:40Z</time>
      </trkpt>
      <trkpt lat="59.5490620344" lon="17.8360360335">
        <ele>33.6</ele>
        <time>2012-10-02T19:29:41Z</time>
      </trkpt>
      <trkpt lat="59.549151134" lon="17.8360266458">
        <ele>33</ele>
        <time>2012-10-02T19:29:42Z</time>
      </trkpt>
      <trkpt lat="59.5492383057" lon="17.8360137376">
        <ele>32.6</ele>
        <time>2012-10-02T19:29:43Z</time>
      </trkpt>
      <trkpt lat="59.5493237173" lon="17.8359886758">
        <ele>32.2</ele>
        <time>2012-10-02T19:29:44Z</time>
      </trkpt>
      <trkpt lat="59.5494063628" lon="17.8359449222">
        <ele>31.8</ele>
        <time>2012-10-02T19:29:45Z</time>
      </trkpt>
      <trkpt lat="59.5494886731" lon="17.8358891826">
        <ele>31.4</ele>
        <time>2012-10-02T19:29:46Z</time>
      </trkpt>
      <trkpt lat="59.5495745876" lon="17.8358300902">
        <ele>31</ele>
        <time>2012-10-02T19:29:47Z</time>
      </trkpt>
      <trkpt lat="59.5496558082" lon="17.8357761108">
        <ele>30.6</ele>
        <time>2012-10-02T19:29:48Z</time>
      </trkpt>
      <trkpt lat="59.5500070098" lon="17.8356406593">
        <ele>30.6</ele>
        <time>2012-10-02T19:29:52Z</time>
      </trkpt>
      <trkpt lat="59.5501016414" lon="17.8356304334">
        <ele>30.2</ele>
        <time>2012-10-02T19:29:53Z</time>
      </trkpt>
      <trkpt lat="59.5501972789" lon="17.8356249013">
        <ele>29.8</ele>
        <time>2012-10-02T19:29:54Z</time>
      </trkpt>
      <trkpt lat="59.5502953472" lon="17.8356247337">
        <ele>29.4</ele>
        <time>2012-10-02T19:29:55Z</time>
      </trkpt>
      <trkpt lat="59.550384782" lon="17.8356248175">
        <ele>28.8</ele>
        <time>2012-10-02T19:29:56Z</time>
      </trkpt>
      <trkpt lat="59.5504699421" lon="17.8356207942">
        <ele>28.4</ele>
        <time>2012-10-02T19:29:57Z</time>
      </trkpt>
      <trkpt lat="59.5505546831" lon="17.8355989174">
        <ele>27.8</ele>
        <time>2012-10-02T19:29:58Z</time>
      </trkpt>
      <trkpt lat="59.5506394241" lon="17.8355572594">
        <ele>27.2</ele>
        <time>2012-10-02T19:29:59Z</time>
      </trkpt>
      <trkpt lat="59.5507249195" lon="17.8355068842">
        <ele>26.6</ele>
        <time>2012-10-02T19:30:00Z</time>
      </trkpt>
      <trkpt lat="59.5508095767" lon="17.8354471212">
        <ele>26</ele>
        <time>2012-10-02T19:30:01Z</time>
      </trkpt>
      <trkpt lat="59.5508949045" lon="17.835380988">
        <ele>25.6</ele>
        <time>2012-10-02T19:30:02Z</time>
      </trkpt>
      <trkpt lat="59.5509849261" lon="17.8353051318">
        <ele>25.2</ele>
        <time>2012-10-02T19:30:03Z</time>
      </trkpt>
      <trkpt lat="59.5510722655" lon="17.8352297785">
        <ele>24.4</ele>
        <time>2012-10-02T19:30:04Z</time>
      </trkpt>
      <trkpt lat="59.5511589343" lon="17.8351525812">
        <ele>24</ele>
        <time>2012-10-02T19:30:05Z</time>
      </trkpt>
      <trkpt lat="59.5513420788" lon="17.8349887989">
        <ele>24</ele>
        <time>2012-10-02T19:30:07Z</time>
      </trkpt>
      <trkpt lat="59.5518966253" lon="17.8345082646">
        <ele>24</ele>
        <time>2012-10-02T19:30:13Z</time>
      </trkpt>
      <trkpt lat="59.5520780096" lon="17.8343526127">
        <ele>23.4</ele>
        <time>2012-10-02T19:30:15Z</time>
      </trkpt>
      <trkpt lat="59.5521687018" lon="17.8342754154">
        <ele>23</ele>
        <time>2012-10-02T19:30:16Z</time>
      </trkpt>
      <trkpt lat="59.5522624114" lon="17.8341948653">
        <ele>22.6</ele>
        <time>2012-10-02T19:30:17Z</time>
      </trkpt>
      <trkpt lat="59.5523523492" lon="17.8341226134">
        <ele>22.2</ele>
        <time>2012-10-02T19:30:18Z</time>
      </trkpt>
      <trkpt lat="59.5524408621" lon="17.8340451646">
        <ele>21.8</ele>
        <time>2012-10-02T19:30:19Z</time>
      </trkpt>
      <trkpt lat="59.5527974281" lon="17.8337212042">
        <ele>21.8</ele>
        <time>2012-10-02T19:30:23Z</time>
      </trkpt>
      <trkpt lat="59.5533575067" lon="17.8332539971">
        <ele>21.8</ele>
        <time>2012-10-02T19:30:29Z</time>
      </trkpt>
      <trkpt lat="59.5534517192" lon="17.8331721059">
        <ele>21.8</ele>
        <time>2012-10-02T19:30:30Z</time>
      </trkpt>
      <trkpt lat="59.5540174137" lon="17.8326810942">
        <ele>21.8</ele>
        <time>2012-10-02T19:30:36Z</time>
      </trkpt>
      <trkpt lat="59.5542038271" lon="17.8325247718">
        <ele>21.4</ele>
        <time>2012-10-02T19:30:38Z</time>
      </trkpt>
      <trkpt lat="59.5542987941" lon="17.8324443055">
        <ele>21</ele>
        <time>2012-10-02T19:30:39Z</time>
      </trkpt>
      <trkpt lat="59.554391414" lon="17.8323657671">
        <ele>20.6</ele>
        <time>2012-10-02T19:30:40Z</time>
      </trkpt>
      <trkpt lat="59.5544853751" lon="17.8322853009">
        <ele>20.2</ele>
        <time>2012-10-02T19:30:41Z</time>
      </trkpt>
      <trkpt lat="59.5545737204" lon="17.8322119593">
        <ele>19.6</ele>
        <time>2012-10-02T19:30:42Z</time>
      </trkpt>
      <trkpt lat="59.5548423603" lon="17.8319850612">
        <ele>19.6</ele>
        <time>2012-10-02T19:30:45Z</time>
      </trkpt>
      <trkpt lat="59.5553789695" lon="17.8315231347">
        <ele>19.6</ele>
        <time>2012-10-02T19:30:51Z</time>
      </trkpt>
      <trkpt lat="59.5555445958" lon="17.8313652197">
        <ele>19.6</ele>
        <time>2012-10-02T19:30:53Z</time>
      </trkpt>
      <trkpt lat="59.5560333444" lon="17.830958949">
        <ele>19.6</ele>
        <time>2012-10-02T19:30:59Z</time>
      </trkpt>
      <trkpt lat="59.5561128887" lon="17.8308900498">
        <ele>19.6</ele>
        <time>2012-10-02T19:31:00Z</time>
      </trkpt>
      <trkpt lat="59.5566086781" lon="17.8304696137">
        <ele>19.2</ele>
        <time>2012-10-02T19:31:06Z</time>
      </trkpt>
      <trkpt lat="59.5566908207" lon="17.8304032291">
        <ele>18.8</ele>
        <time>2012-10-02T19:31:07Z</time>
      </trkpt>
      <trkpt lat="59.5567706164" lon="17.8303401134">
        <ele>18.4</ele>
        <time>2012-10-02T19:31:08Z</time>
      </trkpt>
      <trkpt lat="59.5568484004" lon="17.8302739802">
        <ele>18</ele>
        <time>2012-10-02T19:31:09Z</time>
      </trkpt>
      <trkpt lat="59.5569264359" lon="17.8302062544">
        <ele>17.4</ele>
        <time>2012-10-02T19:31:10Z</time>
      </trkpt>
      <trkpt lat="59.557317703" lon="17.829866536">
        <ele>17.4</ele>
        <time>2012-10-02T19:31:15Z</time>
      </trkpt>
      <trkpt lat="59.5577443417" lon="17.8294989059">
        <ele>17.4</ele>
        <time>2012-10-02T19:31:21Z</time>
      </trkpt>
      <trkpt lat="59.5581786079" lon="17.8291011009">
        <ele>17.4</ele>
        <time>2012-10-02T19:31:28Z</time>
      </trkpt>
      <trkpt lat="59.558307773" lon="17.828825504">
        <ele>17.4</ele>
        <time>2012-10-02T19:31:31Z</time>
      </trkpt>
      <trkpt lat="59.558362423" lon="17.828452258">
        <ele>17.4</ele>
        <time>2012-10-02T19:31:34Z</time>
      </trkpt>
      <trkpt lat="59.5584232756" lon="17.8278976277">
        <ele>17.4</ele>
        <time>2012-10-02T19:31:39Z</time>
      </trkpt>
      <trkpt lat="59.5584353455" lon="17.8277787724">
        <ele>17.4</ele>
        <time>2012-10-02T19:31:40Z</time>
      </trkpt>
      <trkpt lat="59.5584779256" lon="17.8272816419">
        <ele>17.4</ele>
        <time>2012-10-02T19:31:44Z</time>
      </trkpt>
      <trkpt lat="59.5585106988" lon="17.8269131735">
        <ele>18</ele>
        <time>2012-10-02T19:31:47Z</time>
      </trkpt>
      <trkpt lat="59.5585190807" lon="17.8267975033">
        <ele>18.4</ele>
        <time>2012-10-02T19:31:48Z</time>
      </trkpt>
      <trkpt lat="59.5585276302" lon="17.8266822522">
        <ele>18.8</ele>
        <time>2012-10-02T19:31:49Z</time>
      </trkpt>
      <trkpt lat="59.5585359283" lon="17.8265722817">
        <ele>19.2</ele>
        <time>2012-10-02T19:31:50Z</time>
      </trkpt>
      <trkpt lat="59.5585437235" lon="17.8264607186">
        <ele>19.6</ele>
        <time>2012-10-02T19:31:51Z</time>
      </trkpt>
      <trkpt lat="59.5585997984" lon="17.8260003008">
        <ele>19.6</ele>
        <time>2012-10-02T19:31:56Z</time>
      </trkpt>
      <trkpt lat="59.5586196635" lon="17.8259166495">
        <ele>20</ele>
        <time>2012-10-02T19:31:57Z</time>
      </trkpt>
      <trkpt lat="59.5586395286" lon="17.8258495104">
        <ele>20.4</ele>
        <time>2012-10-02T19:31:58Z</time>
      </trkpt>
      <trkpt lat="59.5586540293" lon="17.8258096964">
        <ele>20.8</ele>
        <time>2012-10-02T19:31:59Z</time>
      </trkpt>
      <trkpt lat="59.5586618245" lon="17.8257852213">
        <ele>21.2</ele>
        <time>2012-10-02T19:32:00Z</time>
      </trkpt>
      <trkpt lat="59.5586688653" lon="17.8257674516">
        <ele>21.6</ele>
        <time>2012-10-02T19:32:01Z</time>
      </trkpt>
      <trkpt lat="59.5586948491" lon="17.8257465807">
        <ele>21.6</ele>
        <time>2012-10-02T19:32:03Z</time>
      </trkpt>
      <trkpt lat="59.5586989563" lon="17.8257250392">
        <ele>21.6</ele>
        <time>2012-10-02T19:32:05Z</time>
      </trkpt>
      <trkpt lat="59.5586989563" lon="17.825725123">
        <ele>21.6</ele>
        <time>2012-10-02T19:32:08Z</time>
      </trkpt>
      <trkpt lat="59.5585959427" lon="17.8260464851">
        <ele>21.6</ele>
        <time>2012-10-02T19:33:16Z</time>
      </trkpt>
      <trkpt lat="59.5585895725" lon="17.8261225927">
        <ele>21.6</ele>
        <time>2012-10-02T19:33:17Z</time>
      </trkpt>
      <trkpt lat="59.5585439749" lon="17.826491564">
        <ele>21.6</ele>
        <time>2012-10-02T19:33:21Z</time>
      </trkpt>
      <trkpt lat="59.5584757463" lon="17.827238056">
        <ele>21.6</ele>
        <time>2012-10-02T19:33:27Z</time>
      </trkpt>
      <trkpt lat="59.558452277" lon="17.8274897644">
        <ele>21.2</ele>
        <time>2012-10-02T19:33:29Z</time>
      </trkpt>
      <trkpt lat="59.5584392012" lon="17.8276132298">
        <ele>20.8</ele>
        <time>2012-10-02T19:33:30Z</time>
      </trkpt>
      <trkpt lat="59.5584257902" lon="17.8277384554">
        <ele>20.2</ele>
        <time>2012-10-02T19:33:31Z</time>
      </trkpt>
      <trkpt lat="59.5584122115" lon="17.8278672014">
        <ele>19.8</ele>
        <time>2012-10-02T19:33:32Z</time>
      </trkpt>
      <trkpt lat="59.5584036619" lon="17.8279952768">
        <ele>19.4</ele>
        <time>2012-10-02T19:33:33Z</time>
      </trkpt>
      <trkpt lat="59.5583395404" lon="17.8287053914">
        <ele>19.4</ele>
        <time>2012-10-02T19:33:39Z</time>
      </trkpt>
      <trkpt lat="59.5583418873" lon="17.8289027851">
        <ele>19</ele>
        <time>2012-10-02T19:33:41Z</time>
      </trkpt>
      <trkpt lat="59.5583506045" lon="17.8289950699">
        <ele>18.6</ele>
        <time>2012-10-02T19:33:42Z</time>
      </trkpt>
      <trkpt lat="59.5583656919" lon="17.8290829122">
        <ele>18.2</ele>
        <time>2012-10-02T19:33:43Z</time>
      </trkpt>
      <trkpt lat="59.5583875687" lon="17.8291679046">
        <ele>17.6</ele>
        <time>2012-10-02T19:33:44Z</time>
      </trkpt>
      <trkpt lat="59.5584131335" lon="17.8292419168">
        <ele>17.2</ele>
        <time>2012-10-02T19:33:45Z</time>
      </trkpt>
      <trkpt lat="59.5584640116" lon="17.8294021787">
        <ele>17.2</ele>
        <time>2012-10-02T19:33:47Z</time>
      </trkpt>
      <trkpt lat="59.5584826194" lon="17.8294874227">
        <ele>17.2</ele>
        <time>2012-10-02T19:33:48Z</time>
      </trkpt>
      <trkpt lat="59.5585326594" lon="17.8297681325">
        <ele>17.2</ele>
        <time>2012-10-02T19:33:51Z</time>
      </trkpt>
      <trkpt lat="59.5585433044" lon="17.8299560547">
        <ele>17.2</ele>
        <time>2012-10-02T19:33:53Z</time>
      </trkpt>
      <trkpt lat="59.5585259539" lon="17.8304177297">
        <ele>17.2</ele>
        <time>2012-10-02T19:33:58Z</time>
      </trkpt>
      <trkpt lat="59.5584946056" lon="17.8308923967">
        <ele>17.2</ele>
        <time>2012-10-02T19:34:03Z</time>
      </trkpt>
      <trkpt lat="59.5584662747" lon="17.8315362943">
        <ele>17.2</ele>
        <time>2012-10-02T19:34:09Z</time>
      </trkpt>
      <trkpt lat="59.5584705495" lon="17.8318655353">
        <ele>17.2</ele>
        <time>2012-10-02T19:34:12Z</time>
      </trkpt>
      <trkpt lat="59.5585070108" lon="17.8321672837">
        <ele>17.2</ele>
        <time>2012-10-02T19:34:15Z</time>
      </trkpt>
      <trkpt lat="59.5585834537" lon="17.8325878037">
        <ele>17.2</ele>
        <time>2012-10-02T19:34:19Z</time>
      </trkpt>
      <trkpt lat="59.5587447214" lon="17.8333086471">
        <ele>17.2</ele>
        <time>2012-10-02T19:34:25Z</time>
      </trkpt>
      <trkpt lat="59.5590089189" lon="17.834242726">
        <ele>17.2</ele>
        <time>2012-10-02T19:34:33Z</time>
      </trkpt>
      <trkpt lat="59.5592173768" lon="17.8347740546">
        <ele>17.2</ele>
        <time>2012-10-02T19:34:39Z</time>
      </trkpt>
      <trkpt lat="59.5592747928" lon="17.8349022977">
        <ele>17.2</ele>
        <time>2012-10-02T19:34:43Z</time>
      </trkpt>
      <trkpt lat="59.5593547561" lon="17.8351079057">
        <ele>17.2</ele>
        <time>2012-10-02T19:34:48Z</time>
      </trkpt>
      <trkpt lat="59.5593787284" lon="17.8351711891">
        <ele>17.2</ele>
        <time>2012-10-02T19:34:49Z</time>
      </trkpt>
      <trkpt lat="59.5594280978" lon="17.8352939001">
        <ele>17.2</ele>
        <time>2012-10-02T19:34:51Z</time>
      </trkpt>
      <trkpt lat="59.5594698396" lon="17.8354368115">
        <ele>17.2</ele>
        <time>2012-10-02T19:34:53Z</time>
      </trkpt>
      <trkpt lat="59.5595592745" lon="17.8358201158">
        <ele>17.2</ele>
        <time>2012-10-02T19:34:58Z</time>
      </trkpt>
      <trkpt lat="59.5595783014" lon="17.8359216206">
        <ele>17.2</ele>
        <time>2012-10-02T19:34:59Z</time>
      </trkpt>
      <trkpt lat="59.5596714243" lon="17.836428977">
        <ele>17.2</ele>
        <time>2012-10-02T19:35:04Z</time>
      </trkpt>
      <trkpt lat="59.5596915409" lon="17.8365084374">
        <ele>17.2</ele>
        <time>2012-10-02T19:35:05Z</time>
      </trkpt>
      <trkpt lat="59.5597324445" lon="17.8366573837">
        <ele>17.2</ele>
        <time>2012-10-02T19:35:07Z</time>
      </trkpt>
      <trkpt lat="59.5597528964" lon="17.8367569607">
        <ele>17.2</ele>
        <time>2012-10-02T19:35:08Z</time>
      </trkpt>
      <trkpt lat="59.5598411578" lon="17.8370537638">
        <ele>17.2</ele>
        <time>2012-10-02T19:35:11Z</time>
      </trkpt>
      <trkpt lat="59.5599250606" lon="17.8372179652">
        <ele>17.2</ele>
        <time>2012-10-02T19:35:13Z</time>
      </trkpt>
      <trkpt lat="59.5601337699" lon="17.8374464558">
        <ele>17.2</ele>
        <time>2012-10-02T19:35:17Z</time>
      </trkpt>
      <trkpt lat="59.5601884199" lon="17.8374938974">
        <ele>17.2</ele>
        <time>2012-10-02T19:35:18Z</time>
      </trkpt>
      <trkpt lat="59.5605580617" lon="17.8377655547">
        <ele>17.2</ele>
        <time>2012-10-02T19:35:24Z</time>
      </trkpt>
      <trkpt lat="59.5607271246" lon="17.8378388964">
        <ele>17.2</ele>
        <time>2012-10-02T19:35:27Z</time>
      </trkpt>
      <trkpt lat="59.5607785057" lon="17.8378498767">
        <ele>17.8</ele>
        <time>2012-10-02T19:35:28Z</time>
      </trkpt>
      <trkpt lat="59.5608243547" lon="17.8378676463">
        <ele>18.2</ele>
        <time>2012-10-02T19:35:29Z</time>
      </trkpt>
      <trkpt lat="59.560870036" lon="17.8378906965">
        <ele>18.6</ele>
        <time>2012-10-02T19:35:30Z</time>
      </trkpt>
      <trkpt lat="59.5609176452" lon="17.8379240565">
        <ele>19</ele>
        <time>2012-10-02T19:35:31Z</time>
      </trkpt>
      <trkpt lat="59.5609629913" lon="17.8379657145">
        <ele>19.4</ele>
        <time>2012-10-02T19:35:32Z</time>
      </trkpt>
      <trkpt lat="59.5610050684" lon="17.8380190234">
        <ele>20</ele>
        <time>2012-10-02T19:35:33Z</time>
      </trkpt>
      <trkpt lat="59.5610425355" lon="17.8380820553">
        <ele>20.4</ele>
        <time>2012-10-02T19:35:34Z</time>
      </trkpt>
      <trkpt lat="59.5610721236" lon="17.838153972">
        <ele>20.8</ele>
        <time>2012-10-02T19:35:35Z</time>
      </trkpt>
      <trkpt lat="59.5610922402" lon="17.8382343544">
        <ele>21.4</ele>
        <time>2012-10-02T19:35:36Z</time>
      </trkpt>
      <trkpt lat="59.5611012088" lon="17.8383278964">
        <ele>21.8</ele>
        <time>2012-10-02T19:35:37Z</time>
      </trkpt>
      <trkpt lat="59.5611038072" lon="17.8384253779">
        <ele>22.2</ele>
        <time>2012-10-02T19:35:38Z</time>
      </trkpt>
      <trkpt lat="59.5611017117" lon="17.838518417">
        <ele>22.6</ele>
        <time>2012-10-02T19:35:39Z</time>
      </trkpt>
      <trkpt lat="59.5610951738" lon="17.8386142221">
        <ele>23</ele>
        <time>2012-10-02T19:35:40Z</time>
      </trkpt>
      <trkpt lat="59.5610881331" lon="17.8387099434">
        <ele>23.4</ele>
        <time>2012-10-02T19:35:41Z</time>
      </trkpt>
      <trkpt lat="59.5610786615" lon="17.8388136275">
        <ele>24</ele>
        <time>2012-10-02T19:35:42Z</time>
      </trkpt>
      <trkpt lat="59.561060389" lon="17.8389251068">
        <ele>24</ele>
        <time>2012-10-02T19:35:43Z</time>
      </trkpt>
      <trkpt lat="59.5610213293" lon="17.8391545194">
        <ele>24</ele>
        <time>2012-10-02T19:35:45Z</time>
      </trkpt>
      <trkpt lat="59.5609628236" lon="17.839502033">
        <ele>23.4</ele>
        <time>2012-10-02T19:35:48Z</time>
      </trkpt>
      <trkpt lat="59.5609417851" lon="17.8396198825">
        <ele>23</ele>
        <time>2012-10-02T19:35:49Z</time>
      </trkpt>
      <trkpt lat="59.5609205789" lon="17.8397332058">
        <ele>22.6</ele>
        <time>2012-10-02T19:35:50Z</time>
      </trkpt>
      <trkpt lat="59.5608949303" lon="17.8398344591">
        <ele>22.2</ele>
        <time>2012-10-02T19:35:51Z</time>
      </trkpt>
      <trkpt lat="59.5608665994" lon="17.8399262409">
        <ele>21.8</ele>
        <time>2012-10-02T19:35:52Z</time>
      </trkpt>
      <trkpt lat="59.5608134582" lon="17.8401159233">
        <ele>21.8</ele>
        <time>2012-10-02T19:35:54Z</time>
      </trkpt>
      <trkpt lat="59.5607296392" lon="17.8404061047">
        <ele>21.4</ele>
        <time>2012-10-02T19:35:57Z</time>
      </trkpt>
      <trkpt lat="59.560701476" lon="17.8404995629">
        <ele>20.4</ele>
        <time>2012-10-02T19:35:58Z</time>
      </trkpt>
      <trkpt lat="59.5606725584" lon="17.8405851421">
        <ele>19.8</ele>
        <time>2012-10-02T19:35:59Z</time>
      </trkpt>
      <trkpt lat="59.5606425512" lon="17.8406635129">
        <ele>19.4</ele>
        <time>2012-10-02T19:36:00Z</time>
      </trkpt>
      <trkpt lat="59.5605529487" lon="17.8408642594">
        <ele>19.4</ele>
        <time>2012-10-02T19:36:03Z</time>
      </trkpt>
      <trkpt lat="59.560454629" lon="17.8410562887">
        <ele>19.4</ele>
        <time>2012-10-02T19:36:06Z</time>
      </trkpt>
      <trkpt lat="59.5603576505" lon="17.8412608909">
        <ele>18.8</ele>
        <time>2012-10-02T19:36:09Z</time>
      </trkpt>
      <trkpt lat="59.5603296549" lon="17.8413222464">
        <ele>18.4</ele>
        <time>2012-10-02T19:36:10Z</time>
      </trkpt>
      <trkpt lat="59.5603033358" lon="17.8413825961">
        <ele>18</ele>
        <time>2012-10-02T19:36:11Z</time>
      </trkpt>
      <trkpt lat="59.5602803693" lon="17.8414476396">
        <ele>17.6</ele>
        <time>2012-10-02T19:36:12Z</time>
      </trkpt>
      <trkpt lat="59.5602588279" lon="17.8415141081">
        <ele>17</ele>
        <time>2012-10-02T19:36:13Z</time>
      </trkpt>
      <trkpt lat="59.5601390505" lon="17.8418725181">
        <ele>17</ele>
        <time>2012-10-02T19:36:18Z</time>
      </trkpt>
      <trkpt lat="59.5601161679" lon="17.8419685747">
        <ele>17</ele>
        <time>2012-10-02T19:36:19Z</time>
      </trkpt>
      <trkpt lat="59.560055483" lon="17.8422635337">
        <ele>17</ele>
        <time>2012-10-02T19:36:22Z</time>
      </trkpt>
      <trkpt lat="59.5600267331" lon="17.8427211855">
        <ele>17</ele>
        <time>2012-10-02T19:36:26Z</time>
      </trkpt>
      <trkpt lat="59.5600234641" lon="17.8428371072">
        <ele>17</ele>
        <time>2012-10-02T19:36:27Z</time>
      </trkpt>
      <trkpt lat="59.5600251405" lon="17.8432407795">
        <ele>17</ele>
        <time>2012-10-02T19:36:31Z</time>
      </trkpt>
      <trkpt lat="59.5600352826" lon="17.8434695215">
        <ele>17</ele>
        <time>2012-10-02T19:36:33Z</time>
      </trkpt>
      <trkpt lat="59.5600624399" lon="17.8443124892">
        <ele>17</ele>
        <time>2012-10-02T19:36:40Z</time>
      </trkpt>
      <trkpt lat="59.5600787847" lon="17.8448830451">
        <ele>17</ele>
        <time>2012-10-02T19:36:45Z</time>
      </trkpt>
      <trkpt lat="59.5600856578" lon="17.8449872321">
        <ele>17</ele>
        <time>2012-10-02T19:36:46Z</time>
      </trkpt>
      <trkpt lat="59.5601310039" lon="17.8453963527">
        <ele>17</ele>
        <time>2012-10-02T19:36:50Z</time>
      </trkpt>
      <trkpt lat="59.5601491926" lon="17.8454955944">
        <ele>17</ele>
        <time>2012-10-02T19:36:51Z</time>
      </trkpt>
      <trkpt lat="59.560239801" lon="17.8457756337">
        <ele>17</ele>
        <time>2012-10-02T19:36:54Z</time>
      </trkpt>
      <trkpt lat="59.560285147" lon="17.8458582792">
        <ele>17</ele>
        <time>2012-10-02T19:36:55Z</time>
      </trkpt>
      <trkpt lat="59.5604265497" lon="17.8461688286">
        <ele>17</ele>
        <time>2012-10-02T19:36:59Z</time>
      </trkpt>
      <trkpt lat="59.5604506057" lon="17.8462391527">
        <ele>17</ele>
        <time>2012-10-02T19:37:00Z</time>
      </trkpt>
      <trkpt lat="59.5604931858" lon="17.8463563317">
        <ele>17</ele>
        <time>2012-10-02T19:37:02Z</time>
      </trkpt>
      <trkpt lat="59.5605710536" lon="17.8465940424">
        <ele>17</ele>
        <time>2012-10-02T19:37:05Z</time>
      </trkpt>
      <trkpt lat="59.560699632" lon="17.8469036698">
        <ele>17</ele>
        <time>2012-10-02T19:37:09Z</time>
      </trkpt>
      <trkpt lat="59.5607337463" lon="17.8469684619">
        <ele>17</ele>
        <time>2012-10-02T19:37:10Z</time>
      </trkpt>
      <trkpt lat="59.5608059983" lon="17.8470816175">
        <ele>17</ele>
        <time>2012-10-02T19:37:12Z</time>
      </trkpt>
      <trkpt lat="59.5609779949" lon="17.8472640915">
        <ele>17</ele>
        <time>2012-10-02T19:37:16Z</time>
      </trkpt>
      <trkpt lat="59.561260884" lon="17.8474744772">
        <ele>17</ele>
        <time>2012-10-02T19:37:22Z</time>
      </trkpt>
      <trkpt lat="59.5614599541" lon="17.8475812626">
        <ele>17</ele>
        <time>2012-10-02T19:37:27Z</time>
      </trkpt>
      <trkpt lat="59.5616327889" lon="17.8476659198">
        <ele>17.6</ele>
        <time>2012-10-02T19:37:30Z</time>
      </trkpt>
      <trkpt lat="59.5616880256" lon="17.8477007046">
        <ele>18</ele>
        <time>2012-10-02T19:37:31Z</time>
      </trkpt>
      <trkpt lat="59.5617366407" lon="17.8477423627">
        <ele>18.4</ele>
        <time>2012-10-02T19:37:32Z</time>
      </trkpt>
      <trkpt lat="59.5617834117" lon="17.8477811709">
        <ele>18.8</ele>
        <time>2012-10-02T19:37:33Z</time>
      </trkpt>
      <trkpt lat="59.5618302665" lon="17.8478207334">
        <ele>19.2</ele>
        <time>2012-10-02T19:37:34Z</time>
      </trkpt>
      <trkpt lat="59.5620248104" lon="17.8479656565">
        <ele>19.6</ele>
        <time>2012-10-02T19:37:38Z</time>
      </trkpt>
      <trkpt lat="59.5620728387" lon="17.8479999385">
        <ele>20</ele>
        <time>2012-10-02T19:37:39Z</time>
      </trkpt>
      <trkpt lat="59.5621234653" lon="17.8480387467">
        <ele>20.4</ele>
        <time>2012-10-02T19:37:40Z</time>
      </trkpt>
      <trkpt lat="59.5621719965" lon="17.8480811591">
        <ele>21</ele>
        <time>2012-10-02T19:37:41Z</time>
      </trkpt>
      <trkpt lat="59.5622234614" lon="17.8481251641">
        <ele>21.4</ele>
        <time>2012-10-02T19:37:42Z</time>
      </trkpt>
      <trkpt lat="59.5623812926" lon="17.848293305">
        <ele>21.4</ele>
        <time>2012-10-02T19:37:45Z</time>
      </trkpt>
      <trkpt lat="59.5627490065" lon="17.8486098055">
        <ele>21.4</ele>
        <time>2012-10-02T19:37:52Z</time>
      </trkpt>
      <trkpt lat="59.5628024831" lon="17.84864568">
        <ele>21.4</ele>
        <time>2012-10-02T19:37:53Z</time>
      </trkpt>
      <trkpt lat="59.5630344941" lon="17.848798063">
        <ele>21.4</ele>
        <time>2012-10-02T19:37:57Z</time>
      </trkpt>
      <trkpt lat="59.5633656629" lon="17.8490607517">
        <ele>21.4</ele>
        <time>2012-10-02T19:38:03Z</time>
      </trkpt>
      <trkpt lat="59.5635590334" lon="17.8492103686">
        <ele>21.4</ele>
        <time>2012-10-02T19:38:07Z</time>
      </trkpt>
      <trkpt lat="59.5635935668" lon="17.8492231091">
        <ele>21.4</ele>
        <time>2012-10-02T19:38:08Z</time>
      </trkpt>
      <trkpt lat="59.5636209756" lon="17.8492273839">
        <ele>21</ele>
        <time>2012-10-02T19:38:09Z</time>
      </trkpt>
      <trkpt lat="59.5636390805" lon="17.8492251208">
        <ele>20.6</ele>
        <time>2012-10-02T19:38:10Z</time>
      </trkpt>
      <trkpt lat="59.5636488873" lon="17.8492318263">
        <ele>20</ele>
        <time>2012-10-02T19:38:11Z</time>
      </trkpt>
      <trkpt lat="59.5636493902" lon="17.8492416331">
        <ele>19.6</ele>
        <time>2012-10-02T19:38:12Z</time>
      </trkpt>
      <trkpt lat="59.5636450316" lon="17.8492600733">
        <ele>19.2</ele>
        <time>2012-10-02T19:38:13Z</time>
      </trkpt>
      <trkpt lat="59.5636363145" lon="17.8493529448">
        <ele>19.2</ele>
        <time>2012-10-02T19:38:15Z</time>
      </trkpt>
      <trkpt lat="59.5636364821" lon="17.8494128753">
        <ele>19.2</ele>
        <time>2012-10-02T19:38:16Z</time>
      </trkpt>
      <trkpt lat="59.5636423494" lon="17.8497998677">
        <ele>19.2</ele>
        <time>2012-10-02T19:38:20Z</time>
      </trkpt>
      <trkpt lat="59.5636414274" lon="17.84989232">
        <ele>18.8</ele>
        <time>2012-10-02T19:38:21Z</time>
      </trkpt>
      <trkpt lat="59.5636389129" lon="17.8499697688">
        <ele>18.4</ele>
        <time>2012-10-02T19:38:22Z</time>
      </trkpt>
      <trkpt lat="59.5636363145" lon="17.8500470499">
        <ele>18</ele>
        <time>2012-10-02T19:38:23Z</time>
      </trkpt>
      <trkpt lat="59.5636317044" lon="17.8501384964">
        <ele>17.6</ele>
        <time>2012-10-02T19:38:24Z</time>
      </trkpt>
      <trkpt lat="59.5636278488" lon="17.8502464553">
        <ele>17.2</ele>
        <time>2012-10-02T19:38:25Z</time>
      </trkpt>
      <trkpt lat="59.5636227358" lon="17.8503574317">
        <ele>16.4</ele>
        <time>2012-10-02T19:38:26Z</time>
      </trkpt>
      <trkpt lat="59.5636151083" lon="17.850462876">
        <ele>16</ele>
        <time>2012-10-02T19:38:27Z</time>
      </trkpt>
      <trkpt lat="59.5636058044" lon="17.8505552445">
        <ele>15.6</ele>
        <time>2012-10-02T19:38:28Z</time>
      </trkpt>
      <trkpt lat="59.5635923933" lon="17.8506409913">
        <ele>15.2</ele>
        <time>2012-10-02T19:38:29Z</time>
      </trkpt>
      <trkpt lat="59.5635801557" lon="17.8507188592">
        <ele>14.8</ele>
        <time>2012-10-02T19:38:30Z</time>
      </trkpt>
      <trkpt lat="59.5635675829" lon="17.8507920332">
        <ele>14.4</ele>
        <time>2012-10-02T19:38:31Z</time>
      </trkpt>
      <trkpt lat="59.5635546748" lon="17.8508606809">
        <ele>14</ele>
        <time>2012-10-02T19:38:32Z</time>
      </trkpt>
      <trkpt lat="59.5635426048" lon="17.8509244672">
        <ele>13.4</ele>
        <time>2012-10-02T19:38:33Z</time>
      </trkpt>
      <trkpt lat="59.5635305349" lon="17.8509817994">
        <ele>13</ele>
        <time>2012-10-02T19:38:34Z</time>
      </trkpt>
      <trkpt lat="59.5635163695" lon="17.8510317555">
        <ele>13</ele>
        <time>2012-10-02T19:38:35Z</time>
      </trkpt>
      <trkpt lat="59.563461971" lon="17.8513155666">
        <ele>13</ele>
        <time>2012-10-02T19:38:40Z</time>
      </trkpt>
      <trkpt lat="59.5633908086" lon="17.8517292972">
        <ele>13</ele>
        <time>2012-10-02T19:38:48Z</time>
      </trkpt>
      <trkpt lat="59.5633782358" lon="17.8519080832">
        <ele>13</ele>
        <time>2012-10-02T19:38:53Z</time>
      </trkpt>
      <trkpt lat="59.5634266832" lon="17.8521879548">
        <ele>13</ele>
        <time>2012-10-02T19:38:59Z</time>
      </trkpt>
      <trkpt lat="59.5634457939" lon="17.8525986679">
        <ele>13</ele>
        <time>2012-10-02T19:39:05Z</time>
      </trkpt>
      <trkpt lat="59.5634462968" lon="17.8527353767">
        <ele>13</ele>
        <time>2012-10-02T19:39:07Z</time>
      </trkpt>
      <trkpt lat="59.5634236657" lon="17.8529544796">
        <ele>13</ele>
        <time>2012-10-02T19:39:10Z</time>
      </trkpt>
      <trkpt lat="59.5633849413" lon="17.8533507758">
        <ele>13</ele>
        <time>2012-10-02T19:39:14Z</time>
      </trkpt>
      <trkpt lat="59.563353593" lon="17.8539328149">
        <ele>13</ele>
        <time>2012-10-02T19:39:20Z</time>
      </trkpt>
      <trkpt lat="59.5633246754" lon="17.8545677438">
        <ele>13</ele>
        <time>2012-10-02T19:39:26Z</time>
      </trkpt>
      <trkpt lat="59.5632815086" lon="17.8552209453">
        <ele>13</ele>
        <time>2012-10-02T19:39:32Z</time>
      </trkpt>
      <trkpt lat="59.5631814288" lon="17.8559895655">
        <ele>13</ele>
        <time>2012-10-02T19:39:39Z</time>
      </trkpt>
      <trkpt lat="59.5631609769" lon="17.8560955966">
        <ele>13</ele>
        <time>2012-10-02T19:39:40Z</time>
      </trkpt>
      <trkpt lat="59.5630839473" lon="17.8565205589">
        <ele>13</ele>
        <time>2012-10-02T19:39:44Z</time>
      </trkpt>
      <trkpt lat="59.5630294649" lon="17.8569807252">
        <ele>13</ele>
        <time>2012-10-02T19:39:48Z</time>
      </trkpt>
      <trkpt lat="59.5630311413" lon="17.8573447511">
        <ele>13</ele>
        <time>2012-10-02T19:39:51Z</time>
      </trkpt>
      <trkpt lat="59.563094257" lon="17.8577462441">
        <ele>13</ele>
        <time>2012-10-02T19:39:55Z</time>
      </trkpt>
      <trkpt lat="59.5631492423" lon="17.8580384372">
        <ele>13</ele>
        <time>2012-10-02T19:39:58Z</time>
      </trkpt>
      <trkpt lat="59.563185955" lon="17.858209847">
        <ele>13</ele>
        <time>2012-10-02T19:40:00Z</time>
      </trkpt>
      <trkpt lat="59.5633159583" lon="17.8588152717">
        <ele>13</ele>
        <time>2012-10-02T19:40:07Z</time>
      </trkpt>
      <trkpt lat="59.5634025433" lon="17.8591880148">
        <ele>13</ele>
        <time>2012-10-02T19:40:11Z</time>
      </trkpt>
      <trkpt lat="59.5635449518" lon="17.8596972152">
        <ele>13</ele>
        <time>2012-10-02T19:40:17Z</time>
      </trkpt>
      <trkpt lat="59.563639751" lon="17.8599338362">
        <ele>13</ele>
        <time>2012-10-02T19:40:20Z</time>
      </trkpt>
      <trkpt lat="59.5637336283" lon="17.8600755742">
        <ele>13</ele>
        <time>2012-10-02T19:40:22Z</time>
      </trkpt>
      <trkpt lat="59.5638788028" lon="17.8602446371">
        <ele>13</ele>
        <time>2012-10-02T19:40:25Z</time>
      </trkpt>
      <trkpt lat="59.5639945569" lon="17.8603468963">
        <ele>13</ele>
        <time>2012-10-02T19:40:27Z</time>
      </trkpt>
      <trkpt lat="59.5642997419" lon="17.8606209844">
        <ele>13</ele>
        <time>2012-10-02T19:40:32Z</time>
      </trkpt>
      <trkpt lat="59.5644479338" lon="17.8610669853">
        <ele>13</ele>
        <time>2012-10-02T19:40:36Z</time>
      </trkpt>
      <trkpt lat="59.5644811262" lon="17.8613316857">
        <ele>13</ele>
        <time>2012-10-02T19:40:38Z</time>
      </trkpt>
      <trkpt lat="59.5645390451" lon="17.8617039259">
        <ele>13</ele>
        <time>2012-10-02T19:40:41Z</time>
      </trkpt>
      <trkpt lat="59.5645704772" lon="17.8618142317">
        <ele>13</ele>
        <time>2012-10-02T19:40:42Z</time>
      </trkpt>
      <trkpt lat="59.5647101197" lon="17.8622227655">
        <ele>13</ele>
        <time>2012-10-02T19:40:46Z</time>
      </trkpt>
      <trkpt lat="59.5647596567" lon="17.8624361687">
        <ele>13</ele>
        <time>2012-10-02T19:40:48Z</time>
      </trkpt>
      <trkpt lat="59.5647754147" lon="17.8625481508">
        <ele>13.6</ele>
        <time>2012-10-02T19:40:49Z</time>
      </trkpt>
      <trkpt lat="59.5647860597" lon="17.8626621447">
        <ele>14</ele>
        <time>2012-10-02T19:40:50Z</time>
      </trkpt>
      <trkpt lat="59.564791005" lon="17.8627698521">
        <ele>14.4</ele>
        <time>2012-10-02T19:40:51Z</time>
      </trkpt>
      <trkpt lat="59.5647923461" lon="17.8628742906">
        <ele>14.8</ele>
        <time>2012-10-02T19:40:52Z</time>
      </trkpt>
      <trkpt lat="59.5647899154" lon="17.8629798187">
        <ele>15.2</ele>
        <time>2012-10-02T19:40:53Z</time>
      </trkpt>
      <trkpt lat="59.5647805276" lon="17.8632018552">
        <ele>15.2</ele>
        <time>2012-10-02T19:40:55Z</time>
      </trkpt>
      <trkpt lat="59.5647021569" lon="17.8640423083">
        <ele>15.2</ele>
        <time>2012-10-02T19:41:02Z</time>
      </trkpt>
      <trkpt lat="59.5646916795" lon="17.8641576433">
        <ele>15.6</ele>
        <time>2012-10-02T19:41:03Z</time>
      </trkpt>
      <trkpt lat="59.5646786876" lon="17.8642710504">
        <ele>16</ele>
        <time>2012-10-02T19:41:04Z</time>
      </trkpt>
      <trkpt lat="59.5646646898" lon="17.864379596">
        <ele>16.6</ele>
        <time>2012-10-02T19:41:05Z</time>
      </trkpt>
      <trkpt lat="59.5646458305" lon="17.8644861299">
        <ele>17</ele>
        <time>2012-10-02T19:41:06Z</time>
      </trkpt>
      <trkpt lat="59.5646228641" lon="17.8645896464">
        <ele>17.4</ele>
        <time>2012-10-02T19:41:07Z</time>
      </trkpt>
      <trkpt lat="59.5645947009" lon="17.8646807577">
        <ele>17.4</ele>
        <time>2012-10-02T19:41:08Z</time>
      </trkpt>
      <trkpt lat="59.564546505" lon="17.8648426121">
        <ele>17.4</ele>
        <time>2012-10-02T19:41:10Z</time>
      </trkpt>
      <trkpt lat="59.5645392127" lon="17.8650145249">
        <ele>17.4</ele>
        <time>2012-10-02T19:41:12Z</time>
      </trkpt>
      <trkpt lat="59.5645588264" lon="17.8652649761">
        <ele>17.4</ele>
        <time>2012-10-02T19:41:16Z</time>
      </trkpt>
      <trkpt lat="59.5644865744" lon="17.8655770342">
        <ele>17.4</ele>
        <time>2012-10-02T19:41:20Z</time>
      </trkpt>
      <trkpt lat="59.5644642786" lon="17.8656870048">
        <ele>17.4</ele>
        <time>2012-10-02T19:41:21Z</time>
      </trkpt>
      <trkpt lat="59.5644081198" lon="17.8659230391">
        <ele>17.8</ele>
        <time>2012-10-02T19:41:23Z</time>
      </trkpt>
      <trkpt lat="59.5643838961" lon="17.8660130607">
        <ele>18.4</ele>
        <time>2012-10-02T19:41:24Z</time>
      </trkpt>
      <trkpt lat="59.5643660427" lon="17.8660794453">
        <ele>18.8</ele>
        <time>2012-10-02T19:41:25Z</time>
      </trkpt>
      <trkpt lat="59.5643572417" lon="17.8661221092">
        <ele>19.2</ele>
        <time>2012-10-02T19:41:26Z</time>
      </trkpt>
      <trkpt lat="59.5643553977" lon="17.8661490151">
        <ele>19.6</ele>
        <time>2012-10-02T19:41:27Z</time>
      </trkpt>
      <trkpt lat="59.5643550624" lon="17.8661690478">
        <ele>19.6</ele>
        <time>2012-10-02T19:41:31Z</time>
      </trkpt>
      <trkpt lat="59.5644813776" lon="17.8657627771">
        <ele>17.2</ele>
        <time>2012-10-02T19:42:07Z</time>
      </trkpt>
      <trkpt lat="59.5645712316" lon="17.8653917942">
        <ele>17.2</ele>
        <time>2012-10-02T19:42:12Z</time>
      </trkpt>
      <trkpt lat="59.5645346027" lon="17.8651601185">
        <ele>17.2</ele>
        <time>2012-10-02T19:42:15Z</time>
      </trkpt>
      <trkpt lat="59.5645000693" lon="17.8650329651">
        <ele>17.2</ele>
        <time>2012-10-02T19:42:18Z</time>
      </trkpt>
      <trkpt lat="59.5645592455" lon="17.8648564423">
        <ele>17.2</ele>
        <time>2012-10-02T19:42:22Z</time>
      </trkpt>
      <trkpt lat="59.5646512787" lon="17.8645667638">
        <ele>17.2</ele>
        <time>2012-10-02T19:42:26Z</time>
      </trkpt>
      <trkpt lat="59.56466645" lon="17.864482861">
        <ele>17.2</ele>
        <time>2012-10-02T19:42:27Z</time>
      </trkpt>
      <trkpt lat="59.5647231116" lon="17.8639659492">
        <ele>17.2</ele>
        <time>2012-10-02T19:42:32Z</time>
      </trkpt>
      <trkpt lat="59.5647449046" lon="17.863742404">
        <ele>17.2</ele>
        <time>2012-10-02T19:42:34Z</time>
      </trkpt>
      <trkpt lat="59.5647962018" lon="17.8632855066">
        <ele>17.2</ele>
        <time>2012-10-02T19:42:38Z</time>
      </trkpt>
      <trkpt lat="59.5648034102" lon="17.8627161241">
        <ele>17.2</ele>
        <time>2012-10-02T19:42:43Z</time>
      </trkpt>
      <trkpt lat="59.5647938549" lon="17.8625978555">
        <ele>17.2</ele>
        <time>2012-10-02T19:42:44Z</time>
      </trkpt>
      <trkpt lat="59.5647471677" lon="17.8622578856">
        <ele>16.8</ele>
        <time>2012-10-02T19:42:47Z</time>
      </trkpt>
      <trkpt lat="59.5647190883" lon="17.8621287206">
        <ele>16.4</ele>
        <time>2012-10-02T19:42:48Z</time>
      </trkpt>
      <trkpt lat="59.5646879076" lon="17.8619971247">
        <ele>16</ele>
        <time>2012-10-02T19:42:49Z</time>
      </trkpt>
      <trkpt lat="59.5646513626" lon="17.8618733241">
        <ele>15.6</ele>
        <time>2012-10-02T19:42:50Z</time>
      </trkpt>
      <trkpt lat="59.5646129735" lon="17.8617465059">
        <ele>15</ele>
        <time>2012-10-02T19:42:51Z</time>
      </trkpt>
      <trkpt lat="59.564513145" lon="17.8613847431">
        <ele>15</ele>
        <time>2012-10-02T19:42:54Z</time>
      </trkpt>
      <trkpt lat="59.5644392167" lon="17.8608858524">
        <ele>15</ele>
        <time>2012-10-02T19:42:58Z</time>
      </trkpt>
      <trkpt lat="59.5643753466" lon="17.8606796577">
        <ele>14.6</ele>
        <time>2012-10-02T19:43:00Z</time>
      </trkpt>
      <trkpt lat="59.5643304196" lon="17.8605966769">
        <ele>14.2</ele>
        <time>2012-10-02T19:43:01Z</time>
      </trkpt>
      <trkpt lat="59.564283481" lon="17.860525766">
        <ele>13.8</ele>
        <time>2012-10-02T19:43:02Z</time>
      </trkpt>
      <trkpt lat="59.5642395598" lon="17.8604654163">
        <ele>13.4</ele>
        <time>2012-10-02T19:43:03Z</time>
      </trkpt>
      <trkpt lat="59.5641844907" lon="17.8604068268">
        <ele>13</ele>
        <time>2012-10-02T19:43:04Z</time>
      </trkpt>
      <trkpt lat="59.5640531464" lon="17.8603008796">
        <ele>13</ele>
        <time>2012-10-02T19:43:06Z</time>
      </trkpt>
      <trkpt lat="59.5636695906" lon="17.8599292262">
        <ele>13</ele>
        <time>2012-10-02T19:43:12Z</time>
      </trkpt>
      <trkpt lat="59.56351704" lon="17.8595709">
        <ele>13</ele>
        <time>2012-10-02T19:43:17Z</time>
      </trkpt>
      <trkpt lat="59.563493906" lon="17.8594675511">
        <ele>13</ele>
        <time>2012-10-02T19:43:18Z</time>
      </trkpt>
      <trkpt lat="59.5634281081" lon="17.8591644616">
        <ele>13</ele>
        <time>2012-10-02T19:43:21Z</time>
      </trkpt>
      <trkpt lat="59.5633440376" lon="17.8590596879">
        <ele>13</ele>
        <time>2012-10-02T19:43:23Z</time>
      </trkpt>
      <trkpt lat="59.5631876314" lon="17.8591282518">
        <ele>13</ele>
        <time>2012-10-02T19:43:26Z</time>
      </trkpt>
      <trkpt lat="59.5631370885" lon="17.8591875957">
        <ele>13</ele>
        <time>2012-10-02T19:43:27Z</time>
      </trkpt>
      <trkpt lat="59.5630910719" lon="17.8592540641">
        <ele>13</ele>
        <time>2012-10-02T19:43:28Z</time>
      </trkpt>
      <trkpt lat="59.5629540278" lon="17.8594564032">
        <ele>13</ele>
        <time>2012-10-02T19:43:31Z</time>
      </trkpt>
      <trkpt lat="59.562907173" lon="17.8595098797">
        <ele>13</ele>
        <time>2012-10-02T19:43:32Z</time>
      </trkpt>
      <trkpt lat="59.5627559635" lon="17.8595942855">
        <ele>13.4</ele>
        <time>2012-10-02T19:43:35Z</time>
      </trkpt>
      <trkpt lat="59.5627033252" lon="17.8596023321">
        <ele>13.8</ele>
        <time>2012-10-02T19:43:36Z</time>
      </trkpt>
      <trkpt lat="59.5626470826" lon="17.8595964648">
        <ele>14.2</ele>
        <time>2012-10-02T19:43:37Z</time>
      </trkpt>
      <trkpt lat="59.5625930194" lon="17.8595739174">
        <ele>14.6</ele>
        <time>2012-10-02T19:43:38Z</time>
      </trkpt>
      <trkpt lat="59.5625406325" lon="17.8595381267">
        <ele>15</ele>
        <time>2012-10-02T19:43:39Z</time>
      </trkpt>
      <trkpt lat="59.5624063545" lon="17.8593579159">
        <ele>15.4</ele>
        <time>2012-10-02T19:43:42Z</time>
      </trkpt>
      <trkpt lat="59.5623728269" lon="17.8592998293">
        <ele>15.8</ele>
        <time>2012-10-02T19:43:43Z</time>
      </trkpt>
      <trkpt lat="59.562342652" lon="17.8592256495">
        <ele>16.2</ele>
        <time>2012-10-02T19:43:44Z</time>
      </trkpt>
      <trkpt lat="59.5623135668" lon="17.8591364661">
        <ele>16.6</ele>
        <time>2012-10-02T19:43:45Z</time>
      </trkpt>
      <trkpt lat="59.5622849007" lon="17.8590402419">
        <ele>17</ele>
        <time>2012-10-02T19:43:46Z</time>
      </trkpt>
      <trkpt lat="59.5622535524" lon="17.8589477895">
        <ele>17</ele>
        <time>2012-10-02T19:43:47Z</time>
      </trkpt>
      <trkpt lat="59.5621931189" lon="17.858760957">
        <ele>17.6</ele>
        <time>2012-10-02T19:43:49Z</time>
      </trkpt>
      <trkpt lat="59.5621611001" lon="17.8586754616">
        <ele>18</ele>
        <time>2012-10-02T19:43:50Z</time>
      </trkpt>
      <trkpt lat="59.5621317634" lon="17.8585913911">
        <ele>18.4</ele>
        <time>2012-10-02T19:43:51Z</time>
      </trkpt>
      <trkpt lat="59.5620995769" lon="17.8585046385">
        <ele>18.8</ele>
        <time>2012-10-02T19:43:52Z</time>
      </trkpt>
      <trkpt lat="59.5620709946" lon="17.8584194784">
        <ele>19.4</ele>
        <time>2012-10-02T19:43:53Z</time>
      </trkpt>
      <trkpt lat="59.5619891035" lon="17.8581536045">
        <ele>19.8</ele>
        <time>2012-10-02T19:43:56Z</time>
      </trkpt>
      <trkpt lat="59.5619601021" lon="17.8580631638">
        <ele>20.2</ele>
        <time>2012-10-02T19:43:57Z</time>
      </trkpt>
      <trkpt lat="59.56192867" lon="17.8579790933">
        <ele>20.8</ele>
        <time>2012-10-02T19:43:58Z</time>
      </trkpt>
      <trkpt lat="59.5618973217" lon="17.8578894908">
        <ele>21.2</ele>
        <time>2012-10-02T19:43:59Z</time>
      </trkpt>
      <trkpt lat="59.5618696614" lon="17.8578013971">
        <ele>21.6</ele>
        <time>2012-10-02T19:44:00Z</time>
      </trkpt>
      <trkpt lat="59.5617265824" lon="17.8574211102">
        <ele>21.6</ele>
        <time>2012-10-02T19:44:05Z</time>
      </trkpt>
      <trkpt lat="59.5616600301" lon="17.8573088766">
        <ele>21.6</ele>
        <time>2012-10-02T19:44:07Z</time>
      </trkpt>
      <trkpt lat="59.5615312003" lon="17.8571626125">
        <ele>21.6</ele>
        <time>2012-10-02T19:44:11Z</time>
      </trkpt>
      <trkpt lat="59.5613716089" lon="17.8570254846">
        <ele>21.6</ele>
        <time>2012-10-02T19:44:16Z</time>
      </trkpt>
      <trkpt lat="59.5613445354" lon="17.857050295">
        <ele>21.6</ele>
        <time>2012-10-02T19:44:18Z</time>
      </trkpt>
      <trkpt lat="59.5613480558" lon="17.8570932103">
        <ele>21.6</ele>
        <time>2012-10-02T19:44:19Z</time>
      </trkpt>
      <trkpt lat="59.5614079025" lon="17.8571552364">
        <ele>21.6</ele>
        <time>2012-10-02T19:44:22Z</time>
      </trkpt>
      <trkpt lat="59.5614503988" lon="17.8571833996">
        <ele>21.6</ele>
        <time>2012-10-02T19:44:23Z</time>
      </trkpt>
      <trkpt lat="59.5616255805" lon="17.857332765">
        <ele>21.6</ele>
        <time>2012-10-02T19:44:27Z</time>
      </trkpt>
      <trkpt lat="59.5617685757" lon="17.8576005667">
        <ele>21.6</ele>
        <time>2012-10-02T19:44:31Z</time>
      </trkpt>
      <trkpt lat="59.561803612" lon="17.8576812844">
        <ele>21.6</ele>
        <time>2012-10-02T19:44:32Z</time>
      </trkpt>
      <trkpt lat="59.562001844" lon="17.8582520918">
        <ele>21.6</ele>
        <time>2012-10-02T19:44:38Z</time>
      </trkpt>
      <trkpt lat="59.56226118" lon="17.8589385694">
        <ele>21.6</ele>
        <time>2012-10-02T19:44:45Z</time>
      </trkpt>
      <trkpt lat="59.5623293248" lon="17.8591621985">
        <ele>21.2</ele>
        <time>2012-10-02T19:44:47Z</time>
      </trkpt>
      <trkpt lat="59.5623646964" lon="17.8592709956">
        <ele>20.8</ele>
        <time>2012-10-02T19:44:48Z</time>
      </trkpt>
      <trkpt lat="59.5624049295" lon="17.8593719137">
        <ele>20.4</ele>
        <time>2012-10-02T19:44:49Z</time>
      </trkpt>
      <trkpt lat="59.5624498565" lon="17.8594562356">
        <ele>20</ele>
        <time>2012-10-02T19:44:50Z</time>
      </trkpt>
      <trkpt lat="59.5624967113" lon="17.8595294934">
        <ele>19.6</ele>
        <time>2012-10-02T19:44:51Z</time>
      </trkpt>
      <trkpt lat="59.5625978809" lon="17.8596294056">
        <ele>19.2</ele>
        <time>2012-10-02T19:44:53Z</time>
      </trkpt>
      <trkpt lat="59.562651525" lon="17.859657485">
        <ele>18.6</ele>
        <time>2012-10-02T19:44:54Z</time>
      </trkpt>
      <trkpt lat="59.5627064265" lon="17.8596676271">
        <ele>18.2</ele>
        <time>2012-10-02T19:44:55Z</time>
      </trkpt>
      <trkpt lat="59.5627644292" lon="17.8596637714">
        <ele>17.8</ele>
        <time>2012-10-02T19:44:56Z</time>
      </trkpt>
      <trkpt lat="59.5628402016" lon="17.859625047">
        <ele>17.4</ele>
        <time>2012-10-02T19:44:57Z</time>
      </trkpt>
      <trkpt lat="59.5629148843" lon="17.859560674">
        <ele>17.4</ele>
        <time>2012-10-02T19:44:58Z</time>
      </trkpt>
      <trkpt lat="59.5630311413" lon="17.8594059442">
        <ele>16.8</ele>
        <time>2012-10-02T19:45:00Z</time>
      </trkpt>
      <trkpt lat="59.5630777447" lon="17.8593281601">
        <ele>16</ele>
        <time>2012-10-02T19:45:01Z</time>
      </trkpt>
      <trkpt lat="59.5631247671" lon="17.8592556567">
        <ele>15.4</ele>
        <time>2012-10-02T19:45:02Z</time>
      </trkpt>
      <trkpt lat="59.5631742203" lon="17.8591852487">
        <ele>15</ele>
        <time>2012-10-02T19:45:03Z</time>
      </trkpt>
      <trkpt lat="59.5632758928" lon="17.8590659743">
        <ele>14.6</ele>
        <time>2012-10-02T19:45:05Z</time>
      </trkpt>
      <trkpt lat="59.5633274415" lon="17.8590349613">
        <ele>14.2</ele>
        <time>2012-10-02T19:45:06Z</time>
      </trkpt>
      <trkpt lat="59.5633752183" lon="17.8590545749">
        <ele>13.6</ele>
        <time>2012-10-02T19:45:07Z</time>
      </trkpt>
      <trkpt lat="59.5634105061" lon="17.8591062912">
        <ele>13.2</ele>
        <time>2012-10-02T19:45:08Z</time>
      </trkpt>
      <trkpt lat="59.5634360709" lon="17.8591709995">
        <ele>12.8</ele>
        <time>2012-10-02T19:45:09Z</time>
      </trkpt>
      <trkpt lat="59.5634546787" lon="17.8592423295">
        <ele>12.8</ele>
        <time>2012-10-02T19:45:10Z</time>
      </trkpt>
      <trkpt lat="59.5635219015" lon="17.8595502805">
        <ele>12.8</ele>
        <time>2012-10-02T19:45:15Z</time>
      </trkpt>
      <trkpt lat="59.563621227" lon="17.8598421382">
        <ele>12.8</ele>
        <time>2012-10-02T19:45:21Z</time>
      </trkpt>
      <trkpt lat="59.5637674912" lon="17.8600869735">
        <ele>12.8</ele>
        <time>2012-10-02T19:45:26Z</time>
      </trkpt>
      <trkpt lat="59.5638052098" lon="17.8601250274">
        <ele>12.8</ele>
        <time>2012-10-02T19:45:27Z</time>
      </trkpt>
      <trkpt lat="59.5641119035" lon="17.8604343195">
        <ele>12.8</ele>
        <time>2012-10-02T19:45:35Z</time>
      </trkpt>
      <trkpt lat="59.5643241332" lon="17.8606519974">
        <ele>12.8</ele>
        <time>2012-10-02T19:45:40Z</time>
      </trkpt>
      <trkpt lat="59.5643537213" lon="17.8607093296">
        <ele>12.8</ele>
        <time>2012-10-02T19:45:41Z</time>
      </trkpt>
      <trkpt lat="59.564429326" lon="17.8609484652">
        <ele>12.8</ele>
        <time>2012-10-02T19:45:45Z</time>
      </trkpt>
      <trkpt lat="59.5644452516" lon="17.8610461982">
        <ele>12.8</ele>
        <time>2012-10-02T19:45:46Z</time>
      </trkpt>
      <trkpt lat="59.5644837246" lon="17.8613032711">
        <ele>12.8</ele>
        <time>2012-10-02T19:45:49Z</time>
      </trkpt>
      <trkpt lat="59.5645701419" lon="17.8617033391">
        <ele>12.8</ele>
        <time>2012-10-02T19:45:54Z</time>
      </trkpt>
      <trkpt lat="59.5647457428" lon="17.8623077579">
        <ele>12.8</ele>
        <time>2012-10-02T19:46:01Z</time>
      </trkpt>
      <trkpt lat="59.5648072659" lon="17.8625572033">
        <ele>12.8</ele>
        <time>2012-10-02T19:46:04Z</time>
      </trkpt>
      <trkpt lat="59.5648233591" lon="17.8625975202">
        <ele>12.8</ele>
        <time>2012-10-02T19:46:05Z</time>
      </trkpt>
      <trkpt lat="59.5648453197" lon="17.8627042218">
        <ele>12.8</ele>
        <time>2012-10-02T19:46:09Z</time>
      </trkpt>
      <trkpt lat="59.5648123789" lon="17.8629676649">
        <ele>12.8</ele>
        <time>2012-10-02T19:46:12Z</time>
      </trkpt>
      <trkpt lat="59.5647754985" lon="17.8633027733">
        <ele>13.2</ele>
        <time>2012-10-02T19:46:15Z</time>
      </trkpt>
      <trkpt lat="59.564766949" lon="17.8634112351">
        <ele>13.6</ele>
        <time>2012-10-02T19:46:16Z</time>
      </trkpt>
      <trkpt lat="59.5647585671" lon="17.8635222114">
        <ele>14.6</ele>
        <time>2012-10-02T19:46:17Z</time>
      </trkpt>
      <trkpt lat="59.5647522806" lon="17.8636290807">
        <ele>15</ele>
        <time>2012-10-02T19:46:18Z</time>
      </trkpt>
      <trkpt lat="59.5647417194" lon="17.863732178">
        <ele>15</ele>
        <time>2012-10-02T19:46:19Z</time>
      </trkpt>
      <trkpt lat="59.5646448247" lon="17.8645283747">
        <ele>15</ele>
        <time>2012-10-02T19:46:27Z</time>
      </trkpt>
      <trkpt lat="59.5645940304" lon="17.8646865412">
        <ele>15.4</ele>
        <time>2012-10-02T19:46:29Z</time>
      </trkpt>
      <trkpt lat="59.5645693876" lon="17.8647636546">
        <ele>15.8</ele>
        <time>2012-10-02T19:46:30Z</time>
      </trkpt>
      <trkpt lat="59.5645563956" lon="17.8648460487">
        <ele>16.2</ele>
        <time>2012-10-02T19:46:31Z</time>
      </trkpt>
      <trkpt lat="59.5645583235" lon="17.8649317956">
        <ele>16.6</ele>
        <time>2012-10-02T19:46:32Z</time>
      </trkpt>
      <trkpt lat="59.5645739138" lon="17.8650120103">
        <ele>17.2</ele>
        <time>2012-10-02T19:46:33Z</time>
      </trkpt>
      <trkpt lat="59.5646060165" lon="17.865070516">
        <ele>17.2</ele>
        <time>2012-10-02T19:46:34Z</time>
      </trkpt>
      <trkpt lat="59.5647209323" lon="17.8651390799">
        <ele>17.2</ele>
        <time>2012-10-02T19:46:37Z</time>
      </trkpt>
      <trkpt lat="59.5648268795" lon="17.8651192987">
        <ele>17.2</ele>
        <time>2012-10-02T19:46:40Z</time>
      </trkpt>
      <trkpt lat="59.5648684538" lon="17.865082083">
        <ele>17.2</ele>
        <time>2012-10-02T19:46:41Z</time>
      </trkpt>
      <trkpt lat="59.5649105309" lon="17.8650327975">
        <ele>17.2</ele>
        <time>2012-10-02T19:46:42Z</time>
      </trkpt>
      <trkpt lat="59.5650405342" lon="17.8648504073">
        <ele>17.2</ele>
        <time>2012-10-02T19:46:45Z</time>
      </trkpt>
      <trkpt lat="59.5653523409" lon="17.8643386923">
        <ele>17.2</ele>
        <time>2012-10-02T19:46:52Z</time>
      </trkpt>
      <trkpt lat="59.5656723618" lon="17.8639283983">
        <ele>17.2</ele>
        <time>2012-10-02T19:46:58Z</time>
      </trkpt>
      <trkpt lat="59.5658598649" lon="17.8638127281">
        <ele>17.2</ele>
        <time>2012-10-02T19:47:01Z</time>
      </trkpt>
      <trkpt lat="59.5659871021" lon="17.8637895102">
        <ele>17.2</ele>
        <time>2012-10-02T19:47:03Z</time>
      </trkpt>
      <trkpt lat="59.5662942988" lon="17.8637826371">
        <ele>17.2</ele>
        <time>2012-10-02T19:47:08Z</time>
      </trkpt>
      <trkpt lat="59.5663533912" lon="17.8637954614">
        <ele>17.2</ele>
        <time>2012-10-02T19:47:09Z</time>
      </trkpt>
      <trkpt lat="59.5664679717" lon="17.8638462557">
        <ele>17.2</ele>
        <time>2012-10-02T19:47:11Z</time>
      </trkpt>
      <trkpt lat="59.5666317541" lon="17.8639667036">
        <ele>17.2</ele>
        <time>2012-10-02T19:47:14Z</time>
      </trkpt>
      <trkpt lat="59.5666928581" lon="17.8640277238">
        <ele>17.2</ele>
        <time>2012-10-02T19:47:15Z</time>
      </trkpt>
      <trkpt lat="59.5667576502" lon="17.8640884926">
        <ele>17.6</ele>
        <time>2012-10-02T19:47:16Z</time>
      </trkpt>
      <trkpt lat="59.5668173293" lon="17.8641549611">
        <ele>18</ele>
        <time>2012-10-02T19:47:17Z</time>
      </trkpt>
      <trkpt lat="59.5668780143" lon="17.8642180768">
        <ele>18.4</ele>
        <time>2012-10-02T19:47:18Z</time>
      </trkpt>
      <trkpt lat="59.56693652" lon="17.864276331">
        <ele>18.8</ele>
        <time>2012-10-02T19:47:19Z</time>
      </trkpt>
      <trkpt lat="59.5669954447" lon="17.8643267062">
        <ele>19.4</ele>
        <time>2012-10-02T19:47:20Z</time>
      </trkpt>
      <trkpt lat="59.5671149706" lon="17.8644153029">
        <ele>19.8</ele>
        <time>2012-10-02T19:47:22Z</time>
      </trkpt>
      <trkpt lat="59.5671787569" lon="17.8644576315">
        <ele>20.2</ele>
        <time>2012-10-02T19:47:23Z</time>
      </trkpt>
      <trkpt lat="59.567239358" lon="17.8644918296">
        <ele>20.6</ele>
        <time>2012-10-02T19:47:24Z</time>
      </trkpt>
      <trkpt lat="59.5672987019" lon="17.8645193223">
        <ele>21</ele>
        <time>2012-10-02T19:47:25Z</time>
      </trkpt>
      <trkpt lat="59.5673581295" lon="17.8645354155">
        <ele>21.4</ele>
        <time>2012-10-02T19:47:26Z</time>
      </trkpt>
      <trkpt lat="59.5675932418" lon="17.8645592201">
        <ele>21.4</ele>
        <time>2012-10-02T19:47:30Z</time>
      </trkpt>
      <trkpt lat="59.5678441121" lon="17.8645700328">
        <ele>21.8</ele>
        <time>2012-10-02T19:47:34Z</time>
      </trkpt>
      <trkpt lat="59.5679078983" lon="17.8645695298">
        <ele>22.2</ele>
        <time>2012-10-02T19:47:35Z</time>
      </trkpt>
      <trkpt lat="59.5679703435" lon="17.8645533528">
        <ele>22.6</ele>
        <time>2012-10-02T19:47:36Z</time>
      </trkpt>
      <trkpt lat="59.5680318666" lon="17.8645222559">
        <ele>23.2</ele>
        <time>2012-10-02T19:47:37Z</time>
      </trkpt>
      <trkpt lat="59.5680990895" lon="17.8644830286">
        <ele>23.6</ele>
        <time>2012-10-02T19:47:38Z</time>
      </trkpt>
      <trkpt lat="59.5682280869" lon="17.8643836193">
        <ele>23.6</ele>
        <time>2012-10-02T19:47:40Z</time>
      </trkpt>
      <trkpt lat="59.5682932981" lon="17.864336513">
        <ele>23.6</ele>
        <time>2012-10-02T19:47:41Z</time>
      </trkpt>
      <trkpt lat="59.5685335234" lon="17.86411565">
        <ele>24</ele>
        <time>2012-10-02T19:47:45Z</time>
      </trkpt>
      <trkpt lat="59.5685958847" lon="17.8640565576">
        <ele>24.4</ele>
        <time>2012-10-02T19:47:46Z</time>
      </trkpt>
      <trkpt lat="59.5686551447" lon="17.8639996445">
        <ele>24.8</ele>
        <time>2012-10-02T19:47:47Z</time>
      </trkpt>
      <trkpt lat="59.5687135666" lon="17.8639430666">
        <ele>25.2</ele>
        <time>2012-10-02T19:47:48Z</time>
      </trkpt>
      <trkpt lat="59.5687703959" lon="17.8638876623">
        <ele>25.6</ele>
        <time>2012-10-02T19:47:49Z</time>
      </trkpt>
      <trkpt lat="59.5692371001" lon="17.863459431">
        <ele>25.6</ele>
        <time>2012-10-02T19:47:57Z</time>
      </trkpt>
      <trkpt lat="59.5696765631" lon="17.8631256637">
        <ele>25.6</ele>
        <time>2012-10-02T19:48:04Z</time>
      </trkpt>
      <trkpt lat="59.5700764635" lon="17.8628817505">
        <ele>25.6</ele>
        <time>2012-10-02T19:48:11Z</time>
      </trkpt>
      <trkpt lat="59.5702391562" lon="17.8627866159">
        <ele>25.6</ele>
        <time>2012-10-02T19:48:14Z</time>
      </trkpt>
      <trkpt lat="59.5702953149" lon="17.8627640686">
        <ele>26</ele>
        <time>2012-10-02T19:48:15Z</time>
      </trkpt>
      <trkpt lat="59.5703529824" lon="17.8627434491">
        <ele>26.6</ele>
        <time>2012-10-02T19:48:16Z</time>
      </trkpt>
      <trkpt lat="59.5704119072" lon="17.8627231649">
        <ele>27</ele>
        <time>2012-10-02T19:48:17Z</time>
      </trkpt>
      <trkpt lat="59.5704706643" lon="17.862705982">
        <ele>27.4</ele>
        <time>2012-10-02T19:48:18Z</time>
      </trkpt>
      <trkpt lat="59.5705311816" lon="17.8626840214">
        <ele>27.8</ele>
        <time>2012-10-02T19:48:19Z</time>
      </trkpt>
      <trkpt lat="59.5705933753" lon="17.862659211">
        <ele>28.2</ele>
        <time>2012-10-02T19:48:20Z</time>
      </trkpt>
      <trkpt lat="59.5706515457" lon="17.8626381724">
        <ele>28.6</ele>
        <time>2012-10-02T19:48:21Z</time>
      </trkpt>
      <trkpt lat="59.5707103866" lon="17.8626159604">
        <ele>29.2</ele>
        <time>2012-10-02T19:48:22Z</time>
      </trkpt>
      <trkpt lat="59.5707675512" lon="17.8625946704">
        <ele>29.6</ele>
        <time>2012-10-02T19:48:23Z</time>
      </trkpt>
      <trkpt lat="59.5708284876" lon="17.862570782">
        <ele>30</ele>
        <time>2012-10-02T19:48:24Z</time>
      </trkpt>
      <trkpt lat="59.5708860712" lon="17.8625411939">
        <ele>30</ele>
        <time>2012-10-02T19:48:25Z</time>
      </trkpt>
      <trkpt lat="59.571083465" lon="17.8623298023">
        <ele>30</ele>
        <time>2012-10-02T19:48:29Z</time>
      </trkpt>
      <trkpt lat="59.5712348421" lon="17.8620017348">
        <ele>30</ele>
        <time>2012-10-02T19:48:33Z</time>
      </trkpt>
      <trkpt lat="59.5712621671" lon="17.8619062649">
        <ele>30</ele>
        <time>2012-10-02T19:48:34Z</time>
      </trkpt>
      <trkpt lat="59.571487724" lon="17.8611934682">
        <ele>30</ele>
        <time>2012-10-02T19:48:41Z</time>
      </trkpt>
      <trkpt lat="59.5715795058" lon="17.8609905424">
        <ele>30</ele>
        <time>2012-10-02T19:48:43Z</time>
      </trkpt>
      <trkpt lat="59.5716928291" lon="17.8608344714">
        <ele>30</ele>
        <time>2012-10-02T19:48:45Z</time>
      </trkpt>
      <trkpt lat="59.5718740458" lon="17.8606386702">
        <ele>30</ele>
        <time>2012-10-02T19:48:48Z</time>
      </trkpt>
      <trkpt lat="59.5720484731" lon="17.8604581241">
        <ele>30</ele>
        <time>2012-10-02T19:48:51Z</time>
      </trkpt>
      <trkpt lat="59.5724648021" lon="17.8600621631">
        <ele>30</ele>
        <time>2012-10-02T19:48:58Z</time>
      </trkpt>
      <trkpt lat="59.5729747569" lon="17.8595600873">
        <ele>30</ele>
        <time>2012-10-02T19:49:06Z</time>
      </trkpt>
      <trkpt lat="59.5730380402" lon="17.8594978098">
        <ele>30</ele>
        <time>2012-10-02T19:49:07Z</time>
      </trkpt>
      <trkpt lat="59.5735671896" lon="17.85899389">
        <ele>30</ele>
        <time>2012-10-02T19:49:15Z</time>
      </trkpt>
      <trkpt lat="59.5736957679" lon="17.8588711789">
        <ele>30</ele>
        <time>2012-10-02T19:49:17Z</time>
      </trkpt>
      <trkpt lat="59.5742160325" lon="17.8583781556">
        <ele>30</ele>
        <time>2012-10-02T19:49:25Z</time>
      </trkpt>
      <trkpt lat="59.5746388993" lon="17.8579597311">
        <ele>30</ele>
        <time>2012-10-02T19:49:32Z</time>
      </trkpt>
      <trkpt lat="59.5747362132" lon="17.8578535325">
        <ele>30</ele>
        <time>2012-10-02T19:49:34Z</time>
      </trkpt>
      <trkpt lat="59.5750234609" lon="17.857598136">
        <ele>30.4</ele>
        <time>2012-10-02T19:49:37Z</time>
      </trkpt>
      <trkpt lat="59.5750739199" lon="17.857558322">
        <ele>30.8</ele>
        <time>2012-10-02T19:49:41Z</time>
      </trkpt>
      <trkpt lat="59.575123457" lon="17.8575112157">
        <ele>31.2</ele>
        <time>2012-10-02T19:49:42Z</time>
      </trkpt>
      <trkpt lat="59.5751731616" lon="17.8574641094">
        <ele>31.6</ele>
        <time>2012-10-02T19:49:43Z</time>
      </trkpt>
      <trkpt lat="59.5752199326" lon="17.8574113872">
        <ele>32</ele>
        <time>2012-10-02T19:49:44Z</time>
      </trkpt>
      <trkpt lat="59.5753226109" lon="17.8573071164">
        <ele>32</ele>
        <time>2012-10-02T19:49:46Z</time>
      </trkpt>
      <trkpt lat="59.5756925042" lon="17.8569105687">
        <ele>32</ele>
        <time>2012-10-02T19:49:54Z</time>
      </trkpt>
      <trkpt lat="59.5757367606" lon="17.8568532365">
        <ele>32</ele>
        <time>2012-10-02T19:49:55Z</time>
      </trkpt>
      <trkpt lat="59.5759080028" lon="17.8565355625">
        <ele>32</ele>
        <time>2012-10-02T19:49:59Z</time>
      </trkpt>
      <trkpt lat="59.5760017124" lon="17.8563501549">
        <ele>31</ele>
        <time>2012-10-02T19:50:01Z</time>
      </trkpt>
      <trkpt lat="59.5760533449" lon="17.8562494883">
        <ele>30.6</ele>
        <time>2012-10-02T19:50:02Z</time>
      </trkpt>
      <trkpt lat="59.5761040554" lon="17.8561515039">
        <ele>30.2</ele>
        <time>2012-10-02T19:50:03Z</time>
      </trkpt>
      <trkpt lat="59.5761616391" lon="17.8560458081">
        <ele>29.8</ele>
        <time>2012-10-02T19:50:04Z</time>
      </trkpt>
      <trkpt lat="59.5762142774" lon="17.8559516794">
        <ele>29.8</ele>
        <time>2012-10-02T19:50:05Z</time>
      </trkpt>
      <trkpt lat="59.5766343783" lon="17.8551902676">
        <ele>29.8</ele>
        <time>2012-10-02T19:50:13Z</time>
      </trkpt>
      <trkpt lat="59.5770066184" lon="17.8544897922">
        <ele>29.8</ele>
        <time>2012-10-02T19:50:20Z</time>
      </trkpt>
      <trkpt lat="59.5773449957" lon="17.8538728843">
        <ele>29.8</ele>
        <time>2012-10-02T19:50:26Z</time>
      </trkpt>
      <trkpt lat="59.5774813693" lon="17.853641963">
        <ele>29.4</ele>
        <time>2012-10-02T19:50:29Z</time>
      </trkpt>
      <trkpt lat="59.5775278888" lon="17.8536026519">
        <ele>28.8</ele>
        <time>2012-10-02T19:50:30Z</time>
      </trkpt>
      <trkpt lat="59.577580108" lon="17.8535997182">
        <ele>28.4</ele>
        <time>2012-10-02T19:50:31Z</time>
      </trkpt>
      <trkpt lat="59.5776257056" lon="17.8536203377">
        <ele>28</ele>
        <time>2012-10-02T19:50:32Z</time>
      </trkpt>
      <trkpt lat="59.5776666092" lon="17.8536780052">
        <ele>27.6</ele>
        <time>2012-10-02T19:50:33Z</time>
      </trkpt>
      <trkpt lat="59.5777471593" lon="17.8539625707">
        <ele>27.6</ele>
        <time>2012-10-02T19:50:36Z</time>
      </trkpt>
      <trkpt lat="59.5778616561" lon="17.8545504771">
        <ele>27.6</ele>
        <time>2012-10-02T19:50:41Z</time>
      </trkpt>
      <trkpt lat="59.5779153002" lon="17.8547838292">
        <ele>28</ele>
        <time>2012-10-02T19:50:43Z</time>
      </trkpt>
      <trkpt lat="59.5779395239" lon="17.8548995833">
        <ele>28.4</ele>
        <time>2012-10-02T19:50:44Z</time>
      </trkpt>
      <trkpt lat="59.5779648372" lon="17.8550118169">
        <ele>28.8</ele>
        <time>2012-10-02T19:50:45Z</time>
      </trkpt>
      <trkpt lat="59.5779883066" lon="17.8551281577">
        <ele>29.2</ele>
        <time>2012-10-02T19:50:46Z</time>
      </trkpt>
      <trkpt lat="59.578009429" lon="17.8552384635">
        <ele>29.6</ele>
        <time>2012-10-02T19:50:47Z</time>
      </trkpt>
      <trkpt lat="59.5780564514" lon="17.8554477595">
        <ele>30</ele>
        <time>2012-10-02T19:50:49Z</time>
      </trkpt>
      <trkpt lat="59.5780771547" lon="17.8555459116">
        <ele>31</ele>
        <time>2012-10-02T19:50:50Z</time>
      </trkpt>
      <trkpt lat="59.5780975227" lon="17.8556434769">
        <ele>31.4</ele>
        <time>2012-10-02T19:50:51Z</time>
      </trkpt>
      <trkpt lat="59.5781159629" lon="17.8557469934">
        <ele>31.8</ele>
        <time>2012-10-02T19:50:52Z</time>
      </trkpt>
      <trkpt lat="59.578133984" lon="17.8558423794">
        <ele>31.8</ele>
        <time>2012-10-02T19:50:53Z</time>
      </trkpt>
      <trkpt lat="59.5781696071" lon="17.8560207462">
        <ele>32.2</ele>
        <time>2012-10-02T19:50:55Z</time>
      </trkpt>
      <trkpt lat="59.5781872929" lon="17.8561052358">
        <ele>32.6</ele>
        <time>2012-10-02T19:50:56Z</time>
      </trkpt>
      <trkpt lat="59.5782067389" lon="17.8561951736">
        <ele>33</ele>
        <time>2012-10-02T19:50:57Z</time>
      </trkpt>
      <trkpt lat="59.5782258496" lon="17.8562903081">
        <ele>33.4</ele>
        <time>2012-10-02T19:50:58Z</time>
      </trkpt>
      <trkpt lat="59.5782428649" lon="17.8563822576">
        <ele>34</ele>
        <time>2012-10-02T19:50:59Z</time>
      </trkpt>
      <trkpt lat="59.5782604669" lon="17.8564794038">
        <ele>34</ele>
        <time>2012-10-02T19:51:00Z</time>
      </trkpt>
      <trkpt lat="59.5782802481" lon="17.8565727781">
        <ele>34.4</ele>
        <time>2012-10-02T19:51:01Z</time>
      </trkpt>
      <trkpt lat="59.5782975987" lon="17.8566681642">
        <ele>34.8</ele>
        <time>2012-10-02T19:51:02Z</time>
      </trkpt>
      <trkpt lat="59.5783167932" lon="17.8567627958">
        <ele>35.2</ele>
        <time>2012-10-02T19:51:03Z</time>
      </trkpt>
      <trkpt lat="59.5783307072" lon="17.856841921">
        <ele>35.8</ele>
        <time>2012-10-02T19:51:04Z</time>
      </trkpt>
      <trkpt lat="59.5783395082" lon="17.8569226387">
        <ele>36.2</ele>
        <time>2012-10-02T19:51:05Z</time>
      </trkpt>
      <trkpt lat="59.5783441182" lon="17.8570093913">
        <ele>36.6</ele>
        <time>2012-10-02T19:51:06Z</time>
      </trkpt>
      <trkpt lat="59.5783534221" lon="17.8570953896">
        <ele>37</ele>
        <time>2012-10-02T19:51:07Z</time>
      </trkpt>
      <trkpt lat="59.5783645701" lon="17.8571830643">
        <ele>37.6</ele>
        <time>2012-10-02T19:51:08Z</time>
      </trkpt>
      <trkpt lat="59.57837664" lon="17.85726747">
        <ele>38</ele>
        <time>2012-10-02T19:51:09Z</time>
      </trkpt>
      <trkpt lat="59.5783831779" lon="17.857361934">
        <ele>38.4</ele>
        <time>2012-10-02T19:51:10Z</time>
      </trkpt>
      <trkpt lat="59.5783899672" lon="17.8574532967">
        <ele>38.4</ele>
        <time>2012-10-02T19:51:11Z</time>
      </trkpt>
      <trkpt lat="59.5783980138" lon="17.857547174">
        <ele>38.8</ele>
        <time>2012-10-02T19:51:12Z</time>
      </trkpt>
      <trkpt lat="59.5784079883" lon="17.857643985">
        <ele>39.2</ele>
        <time>2012-10-02T19:51:13Z</time>
      </trkpt>
      <trkpt lat="59.5784184657" lon="17.8577436458">
        <ele>39.6</ele>
        <time>2012-10-02T19:51:14Z</time>
      </trkpt>
      <trkpt lat="59.5784284401" lon="17.8578448991">
        <ele>40.6</ele>
        <time>2012-10-02T19:51:15Z</time>
      </trkpt>
      <trkpt lat="59.5784395881" lon="17.8579494214">
        <ele>41</ele>
        <time>2012-10-02T19:51:16Z</time>
      </trkpt>
      <trkpt lat="59.5784496463" lon="17.8580495013">
        <ele>41.4</ele>
        <time>2012-10-02T19:51:17Z</time>
      </trkpt>
      <trkpt lat="59.578459537" lon="17.8581548618">
        <ele>41.8</ele>
        <time>2012-10-02T19:51:18Z</time>
      </trkpt>
      <trkpt lat="59.5784725289" lon="17.8582572048">
        <ele>42.2</ele>
        <time>2012-10-02T19:51:19Z</time>
      </trkpt>
      <trkpt lat="59.5784853532" lon="17.8583629844">
        <ele>42.6</ele>
        <time>2012-10-02T19:51:20Z</time>
      </trkpt>
      <trkpt lat="59.578521563" lon="17.8586688399">
        <ele>43</ele>
        <time>2012-10-02T19:51:23Z</time>
      </trkpt>
      <trkpt lat="59.5785398356" lon="17.8587626333">
        <ele>43.4</ele>
        <time>2012-10-02T19:51:24Z</time>
      </trkpt>
      <trkpt lat="59.5785543363" lon="17.8588581032">
        <ele>43.8</ele>
        <time>2012-10-02T19:51:25Z</time>
      </trkpt>
      <trkpt lat="59.5785670768" lon="17.8589565905">
        <ele>44.2</ele>
        <time>2012-10-02T19:51:26Z</time>
      </trkpt>
      <trkpt lat="59.5785800687" lon="17.8590482885">
        <ele>44.8</ele>
        <time>2012-10-02T19:51:27Z</time>
      </trkpt>
      <trkpt lat="59.5786198827" lon="17.859324975">
        <ele>44.8</ele>
        <time>2012-10-02T19:51:30Z</time>
      </trkpt>
      <trkpt lat="59.5786542485" lon="17.859512059">
        <ele>44.8</ele>
        <time>2012-10-02T19:51:32Z</time>
      </trkpt>
      <trkpt lat="59.578792969" lon="17.8601141309">
        <ele>44.8</ele>
        <time>2012-10-02T19:51:38Z</time>
      </trkpt>
      <trkpt lat="59.5790269916" lon="17.8606950804">
        <ele>44.8</ele>
        <time>2012-10-02T19:51:44Z</time>
      </trkpt>
      <trkpt lat="59.5793372896" lon="17.861204197">
        <ele>44.8</ele>
        <time>2012-10-02T19:51:49Z</time>
      </trkpt>
      <trkpt lat="59.5795615054" lon="17.8615776945">
        <ele>44.2</ele>
        <time>2012-10-02T19:51:52Z</time>
      </trkpt>
      <trkpt lat="59.5796318295" lon="17.8617320891">
        <ele>43.6</ele>
        <time>2012-10-02T19:51:53Z</time>
      </trkpt>
      <trkpt lat="59.5797031595" lon="17.8619063488">
        <ele>43.2</ele>
        <time>2012-10-02T19:51:54Z</time>
      </trkpt>
      <trkpt lat="59.579762671" lon="17.8620876493">
        <ele>42.6</ele>
        <time>2012-10-02T19:51:55Z</time>
      </trkpt>
      <trkpt lat="59.5798212605" lon="17.8622794271">
        <ele>41.8</ele>
        <time>2012-10-02T19:51:56Z</time>
      </trkpt>
      <trkpt lat="59.5798733121" lon="17.8624783296">
        <ele>41.2</ele>
        <time>2012-10-02T19:51:57Z</time>
      </trkpt>
      <trkpt lat="59.5799221785" lon="17.8626779027">
        <ele>40.6</ele>
        <time>2012-10-02T19:51:58Z</time>
      </trkpt>
      <trkpt lat="59.5799725538" lon="17.862885187">
        <ele>40</ele>
        <time>2012-10-02T19:51:59Z</time>
      </trkpt>
      <trkpt lat="59.5800147147" lon="17.8630981711">
        <ele>39.2</ele>
        <time>2012-10-02T19:52:00Z</time>
      </trkpt>
      <trkpt lat="59.5800563728" lon="17.8633051202">
        <ele>38.6</ele>
        <time>2012-10-02T19:52:01Z</time>
      </trkpt>
      <trkpt lat="59.5801043172" lon="17.8635119017">
        <ele>38</ele>
        <time>2012-10-02T19:52:02Z</time>
      </trkpt>
      <trkpt lat="59.5801500824" lon="17.8636989857">
        <ele>37.2</ele>
        <time>2012-10-02T19:52:03Z</time>
      </trkpt>
      <trkpt lat="59.5801944226" lon="17.8638818788">
        <ele>36</ele>
        <time>2012-10-02T19:52:04Z</time>
      </trkpt>
      <trkpt lat="59.5802375056" lon="17.8640647718">
        <ele>35.2</ele>
        <time>2012-10-02T19:52:05Z</time>
      </trkpt>
      <trkpt lat="59.5802756433" lon="17.8642439768">
        <ele>34.8</ele>
        <time>2012-10-02T19:52:06Z</time>
      </trkpt>
      <trkpt lat="59.5803137809" lon="17.8644181527">
        <ele>34.4</ele>
        <time>2012-10-02T19:52:07Z</time>
      </trkpt>
      <trkpt lat="59.5803517509" lon="17.8645859584">
        <ele>34</ele>
        <time>2012-10-02T19:52:08Z</time>
      </trkpt>
      <trkpt lat="59.5803903076" lon="17.8647621459">
        <ele>33.6</ele>
        <time>2012-10-02T19:52:09Z</time>
      </trkpt>
      <trkpt lat="59.5804246734" lon="17.8649266826">
        <ele>33.2</ele>
        <time>2012-10-02T19:52:10Z</time>
      </trkpt>
      <trkpt lat="59.5806373222" lon="17.8658900144">
        <ele>33.2</ele>
        <time>2012-10-02T19:52:16Z</time>
      </trkpt>
      <trkpt lat="59.5806738673" lon="17.8660554731">
        <ele>33.2</ele>
        <time>2012-10-02T19:52:17Z</time>
      </trkpt>
      <trkpt lat="59.5809112427" lon="17.8671185495">
        <ele>33.2</ele>
        <time>2012-10-02T19:52:24Z</time>
      </trkpt>
      <trkpt lat="59.5811476961" lon="17.8681497746">
        <ele>33.2</ele>
        <time>2012-10-02T19:52:31Z</time>
      </trkpt>
      <trkpt lat="59.5811798826" lon="17.8682884112">
        <ele>33.2</ele>
        <time>2012-10-02T19:52:32Z</time>
      </trkpt>
      <trkpt lat="59.5814082056" lon="17.8692904674">
        <ele>33.2</ele>
        <time>2012-10-02T19:52:39Z</time>
      </trkpt>
      <trkpt lat="59.58164139" lon="17.8702883326">
        <ele>33.2</ele>
        <time>2012-10-02T19:52:46Z</time>
      </trkpt>
      <trkpt lat="59.5816718163" lon="17.870425209">
        <ele>33.2</ele>
        <time>2012-10-02T19:52:47Z</time>
      </trkpt>
      <trkpt lat="59.5818390352" lon="17.8712370798">
        <ele>33.2</ele>
        <time>2012-10-02T19:52:53Z</time>
      </trkpt>
      <trkpt lat="59.5821088486" lon="17.8722793691">
        <ele>33.2</ele>
        <time>2012-10-02T19:53:01Z</time>
      </trkpt>
      <trkpt lat="59.5823835235" lon="17.8728914154">
        <ele>33.2</ele>
        <time>2012-10-02T19:53:06Z</time>
      </trkpt>
      <trkpt lat="59.5826679213" lon="17.873242617">
        <ele>33.2</ele>
        <time>2012-10-02T19:53:10Z</time>
      </trkpt>
      <trkpt lat="59.58274076" lon="17.8733233347">
        <ele>32.8</ele>
        <time>2012-10-02T19:53:11Z</time>
      </trkpt>
      <trkpt lat="59.5828096593" lon="17.8734119314">
        <ele>32.2</ele>
        <time>2012-10-02T19:53:12Z</time>
      </trkpt>
      <trkpt lat="59.5828781394" lon="17.8734992708">
        <ele>31.8</ele>
        <time>2012-10-02T19:53:13Z</time>
      </trkpt>
      <trkpt lat="59.5829498885" lon="17.8735814973">
        <ele>31.4</ele>
        <time>2012-10-02T19:53:14Z</time>
      </trkpt>
      <trkpt lat="59.5830201288" lon="17.873662215">
        <ele>30.8</ele>
        <time>2012-10-02T19:53:15Z</time>
      </trkpt>
      <trkpt lat="59.583160358" lon="17.8738114966">
        <ele>30.8</ele>
        <time>2012-10-02T19:53:17Z</time>
      </trkpt>
      <trkpt lat="59.5835634435" lon="17.874289684">
        <ele>30.8</ele>
        <time>2012-10-02T19:53:23Z</time>
      </trkpt>
      <trkpt lat="59.5840764996" lon="17.8749100284">
        <ele>30.8</ele>
        <time>2012-10-02T19:53:31Z</time>
      </trkpt>
      <trkpt lat="59.5845330617" lon="17.8754243418">
        <ele>30.8</ele>
        <time>2012-10-02T19:53:38Z</time>
      </trkpt>
      <trkpt lat="59.5849922222" lon="17.8760084764">
        <ele>30.8</ele>
        <time>2012-10-02T19:53:45Z</time>
      </trkpt>
      <trkpt lat="59.5853584274" lon="17.8765047687">
        <ele>30.8</ele>
        <time>2012-10-02T19:53:51Z</time>
      </trkpt>
      <trkpt lat="59.5856921947" lon="17.8770188306">
        <ele>30.8</ele>
        <time>2012-10-02T19:53:57Z</time>
      </trkpt>
      <trkpt lat="59.585923116" lon="17.8774059068">
        <ele>31.4</ele>
        <time>2012-10-02T19:54:01Z</time>
      </trkpt>
      <trkpt lat="59.5859779336" lon="17.8775059028">
        <ele>31.8</ele>
        <time>2012-10-02T19:54:02Z</time>
      </trkpt>
      <trkpt lat="59.5860304882" lon="17.8776009536">
        <ele>32.2</ele>
        <time>2012-10-02T19:54:03Z</time>
      </trkpt>
      <trkpt lat="59.5860811987" lon="17.8776931545">
        <ele>32.6</ele>
        <time>2012-10-02T19:54:04Z</time>
      </trkpt>
      <trkpt lat="59.5861257065" lon="17.8777824217">
        <ele>33</ele>
        <time>2012-10-02T19:54:05Z</time>
      </trkpt>
      <trkpt lat="59.5862175722" lon="17.8780182884">
        <ele>33</ele>
        <time>2012-10-02T19:54:08Z</time>
      </trkpt>
      <trkpt lat="59.5862639241" lon="17.8781605292">
        <ele>33</ele>
        <time>2012-10-02T19:54:10Z</time>
      </trkpt>
      <trkpt lat="59.5863448094" lon="17.878430175">
        <ele>33</ele>
        <time>2012-10-02T19:54:14Z</time>
      </trkpt>
      <trkpt lat="59.5863580528" lon="17.8784818913">
        <ele>33</ele>
        <time>2012-10-02T19:54:15Z</time>
      </trkpt>
      <trkpt lat="59.5863816059" lon="17.8785860783">
        <ele>33</ele>
        <time>2012-10-02T19:55:23Z</time>
      </trkpt>
      <trkpt lat="59.5863816059" lon="17.8785860783">
        <ele>33</ele>
        <time>2012-10-02T19:55:24Z</time>
      </trkpt>
      <trkpt lat="59.5864017225" lon="17.8786683886">
        <ele>33</ele>
        <time>2012-10-02T19:55:27Z</time>
      </trkpt>
      <trkpt lat="59.5864134572" lon="17.8787190152">
        <ele>33</ele>
        <time>2012-10-02T19:55:28Z</time>
      </trkpt>
      <trkpt lat="59.5864954322" lon="17.8789415547">
        <ele>33</ele>
        <time>2012-10-02T19:55:31Z</time>
      </trkpt>
      <trkpt lat="59.5866463064" lon="17.8793085143">
        <ele>33</ele>
        <time>2012-10-02T19:55:35Z</time>
      </trkpt>
      <trkpt lat="59.5866808398" lon="17.8793963566">
        <ele>33</ele>
        <time>2012-10-02T19:55:36Z</time>
      </trkpt>
      <trkpt lat="59.5867951689" lon="17.8797373323">
        <ele>33</ele>
        <time>2012-10-02T19:55:39Z</time>
      </trkpt>
      <trkpt lat="59.587113262" lon="17.8805319364">
        <ele>33</ele>
        <time>2012-10-02T19:55:45Z</time>
      </trkpt>
      <trkpt lat="59.5874779585" lon="17.8814119521">
        <ele>33</ele>
        <time>2012-10-02T19:55:52Z</time>
      </trkpt>
      <trkpt lat="59.5875772002" lon="17.8816418676">
        <ele>33.4</ele>
        <time>2012-10-02T19:55:54Z</time>
      </trkpt>
      <trkpt lat="59.5876238035" lon="17.8817598847">
        <ele>33.8</ele>
        <time>2012-10-02T19:55:55Z</time>
      </trkpt>
      <trkpt lat="59.5876710774" lon="17.8818772313">
        <ele>34.2</ele>
        <time>2012-10-02T19:55:56Z</time>
      </trkpt>
      <trkpt lat="59.5877177646" lon="17.8819943265">
        <ele>34.6</ele>
        <time>2012-10-02T19:55:57Z</time>
      </trkpt>
      <trkpt lat="59.5877656253" lon="17.8821118407">
        <ele>35</ele>
        <time>2012-10-02T19:55:58Z</time>
      </trkpt>
      <trkpt lat="59.5878952095" lon="17.8824375613">
        <ele>35</ele>
        <time>2012-10-02T19:56:01Z</time>
      </trkpt>
      <trkpt lat="59.5880957883" lon="17.8829507013">
        <ele>35</ele>
        <time>2012-10-02T19:56:06Z</time>
      </trkpt>
      <trkpt lat="59.588225121" lon="17.8832738235">
        <ele>35.4</ele>
        <time>2012-10-02T19:56:09Z</time>
      </trkpt>
      <trkpt lat="59.5882661085" lon="17.8833780943">
        <ele>35.8</ele>
        <time>2012-10-02T19:56:10Z</time>
      </trkpt>
      <trkpt lat="59.5883096944" lon="17.8834813594">
        <ele>36.2</ele>
        <time>2012-10-02T19:56:11Z</time>
      </trkpt>
      <trkpt lat="59.5883521906" lon="17.8835864684">
        <ele>37</ele>
        <time>2012-10-02T19:56:12Z</time>
      </trkpt>
      <trkpt lat="59.5883922561" lon="17.8836914098">
        <ele>37</ele>
        <time>2012-10-02T19:56:13Z</time>
      </trkpt>
      <trkpt lat="59.5887083376" lon="17.8844842537">
        <ele>37</ele>
        <time>2012-10-02T19:56:20Z</time>
      </trkpt>
      <trkpt lat="59.5890473854" lon="17.8853793568">
        <ele>37</ele>
        <time>2012-10-02T19:56:27Z</time>
      </trkpt>
      <trkpt lat="59.5892233215" lon="17.8859723762">
        <ele>36.6</ele>
        <time>2012-10-02T19:56:31Z</time>
      </trkpt>
      <trkpt lat="59.5892585255" lon="17.8861281957">
        <ele>36.2</ele>
        <time>2012-10-02T19:56:32Z</time>
      </trkpt>
      <trkpt lat="59.5892920531" lon="17.8862841829">
        <ele>35.8</ele>
        <time>2012-10-02T19:56:33Z</time>
      </trkpt>
      <trkpt lat="59.5893248263" lon="17.8864400862">
        <ele>35.4</ele>
        <time>2012-10-02T19:56:34Z</time>
      </trkpt>
      <trkpt lat="59.5893586054" lon="17.8865964925">
        <ele>35</ele>
        <time>2012-10-02T19:56:35Z</time>
      </trkpt>
      <trkpt lat="59.5894841662" lon="17.8872322596">
        <ele>34.6</ele>
        <time>2012-10-02T19:56:39Z</time>
      </trkpt>
      <trkpt lat="59.5895182806" lon="17.8873912642">
        <ele>34</ele>
        <time>2012-10-02T19:56:40Z</time>
      </trkpt>
      <trkpt lat="59.5895518082" lon="17.8875528673">
        <ele>33.6</ele>
        <time>2012-10-02T19:56:41Z</time>
      </trkpt>
      <trkpt lat="59.5895867607" lon="17.8877136321">
        <ele>33.2</ele>
        <time>2012-10-02T19:56:42Z</time>
      </trkpt>
      <trkpt lat="59.5896197854" lon="17.887874397">
        <ele>32.8</ele>
        <time>2012-10-02T19:56:43Z</time>
      </trkpt>
      <trkpt lat="59.5898242199" lon="17.8888734356">
        <ele>32.8</ele>
        <time>2012-10-02T19:56:49Z</time>
      </trkpt>
      <trkpt lat="59.5898565741" lon="17.889033949">
        <ele>32.8</ele>
        <time>2012-10-02T19:56:50Z</time>
      </trkpt>
      <trkpt lat="59.5900817957" lon="17.8901172258">
        <ele>32.8</ele>
        <time>2012-10-02T19:56:57Z</time>
      </trkpt>
      <trkpt lat="59.5901124735" lon="17.8902564491">
        <ele>32.8</ele>
        <time>2012-10-02T19:56:58Z</time>
      </trkpt>
      <trkpt lat="59.59017056" lon="17.8905288609">
        <ele>32.4</ele>
        <time>2012-10-02T19:57:00Z</time>
      </trkpt>
      <trkpt lat="59.5901950352" lon="17.8906571039">
        <ele>31.6</ele>
        <time>2012-10-02T19:57:01Z</time>
      </trkpt>
      <trkpt lat="59.5902211029" lon="17.8907726903">
        <ele>31.2</ele>
        <time>2012-10-02T19:57:02Z</time>
      </trkpt>
      <trkpt lat="59.5902456618" lon="17.8908824932">
        <ele>30.8</ele>
        <time>2012-10-02T19:57:03Z</time>
      </trkpt>
      <trkpt lat="59.5902685444" lon="17.8909627918">
        <ele>30.8</ele>
        <time>2012-10-02T19:57:04Z</time>
      </trkpt>
      <trkpt lat="59.5903042513" lon="17.8910183638">
        <ele>30.8</ele>
        <time>2012-10-02T19:57:05Z</time>
      </trkpt>
      <trkpt lat="59.5904134675" lon="17.8910829045">
        <ele>30.8</ele>
        <time>2012-10-02T19:57:07Z</time>
      </trkpt>
      <trkpt lat="59.5906434668" lon="17.8910665598">
        <ele>30.8</ele>
        <time>2012-10-02T19:57:10Z</time>
      </trkpt>
      <trkpt lat="59.5907173114" lon="17.8910413302">
        <ele>30.8</ele>
        <time>2012-10-02T19:57:11Z</time>
      </trkpt>
      <trkpt lat="59.5909374201" lon="17.8910055395">
        <ele>30.8</ele>
        <time>2012-10-02T19:57:14Z</time>
      </trkpt>
      <trkpt lat="59.5910064031" lon="17.8910354629">
        <ele>30.8</ele>
        <time>2012-10-02T19:57:15Z</time>
      </trkpt>
      <trkpt lat="59.5911773939" lon="17.8912980678">
        <ele>30.8</ele>
        <time>2012-10-02T19:57:18Z</time>
      </trkpt>
      <trkpt lat="59.5912804912" lon="17.8915693899">
        <ele>30.8</ele>
        <time>2012-10-02T19:57:20Z</time>
      </trkpt>
      <trkpt lat="59.5914476263" lon="17.8919746548">
        <ele>30.8</ele>
        <time>2012-10-02T19:57:23Z</time>
      </trkpt>
      <trkpt lat="59.5917953913" lon="17.8928049658">
        <ele>30.8</ele>
        <time>2012-10-02T19:57:29Z</time>
      </trkpt>
      <trkpt lat="59.5919625264" lon="17.8932093087">
        <ele>30.8</ele>
        <time>2012-10-02T19:57:32Z</time>
      </trkpt>
      <trkpt lat="59.5922937791" lon="17.8939683735">
        <ele>30.8</ele>
        <time>2012-10-02T19:57:38Z</time>
      </trkpt>
      <trkpt lat="59.5925749919" lon="17.8945033064">
        <ele>30.8</ele>
        <time>2012-10-02T19:57:43Z</time>
      </trkpt>
      <trkpt lat="59.5928575457" lon="17.8950521532">
        <ele>30.8</ele>
        <time>2012-10-02T19:57:48Z</time>
      </trkpt>
      <trkpt lat="59.593118139" lon="17.8955745132">
        <ele>30.8</ele>
        <time>2012-10-02T19:57:53Z</time>
      </trkpt>
      <trkpt lat="59.5931657482" lon="17.8956989844">
        <ele>31.2</ele>
        <time>2012-10-02T19:57:54Z</time>
      </trkpt>
      <trkpt lat="59.5932178836" lon="17.895817253">
        <ele>31.6</ele>
        <time>2012-10-02T19:57:55Z</time>
      </trkpt>
      <trkpt lat="59.5932715277" lon="17.8959453285">
        <ele>32</ele>
        <time>2012-10-02T19:57:56Z</time>
      </trkpt>
      <trkpt lat="59.5933207295" lon="17.8960621722">
        <ele>32.4</ele>
        <time>2012-10-02T19:57:57Z</time>
      </trkpt>
      <trkpt lat="59.593370518" lon="17.8961779262">
        <ele>32.8</ele>
        <time>2012-10-02T19:57:58Z</time>
      </trkpt>
      <trkpt lat="59.593425168" lon="17.8963012239">
        <ele>33.2</ele>
        <time>2012-10-02T19:57:59Z</time>
      </trkpt>
      <trkpt lat="59.5934815782" lon="17.8964222586">
        <ele>33.6</ele>
        <time>2012-10-02T19:58:00Z</time>
      </trkpt>
      <trkpt lat="59.593531199" lon="17.8965441314">
        <ele>34.2</ele>
        <time>2012-10-02T19:58:01Z</time>
      </trkpt>
      <trkpt lat="59.5935797302" lon="17.8966572032">
        <ele>34.6</ele>
        <time>2012-10-02T19:58:02Z</time>
      </trkpt>
      <trkpt lat="59.5936268365" lon="17.8967684311">
        <ele>35</ele>
        <time>2012-10-02T19:58:03Z</time>
      </trkpt>
      <trkpt lat="59.5940010883" lon="17.897641825">
        <ele>35</ele>
        <time>2012-10-02T19:58:11Z</time>
      </trkpt>
      <trkpt lat="59.5943220313" lon="17.8984588926">
        <ele>35</ele>
        <time>2012-10-02T19:58:18Z</time>
      </trkpt>
      <trkpt lat="59.5946770047" lon="17.8994379824">
        <ele>35</ele>
        <time>2012-10-02T19:58:26Z</time>
      </trkpt>
      <trkpt lat="59.5947640927" lon="17.8996922054">
        <ele>35</ele>
        <time>2012-10-02T19:58:28Z</time>
      </trkpt>
      <trkpt lat="59.5949188226" lon="17.9001177545">
        <ele>34.6</ele>
        <time>2012-10-02T19:58:32Z</time>
      </trkpt>
      <trkpt lat="59.5949236002" lon="17.9002024117">
        <ele>34</ele>
        <time>2012-10-02T19:58:33Z</time>
      </trkpt>
      <trkpt lat="59.5949126199" lon="17.9002768429">
        <ele>33.6</ele>
        <time>2012-10-02T19:58:34Z</time>
      </trkpt>
      <trkpt lat="59.5948844568" lon="17.900342557">
        <ele>33</ele>
        <time>2012-10-02T19:58:35Z</time>
      </trkpt>
      <trkpt lat="59.5948393621" lon="17.9003778448">
        <ele>32.6</ele>
        <time>2012-10-02T19:58:36Z</time>
      </trkpt>
      <trkpt lat="59.5947205906" lon="17.9004237776">
        <ele>32.2</ele>
        <time>2012-10-02T19:58:38Z</time>
      </trkpt>
      <trkpt lat="59.5946526972" lon="17.9004190838">
        <ele>31.4</ele>
        <time>2012-10-02T19:58:39Z</time>
      </trkpt>
      <trkpt lat="59.5945848038" lon="17.9004015656">
        <ele>31</ele>
        <time>2012-10-02T19:58:40Z</time>
      </trkpt>
      <trkpt lat="59.5945165752" lon="17.9003806947">
        <ele>30.6</ele>
        <time>2012-10-02T19:58:41Z</time>
      </trkpt>
      <trkpt lat="59.5944502743" lon="17.9003648529">
        <ele>30.6</ele>
        <time>2012-10-02T19:58:42Z</time>
      </trkpt>
      <trkpt lat="59.5942620169" lon="17.9003292298">
        <ele>30.6</ele>
        <time>2012-10-02T19:58:45Z</time>
      </trkpt>
      <trkpt lat="59.5941357855" lon="17.9003389528">
        <ele>30.6</ele>
        <time>2012-10-02T19:58:47Z</time>
      </trkpt>
      <trkpt lat="59.5940079615" lon="17.9003933513">
        <ele>31</ele>
        <time>2012-10-02T19:58:49Z</time>
      </trkpt>
      <trkpt lat="59.5939620287" lon="17.9004482528">
        <ele>31.4</ele>
        <time>2012-10-02T19:58:50Z</time>
      </trkpt>
      <trkpt lat="59.593929926" lon="17.9005112847">
        <ele>31.8</ele>
        <time>2012-10-02T19:58:51Z</time>
      </trkpt>
      <trkpt lat="59.5939029363" lon="17.9005794295">
        <ele>32.2</ele>
        <time>2012-10-02T19:58:52Z</time>
      </trkpt>
      <trkpt lat="59.5939074625" lon="17.9006598119">
        <ele>32.6</ele>
        <time>2012-10-02T19:58:53Z</time>
      </trkpt>
      <trkpt lat="59.5939137489" lon="17.9007501688">
        <ele>32.6</ele>
        <time>2012-10-02T19:58:54Z</time>
      </trkpt>
      <trkpt lat="59.594004944" lon="17.9010727882">
        <ele>32.6</ele>
        <time>2012-10-02T19:58:57Z</time>
      </trkpt>
      <trkpt lat="59.5940380525" lon="17.9011831778">
        <ele>33</ele>
        <time>2012-10-02T19:58:58Z</time>
      </trkpt>
      <trkpt lat="59.5940670539" lon="17.9012946571">
        <ele>33.4</ele>
        <time>2012-10-02T19:58:59Z</time>
      </trkpt>
      <trkpt lat="59.5940973964" lon="17.9014148535">
        <ele>33.8</ele>
        <time>2012-10-02T19:59:00Z</time>
      </trkpt>
      <trkpt lat="59.5941201113" lon="17.9015312781">
        <ele>34.4</ele>
        <time>2012-10-02T19:59:01Z</time>
      </trkpt>
      <trkpt lat="59.5941384677" lon="17.9016514745">
        <ele>34.8</ele>
        <time>2012-10-02T19:59:02Z</time>
      </trkpt>
      <trkpt lat="59.5941456761" lon="17.9017730121">
        <ele>34.8</ele>
        <time>2012-10-02T19:59:03Z</time>
      </trkpt>
      <trkpt lat="59.5941717438" lon="17.9022703102">
        <ele>34.8</ele>
        <time>2012-10-02T19:59:07Z</time>
      </trkpt>
      <trkpt lat="59.5941781141" lon="17.9031427822">
        <ele>34.8</ele>
        <time>2012-10-02T19:59:14Z</time>
      </trkpt>
      <trkpt lat="59.5941714085" lon="17.9033379128">
        <ele>34.8</ele>
        <time>2012-10-02T19:59:16Z</time>
      </trkpt>
      <trkpt lat="59.5941246375" lon="17.9034982586">
        <ele>34.8</ele>
        <time>2012-10-02T19:59:18Z</time>
      </trkpt>
      <trkpt lat="59.5939470251" lon="17.9035820776">
        <ele>34.8</ele>
        <time>2012-10-02T19:59:21Z</time>
      </trkpt>
      <trkpt lat="59.5938203746" lon="17.9036094864">
        <ele>34.8</ele>
        <time>2012-10-02T19:59:23Z</time>
      </trkpt>
      <trkpt lat="59.5935696719" lon="17.9036673215">
        <ele>34.8</ele>
        <time>2012-10-02T19:59:27Z</time>
      </trkpt>
      <trkpt lat="59.5934436082" lon="17.9037304372">
        <ele>34.8</ele>
        <time>2012-10-02T19:59:29Z</time>
      </trkpt>
      <trkpt lat="59.5932082444" lon="17.9039329439">
        <ele>34.8</ele>
        <time>2012-10-02T19:59:33Z</time>
      </trkpt>
      <trkpt lat="59.5928532709" lon="17.9043702276">
        <ele>34.8</ele>
        <time>2012-10-02T19:59:39Z</time>
      </trkpt>
      <trkpt lat="59.5926940987" lon="17.9046174937">
        <ele>34.8</ele>
        <time>2012-10-02T19:59:42Z</time>
      </trkpt>
      <trkpt lat="59.592649926" lon="17.9047056713">
        <ele>34.4</ele>
        <time>2012-10-02T19:59:43Z</time>
      </trkpt>
      <trkpt lat="59.5926130457" lon="17.9048033204">
        <ele>34</ele>
        <time>2012-10-02T19:59:44Z</time>
      </trkpt>
      <trkpt lat="59.5925762491" lon="17.9049082618">
        <ele>33.6</ele>
        <time>2012-10-02T19:59:45Z</time>
      </trkpt>
      <trkpt lat="59.5925527798" lon="17.9050238482">
        <ele>33.2</ele>
        <time>2012-10-02T19:59:46Z</time>
      </trkpt>
      <trkpt lat="59.5925361837" lon="17.9051603055">
        <ele>32.8</ele>
        <time>2012-10-02T19:59:47Z</time>
      </trkpt>
      <trkpt lat="59.5925293105" lon="17.9053107606">
        <ele>32.8</ele>
        <time>2012-10-02T19:59:48Z</time>
      </trkpt>
      <trkpt lat="59.5925856369" lon="17.9059665605">
        <ele>32.8</ele>
        <time>2012-10-02T19:59:52Z</time>
      </trkpt>
      <trkpt lat="59.5926075136" lon="17.9061351205">
        <ele>31.6</ele>
        <time>2012-10-02T19:59:53Z</time>
      </trkpt>
      <trkpt lat="59.5926257024" lon="17.9062984837">
        <ele>31.2</ele>
        <time>2012-10-02T19:59:54Z</time>
      </trkpt>
      <trkpt lat="59.5926396163" lon="17.9064732463">
        <ele>30.6</ele>
        <time>2012-10-02T19:59:55Z</time>
      </trkpt>
      <trkpt lat="59.5926492555" lon="17.9066482604">
        <ele>30.2</ele>
        <time>2012-10-02T19:59:56Z</time>
      </trkpt>
      <trkpt lat="59.5926489202" lon="17.9070143818">
        <ele>30.2</ele>
        <time>2012-10-02T19:59:58Z</time>
      </trkpt>
      <trkpt lat="59.592618913" lon="17.9073799165">
        <ele>29.8</ele>
        <time>2012-10-02T20:00:00Z</time>
      </trkpt>
      <trkpt lat="59.592594857" lon="17.9075540923">
        <ele>29.4</ele>
        <time>2012-10-02T20:00:01Z</time>
      </trkpt>
      <trkpt lat="59.5925694598" lon="17.9077239096">
        <ele>29</ele>
        <time>2012-10-02T20:00:02Z</time>
      </trkpt>
      <trkpt lat="59.5925416319" lon="17.9078892007">
        <ele>28.6</ele>
        <time>2012-10-02T20:00:03Z</time>
      </trkpt>
      <trkpt lat="59.5925122114" lon="17.9080554138">
        <ele>28</ele>
        <time>2012-10-02T20:00:04Z</time>
      </trkpt>
      <trkpt lat="59.592368378" lon="17.9087542128">
        <ele>28</ele>
        <time>2012-10-02T20:00:08Z</time>
      </trkpt>
      <trkpt lat="59.5922840561" lon="17.9090962781">
        <ele>27.6</ele>
        <time>2012-10-02T20:00:10Z</time>
      </trkpt>
      <trkpt lat="59.5922353573" lon="17.9092462303">
        <ele>27.2</ele>
        <time>2012-10-02T20:00:11Z</time>
      </trkpt>
      <trkpt lat="59.5921816293" lon="17.9093802569">
        <ele>26.8</ele>
        <time>2012-10-02T20:00:12Z</time>
      </trkpt>
      <trkpt lat="59.5921273984" lon="17.9095083323">
        <ele>26.2</ele>
        <time>2012-10-02T20:00:13Z</time>
      </trkpt>
      <trkpt lat="59.5920579963" lon="17.9096141119">
        <ele>25.8</ele>
        <time>2012-10-02T20:00:14Z</time>
      </trkpt>
      <trkpt lat="59.5918928728" lon="17.9098035428">
        <ele>25.4</ele>
        <time>2012-10-02T20:00:16Z</time>
      </trkpt>
      <trkpt lat="59.5917960619" lon="17.9098961628">
        <ele>25</ele>
        <time>2012-10-02T20:00:17Z</time>
      </trkpt>
      <trkpt lat="59.5917034419" lon="17.9099675766">
        <ele>24.2</ele>
        <time>2012-10-02T20:00:18Z</time>
      </trkpt>
      <trkpt lat="59.5916079721" lon="17.9100228972">
        <ele>23.8</ele>
        <time>2012-10-02T20:00:19Z</time>
      </trkpt>
      <trkpt lat="59.5915099038" lon="17.9100627112">
        <ele>23.8</ele>
        <time>2012-10-02T20:00:20Z</time>
      </trkpt>
      <trkpt lat="59.5913150247" lon="17.9101260784">
        <ele>23.4</ele>
        <time>2012-10-02T20:00:22Z</time>
      </trkpt>
      <trkpt lat="59.5912164535" lon="17.9101622882">
        <ele>23</ele>
        <time>2012-10-02T20:00:23Z</time>
      </trkpt>
      <trkpt lat="59.591112015" lon="17.9101879368">
        <ele>22.6</ele>
        <time>2012-10-02T20:00:24Z</time>
      </trkpt>
      <trkpt lat="59.5910163776" lon="17.9102162676">
        <ele>22.2</ele>
        <time>2012-10-02T20:00:25Z</time>
      </trkpt>
      <trkpt lat="59.5909188122" lon="17.9102502981">
        <ele>21.8</ele>
        <time>2012-10-02T20:00:26Z</time>
      </trkpt>
      <trkpt lat="59.5906556206" lon="17.9103813072">
        <ele>21.4</ele>
        <time>2012-10-02T20:00:29Z</time>
      </trkpt>
      <trkpt lat="59.590567443" lon="17.910426318">
        <ele>21</ele>
        <time>2012-10-02T20:00:30Z</time>
      </trkpt>
      <trkpt lat="59.5904921735" lon="17.9104752683">
        <ele>20.6</ele>
        <time>2012-10-02T20:00:31Z</time>
      </trkpt>
      <trkpt lat="59.5904355119" lon="17.9105419044">
        <ele>20.2</ele>
        <time>2012-10-02T20:00:32Z</time>
      </trkpt>
      <trkpt lat="59.5903847176" lon="17.9106372904">
        <ele>19.8</ele>
        <time>2012-10-02T20:00:33Z</time>
      </trkpt>
      <trkpt lat="59.5903435624" lon="17.9107563972">
        <ele>19.8</ele>
        <time>2012-10-02T20:00:34Z</time>
      </trkpt>
      <trkpt lat="59.5902924329" lon="17.9112182399">
        <ele>19.8</ele>
        <time>2012-10-02T20:00:37Z</time>
      </trkpt>
      <trkpt lat="59.5902854759" lon="17.9113963553">
        <ele>19.8</ele>
        <time>2012-10-02T20:00:38Z</time>
      </trkpt>
      <trkpt lat="59.5902362741" lon="17.9118820864">
        <ele>19.8</ele>
        <time>2012-10-02T20:00:41Z</time>
      </trkpt>
      <trkpt lat="59.5901999805" lon="17.9120229023">
        <ele>19.8</ele>
        <time>2012-10-02T20:00:42Z</time>
      </trkpt>
      <trkpt lat="59.590105265" lon="17.9124223837">
        <ele>19.8</ele>
        <time>2012-10-02T20:00:45Z</time>
      </trkpt>
      <trkpt lat="59.5900558956" lon="17.9126974776">
        <ele>19.8</ele>
        <time>2012-10-02T20:00:47Z</time>
      </trkpt>
      <trkpt lat="59.5898529698" lon="17.9138069059">
        <ele>19.8</ele>
        <time>2012-10-02T20:00:55Z</time>
      </trkpt>
      <trkpt lat="59.589708885" lon="17.9146337804">
        <ele>19.8</ele>
        <time>2012-10-02T20:01:01Z</time>
      </trkpt>
      <trkpt lat="59.5896033569" lon="17.9154039931">
        <ele>19.8</ele>
        <time>2012-10-02T20:01:07Z</time>
      </trkpt>
      <trkpt lat="59.5894391554" lon="17.9160485613">
        <ele>19.2</ele>
        <time>2012-10-02T20:01:12Z</time>
      </trkpt>
      <trkpt lat="59.5893948152" lon="17.9161684224">
        <ele>18.8</ele>
        <time>2012-10-02T20:01:13Z</time>
      </trkpt>
      <trkpt lat="59.5893475413" lon="17.9162827515">
        <ele>18.4</ele>
        <time>2012-10-02T20:01:14Z</time>
      </trkpt>
      <trkpt lat="59.5892980881" lon="17.9164002658">
        <ele>18</ele>
        <time>2012-10-02T20:01:15Z</time>
      </trkpt>
      <trkpt lat="59.5892458688" lon="17.9165125832">
        <ele>17.6</ele>
        <time>2012-10-02T20:01:16Z</time>
      </trkpt>
      <trkpt lat="59.5890839305" lon="17.9168334424">
        <ele>17.6</ele>
        <time>2012-10-02T20:01:19Z</time>
      </trkpt>
      <trkpt lat="59.5886541905" lon="17.9176177368">
        <ele>17.6</ele>
        <time>2012-10-02T20:01:27Z</time>
      </trkpt>
      <trkpt lat="59.5884329083" lon="17.9181110954">
        <ele>17.6</ele>
        <time>2012-10-02T20:01:32Z</time>
      </trkpt>
      <trkpt lat="59.5883950221" lon="17.9182225747">
        <ele>17.6</ele>
        <time>2012-10-02T20:01:33Z</time>
      </trkpt>
      <trkpt lat="59.5882690422" lon="17.918704031">
        <ele>17.6</ele>
        <time>2012-10-02T20:01:37Z</time>
      </trkpt>
      <trkpt lat="59.5882517755" lon="17.9188403207">
        <ele>17.6</ele>
        <time>2012-10-02T20:01:38Z</time>
      </trkpt>
      <trkpt lat="59.588244567" lon="17.9192745031">
        <ele>17.6</ele>
        <time>2012-10-02T20:01:41Z</time>
      </trkpt>
      <trkpt lat="59.5882455729" lon="17.9194239524">
        <ele>17.6</ele>
        <time>2012-10-02T20:01:42Z</time>
      </trkpt>
      <trkpt lat="59.5881870672" lon="17.9203454585">
        <ele>17.6</ele>
        <time>2012-10-02T20:01:48Z</time>
      </trkpt>
      <trkpt lat="59.5880490173" lon="17.9215066869">
        <ele>17.6</ele>
        <time>2012-10-02T20:01:56Z</time>
      </trkpt>
      <trkpt lat="59.5880113826" lon="17.9225535862">
        <ele>17.6</ele>
        <time>2012-10-02T20:02:03Z</time>
      </trkpt>
      <trkpt lat="59.5880579859" lon="17.9236382041">
        <ele>17.6</ele>
        <time>2012-10-02T20:02:10Z</time>
      </trkpt>
      <trkpt lat="59.5881008175" lon="17.9247293598">
        <ele>17.6</ele>
        <time>2012-10-02T20:02:17Z</time>
      </trkpt>
      <trkpt lat="59.588106601" lon="17.9250374785">
        <ele>17.6</ele>
        <time>2012-10-02T20:02:19Z</time>
      </trkpt>
      <trkpt lat="59.5881337583" lon="17.9260901613">
        <ele>17.6</ele>
        <time>2012-10-02T20:02:26Z</time>
      </trkpt>
      <trkpt lat="59.5881526176" lon="17.9262300552">
        <ele>17.6</ele>
        <time>2012-10-02T20:02:27Z</time>
      </trkpt>
      <trkpt lat="59.5882083572" lon="17.9264984436">
        <ele>17.6</ele>
        <time>2012-10-02T20:02:29Z</time>
      </trkpt>
      <trkpt lat="59.5882980436" lon="17.9267310413">
        <ele>17.6</ele>
        <time>2012-10-02T20:02:31Z</time>
      </trkpt>
      <trkpt lat="59.5885258636" lon="17.9270057162">
        <ele>17.6</ele>
        <time>2012-10-02T20:02:35Z</time>
      </trkpt>
      <trkpt lat="59.5885839502" lon="17.9270544989">
        <ele>17.6</ele>
        <time>2012-10-02T20:02:36Z</time>
      </trkpt>
      <trkpt lat="59.5888051485" lon="17.9272079715">
        <ele>17.6</ele>
        <time>2012-10-02T20:02:40Z</time>
      </trkpt>
      <trkpt lat="59.5890977606" lon="17.9273792975">
        <ele>18.6</ele>
        <time>2012-10-02T20:02:45Z</time>
      </trkpt>
      <trkpt lat="59.5891526621" lon="17.9274112325">
        <ele>19</ele>
        <time>2012-10-02T20:02:46Z</time>
      </trkpt>
      <trkpt lat="59.5892057195" lon="17.9274391443">
        <ele>19.4</ele>
        <time>2012-10-02T20:02:47Z</time>
      </trkpt>
      <trkpt lat="59.5892596151" lon="17.9274650443">
        <ele>19.8</ele>
        <time>2012-10-02T20:02:48Z</time>
      </trkpt>
      <trkpt lat="59.5894084777" lon="17.9275699857">
        <ele>19.8</ele>
        <time>2012-10-02T20:02:51Z</time>
      </trkpt>
      <trkpt lat="59.5895560829" lon="17.9277137353">
        <ele>20.2</ele>
        <time>2012-10-02T20:02:54Z</time>
      </trkpt>
      <trkpt lat="59.5896067934" lon="17.9277726601">
        <ele>20.8</ele>
        <time>2012-10-02T20:02:55Z</time>
      </trkpt>
      <trkpt lat="59.5896553246" lon="17.927837536">
        <ele>21.2</ele>
        <time>2012-10-02T20:02:56Z</time>
      </trkpt>
      <trkpt lat="59.589703772" lon="17.9279030824">
        <ele>21.6</ele>
        <time>2012-10-02T20:02:57Z</time>
      </trkpt>
      <trkpt lat="59.5897498725" lon="17.9279817885">
        <ele>22</ele>
        <time>2012-10-02T20:02:58Z</time>
      </trkpt>
      <trkpt lat="59.5899276526" lon="17.9283212554">
        <ele>22.4</ele>
        <time>2012-10-02T20:03:02Z</time>
      </trkpt>
      <trkpt lat="59.5899687239" lon="17.9284060802">
        <ele>22.8</ele>
        <time>2012-10-02T20:03:03Z</time>
      </trkpt>
      <trkpt lat="59.5900116392" lon="17.9284971915">
        <ele>23.2</ele>
        <time>2012-10-02T20:03:04Z</time>
      </trkpt>
      <trkpt lat="59.5900455021" lon="17.9285821001">
        <ele>23.6</ele>
        <time>2012-10-02T20:03:05Z</time>
      </trkpt>
      <trkpt lat="59.5900864896" lon="17.9286675117">
        <ele>24</ele>
        <time>2012-10-02T20:03:06Z</time>
      </trkpt>
      <trkpt lat="59.5901695542" lon="17.9288426934">
        <ele>24</ele>
        <time>2012-10-02T20:03:08Z</time>
      </trkpt>
      <trkpt lat="59.5904439776" lon="17.9295457672">
        <ele>24</ele>
        <time>2012-10-02T20:03:15Z</time>
      </trkpt>
      <trkpt lat="59.5905253659" lon="17.9300746651">
        <ele>24</ele>
        <time>2012-10-02T20:03:19Z</time>
      </trkpt>
      <trkpt lat="59.5905345021" lon="17.9302104519">
        <ele>24</ele>
        <time>2012-10-02T20:03:20Z</time>
      </trkpt>
      <trkpt lat="59.5905361785" lon="17.9310459596">
        <ele>24</ele>
        <time>2012-10-02T20:03:26Z</time>
      </trkpt>
      <trkpt lat="59.5905153914" lon="17.931315773">
        <ele>24</ele>
        <time>2012-10-02T20:03:28Z</time>
      </trkpt>
      <trkpt lat="59.590484546" lon="17.9317356224">
        <ele>24</ele>
        <time>2012-10-02T20:03:31Z</time>
      </trkpt>
      <trkpt lat="59.5904401219" lon="17.9324065097">
        <ele>24</ele>
        <time>2012-10-02T20:03:36Z</time>
      </trkpt>
      <trkpt lat="59.590367367" lon="17.9329518361">
        <ele>24.4</ele>
        <time>2012-10-02T20:03:40Z</time>
      </trkpt>
      <trkpt lat="59.590336354" lon="17.9330748824">
        <ele>24.8</ele>
        <time>2012-10-02T20:03:41Z</time>
      </trkpt>
      <trkpt lat="59.5902957018" lon="17.9331885409">
        <ele>25.2</ele>
        <time>2012-10-02T20:03:42Z</time>
      </trkpt>
      <trkpt lat="59.5902533732" lon="17.933297338">
        <ele>25.6</ele>
        <time>2012-10-02T20:03:43Z</time>
      </trkpt>
      <trkpt lat="59.5902128048" lon="17.9333998486">
        <ele>26</ele>
        <time>2012-10-02T20:03:44Z</time>
      </trkpt>
      <trkpt lat="59.5901704762" lon="17.9334876071">
        <ele>26</ele>
        <time>2012-10-02T20:03:45Z</time>
      </trkpt>
      <trkpt lat="59.5898798757" lon="17.9340051894">
        <ele>26.4</ele>
        <time>2012-10-02T20:03:51Z</time>
      </trkpt>
      <trkpt lat="59.5898217053" lon="17.9341000726">
        <ele>26.8</ele>
        <time>2012-10-02T20:03:52Z</time>
      </trkpt>
      <trkpt lat="59.58976211" lon="17.9342082829">
        <ele>27.4</ele>
        <time>2012-10-02T20:03:53Z</time>
      </trkpt>
      <trkpt lat="59.5896989105" lon="17.9343210194">
        <ele>27.8</ele>
        <time>2012-10-02T20:03:54Z</time>
      </trkpt>
      <trkpt lat="59.5896331964" lon="17.934444401">
        <ele>28.2</ele>
        <time>2012-10-02T20:03:55Z</time>
      </trkpt>
      <trkpt lat="59.5895708351" lon="17.9345700457">
        <ele>28.2</ele>
        <time>2012-10-02T20:03:56Z</time>
      </trkpt>
      <trkpt lat="59.5893747824" lon="17.9349375082">
        <ele>27.8</ele>
        <time>2012-10-02T20:03:59Z</time>
      </trkpt>
      <trkpt lat="59.5893117506" lon="17.9350634881">
        <ele>27.2</ele>
        <time>2012-10-02T20:04:00Z</time>
      </trkpt>
      <trkpt lat="59.5892505627" lon="17.935186283">
        <ele>26.8</ele>
        <time>2012-10-02T20:04:01Z</time>
      </trkpt>
      <trkpt lat="59.5891907997" lon="17.935308994">
        <ele>26.4</ele>
        <time>2012-10-02T20:04:02Z</time>
      </trkpt>
      <trkpt lat="59.5891315397" lon="17.9354252509">
        <ele>26</ele>
        <time>2012-10-02T20:04:03Z</time>
      </trkpt>
      <trkpt lat="59.5890696813" lon="17.9355463694">
        <ele>26</ele>
        <time>2012-10-02T20:04:04Z</time>
      </trkpt>
      <trkpt lat="59.5887611435" lon="17.9361982298">
        <ele>26</ele>
        <time>2012-10-02T20:04:10Z</time>
      </trkpt>
      <trkpt lat="59.5884621612" lon="17.9368082644">
        <ele>26</ele>
        <time>2012-10-02T20:04:16Z</time>
      </trkpt>
      <trkpt lat="59.588108445" lon="17.9375645633">
        <ele>26</ele>
        <time>2012-10-02T20:04:23Z</time>
      </trkpt>
      <trkpt lat="59.5877251407" lon="17.93816345">
        <ele>26</ele>
        <time>2012-10-02T20:04:29Z</time>
      </trkpt>
      <trkpt lat="59.5872871026" lon="17.9388378577">
        <ele>26</ele>
        <time>2012-10-02T20:04:36Z</time>
      </trkpt>
      <trkpt lat="59.5870509007" lon="17.9394178014">
        <ele>26</ele>
        <time>2012-10-02T20:04:41Z</time>
      </trkpt>
      <trkpt lat="59.5867602164" lon="17.9401643772">
        <ele>26</ele>
        <time>2012-10-02T20:04:47Z</time>
      </trkpt>
      <trkpt lat="59.5863997947" lon="17.9408102026">
        <ele>26</ele>
        <time>2012-10-02T20:04:53Z</time>
      </trkpt>
      <trkpt lat="59.5859345992" lon="17.9415048945">
        <ele>26</ele>
        <time>2012-10-02T20:05:00Z</time>
      </trkpt>
      <trkpt lat="59.585868466" lon="17.9416046391">
        <ele>26</ele>
        <time>2012-10-02T20:05:01Z</time>
      </trkpt>
      <trkpt lat="59.5854102276" lon="17.9422922063">
        <ele>26</ele>
        <time>2012-10-02T20:05:08Z</time>
      </trkpt>
      <trkpt lat="59.5853468604" lon="17.9423862513">
        <ele>26</ele>
        <time>2012-10-02T20:05:09Z</time>
      </trkpt>
      <trkpt lat="59.585211828" lon="17.9425870816">
        <ele>25.6</ele>
        <time>2012-10-02T20:05:11Z</time>
      </trkpt>
      <trkpt lat="59.5851378996" lon="17.9426951243">
        <ele>25.2</ele>
        <time>2012-10-02T20:05:12Z</time>
      </trkpt>
      <trkpt lat="59.5850675755" lon="17.9427935278">
        <ele>24.6</ele>
        <time>2012-10-02T20:05:13Z</time>
      </trkpt>
      <trkpt lat="59.5850021967" lon="17.9428904225">
        <ele>23.8</ele>
        <time>2012-10-02T20:05:14Z</time>
      </trkpt>
      <trkpt lat="59.5849417632" lon="17.9429910892">
        <ele>23.8</ele>
        <time>2012-10-02T20:05:15Z</time>
      </trkpt>
      <trkpt lat="59.5846563595" lon="17.943601962">
        <ele>23.4</ele>
        <time>2012-10-02T20:05:20Z</time>
      </trkpt>
      <trkpt lat="59.5846067386" lon="17.9437349828">
        <ele>23</ele>
        <time>2012-10-02T20:05:21Z</time>
      </trkpt>
      <trkpt lat="59.5845550223" lon="17.9438591187">
        <ele>22.6</ele>
        <time>2012-10-02T20:05:22Z</time>
      </trkpt>
      <trkpt lat="59.5845022163" lon="17.94397613">
        <ele>22</ele>
        <time>2012-10-02T20:05:23Z</time>
      </trkpt>
      <trkpt lat="59.5844515058" lon="17.9440876093">
        <ele>21.6</ele>
        <time>2012-10-02T20:05:24Z</time>
      </trkpt>
      <trkpt lat="59.5842914115" lon="17.9444163474">
        <ele>21.6</ele>
        <time>2012-10-02T20:05:27Z</time>
      </trkpt>
      <trkpt lat="59.5838949477" lon="17.9451738197">
        <ele>21.6</ele>
        <time>2012-10-02T20:05:34Z</time>
      </trkpt>
      <trkpt lat="59.5837843904" lon="17.9453870553">
        <ele>21.6</ele>
        <time>2012-10-02T20:05:36Z</time>
      </trkpt>
      <trkpt lat="59.5834505393" lon="17.9459708546">
        <ele>21.2</ele>
        <time>2012-10-02T20:05:42Z</time>
      </trkpt>
      <trkpt lat="59.5833899382" lon="17.9460741196">
        <ele>20.8</ele>
        <time>2012-10-02T20:05:43Z</time>
      </trkpt>
      <trkpt lat="59.5833264872" lon="17.9461734451">
        <ele>20.4</ele>
        <time>2012-10-02T20:05:44Z</time>
      </trkpt>
      <trkpt lat="59.5832625333" lon="17.946275369">
        <ele>20</ele>
        <time>2012-10-02T20:05:45Z</time>
      </trkpt>
      <trkpt lat="59.5832004234" lon="17.9463798913">
        <ele>19.6</ele>
        <time>2012-10-02T20:05:46Z</time>
      </trkpt>
      <trkpt lat="59.5828705957" lon="17.9468960487">
        <ele>19.6</ele>
        <time>2012-10-02T20:05:51Z</time>
      </trkpt>
      <trkpt lat="59.5826088289" lon="17.9473202567">
        <ele>19.2</ele>
        <time>2012-10-02T20:05:55Z</time>
      </trkpt>
      <trkpt lat="59.5825406003" lon="17.9474236055">
        <ele>18.8</ele>
        <time>2012-10-02T20:05:56Z</time>
      </trkpt>
      <trkpt lat="59.5824747185" lon="17.9475334084">
        <ele>18.4</ele>
        <time>2012-10-02T20:05:57Z</time>
      </trkpt>
      <trkpt lat="59.582405987" lon="17.9476453068">
        <ele>18</ele>
        <time>2012-10-02T20:05:58Z</time>
      </trkpt>
      <trkpt lat="59.5823413625" lon="17.9477516731">
        <ele>17.6</ele>
        <time>2012-10-02T20:05:59Z</time>
      </trkpt>
      <trkpt lat="59.5820298073" lon="17.9482823312">
        <ele>17.6</ele>
        <time>2012-10-02T20:06:04Z</time>
      </trkpt>
      <trkpt lat="59.5819715531" lon="17.9484012703">
        <ele>17.6</ele>
        <time>2012-10-02T20:06:05Z</time>
      </trkpt>
      <trkpt lat="59.5818805256" lon="17.9486736821">
        <ele>17.6</ele>
        <time>2012-10-02T20:06:07Z</time>
      </trkpt>
      <trkpt lat="59.5817806134" lon="17.949263684">
        <ele>17.6</ele>
        <time>2012-10-02T20:06:11Z</time>
      </trkpt>
      <trkpt lat="59.5817599939" lon="17.9495787596">
        <ele>17.6</ele>
        <time>2012-10-02T20:06:13Z</time>
      </trkpt>
      <trkpt lat="59.5817273883" lon="17.9502022892">
        <ele>17.6</ele>
        <time>2012-10-02T20:06:17Z</time>
      </trkpt>
      <trkpt lat="59.5816237042" lon="17.9511162516">
        <ele>17.6</ele>
        <time>2012-10-02T20:06:23Z</time>
      </trkpt>
      <trkpt lat="59.5814413979" lon="17.9521759752">
        <ele>17.6</ele>
        <time>2012-10-02T20:06:30Z</time>
      </trkpt>
      <trkpt lat="59.5814165875" lon="17.9523276876">
        <ele>17.6</ele>
        <time>2012-10-02T20:06:31Z</time>
      </trkpt>
      <trkpt lat="59.581343665" lon="17.952959599">
        <ele>17.2</ele>
        <time>2012-10-02T20:06:35Z</time>
      </trkpt>
      <trkpt lat="59.5813425753" lon="17.9531361218">
        <ele>16.8</ele>
        <time>2012-10-02T20:06:36Z</time>
      </trkpt>
      <trkpt lat="59.5813475206" lon="17.953299988">
        <ele>16.2</ele>
        <time>2012-10-02T20:06:37Z</time>
      </trkpt>
      <trkpt lat="59.5813563216" lon="17.9534673745">
        <ele>15.8</ele>
        <time>2012-10-02T20:06:38Z</time>
      </trkpt>
      <trkpt lat="59.5813660446" lon="17.9536305701">
        <ele>15.4</ele>
        <time>2012-10-02T20:06:39Z</time>
      </trkpt>
      <trkpt lat="59.58135892" lon="17.9541431233">
        <ele>15.4</ele>
        <time>2012-10-02T20:06:42Z</time>
      </trkpt>
      <trkpt lat="59.5812538948" lon="17.9547955704">
        <ele>15.4</ele>
        <time>2012-10-02T20:06:46Z</time>
      </trkpt>
      <trkpt lat="59.5810565011" lon="17.9556660307">
        <ele>15.4</ele>
        <time>2012-10-02T20:06:52Z</time>
      </trkpt>
      <trkpt lat="59.5808116658" lon="17.956409589">
        <ele>15.4</ele>
        <time>2012-10-02T20:06:58Z</time>
      </trkpt>
      <trkpt lat="59.5805824208" lon="17.9569790553">
        <ele>15.4</ele>
        <time>2012-10-02T20:07:03Z</time>
      </trkpt>
      <trkpt lat="59.5802596338" lon="17.9577453286">
        <ele>15.4</ele>
        <time>2012-10-02T20:07:10Z</time>
      </trkpt>
      <trkpt lat="59.57997708" lon="17.9584083369">
        <ele>15.4</ele>
        <time>2012-10-02T20:07:16Z</time>
      </trkpt>
      <trkpt lat="59.5799171494" lon="17.9584979394">
        <ele>15.4</ele>
        <time>2012-10-02T20:07:17Z</time>
      </trkpt>
      <trkpt lat="59.5794931929" lon="17.9590819902">
        <ele>15.4</ele>
        <time>2012-10-02T20:07:24Z</time>
      </trkpt>
      <trkpt lat="59.5790665542" lon="17.9596207788">
        <ele>15.4</ele>
        <time>2012-10-02T20:07:31Z</time>
      </trkpt>
      <trkpt lat="59.5786440226" lon="17.9601664404">
        <ele>15.4</ele>
        <time>2012-10-02T20:07:38Z</time>
      </trkpt>
      <trkpt lat="59.578149239" lon="17.9607817557">
        <ele>15.4</ele>
        <time>2012-10-02T20:07:46Z</time>
      </trkpt>
      <trkpt lat="59.5778993746" lon="17.9610648963">
        <ele>15.4</ele>
        <time>2012-10-02T20:07:50Z</time>
      </trkpt>
      <trkpt lat="59.5778304754" lon="17.9611323706">
        <ele>15</ele>
        <time>2012-10-02T20:07:51Z</time>
      </trkpt>
      <trkpt lat="59.5777580558" lon="17.961218788">
        <ele>14.6</ele>
        <time>2012-10-02T20:07:52Z</time>
      </trkpt>
      <trkpt lat="59.577693096" lon="17.9612976617">
        <ele>14</ele>
        <time>2012-10-02T20:07:53Z</time>
      </trkpt>
      <trkpt lat="59.5776311538" lon="17.9613689078">
        <ele>13.6</ele>
        <time>2012-10-02T20:07:54Z</time>
      </trkpt>
      <trkpt lat="59.577569463" lon="17.961438729">
        <ele>14</ele>
        <time>2012-10-02T20:07:55Z</time>
      </trkpt>
      <trkpt lat="59.5775084428" lon="17.9615116516">
        <ele>14.4</ele>
        <time>2012-10-02T20:07:56Z</time>
      </trkpt>
      <trkpt lat="59.5774489313" lon="17.9615800479">
        <ele>14.6</ele>
        <time>2012-10-02T20:07:57Z</time>
      </trkpt>
      <trkpt lat="59.5773903418" lon="17.9616437503">
        <ele>15</ele>
        <time>2012-10-02T20:07:58Z</time>
      </trkpt>
      <trkpt lat="59.5773358595" lon="17.9617061955">
        <ele>15.4</ele>
        <time>2012-10-02T20:07:59Z</time>
      </trkpt>
      <trkpt lat="59.5772786111" lon="17.9617662937">
        <ele>15.4</ele>
        <time>2012-10-02T20:08:00Z</time>
      </trkpt>
      <trkpt lat="59.5770194427" lon="17.9620743285">
        <ele>15.4</ele>
        <time>2012-10-02T20:08:05Z</time>
      </trkpt>
      <trkpt lat="59.5767371404" lon="17.962418657">
        <ele>15.4</ele>
        <time>2012-10-02T20:08:11Z</time>
      </trkpt>
      <trkpt lat="59.5766654751" lon="17.9625403622">
        <ele>15.4</ele>
        <time>2012-10-02T20:08:13Z</time>
      </trkpt>
      <trkpt lat="59.5766084782" lon="17.962726608">
        <ele>15.4</ele>
        <time>2012-10-02T20:08:15Z</time>
      </trkpt>
      <trkpt lat="59.576559025" lon="17.9629339762">
        <ele>15.8</ele>
        <time>2012-10-02T20:08:17Z</time>
      </trkpt>
      <trkpt lat="59.5765401657" lon="17.9630486406">
        <ele>16.2</ele>
        <time>2012-10-02T20:08:18Z</time>
      </trkpt>
      <trkpt lat="59.5765233181" lon="17.9631602037">
        <ele>16.6</ele>
        <time>2012-10-02T20:08:19Z</time>
      </trkpt>
      <trkpt lat="59.5764998488" lon="17.9632716829">
        <ele>17</ele>
        <time>2012-10-02T20:08:20Z</time>
      </trkpt>
      <trkpt lat="59.5764721885" lon="17.9633869341">
        <ele>17.4</ele>
        <time>2012-10-02T20:08:21Z</time>
      </trkpt>
      <trkpt lat="59.5764331288" lon="17.9634894447">
        <ele>17.4</ele>
        <time>2012-10-02T20:08:22Z</time>
      </trkpt>
      <trkpt lat="59.576336737" lon="17.9636446775">
        <ele>17.4</ele>
        <time>2012-10-02T20:08:24Z</time>
      </trkpt>
      <trkpt lat="59.5761556879" lon="17.9636047796">
        <ele>17.4</ele>
        <time>2012-10-02T20:08:27Z</time>
      </trkpt>
      <trkpt lat="59.5760876269" lon="17.963577287">
        <ele>17.4</ele>
        <time>2012-10-02T20:08:28Z</time>
      </trkpt>
      <trkpt lat="59.575685631" lon="17.9634912887">
        <ele>17.4</ele>
        <time>2012-10-02T20:08:34Z</time>
      </trkpt>
      <trkpt lat="59.5751491894" lon="17.9634529834">
        <ele>17.4</ele>
        <time>2012-10-02T20:08:42Z</time>
      </trkpt>
      <trkpt lat="59.5747559106" lon="17.9634981619">
        <ele>18</ele>
        <time>2012-10-02T20:08:48Z</time>
      </trkpt>
      <trkpt lat="59.5746872629" lon="17.9635066276">
        <ele>18.4</ele>
        <time>2012-10-02T20:08:49Z</time>
      </trkpt>
      <trkpt lat="59.5746183637" lon="17.9635093098">
        <ele>19</ele>
        <time>2012-10-02T20:08:50Z</time>
      </trkpt>
      <trkpt lat="59.574552901" lon="17.9635149257">
        <ele>19.4</ele>
        <time>2012-10-02T20:08:51Z</time>
      </trkpt>
      <trkpt lat="59.5744887795" lon="17.963524481">
        <ele>20</ele>
        <time>2012-10-02T20:08:52Z</time>
      </trkpt>
      <trkpt lat="59.574296834" lon="17.9635671449">
        <ele>20</ele>
        <time>2012-10-02T20:08:55Z</time>
      </trkpt>
      <trkpt lat="59.5738662558" lon="17.9636548196">
        <ele>20</ele>
        <time>2012-10-02T20:09:02Z</time>
      </trkpt>
      <trkpt lat="59.5734436404" lon="17.9637673047">
        <ele>20</ele>
        <time>2012-10-02T20:09:09Z</time>
      </trkpt>
      <trkpt lat="59.5731467535" lon="17.9638468489">
        <ele>20</ele>
        <time>2012-10-02T20:09:14Z</time>
      </trkpt>
      <trkpt lat="59.5727821408" lon="17.96395749">
        <ele>20.8</ele>
        <time>2012-10-02T20:09:20Z</time>
      </trkpt>
      <trkpt lat="59.572719528" lon="17.9639798697">
        <ele>21.2</ele>
        <time>2012-10-02T20:09:21Z</time>
      </trkpt>
      <trkpt lat="59.5726550712" lon="17.9640041772">
        <ele>21.6</ele>
        <time>2012-10-02T20:09:22Z</time>
      </trkpt>
      <trkpt lat="59.5725963141" lon="17.9640224497">
        <ele>22</ele>
        <time>2012-10-02T20:09:23Z</time>
      </trkpt>
      <trkpt lat="59.5720937354" lon="17.9641697197">
        <ele>22</ele>
        <time>2012-10-02T20:09:31Z</time>
      </trkpt>
      <trkpt lat="59.5717068269" lon="17.9642786844">
        <ele>22</ele>
        <time>2012-10-02T20:09:37Z</time>
      </trkpt>
      <trkpt lat="59.5712900788" lon="17.964407598">
        <ele>21.6</ele>
        <time>2012-10-02T20:09:44Z</time>
      </trkpt>
      <trkpt lat="59.5712341715" lon="17.9644274631">
        <ele>20.8</ele>
        <time>2012-10-02T20:09:45Z</time>
      </trkpt>
      <trkpt lat="59.5711821199" lon="17.9644465739">
        <ele>20.4</ele>
        <time>2012-10-02T20:09:46Z</time>
      </trkpt>
      <trkpt lat="59.5711340078" lon="17.9644824484">
        <ele>20</ele>
        <time>2012-10-02T20:09:47Z</time>
      </trkpt>
      <trkpt lat="59.5710113806" lon="17.964597951">
        <ele>20</ele>
        <time>2012-10-02T20:09:50Z</time>
      </trkpt>
      <trkpt lat="59.5708672958" lon="17.9647434608">
        <ele>19.4</ele>
        <time>2012-10-02T20:09:55Z</time>
      </trkpt>
      <trkpt lat="59.570567559" lon="17.9646307242">
        <ele>20.8</ele>
        <time>2012-10-02T20:34:15Z</time>
      </trkpt>
      <trkpt lat="59.5705211233" lon="17.9646436323">
        <ele>20.4</ele>
        <time>2012-10-02T20:34:16Z</time>
      </trkpt>
      <trkpt lat="59.5704729274" lon="17.9646576301">
        <ele>20</ele>
        <time>2012-10-02T20:34:17Z</time>
      </trkpt>
      <trkpt lat="59.5704195347" lon="17.964672969">
        <ele>19</ele>
        <time>2012-10-02T20:34:18Z</time>
      </trkpt>
      <trkpt lat="59.570304535" lon="17.9647091788">
        <ele>19</ele>
        <time>2012-10-02T20:34:20Z</time>
      </trkpt>
      <trkpt lat="59.5699920578" lon="17.9647832748">
        <ele>19</ele>
        <time>2012-10-02T20:34:25Z</time>
      </trkpt>
      <trkpt lat="59.5698616354" lon="17.9647598893">
        <ele>19</ele>
        <time>2012-10-02T20:34:27Z</time>
      </trkpt>
      <trkpt lat="59.5695235096" lon="17.9645529402">
        <ele>19</ele>
        <time>2012-10-02T20:34:33Z</time>
      </trkpt>
      <trkpt lat="59.5694340747" lon="17.9644625833">
        <ele>19</ele>
        <time>2012-10-02T20:34:35Z</time>
      </trkpt>
      <trkpt lat="59.5693276246" lon="17.9643638445">
        <ele>19</ele>
        <time>2012-10-02T20:34:37Z</time>
      </trkpt>
      <trkpt lat="59.5690564701" lon="17.9641092862">
        <ele>19</ele>
        <time>2012-10-02T20:34:43Z</time>
      </trkpt>
      <trkpt lat="59.5689074399" lon="17.9640150737">
        <ele>19.6</ele>
        <time>2012-10-02T20:34:46Z</time>
      </trkpt>
      <trkpt lat="59.568859244" lon="17.9639948733">
        <ele>20</ele>
        <time>2012-10-02T20:34:47Z</time>
      </trkpt>
      <trkpt lat="59.5688118863" lon="17.9639752596">
        <ele>20.4</ele>
        <time>2012-10-02T20:34:48Z</time>
      </trkpt>
      <trkpt lat="59.5687688033" lon="17.9639581605">
        <ele>20.8</ele>
        <time>2012-10-02T20:34:49Z</time>
      </trkpt>
      <trkpt lat="59.5687259718" lon="17.9639444981">
        <ele>21.2</ele>
        <time>2012-10-02T20:34:50Z</time>
      </trkpt>
      <trkpt lat="59.5684680607" lon="17.9638746768">
        <ele>21.2</ele>
        <time>2012-10-02T20:34:55Z</time>
      </trkpt>
      <trkpt lat="59.5680531567" lon="17.9636484493">
        <ele>21.2</ele>
        <time>2012-10-02T20:35:03Z</time>
      </trkpt>
      <trkpt lat="59.5675929904" lon="17.9634750278">
        <ele>21.2</ele>
        <time>2012-10-02T20:35:11Z</time>
      </trkpt>
      <trkpt lat="59.5672380169" lon="17.9634783806">
        <ele>21.2</ele>
        <time>2012-10-02T20:35:17Z</time>
      </trkpt>
      <trkpt lat="59.5671813553" lon="17.9634840803">
        <ele>21.6</ele>
        <time>2012-10-02T20:35:18Z</time>
      </trkpt>
      <trkpt lat="59.5671241069" lon="17.9634867625">
        <ele>22</ele>
        <time>2012-10-02T20:35:19Z</time>
      </trkpt>
      <trkpt lat="59.5670676129" lon="17.9634901153">
        <ele>22.4</ele>
        <time>2012-10-02T20:35:20Z</time>
      </trkpt>
      <trkpt lat="59.5670109512" lon="17.9634975751">
        <ele>23</ele>
        <time>2012-10-02T20:35:21Z</time>
      </trkpt>
      <trkpt lat="59.5669479193" lon="17.9634987486">
        <ele>23.4</ele>
        <time>2012-10-02T20:35:22Z</time>
      </trkpt>
      <trkpt lat="59.5667517829" lon="17.9634683223">
        <ele>23.4</ele>
        <time>2012-10-02T20:35:25Z</time>
      </trkpt>
      <trkpt lat="59.5665377092" lon="17.963400848">
        <ele>22</ele>
        <time>2012-10-02T20:35:28Z</time>
      </trkpt>
      <trkpt lat="59.5664586678" lon="17.9633697512">
        <ele>21.8</ele>
        <time>2012-10-02T20:35:29Z</time>
      </trkpt>
      <trkpt lat="59.5663017587" lon="17.9633067193">
        <ele>21.8</ele>
        <time>2012-10-02T20:35:31Z</time>
      </trkpt>
      <trkpt lat="59.5658970805" lon="17.9630551785">
        <ele>21.4</ele>
        <time>2012-10-02T20:35:36Z</time>
      </trkpt>
      <trkpt lat="59.5658173687" lon="17.9629854411">
        <ele>21</ele>
        <time>2012-10-02T20:35:37Z</time>
      </trkpt>
      <trkpt lat="59.5657396685" lon="17.9629123509">
        <ele>20.6</ele>
        <time>2012-10-02T20:35:38Z</time>
      </trkpt>
      <trkpt lat="59.5656659077" lon="17.962828951">
        <ele>20</ele>
        <time>2012-10-02T20:35:39Z</time>
      </trkpt>
      <trkpt lat="59.5655968409" lon="17.9627380074">
        <ele>19.4</ele>
        <time>2012-10-02T20:35:40Z</time>
      </trkpt>
      <trkpt lat="59.5655316297" lon="17.9626428728">
        <ele>18.8</ele>
        <time>2012-10-02T20:35:41Z</time>
      </trkpt>
      <trkpt lat="59.5654701066" lon="17.9625482412">
        <ele>18.2</ele>
        <time>2012-10-02T20:35:42Z</time>
      </trkpt>
      <trkpt lat="59.5654104274" lon="17.9624530228">
        <ele>17.6</ele>
        <time>2012-10-02T20:35:43Z</time>
      </trkpt>
      <trkpt lat="59.5650955194" lon="17.96194399">
        <ele>17.2</ele>
        <time>2012-10-02T20:35:48Z</time>
      </trkpt>
      <trkpt lat="59.5650300568" lon="17.9618375399">
        <ele>16.8</ele>
        <time>2012-10-02T20:35:49Z</time>
      </trkpt>
      <trkpt lat="59.5649639236" lon="17.9617280722">
        <ele>16.4</ele>
        <time>2012-10-02T20:35:50Z</time>
      </trkpt>
      <trkpt lat="59.5649002212" lon="17.9616201134">
        <ele>16</ele>
        <time>2012-10-02T20:35:51Z</time>
      </trkpt>
      <trkpt lat="59.5648361835" lon="17.9615136632">
        <ele>15.4</ele>
        <time>2012-10-02T20:35:52Z</time>
      </trkpt>
      <trkpt lat="59.564653458" lon="17.9611991743">
        <ele>15.4</ele>
        <time>2012-10-02T20:35:55Z</time>
      </trkpt>
      <trkpt lat="59.5643137396" lon="17.9606821788">
        <ele>15.4</ele>
        <time>2012-10-02T20:36:01Z</time>
      </trkpt>
      <trkpt lat="59.5638689122" lon="17.9600803583">
        <ele>15.4</ele>
        <time>2012-10-02T20:36:09Z</time>
      </trkpt>
      <trkpt lat="59.5638094007" lon="17.9600134708">
        <ele>15.4</ele>
        <time>2012-10-02T20:36:10Z</time>
      </trkpt>
      <trkpt lat="59.5632960093" lon="17.9594315993">
        <ele>15.4</ele>
        <time>2012-10-02T20:36:19Z</time>
      </trkpt>
      <trkpt lat="59.5631318079" lon="17.9592592674">
        <ele>16</ele>
        <time>2012-10-02T20:36:22Z</time>
      </trkpt>
      <trkpt lat="59.5630771579" lon="17.9591980795">
        <ele>16.4</ele>
        <time>2012-10-02T20:36:23Z</time>
      </trkpt>
      <trkpt lat="59.5630250225" lon="17.9591440163">
        <ele>16.8</ele>
        <time>2012-10-02T20:36:24Z</time>
      </trkpt>
      <trkpt lat="59.5629741444" lon="17.9590904559">
        <ele>17.2</ele>
        <time>2012-10-02T20:36:25Z</time>
      </trkpt>
      <trkpt lat="59.5629239368" lon="17.9590379014">
        <ele>17.8</ele>
        <time>2012-10-02T20:36:26Z</time>
      </trkpt>
      <trkpt lat="59.562872891" lon="17.9589830838">
        <ele>17.8</ele>
        <time>2012-10-02T20:36:27Z</time>
      </trkpt>
      <trkpt lat="59.5623797838" lon="17.958548147">
        <ele>17.8</ele>
        <time>2012-10-02T20:36:36Z</time>
      </trkpt>
      <trkpt lat="59.5620244751" lon="17.9582546967">
        <ele>17.8</ele>
        <time>2012-10-02T20:36:42Z</time>
      </trkpt>
      <trkpt lat="59.5616364769" lon="17.9578119647">
        <ele>17.8</ele>
        <time>2012-10-02T20:36:49Z</time>
      </trkpt>
      <trkpt lat="59.5613195573" lon="17.9573119006">
        <ele>17.8</ele>
        <time>2012-10-02T20:36:56Z</time>
      </trkpt>
      <trkpt lat="59.5610810923" lon="17.9569081445">
        <ele>17.8</ele>
        <time>2012-10-02T20:37:01Z</time>
      </trkpt>
      <trkpt lat="59.5610276996" lon="17.9568338808">
        <ele>17.8</ele>
        <time>2012-10-02T20:37:02Z</time>
      </trkpt>
      <trkpt lat="59.5608055792" lon="17.9565847708">
        <ele>17.8</ele>
        <time>2012-10-02T20:37:06Z</time>
      </trkpt>
      <trkpt lat="59.5607489176" lon="17.9565363234">
        <ele>18.2</ele>
        <time>2012-10-02T20:37:07Z</time>
      </trkpt>
      <trkpt lat="59.5606944352" lon="17.9564961741">
        <ele>18.6</ele>
        <time>2012-10-02T20:37:08Z</time>
      </trkpt>
      <trkpt lat="59.5606388632" lon="17.9564520853">
        <ele>19</ele>
        <time>2012-10-02T20:37:09Z</time>
      </trkpt>
      <trkpt lat="59.5605863925" lon="17.9564167137">
        <ele>20</ele>
        <time>2012-10-02T20:37:10Z</time>
      </trkpt>
      <trkpt lat="59.560433339" lon="17.9563228364">
        <ele>20</ele>
        <time>2012-10-02T20:37:13Z</time>
      </trkpt>
      <trkpt lat="59.560280537" lon="17.9562358323">
        <ele>20.4</ele>
        <time>2012-10-02T20:37:16Z</time>
      </trkpt>
      <trkpt lat="59.5602275634" lon="17.9562085073">
        <ele>20.8</ele>
        <time>2012-10-02T20:37:17Z</time>
      </trkpt>
      <trkpt lat="59.5601744221" lon="17.9561857923">
        <ele>21.4</ele>
        <time>2012-10-02T20:37:18Z</time>
      </trkpt>
      <trkpt lat="59.5601225382" lon="17.9561605628">
        <ele>21.8</ele>
        <time>2012-10-02T20:37:19Z</time>
      </trkpt>
      <trkpt lat="59.5600704028" lon="17.9561317291">
        <ele>22.2</ele>
        <time>2012-10-02T20:37:20Z</time>
      </trkpt>
      <trkpt lat="59.560018435" lon="17.9561103552">
        <ele>22.2</ele>
        <time>2012-10-02T20:37:21Z</time>
      </trkpt>
      <trkpt lat="59.5597494598" lon="17.9559984569">
        <ele>22.2</ele>
        <time>2012-10-02T20:37:26Z</time>
      </trkpt>
      <trkpt lat="59.5593466257" lon="17.9558070143">
        <ele>22.2</ele>
        <time>2012-10-02T20:37:33Z</time>
      </trkpt>
      <trkpt lat="59.5589909817" lon="17.9558605746">
        <ele>22.2</ele>
        <time>2012-10-02T20:37:39Z</time>
      </trkpt>
      <trkpt lat="59.5585710485" lon="17.9559948526">
        <ele>22.2</ele>
        <time>2012-10-02T20:37:46Z</time>
      </trkpt>
      <trkpt lat="59.558335098" lon="17.9558596526">
        <ele>22.2</ele>
        <time>2012-10-02T20:37:50Z</time>
      </trkpt>
      <trkpt lat="59.5582366107" lon="17.9557417193">
        <ele>22.2</ele>
        <time>2012-10-02T20:37:52Z</time>
      </trkpt>
      <trkpt lat="59.5580874967" lon="17.9555147374">
        <ele>22.2</ele>
        <time>2012-10-02T20:37:55Z</time>
      </trkpt>
      <trkpt lat="59.557810894" lon="17.9549400743">
        <ele>22.2</ele>
        <time>2012-10-02T20:38:01Z</time>
      </trkpt>
      <trkpt lat="59.5573898711" lon="17.9540888924">
        <ele>22.2</ele>
        <time>2012-10-02T20:38:10Z</time>
      </trkpt>
      <trkpt lat="59.5571409287" lon="17.9534247106">
        <ele>22.2</ele>
        <time>2012-10-02T20:38:16Z</time>
      </trkpt>
      <trkpt lat="59.55701805" lon="17.9527950623">
        <ele>22.2</ele>
        <time>2012-10-02T20:38:21Z</time>
      </trkpt>
      <trkpt lat="59.5569094206" lon="17.9519164716">
        <ele>22.2</ele>
        <time>2012-10-02T20:38:28Z</time>
      </trkpt>
      <trkpt lat="59.5567951753" lon="17.9511760983">
        <ele>22.2</ele>
        <time>2012-10-02T20:38:34Z</time>
      </trkpt>
      <trkpt lat="59.5566899825" lon="17.9505687459">
        <ele>22.2</ele>
        <time>2012-10-02T20:38:39Z</time>
      </trkpt>
      <trkpt lat="59.5566264477" lon="17.9502081565">
        <ele>22.6</ele>
        <time>2012-10-02T20:38:42Z</time>
      </trkpt>
      <trkpt lat="59.5566033136" lon="17.9500846911">
        <ele>23</ele>
        <time>2012-10-02T20:38:43Z</time>
      </trkpt>
      <trkpt lat="59.5565791738" lon="17.9499566995">
        <ele>23.6</ele>
        <time>2012-10-02T20:38:44Z</time>
      </trkpt>
      <trkpt lat="59.5565546986" lon="17.9498289594">
        <ele>24</ele>
        <time>2012-10-02T20:38:45Z</time>
      </trkpt>
      <trkpt lat="59.5565292176" lon="17.9497023088">
        <ele>24.4</ele>
        <time>2012-10-02T20:38:46Z</time>
      </trkpt>
      <trkpt lat="59.5563487553" lon="17.9487740972">
        <ele>24.4</ele>
        <time>2012-10-02T20:38:53Z</time>
      </trkpt>
      <trkpt lat="59.5563006432" lon="17.9485015179">
        <ele>24</ele>
        <time>2012-10-02T20:38:55Z</time>
      </trkpt>
      <trkpt lat="59.5562741564" lon="17.9483609534">
        <ele>23.6</ele>
        <time>2012-10-02T20:38:56Z</time>
      </trkpt>
      <trkpt lat="59.5562475858" lon="17.9482218977">
        <ele>23.2</ele>
        <time>2012-10-02T20:38:57Z</time>
      </trkpt>
      <trkpt lat="59.5562210152" lon="17.9480827581">
        <ele>22.8</ele>
        <time>2012-10-02T20:38:58Z</time>
      </trkpt>
      <trkpt lat="59.5561920976" lon="17.947944373">
        <ele>22.4</ele>
        <time>2012-10-02T20:38:59Z</time>
      </trkpt>
      <trkpt lat="59.5560689675" lon="17.9473649322">
        <ele>22.4</ele>
        <time>2012-10-02T20:39:03Z</time>
      </trkpt>
      <trkpt lat="59.5559277325" lon="17.9464482876">
        <ele>22.4</ele>
        <time>2012-10-02T20:39:09Z</time>
      </trkpt>
      <trkpt lat="59.5559171713" lon="17.9462758719">
        <ele>22</ele>
        <time>2012-10-02T20:39:10Z</time>
      </trkpt>
      <trkpt lat="59.5559104658" lon="17.946117957">
        <ele>21.6</ele>
        <time>2012-10-02T20:39:11Z</time>
      </trkpt>
      <trkpt lat="59.5559081189" lon="17.9459584494">
        <ele>21.2</ele>
        <time>2012-10-02T20:39:12Z</time>
      </trkpt>
      <trkpt lat="59.5559096276" lon="17.9458026299">
        <ele>20.8</ele>
        <time>2012-10-02T20:39:13Z</time>
      </trkpt>
      <trkpt lat="59.5559155787" lon="17.9456499955">
        <ele>20.2</ele>
        <time>2012-10-02T20:39:14Z</time>
      </trkpt>
      <trkpt lat="59.5559992301" lon="17.9449549683">
        <ele>20.2</ele>
        <time>2012-10-02T20:39:19Z</time>
      </trkpt>
      <trkpt lat="59.556024292" lon="17.9448320897">
        <ele>20.2</ele>
        <time>2012-10-02T20:39:20Z</time>
      </trkpt>
      <trkpt lat="59.5561084463" lon="17.9443035271">
        <ele>20.2</ele>
        <time>2012-10-02T20:39:24Z</time>
      </trkpt>
      <trkpt lat="59.5561263835" lon="17.9438944065">
        <ele>20.2</ele>
        <time>2012-10-02T20:39:27Z</time>
      </trkpt>
      <trkpt lat="59.556121522" lon="17.9437551832">
        <ele>20.2</ele>
        <time>2012-10-02T20:39:28Z</time>
      </trkpt>
      <trkpt lat="59.5560264713" lon="17.9429534544">
        <ele>20.2</ele>
        <time>2012-10-02T20:39:34Z</time>
      </trkpt>
      <trkpt lat="59.5560017447" lon="17.9428292347">
        <ele>20.6</ele>
        <time>2012-10-02T20:39:35Z</time>
      </trkpt>
      <trkpt lat="59.5559772695" lon="17.9427050149">
        <ele>21</ele>
        <time>2012-10-02T20:39:36Z</time>
      </trkpt>
      <trkpt lat="59.5559508665" lon="17.9425852376">
        <ele>21.6</ele>
        <time>2012-10-02T20:39:37Z</time>
      </trkpt>
      <trkpt lat="59.555924715" lon="17.9424603472">
        <ele>22</ele>
        <time>2012-10-02T20:39:38Z</time>
      </trkpt>
      <trkpt lat="59.5558990664" lon="17.9423310145">
        <ele>22.4</ele>
        <time>2012-10-02T20:39:39Z</time>
      </trkpt>
      <trkpt lat="59.5558149959" lon="17.9419114166">
        <ele>22.4</ele>
        <time>2012-10-02T20:39:42Z</time>
      </trkpt>
      <trkpt lat="59.5556465198" lon="17.9411526032">
        <ele>21.8</ele>
        <time>2012-10-02T20:39:47Z</time>
      </trkpt>
      <trkpt lat="59.5556049455" lon="17.9409916707">
        <ele>21.4</ele>
        <time>2012-10-02T20:39:48Z</time>
      </trkpt>
      <trkpt lat="59.5555667241" lon="17.9408365218">
        <ele>21</ele>
        <time>2012-10-02T20:39:49Z</time>
      </trkpt>
      <trkpt lat="59.5555289217" lon="17.9406836359">
        <ele>20.6</ele>
        <time>2012-10-02T20:39:50Z</time>
      </trkpt>
      <trkpt lat="59.5554891915" lon="17.9405392158">
        <ele>20</ele>
        <time>2012-10-02T20:39:51Z</time>
      </trkpt>
      <trkpt lat="59.5553431788" lon="17.9400009302">
        <ele>20</ele>
        <time>2012-10-02T20:39:55Z</time>
      </trkpt>
      <trkpt lat="59.5552177017" lon="17.9395436975">
        <ele>20</ele>
        <time>2012-10-02T20:39:59Z</time>
      </trkpt>
      <trkpt lat="59.555048555" lon="17.93890902">
        <ele>20</ele>
        <time>2012-10-02T20:40:05Z</time>
      </trkpt>
      <trkpt lat="59.5549770574" lon="17.9384280666">
        <ele>20.6</ele>
        <time>2012-10-02T20:40:09Z</time>
      </trkpt>
      <trkpt lat="59.5549676697" lon="17.9382901844">
        <ele>21</ele>
        <time>2012-10-02T20:40:10Z</time>
      </trkpt>
      <trkpt lat="59.5549599583" lon="17.9381460157">
        <ele>21.4</ele>
        <time>2012-10-02T20:40:11Z</time>
      </trkpt>
      <trkpt lat="59.5549537557" lon="17.9380112347">
        <ele>22</ele>
        <time>2012-10-02T20:40:12Z</time>
      </trkpt>
      <trkpt lat="59.5549503191" lon="17.9378790522">
        <ele>22.4</ele>
        <time>2012-10-02T20:40:13Z</time>
      </trkpt>
      <trkpt lat="59.5549413505" lon="17.9374602086">
        <ele>22.4</ele>
        <time>2012-10-02T20:40:16Z</time>
      </trkpt>
      <trkpt lat="59.5548875387" lon="17.9363983895">
        <ele>22.4</ele>
        <time>2012-10-02T20:40:23Z</time>
      </trkpt>
      <trkpt lat="59.5547615588" lon="17.9353098322">
        <ele>22.4</ele>
        <time>2012-10-02T20:40:30Z</time>
      </trkpt>
      <trkpt lat="59.5547333956" lon="17.9351670046">
        <ele>22.4</ele>
        <time>2012-10-02T20:40:31Z</time>
      </trkpt>
      <trkpt lat="59.5545308889" lon="17.9344910044">
        <ele>22.4</ele>
        <time>2012-10-02T20:40:36Z</time>
      </trkpt>
      <trkpt lat="59.5542254524" lon="17.9338070413">
        <ele>22.4</ele>
        <time>2012-10-02T20:40:42Z</time>
      </trkpt>
      <trkpt lat="59.5540547969" lon="17.9335610326">
        <ele>22</ele>
        <time>2012-10-02T20:40:45Z</time>
      </trkpt>
      <trkpt lat="59.553990843" lon="17.9334964081">
        <ele>21.6</ele>
        <time>2012-10-02T20:40:46Z</time>
      </trkpt>
      <trkpt lat="59.5539250451" lon="17.9334361423">
        <ele>21.2</ele>
        <time>2012-10-02T20:40:47Z</time>
      </trkpt>
      <trkpt lat="59.5538574032" lon="17.9333822466">
        <ele>20.8</ele>
        <time>2012-10-02T20:40:48Z</time>
      </trkpt>
      <trkpt lat="59.55378666" lon="17.9333304465">
        <ele>20.4</ele>
        <time>2012-10-02T20:40:49Z</time>
      </trkpt>
      <trkpt lat="59.5535218757" lon="17.9331731182">
        <ele>20.4</ele>
        <time>2012-10-02T20:40:53Z</time>
      </trkpt>
      <trkpt lat="59.5530030361" lon="17.9328943362">
        <ele>20.4</ele>
        <time>2012-10-02T20:41:01Z</time>
      </trkpt>
      <trkpt lat="59.5529405072" lon="17.9328546898">
        <ele>20.4</ele>
        <time>2012-10-02T20:41:02Z</time>
      </trkpt>
      <trkpt lat="59.5524485734" lon="17.9325663525">
        <ele>20.4</ele>
        <time>2012-10-02T20:41:10Z</time>
      </trkpt>
      <trkpt lat="59.5519562206" lon="17.9322827928">
        <ele>20.4</ele>
        <time>2012-10-02T20:41:18Z</time>
      </trkpt>
      <trkpt lat="59.5514360399" lon="17.9319512887">
        <ele>20.4</ele>
        <time>2012-10-02T20:41:26Z</time>
      </trkpt>
      <trkpt lat="59.5511213834" lon="17.9315956447">
        <ele>20.4</ele>
        <time>2012-10-02T20:41:31Z</time>
      </trkpt>
      <trkpt lat="59.5508554257" lon="17.9313560899">
        <ele>20.4</ele>
        <time>2012-10-02T20:41:35Z</time>
      </trkpt>
      <trkpt lat="59.5507828385" lon="17.9313220594">
        <ele>20.4</ele>
        <time>2012-10-02T20:41:36Z</time>
      </trkpt>
      <trkpt lat="59.5505643223" lon="17.9312773839">
        <ele>20.4</ele>
        <time>2012-10-02T20:41:39Z</time>
      </trkpt>
      <trkpt lat="59.5504943335" lon="17.9312879451">
        <ele>20.4</ele>
        <time>2012-10-02T20:41:40Z</time>
      </trkpt>
      <trkpt lat="59.5504231711" lon="17.9313114144">
        <ele>20.4</ele>
        <time>2012-10-02T20:41:41Z</time>
      </trkpt>
      <trkpt lat="59.5500282998" lon="17.9315136697">
        <ele>20.4</ele>
        <time>2012-10-02T20:41:47Z</time>
      </trkpt>
      <trkpt lat="59.5498920101" lon="17.9315978239">
        <ele>20</ele>
        <time>2012-10-02T20:41:49Z</time>
      </trkpt>
      <trkpt lat="59.5498236976" lon="17.9316371351">
        <ele>19.6</ele>
        <time>2012-10-02T20:41:50Z</time>
      </trkpt>
      <trkpt lat="59.5497533735" lon="17.9316788769">
        <ele>19.2</ele>
        <time>2012-10-02T20:41:51Z</time>
      </trkpt>
      <trkpt lat="59.5496818759" lon="17.9317238877">
        <ele>18.6</ele>
        <time>2012-10-02T20:41:52Z</time>
      </trkpt>
      <trkpt lat="59.5496118032" lon="17.931770994">
        <ele>18.2</ele>
        <time>2012-10-02T20:41:53Z</time>
      </trkpt>
      <trkpt lat="59.5495423173" lon="17.9318062818">
        <ele>18.2</ele>
        <time>2012-10-02T20:41:54Z</time>
      </trkpt>
      <trkpt lat="59.5491337835" lon="17.9320528773">
        <ele>18.2</ele>
        <time>2012-10-02T20:42:00Z</time>
      </trkpt>
      <trkpt lat="59.5487307817" lon="17.9322879896">
        <ele>18.2</ele>
        <time>2012-10-02T20:42:06Z</time>
      </trkpt>
      <trkpt lat="59.5483142851" lon="17.9325442243">
        <ele>18.2</ele>
        <time>2012-10-02T20:42:12Z</time>
      </trkpt>
      <trkpt lat="59.5481146282" lon="17.9327031451">
        <ele>18.2</ele>
        <time>2012-10-02T20:42:15Z</time>
      </trkpt>
      <trkpt lat="59.5479092717" lon="17.93284723">
        <ele>18.2</ele>
        <time>2012-10-02T20:42:18Z</time>
      </trkpt>
      <trkpt lat="59.5477677852" lon="17.9329154586">
        <ele>17.8</ele>
        <time>2012-10-02T20:42:21Z</time>
      </trkpt>
      <trkpt lat="59.5477258757" lon="17.9329307137">
        <ele>17.4</ele>
        <time>2012-10-02T20:42:22Z</time>
      </trkpt>
      <trkpt lat="59.5477190026" lon="17.9329293726">
        <ele>17</ele>
        <time>2012-10-02T20:42:23Z</time>
      </trkpt>
      <trkpt lat="59.5477136381" lon="17.932925936">
        <ele>16.6</ele>
        <time>2012-10-02T20:42:24Z</time>
      </trkpt>
      <trkpt lat="59.5477136381" lon="17.932925936">
        <ele>16.2</ele>
        <time>2012-10-02T20:42:25Z</time>
      </trkpt>
      <trkpt lat="59.5477136381" lon="17.932925936">
        <ele>15.8</ele>
        <time>2012-10-02T20:42:26Z</time>
      </trkpt>
      <trkpt lat="59.5477273845" lon="17.9329281153">
        <ele>15.4</ele>
        <time>2012-10-02T20:42:27Z</time>
      </trkpt>
      <trkpt lat="59.5477480877" lon="17.932920823">
        <ele>14.8</ele>
        <time>2012-10-02T20:42:28Z</time>
      </trkpt>
      <trkpt lat="59.547768791" lon="17.9329001197">
        <ele>14.4</ele>
        <time>2012-10-02T20:42:29Z</time>
      </trkpt>
      <trkpt lat="59.5477960322" lon="17.9328641614">
        <ele>14</ele>
        <time>2012-10-02T20:42:30Z</time>
      </trkpt>
      <trkpt lat="59.5478894904" lon="17.9327893948">
        <ele>14</ele>
        <time>2012-10-02T20:42:34Z</time>
      </trkpt>
      <trkpt lat="59.5479371834" lon="17.9327843657">
        <ele>14</ele>
        <time>2012-10-02T20:42:36Z</time>
      </trkpt>
      <trkpt lat="59.5479550369" lon="17.9327697812">
        <ele>14</ele>
        <time>2012-10-02T20:42:37Z</time>
      </trkpt>
      <trkpt lat="59.5479590602" lon="17.9327556158">
        <ele>14</ele>
        <time>2012-10-02T20:42:39Z</time>
      </trkpt>
      <trkpt lat="59.5479507621" lon="17.9327735531">
        <ele>14</ele>
        <time>2012-10-02T20:42:43Z</time>
      </trkpt>
      <trkpt lat="59.5479507621" lon="17.9327735531">
        <ele>14</ele>
        <time>2012-10-02T20:42:46Z</time>
      </trkpt>
      <trkpt lat="59.5477278035" lon="17.9329178056">
        <ele>14</ele>
        <time>2012-10-02T20:43:15Z</time>
      </trkpt>
      <trkpt lat="59.5476922643" lon="17.9329494053">
        <ele>14</ele>
        <time>2012-10-02T20:43:16Z</time>
      </trkpt>
      <trkpt lat="59.5475351037" lon="17.9330395946">
        <ele>14</ele>
        <time>2012-10-02T20:43:19Z</time>
      </trkpt>
      <trkpt lat="59.5474718203" lon="17.933069015">
        <ele>14</ele>
        <time>2012-10-02T20:43:20Z</time>
      </trkpt>
      <trkpt lat="59.5471971455" lon="17.9332345576">
        <ele>14.4</ele>
        <time>2012-10-02T20:43:24Z</time>
      </trkpt>
      <trkpt lat="59.5471284977" lon="17.9332765509">
        <ele>14.8</ele>
        <time>2012-10-02T20:43:25Z</time>
      </trkpt>
      <trkpt lat="59.5470613587" lon="17.933318628">
        <ele>15.4</ele>
        <time>2012-10-02T20:43:26Z</time>
      </trkpt>
      <trkpt lat="59.5469939682" lon="17.9333627168">
        <ele>15.8</ele>
        <time>2012-10-02T20:43:27Z</time>
      </trkpt>
      <trkpt lat="59.5469225544" lon="17.9334078114">
        <ele>16.2</ele>
        <time>2012-10-02T20:43:28Z</time>
      </trkpt>
      <trkpt lat="59.5465765496" lon="17.9335982482">
        <ele>16.2</ele>
        <time>2012-10-02T20:43:33Z</time>
      </trkpt>
      <trkpt lat="59.5461588795" lon="17.9338533932">
        <ele>16.2</ele>
        <time>2012-10-02T20:43:39Z</time>
      </trkpt>
      <trkpt lat="59.5455866472" lon="17.9342050978">
        <ele>16.2</ele>
        <time>2012-10-02T20:43:47Z</time>
      </trkpt>
      <trkpt lat="59.5455173289" lon="17.9342436545">
        <ele>16.2</ele>
        <time>2012-10-02T20:43:48Z</time>
      </trkpt>
      <trkpt lat="59.544967141" lon="17.9345656033">
        <ele>16.2</ele>
        <time>2012-10-02T20:43:56Z</time>
      </trkpt>
      <trkpt lat="59.5448211283" lon="17.9346433873">
        <ele>16.2</ele>
        <time>2012-10-02T20:43:58Z</time>
      </trkpt>
      <trkpt lat="59.5443773905" lon="17.9348737219">
        <ele>16.2</ele>
        <time>2012-10-02T20:44:04Z</time>
      </trkpt>
      <trkpt lat="59.5438574612" lon="17.9351661664">
        <ele>16.2</ele>
        <time>2012-10-02T20:44:11Z</time>
      </trkpt>
      <trkpt lat="59.5437850416" lon="17.9352090817">
        <ele>15.8</ele>
        <time>2012-10-02T20:44:12Z</time>
      </trkpt>
      <trkpt lat="59.543714466" lon="17.9352553498">
        <ele>15.4</ele>
        <time>2012-10-02T20:44:13Z</time>
      </trkpt>
      <trkpt lat="59.5436386098" lon="17.9352937389">
        <ele>15</ele>
        <time>2012-10-02T20:44:14Z</time>
      </trkpt>
      <trkpt lat="59.543565352" lon="17.9353370734">
        <ele>14.4</ele>
        <time>2012-10-02T20:44:15Z</time>
      </trkpt>
      <trkpt lat="59.5434906693" lon="17.9353768036">
        <ele>14</ele>
        <time>2012-10-02T20:44:16Z</time>
      </trkpt>
      <trkpt lat="59.5434188364" lon="17.9354202218">
        <ele>14</ele>
        <time>2012-10-02T20:44:17Z</time>
      </trkpt>
      <trkpt lat="59.5429195266" lon="17.9357205453">
        <ele>14</ele>
        <time>2012-10-02T20:44:24Z</time>
      </trkpt>
      <trkpt lat="59.5425024433" lon="17.935965632">
        <ele>14</ele>
        <time>2012-10-02T20:44:30Z</time>
      </trkpt>
      <trkpt lat="59.541963068" lon="17.9362818811">
        <ele>14</ele>
        <time>2012-10-02T20:44:38Z</time>
      </trkpt>
      <trkpt lat="59.5418938335" lon="17.9363119721">
        <ele>14</ele>
        <time>2012-10-02T20:44:39Z</time>
      </trkpt>
      <trkpt lat="59.5415368484" lon="17.9363470085">
        <ele>14</ele>
        <time>2012-10-02T20:44:44Z</time>
      </trkpt>
      <trkpt lat="59.5410454176" lon="17.9362561487">
        <ele>14</ele>
        <time>2012-10-02T20:44:51Z</time>
      </trkpt>
      <trkpt lat="59.540590029" lon="17.9361830585">
        <ele>14</ele>
        <time>2012-10-02T20:44:58Z</time>
      </trkpt>
      <trkpt lat="59.5401668268" lon="17.936100413">
        <ele>14</ele>
        <time>2012-10-02T20:45:05Z</time>
      </trkpt>
      <trkpt lat="59.5398514159" lon="17.9360486128">
        <ele>14</ele>
        <time>2012-10-02T20:45:10Z</time>
      </trkpt>
      <trkpt lat="59.5394821932" lon="17.9359777858">
        <ele>14</ele>
        <time>2012-10-02T20:45:17Z</time>
      </trkpt>
      <trkpt lat="59.5392615816" lon="17.9359358763">
        <ele>14.6</ele>
        <time>2012-10-02T20:45:21Z</time>
      </trkpt>
      <trkpt lat="59.5392043333" lon="17.9359278297">
        <ele>15</ele>
        <time>2012-10-02T20:45:22Z</time>
      </trkpt>
      <trkpt lat="59.5391497671" lon="17.9359209565">
        <ele>15.4</ele>
        <time>2012-10-02T20:45:23Z</time>
      </trkpt>
      <trkpt lat="59.5390957877" lon="17.9359159274">
        <ele>15.8</ele>
        <time>2012-10-02T20:45:24Z</time>
      </trkpt>
      <trkpt lat="59.5390402995" lon="17.9359078807">
        <ele>16.2</ele>
        <time>2012-10-02T20:45:25Z</time>
      </trkpt>
      <trkpt lat="59.5386909419" lon="17.9358300967">
        <ele>16.2</ele>
        <time>2012-10-02T20:45:31Z</time>
      </trkpt>
      <trkpt lat="59.5381809871" lon="17.9357245686">
        <ele>16.2</ele>
        <time>2012-10-02T20:45:39Z</time>
      </trkpt>
      <trkpt lat="59.5376551905" lon="17.9356148495">
        <ele>16.2</ele>
        <time>2012-10-02T20:45:47Z</time>
      </trkpt>
      <trkpt lat="59.5371720578" lon="17.9355037055">
        <ele>16.2</ele>
        <time>2012-10-02T20:45:54Z</time>
      </trkpt>
      <trkpt lat="59.5366714069" lon="17.9354019493">
        <ele>15.8</ele>
        <time>2012-10-02T20:46:01Z</time>
      </trkpt>
      <trkpt lat="59.5365989873" lon="17.9353889573">
        <ele>15.4</ele>
        <time>2012-10-02T20:46:02Z</time>
      </trkpt>
      <trkpt lat="59.5365258971" lon="17.9353721935">
        <ele>15</ele>
        <time>2012-10-02T20:46:03Z</time>
      </trkpt>
      <trkpt lat="59.5364534775" lon="17.9353602074">
        <ele>14.4</ele>
        <time>2012-10-02T20:46:04Z</time>
      </trkpt>
      <trkpt lat="59.536378208" lon="17.9353499815">
        <ele>14</ele>
        <time>2012-10-02T20:46:05Z</time>
      </trkpt>
      <trkpt lat="59.5360678263" lon="17.9352845188">
        <ele>13.6</ele>
        <time>2012-10-02T20:46:09Z</time>
      </trkpt>
      <trkpt lat="59.5359881982" lon="17.9352697667">
        <ele>13.2</ele>
        <time>2012-10-02T20:46:10Z</time>
      </trkpt>
      <trkpt lat="59.5359089055" lon="17.9352572777">
        <ele>12.8</ele>
        <time>2012-10-02T20:46:11Z</time>
      </trkpt>
      <trkpt lat="59.5358307023" lon="17.9352429446">
        <ele>12.4</ele>
        <time>2012-10-02T20:46:12Z</time>
      </trkpt>
      <trkpt lat="59.5357520801" lon="17.9352282763">
        <ele>12</ele>
        <time>2012-10-02T20:46:13Z</time>
      </trkpt>
      <trkpt lat="59.5352074242" lon="17.9351359078">
        <ele>12</ele>
        <time>2012-10-02T20:46:20Z</time>
      </trkpt>
      <trkpt lat="59.5351314004" lon="17.935107074">
        <ele>12</ele>
        <time>2012-10-02T20:46:21Z</time>
      </trkpt>
      <trkpt lat="59.5350592322" lon="17.9350607221">
        <ele>12</ele>
        <time>2012-10-02T20:46:22Z</time>
      </trkpt>
      <trkpt lat="59.5349148121" lon="17.9349548587">
        <ele>11.6</ele>
        <time>2012-10-02T20:46:24Z</time>
      </trkpt>
      <trkpt lat="59.5348459129" lon="17.9349035615">
        <ele>11.2</ele>
        <time>2012-10-02T20:46:25Z</time>
      </trkpt>
      <trkpt lat="59.5347818752" lon="17.9348483248">
        <ele>10.8</ele>
        <time>2012-10-02T20:46:26Z</time>
      </trkpt>
      <trkpt lat="59.5347180889" lon="17.9347909087">
        <ele>10.2</ele>
        <time>2012-10-02T20:46:27Z</time>
      </trkpt>
      <trkpt lat="59.5346562305" lon="17.9347210875">
        <ele>9.8</ele>
        <time>2012-10-02T20:46:28Z</time>
      </trkpt>
      <trkpt lat="59.5345308373" lon="17.9345669444">
        <ele>9.8</ele>
        <time>2012-10-02T20:46:30Z</time>
      </trkpt>
      <trkpt lat="59.5342601019" lon="17.9342242923">
        <ele>9.8</ele>
        <time>2012-10-02T20:46:35Z</time>
      </trkpt>
      <trkpt lat="59.5338975009" lon="17.9338068737">
        <ele>9.8</ele>
        <time>2012-10-02T20:46:42Z</time>
      </trkpt>
      <trkpt lat="59.5335057309" lon="17.9334070571">
        <ele>10.4</ele>
        <time>2012-10-02T20:46:49Z</time>
      </trkpt>
      <trkpt lat="59.5334509971" lon="17.9333634712">
        <ele>10.8</ele>
        <time>2012-10-02T20:46:50Z</time>
      </trkpt>
      <trkpt lat="59.5333970177" lon="17.9333211426">
        <ele>11.2</ele>
        <time>2012-10-02T20:46:51Z</time>
      </trkpt>
      <trkpt lat="59.5333410266" lon="17.9332784787">
        <ele>11.6</ele>
        <time>2012-10-02T20:46:52Z</time>
      </trkpt>
      <trkpt lat="59.533281096" lon="17.9332303666">
        <ele>12</ele>
        <time>2012-10-02T20:46:53Z</time>
      </trkpt>
      <trkpt lat="59.5330238555" lon="17.9330300392">
        <ele>12</ele>
        <time>2012-10-02T20:46:57Z</time>
      </trkpt>
      <trkpt lat="59.532512811" lon="17.9325699567">
        <ele>12</ele>
        <time>2012-10-02T20:47:05Z</time>
      </trkpt>
      <trkpt lat="59.5321288362" lon="17.9321921007">
        <ele>12.4</ele>
        <time>2012-10-02T20:47:11Z</time>
      </trkpt>
      <trkpt lat="59.5320698276" lon="17.9321175017">
        <ele>13</ele>
        <time>2012-10-02T20:47:12Z</time>
      </trkpt>
      <trkpt lat="59.5320119925" lon="17.932040975">
        <ele>13.4</ele>
        <time>2012-10-02T20:47:13Z</time>
      </trkpt>
      <trkpt lat="59.5319528163" lon="17.9319686392">
        <ele>13.8</ele>
        <time>2012-10-02T20:47:14Z</time>
      </trkpt>
      <trkpt lat="59.5318943944" lon="17.9318959681">
        <ele>14.2</ele>
        <time>2012-10-02T20:47:15Z</time>
      </trkpt>
      <trkpt lat="59.5316580249" lon="17.9316032722">
        <ele>14.2</ele>
        <time>2012-10-02T20:47:19Z</time>
      </trkpt>
      <trkpt lat="59.5312962621" lon="17.9310422716">
        <ele>14.2</ele>
        <time>2012-10-02T20:47:25Z</time>
      </trkpt>
      <trkpt lat="59.530850345" lon="17.9302360167">
        <ele>14.2</ele>
        <time>2012-10-02T20:47:33Z</time>
      </trkpt>
      <trkpt lat="59.5305679588" lon="17.9296161751">
        <ele>14.2</ele>
        <time>2012-10-02T20:47:39Z</time>
      </trkpt>
      <trkpt lat="59.5302395559" lon="17.9287639036">
        <ele>14.2</ele>
        <time>2012-10-02T20:47:47Z</time>
      </trkpt>
      <trkpt lat="59.5299916193" lon="17.9280442336">
        <ele>14.2</ele>
        <time>2012-10-02T20:47:54Z</time>
      </trkpt>
      <trkpt lat="59.5298326147" lon="17.9274694029">
        <ele>14.2</ele>
        <time>2012-10-02T20:47:59Z</time>
      </trkpt>
      <trkpt lat="59.5297153519" lon="17.9269216458">
        <ele>14.2</ele>
        <time>2012-10-02T20:48:04Z</time>
      </trkpt>
      <trkpt lat="59.5295969995" lon="17.9263339907">
        <ele>14.2</ele>
        <time>2012-10-02T20:48:09Z</time>
      </trkpt>
      <trkpt lat="59.5294944888" lon="17.9257946993">
        <ele>14.2</ele>
        <time>2012-10-02T20:48:15Z</time>
      </trkpt>
      <trkpt lat="59.5294814969" lon="17.9257006544">
        <ele>14.2</ele>
        <time>2012-10-02T20:48:17Z</time>
      </trkpt>
      <trkpt lat="59.5293131883" lon="17.9249078105">
        <ele>14.2</ele>
        <time>2012-10-02T20:49:05Z</time>
      </trkpt>
      <trkpt lat="59.5292996097" lon="17.9248234885">
        <ele>14.2</ele>
        <time>2012-10-02T20:49:06Z</time>
      </trkpt>
      <trkpt lat="59.5292347338" lon="17.9244668387">
        <ele>14.2</ele>
        <time>2012-10-02T20:49:09Z</time>
      </trkpt>
      <trkpt lat="59.5290523436" lon="17.9237573109">
        <ele>14.2</ele>
        <time>2012-10-02T20:49:15Z</time>
      </trkpt>
      <trkpt lat="59.5288489987" lon="17.9229741061">
        <ele>14.2</ele>
        <time>2012-10-02T20:49:21Z</time>
      </trkpt>
      <trkpt lat="59.5286152275" lon="17.9223174681">
        <ele>14.2</ele>
        <time>2012-10-02T20:49:27Z</time>
      </trkpt>
      <trkpt lat="59.5285445681" lon="17.9221395203">
        <ele>14.6</ele>
        <time>2012-10-02T20:49:29Z</time>
      </trkpt>
      <trkpt lat="59.5285059276" lon="17.9220511751">
        <ele>15</ele>
        <time>2012-10-02T20:49:30Z</time>
      </trkpt>
      <trkpt lat="59.5284677899" lon="17.9219649254">
        <ele>15.4</ele>
        <time>2012-10-02T20:49:31Z</time>
      </trkpt>
      <trkpt lat="59.5284294008" lon="17.9218818607">
        <ele>15.8</ele>
        <time>2012-10-02T20:49:32Z</time>
      </trkpt>
      <trkpt lat="59.5283896706" lon="17.9217935155">
        <ele>16.2</ele>
        <time>2012-10-02T20:49:33Z</time>
      </trkpt>
      <trkpt lat="59.5283076956" lon="17.9216262128">
        <ele>16.6</ele>
        <time>2012-10-02T20:49:35Z</time>
      </trkpt>
      <trkpt lat="59.528282047" lon="17.9215277255">
        <ele>17</ele>
        <time>2012-10-02T20:49:36Z</time>
      </trkpt>
      <trkpt lat="59.5282754253" lon="17.921424209">
        <ele>17.6</ele>
        <time>2012-10-02T20:49:37Z</time>
      </trkpt>
      <trkpt lat="59.5282955419" lon="17.9213314214">
        <ele>18</ele>
        <time>2012-10-02T20:49:38Z</time>
      </trkpt>
      <trkpt lat="59.5283178377" lon="17.9212354486">
        <ele>18.4</ele>
        <time>2012-10-02T20:49:39Z</time>
      </trkpt>
      <trkpt lat="59.5283393792" lon="17.9211447565">
        <ele>18.4</ele>
        <time>2012-10-02T20:49:40Z</time>
      </trkpt>
      <trkpt lat="59.528402914" lon="17.9208357158">
        <ele>18.4</ele>
        <time>2012-10-02T20:49:43Z</time>
      </trkpt>
      <trkpt lat="59.5284273891" lon="17.9206099074">
        <ele>18.4</ele>
        <time>2012-10-02T20:49:45Z</time>
      </trkpt>
      <trkpt lat="59.5283914308" lon="17.9201437061">
        <ele>18.4</ele>
        <time>2012-10-02T20:49:49Z</time>
      </trkpt>
      <trkpt lat="59.5283274769" lon="17.9198389403">
        <ele>18.4</ele>
        <time>2012-10-02T20:49:52Z</time>
      </trkpt>
      <trkpt lat="59.5282843939" lon="17.9196440611">
        <ele>18.4</ele>
        <time>2012-10-02T20:49:54Z</time>
      </trkpt>
      <trkpt lat="59.5282481841" lon="17.9194497686">
        <ele>18.8</ele>
        <time>2012-10-02T20:49:56Z</time>
      </trkpt>
      <trkpt lat="59.5282305821" lon="17.9193706435">
        <ele>19.2</ele>
        <time>2012-10-02T20:49:57Z</time>
      </trkpt>
      <trkpt lat="59.528213064" lon="17.9192818792">
        <ele>19.6</ele>
        <time>2012-10-02T20:49:58Z</time>
      </trkpt>
      <trkpt lat="59.5281927798" lon="17.9191757643">
        <ele>20</ele>
        <time>2012-10-02T20:49:59Z</time>
      </trkpt>
      <trkpt lat="59.5281724118" lon="17.9190632792">
        <ele>20.4</ele>
        <time>2012-10-02T20:50:00Z</time>
      </trkpt>
      <trkpt lat="59.5280749303" lon="17.9186367243">
        <ele>20.8</ele>
        <time>2012-10-02T20:50:04Z</time>
      </trkpt>
      <trkpt lat="59.5280532211" lon="17.9185526539">
        <ele>21.4</ele>
        <time>2012-10-02T20:50:05Z</time>
      </trkpt>
      <trkpt lat="59.528034278" lon="17.918475708">
        <ele>21.8</ele>
        <time>2012-10-02T20:50:06Z</time>
      </trkpt>
      <trkpt lat="59.5280185201" lon="17.918402534">
        <ele>22.4</ele>
        <time>2012-10-02T20:50:07Z</time>
      </trkpt>
      <trkpt lat="59.5279991579" lon="17.9183393345">
        <ele>22.8</ele>
        <time>2012-10-02T20:50:08Z</time>
      </trkpt>
      <trkpt lat="59.5279857468" lon="17.9182663282">
        <ele>22.8</ele>
        <time>2012-10-02T20:50:09Z</time>
      </trkpt>
      <trkpt lat="59.5279761915" lon="17.9181944115">
        <ele>23.2</ele>
        <time>2012-10-02T20:50:10Z</time>
      </trkpt>
      <trkpt lat="59.5279656303" lon="17.9181281106">
        <ele>23.6</ele>
        <time>2012-10-02T20:50:11Z</time>
      </trkpt>
      <trkpt lat="59.5279533089" lon="17.9180546014">
        <ele>24.2</ele>
        <time>2012-10-02T20:50:12Z</time>
      </trkpt>
      <trkpt lat="59.5279418257" lon="17.9179827685">
        <ele>24.6</ele>
        <time>2012-10-02T20:50:13Z</time>
      </trkpt>
      <trkpt lat="59.5279295043" lon="17.9179048168">
        <ele>25</ele>
        <time>2012-10-02T20:50:14Z</time>
      </trkpt>
      <trkpt lat="59.5279108127" lon="17.9177456445">
        <ele>25.4</ele>
        <time>2012-10-02T20:50:16Z</time>
      </trkpt>
      <trkpt lat="59.5279059512" lon="17.9176655974">
        <ele>25.8</ele>
        <time>2012-10-02T20:50:17Z</time>
      </trkpt>
      <trkpt lat="59.5278998324" lon="17.9175740671">
        <ele>26.4</ele>
        <time>2012-10-02T20:50:18Z</time>
      </trkpt>
      <trkpt lat="59.5278994971" lon="17.917490751">
        <ele>26.8</ele>
        <time>2012-10-02T20:50:19Z</time>
      </trkpt>
      <trkpt lat="59.527905113" lon="17.917402741">
        <ele>27.2</ele>
        <time>2012-10-02T20:50:20Z</time>
      </trkpt>
      <trkpt lat="59.5279160094" lon="17.9172397131">
        <ele>27.6</ele>
        <time>2012-10-02T20:50:22Z</time>
      </trkpt>
      <trkpt lat="59.5279249781" lon="17.9171745857">
        <ele>28</ele>
        <time>2012-10-02T20:50:23Z</time>
      </trkpt>
      <trkpt lat="59.527937048" lon="17.917105435">
        <ele>28.6</ele>
        <time>2012-10-02T20:50:24Z</time>
      </trkpt>
      <trkpt lat="59.527946771" lon="17.9170290759">
        <ele>29</ele>
        <time>2012-10-02T20:50:25Z</time>
      </trkpt>
      <trkpt lat="59.5279616908" lon="17.9169537226">
        <ele>29.4</ele>
        <time>2012-10-02T20:50:26Z</time>
      </trkpt>
      <trkpt lat="59.5280066178" lon="17.9167149223">
        <ele>29.8</ele>
        <time>2012-10-02T20:50:29Z</time>
      </trkpt>
      <trkpt lat="59.5280238845" lon="17.9166285887">
        <ele>30.2</ele>
        <time>2012-10-02T20:50:30Z</time>
      </trkpt>
      <trkpt lat="59.5280465994" lon="17.9165443506">
        <ele>30.6</ele>
        <time>2012-10-02T20:50:31Z</time>
      </trkpt>
      <trkpt lat="59.5280687276" lon="17.9164537423">
        <ele>31</ele>
        <time>2012-10-02T20:50:32Z</time>
      </trkpt>
      <trkpt lat="59.5280981481" lon="17.9163776346">
        <ele>31.4</ele>
        <time>2012-10-02T20:50:33Z</time>
      </trkpt>
      <trkpt lat="59.5281491939" lon="17.9162314543">
        <ele>31.8</ele>
        <time>2012-10-02T20:50:35Z</time>
      </trkpt>
      <trkpt lat="59.5281688914" lon="17.916183426">
        <ele>32.4</ele>
        <time>2012-10-02T20:50:36Z</time>
      </trkpt>
      <trkpt lat="59.5281978927" lon="17.9161163708">
        <ele>32.8</ele>
        <time>2012-10-02T20:50:37Z</time>
      </trkpt>
      <trkpt lat="59.5282321747" lon="17.916042191">
        <ele>33.2</ele>
        <time>2012-10-02T20:50:38Z</time>
      </trkpt>
      <trkpt lat="59.5282733298" lon="17.9159706934">
        <ele>33.6</ele>
        <time>2012-10-02T20:50:39Z</time>
      </trkpt>
      <trkpt lat="59.5284316639" lon="17.9158073302">
        <ele>33.6</ele>
        <time>2012-10-02T20:50:43Z</time>
      </trkpt>
      <trkpt lat="59.5284767585" lon="17.9157751437">
        <ele>33.6</ele>
        <time>2012-10-02T20:50:44Z</time>
      </trkpt>
      <trkpt lat="59.5285780119" lon="17.9157360002">
        <ele>34.2</ele>
        <time>2012-10-02T20:50:46Z</time>
      </trkpt>
      <trkpt lat="59.5286346735" lon="17.915731474">
        <ele>34.6</ele>
        <time>2012-10-02T20:50:47Z</time>
      </trkpt>
      <trkpt lat="59.528693263" lon="17.9157406941">
        <ele>35</ele>
        <time>2012-10-02T20:50:48Z</time>
      </trkpt>
      <trkpt lat="59.528751601" lon="17.9157549433">
        <ele>35.6</ele>
        <time>2012-10-02T20:50:49Z</time>
      </trkpt>
      <trkpt lat="59.5288098552" lon="17.9157831903">
        <ele>36</ele>
        <time>2012-10-02T20:50:50Z</time>
      </trkpt>
      <trkpt lat="59.5290191513" lon="17.9158831864">
        <ele>36</ele>
        <time>2012-10-02T20:50:53Z</time>
      </trkpt>
      <trkpt lat="59.5291558601" lon="17.9159090026">
        <ele>36</ele>
        <time>2012-10-02T20:50:55Z</time>
      </trkpt>
      <trkpt lat="59.5293516613" lon="17.9158641595">
        <ele>36</ele>
        <time>2012-10-02T20:50:58Z</time>
      </trkpt>
      <trkpt lat="59.5294185488" lon="17.9158276144">
        <ele>36</ele>
        <time>2012-10-02T20:50:59Z</time>
      </trkpt>
      <trkpt lat="59.5297050422" lon="17.9156514268">
        <ele>36</ele>
        <time>2012-10-02T20:51:03Z</time>
      </trkpt>
      <trkpt lat="59.5300295055" lon="17.9154020653">
        <ele>36</ele>
        <time>2012-10-02T20:51:08Z</time>
      </trkpt>
      <trkpt lat="59.5300764442" lon="17.9153156479">
        <ele>36</ele>
        <time>2012-10-02T20:51:09Z</time>
      </trkpt>
      <trkpt lat="59.5302056931" lon="17.9148963853">
        <ele>36</ele>
        <time>2012-10-02T20:51:13Z</time>
      </trkpt>
      <trkpt lat="59.5302248876" lon="17.9147766917">
        <ele>36</ele>
        <time>2012-10-02T20:51:14Z</time>
      </trkpt>
      <trkpt lat="59.5302388016" lon="17.91450428">
        <ele>36</ele>
        <time>2012-10-02T20:51:16Z</time>
      </trkpt>
      <trkpt lat="59.5302228759" lon="17.9143634641">
        <ele>36</ele>
        <time>2012-10-02T20:51:17Z</time>
      </trkpt>
      <trkpt lat="59.5302081238" lon="17.9142040403">
        <ele>36.4</ele>
        <time>2012-10-02T20:51:18Z</time>
      </trkpt>
      <trkpt lat="59.5301931202" lon="17.9140443651">
        <ele>36.8</ele>
        <time>2012-10-02T20:51:19Z</time>
      </trkpt>
      <trkpt lat="59.5301778651" lon="17.9139052256">
        <ele>37.2</ele>
        <time>2012-10-02T20:51:20Z</time>
      </trkpt>
      <trkpt lat="59.5301642026" lon="17.9137597158">
        <ele>37.6</ele>
        <time>2012-10-02T20:51:21Z</time>
      </trkpt>
      <trkpt lat="59.5301485285" lon="17.9136168044">
        <ele>38.2</ele>
        <time>2012-10-02T20:51:22Z</time>
      </trkpt>
      <trkpt lat="59.5301345307" lon="17.9134740607">
        <ele>38.6</ele>
        <time>2012-10-02T20:51:23Z</time>
      </trkpt>
      <trkpt lat="59.5301222093" lon="17.913326204">
        <ele>39.2</ele>
        <time>2012-10-02T20:51:24Z</time>
      </trkpt>
      <trkpt lat="59.5301056132" lon="17.9131722285">
        <ele>39.6</ele>
        <time>2012-10-02T20:51:25Z</time>
      </trkpt>
      <trkpt lat="59.5300919507" lon="17.9130218572">
        <ele>40.2</ele>
        <time>2012-10-02T20:51:26Z</time>
      </trkpt>
      <trkpt lat="59.5300400667" lon="17.9124172707">
        <ele>40.2</ele>
        <time>2012-10-02T20:51:30Z</time>
      </trkpt>
      <trkpt lat="59.5300217103" lon="17.9122502195">
        <ele>39.6</ele>
        <time>2012-10-02T20:51:31Z</time>
      </trkpt>
      <trkpt lat="59.5300006718" lon="17.9120840902">
        <ele>39.2</ele>
        <time>2012-10-02T20:51:32Z</time>
      </trkpt>
      <trkpt lat="59.5299764481" lon="17.9119070645">
        <ele>38.8</ele>
        <time>2012-10-02T20:51:33Z</time>
      </trkpt>
      <trkpt lat="59.529958427" lon="17.911736409">
        <ele>38.2</ele>
        <time>2012-10-02T20:51:34Z</time>
      </trkpt>
      <trkpt lat="59.5299416632" lon="17.9115605567">
        <ele>37.8</ele>
        <time>2012-10-02T20:51:35Z</time>
      </trkpt>
      <trkpt lat="59.5299231392" lon="17.9113852074">
        <ele>37.2</ele>
        <time>2012-10-02T20:51:36Z</time>
      </trkpt>
      <trkpt lat="59.5299046152" lon="17.9112064214">
        <ele>36.8</ele>
        <time>2012-10-02T20:51:37Z</time>
      </trkpt>
      <trkpt lat="59.5298850854" lon="17.911028809">
        <ele>36.4</ele>
        <time>2012-10-02T20:51:38Z</time>
      </trkpt>
      <trkpt lat="59.5298661423" lon="17.9108516156">
        <ele>35.8</ele>
        <time>2012-10-02T20:51:39Z</time>
      </trkpt>
      <trkpt lat="59.5297903699" lon="17.9101592707">
        <ele>35.4</ele>
        <time>2012-10-02T20:51:43Z</time>
      </trkpt>
      <trkpt lat="59.5297688284" lon="17.9099945663">
        <ele>34.8</ele>
        <time>2012-10-02T20:51:44Z</time>
      </trkpt>
      <trkpt lat="59.5297463649" lon="17.9098329633">
        <ele>34.4</ele>
        <time>2012-10-02T20:51:45Z</time>
      </trkpt>
      <trkpt lat="59.5297217221" lon="17.909674713">
        <ele>34</ele>
        <time>2012-10-02T20:51:46Z</time>
      </trkpt>
      <trkpt lat="59.5296861829" lon="17.9095247608">
        <ele>33.6</ele>
        <time>2012-10-02T20:51:47Z</time>
      </trkpt>
      <trkpt lat="59.5295667408" lon="17.9090713001">
        <ele>33.6</ele>
        <time>2012-10-02T20:51:50Z</time>
      </trkpt>
      <trkpt lat="59.5293975103" lon="17.9083072061">
        <ele>33.2</ele>
        <time>2012-10-02T20:51:55Z</time>
      </trkpt>
      <trkpt lat="59.5293691794" lon="17.9081431723">
        <ele>32.8</ele>
        <time>2012-10-02T20:51:56Z</time>
      </trkpt>
      <trkpt lat="59.5293477218" lon="17.907992801">
        <ele>32.4</ele>
        <time>2012-10-02T20:51:57Z</time>
      </trkpt>
      <trkpt lat="59.5293324667" lon="17.9078498058">
        <ele>32</ele>
        <time>2012-10-02T20:51:58Z</time>
      </trkpt>
      <trkpt lat="59.529317966" lon="17.9077101633">
        <ele>31.6</ele>
        <time>2012-10-02T20:51:59Z</time>
      </trkpt>
      <trkpt lat="59.5293096679" lon="17.907392154">
        <ele>31.6</ele>
        <time>2012-10-02T20:52:01Z</time>
      </trkpt>
      <trkpt lat="59.5293013699" lon="17.9072469795">
        <ele>31.6</ele>
        <time>2012-10-02T20:52:02Z</time>
      </trkpt>
      <trkpt lat="59.5292461331" lon="17.906825789">
        <ele>31.6</ele>
        <time>2012-10-02T20:52:05Z</time>
      </trkpt>
      <trkpt lat="59.5292115997" lon="17.9065356915">
        <ele>31.6</ele>
        <time>2012-10-02T20:52:07Z</time>
      </trkpt>
      <trkpt lat="59.5290563669" lon="17.9054816676">
        <ele>31.6</ele>
        <time>2012-10-02T20:52:14Z</time>
      </trkpt>
      <trkpt lat="59.5289792534" lon="17.904983196">
        <ele>31</ele>
        <time>2012-10-02T20:52:17Z</time>
      </trkpt>
      <trkpt lat="59.5289522637" lon="17.9048108641">
        <ele>30.6</ele>
        <time>2012-10-02T20:52:18Z</time>
      </trkpt>
      <trkpt lat="59.5289256931" lon="17.9046319105">
        <ele>29.8</ele>
        <time>2012-10-02T20:52:19Z</time>
      </trkpt>
      <trkpt lat="59.5288938419" lon="17.9044398812">
        <ele>29.2</ele>
        <time>2012-10-02T20:52:20Z</time>
      </trkpt>
      <trkpt lat="59.5288624098" lon="17.9042581616">
        <ele>28.6</ele>
        <time>2012-10-02T20:52:21Z</time>
      </trkpt>
      <trkpt lat="59.5288270381" lon="17.9040696527">
        <ele>28</ele>
        <time>2012-10-02T20:52:22Z</time>
      </trkpt>
      <trkpt lat="59.5287941811" lon="17.9038834069">
        <ele>27.4</ele>
        <time>2012-10-02T20:52:23Z</time>
      </trkpt>
      <trkpt lat="59.5287583904" lon="17.9037039504">
        <ele>26.8</ele>
        <time>2012-10-02T20:52:24Z</time>
      </trkpt>
      <trkpt lat="59.5287236893" lon="17.9035265894">
        <ele>26.2</ele>
        <time>2012-10-02T20:52:25Z</time>
      </trkpt>
      <trkpt lat="59.5286849649" lon="17.90334663">
        <ele>25.8</ele>
        <time>2012-10-02T20:52:26Z</time>
      </trkpt>
      <trkpt lat="59.5286467435" lon="17.9031599651">
        <ele>25.2</ele>
        <time>2012-10-02T20:52:27Z</time>
      </trkpt>
      <trkpt lat="59.5286127968" lon="17.9029929138">
        <ele>24.6</ele>
        <time>2012-10-02T20:52:28Z</time>
      </trkpt>
      <trkpt lat="59.5285801912" lon="17.902827036">
        <ele>24.2</ele>
        <time>2012-10-02T20:52:29Z</time>
      </trkpt>
      <trkpt lat="59.5285480047" lon="17.9026655168">
        <ele>23.8</ele>
        <time>2012-10-02T20:52:30Z</time>
      </trkpt>
      <trkpt lat="59.52851037" lon="17.9025062607">
        <ele>23.2</ele>
        <time>2012-10-02T20:52:31Z</time>
      </trkpt>
      <trkpt lat="59.5284690472" lon="17.9023522014">
        <ele>22.8</ele>
        <time>2012-10-02T20:52:32Z</time>
      </trkpt>
      <trkpt lat="59.5284137267" lon="17.9022004052">
        <ele>22.4</ele>
        <time>2012-10-02T20:52:33Z</time>
      </trkpt>
      <trkpt lat="59.5283680453" lon="17.9020681388">
        <ele>22.4</ele>
        <time>2012-10-02T20:52:34Z</time>
      </trkpt>
      <trkpt lat="59.5282030895" lon="17.9016972397">
        <ele>22</ele>
        <time>2012-10-02T20:52:37Z</time>
      </trkpt>
      <trkpt lat="59.5281372078" lon="17.9015815695">
        <ele>21.6</ele>
        <time>2012-10-02T20:52:38Z</time>
      </trkpt>
      <trkpt lat="59.5280646205" lon="17.9014715151">
        <ele>21.2</ele>
        <time>2012-10-02T20:52:39Z</time>
      </trkpt>
      <trkpt lat="59.5279851601" lon="17.901377135">
        <ele>20.8</ele>
        <time>2012-10-02T20:52:40Z</time>
      </trkpt>
      <trkpt lat="59.5278979045" lon="17.9012877839">
        <ele>20.4</ele>
        <time>2012-10-02T20:52:41Z</time>
      </trkpt>
      <trkpt lat="59.5277082221" lon="17.9011431123">
        <ele>19.8</ele>
        <time>2012-10-02T20:52:43Z</time>
      </trkpt>
      <trkpt lat="59.527603616" lon="17.9011033821">
        <ele>19</ele>
        <time>2012-10-02T20:52:44Z</time>
      </trkpt>
      <trkpt lat="59.5275010216" lon="17.9010653283">
        <ele>18.4</ele>
        <time>2012-10-02T20:52:45Z</time>
      </trkpt>
      <trkpt lat="59.5273928112" lon="17.901044625">
        <ele>17.8</ele>
        <time>2012-10-02T20:52:46Z</time>
      </trkpt>
      <trkpt lat="59.5272840142" lon="17.9010382547">
        <ele>17.2</ele>
        <time>2012-10-02T20:52:47Z</time>
      </trkpt>
      <trkpt lat="59.5271740436" lon="17.9010365784">
        <ele>16.6</ele>
        <time>2012-10-02T20:52:48Z</time>
      </trkpt>
      <trkpt lat="59.5270567809" lon="17.9010276935">
        <ele>16</ele>
        <time>2012-10-02T20:52:49Z</time>
      </trkpt>
      <trkpt lat="59.526946056" lon="17.9010196469">
        <ele>15.4</ele>
        <time>2012-10-02T20:52:50Z</time>
      </trkpt>
      <trkpt lat="59.526832565" lon="17.9010177191">
        <ele>14.6</ele>
        <time>2012-10-02T20:52:51Z</time>
      </trkpt>
      <trkpt lat="59.5267175654" lon="17.9010157074">
        <ele>14</ele>
        <time>2012-10-02T20:52:52Z</time>
      </trkpt>
      <trkpt lat="59.526607511" lon="17.9010064873">
        <ele>13.2</ele>
        <time>2012-10-02T20:52:53Z</time>
      </trkpt>
      <trkpt lat="59.526497289" lon="17.9009996142">
        <ele>12.6</ele>
        <time>2012-10-02T20:52:54Z</time>
      </trkpt>
      <trkpt lat="59.5263898331" lon="17.9009895559">
        <ele>11.8</ele>
        <time>2012-10-02T20:52:55Z</time>
      </trkpt>
      <trkpt lat="59.5262836344" lon="17.9009858679">
        <ele>11</ele>
        <time>2012-10-02T20:52:56Z</time>
      </trkpt>
      <trkpt lat="59.5261853147" lon="17.9009795814">
        <ele>10.4</ele>
        <time>2012-10-02T20:52:57Z</time>
      </trkpt>
      <trkpt lat="59.5260905154" lon="17.9009689364">
        <ele>9.6</ele>
        <time>2012-10-02T20:52:58Z</time>
      </trkpt>
      <trkpt lat="59.5260005776" lon="17.9009576209">
        <ele>9</ele>
        <time>2012-10-02T20:52:59Z</time>
      </trkpt>
      <trkpt lat="59.5259142441" lon="17.9009474788">
        <ele>8.2</ele>
        <time>2012-10-02T20:53:00Z</time>
      </trkpt>
      <trkpt lat="59.5255808959" lon="17.900838095">
        <ele>8.2</ele>
        <time>2012-10-02T20:53:04Z</time>
      </trkpt>
      <trkpt lat="59.5250913929" lon="17.9006137953">
        <ele>8.2</ele>
        <time>2012-10-02T20:53:11Z</time>
      </trkpt>
      <trkpt lat="59.5248499104" lon="17.9004759131">
        <ele>8.2</ele>
        <time>2012-10-02T20:53:15Z</time>
      </trkpt>
      <trkpt lat="59.5247244334" lon="17.9004201734">
        <ele>8.2</ele>
        <time>2012-10-02T20:53:17Z</time>
      </trkpt>
      <trkpt lat="59.5245662669" lon="17.9002590733">
        <ele>8.2</ele>
        <time>2012-10-02T20:53:20Z</time>
      </trkpt>
      <trkpt lat="59.5244632534" lon="17.9001620947">
        <ele>8.2</ele>
        <time>2012-10-02T20:53:22Z</time>
      </trkpt>
      <trkpt lat="59.5242837969" lon="17.9000891722">
        <ele>8.2</ele>
        <time>2012-10-02T20:53:25Z</time>
      </trkpt>
      <trkpt lat="59.5239684698" lon="17.9000351089">
        <ele>8.2</ele>
        <time>2012-10-02T20:53:30Z</time>
      </trkpt>
      <trkpt lat="59.5234459422" lon="17.8997894355">
        <ele>8.2</ele>
        <time>2012-10-02T20:53:38Z</time>
      </trkpt>
      <trkpt lat="59.5231259212" lon="17.8995859229">
        <ele>8.2</ele>
        <time>2012-10-02T20:53:44Z</time>
      </trkpt>
      <trkpt lat="59.522954679" lon="17.8994691631">
        <ele>8.6</ele>
        <time>2012-10-02T20:53:47Z</time>
      </trkpt>
      <trkpt lat="59.5229158708" lon="17.8993868528">
        <ele>9.2</ele>
        <time>2012-10-02T20:53:48Z</time>
      </trkpt>
      <trkpt lat="59.5228856121" lon="17.8992927241">
        <ele>9.6</ele>
        <time>2012-10-02T20:53:49Z</time>
      </trkpt>
      <trkpt lat="59.5228575328" lon="17.8992016128">
        <ele>10</ele>
        <time>2012-10-02T20:53:50Z</time>
      </trkpt>
      <trkpt lat="59.5228270227" lon="17.8991063944">
        <ele>10.4</ele>
        <time>2012-10-02T20:53:51Z</time>
      </trkpt>
      <trkpt lat="59.5227583749" lon="17.8989411872">
        <ele>10.4</ele>
        <time>2012-10-02T20:53:53Z</time>
      </trkpt>
      <trkpt lat="59.5226983605" lon="17.8989144489">
        <ele>10.4</ele>
        <time>2012-10-02T20:53:54Z</time>
      </trkpt>
      <trkpt lat="59.5223975341" lon="17.8987258562">
        <ele>10.4</ele>
        <time>2012-10-02T20:53:59Z</time>
      </trkpt>
      <trkpt lat="59.5222120427" lon="17.8985613195">
        <ele>10.4</ele>
        <time>2012-10-02T20:54:02Z</time>
      </trkpt>
      <trkpt lat="59.5220897507" lon="17.8984319029">
        <ele>10.4</ele>
        <time>2012-10-02T20:54:04Z</time>
      </trkpt>
      <trkpt lat="59.5219610886" lon="17.8983380256">
        <ele>10.4</ele>
        <time>2012-10-02T20:54:06Z</time>
      </trkpt>
      <trkpt lat="59.5217588333" lon="17.8982331681">
        <ele>10.4</ele>
        <time>2012-10-02T20:54:09Z</time>
      </trkpt>
      <trkpt lat="59.5213656384" lon="17.8979661207">
        <ele>10.4</ele>
        <time>2012-10-02T20:54:15Z</time>
      </trkpt>
      <trkpt lat="59.5212385688" lon="17.8978860736">
        <ele>10.4</ele>
        <time>2012-10-02T20:54:17Z</time>
      </trkpt>
      <trkpt lat="59.5211274248" lon="17.8977467664">
        <ele>10.4</ele>
        <time>2012-10-02T20:54:19Z</time>
      </trkpt>
      <trkpt lat="59.5209945717" lon="17.8975082175">
        <ele>10.4</ele>
        <time>2012-10-02T20:54:22Z</time>
      </trkpt>
      <trkpt lat="59.5209095792" lon="17.897338987">
        <ele>10.4</ele>
        <time>2012-10-02T20:54:24Z</time>
      </trkpt>
      <trkpt lat="59.5206649116" lon="17.8968294513">
        <ele>10.4</ele>
        <time>2012-10-02T20:54:30Z</time>
      </trkpt>
      <trkpt lat="59.5205882172" lon="17.8966655013">
        <ele>10.8</ele>
        <time>2012-10-02T20:54:32Z</time>
      </trkpt>
      <trkpt lat="59.5205458048" lon="17.8965871306">
        <ele>11.4</ele>
        <time>2012-10-02T20:54:33Z</time>
      </trkpt>
      <trkpt lat="59.5205031409" lon="17.8965079216">
        <ele>11.8</ele>
        <time>2012-10-02T20:54:34Z</time>
      </trkpt>
      <trkpt lat="59.520462824" lon="17.8964266172">
        <ele>12.2</ele>
        <time>2012-10-02T20:54:35Z</time>
      </trkpt>
      <trkpt lat="59.5204212497" lon="17.896343804">
        <ele>12.8</ele>
        <time>2012-10-02T20:54:36Z</time>
      </trkpt>
      <trkpt lat="59.5203785859" lon="17.8962614099">
        <ele>13.2</ele>
        <time>2012-10-02T20:54:37Z</time>
      </trkpt>
      <trkpt lat="59.520335922" lon="17.8961796026">
        <ele>13.6</ele>
        <time>2012-10-02T20:54:38Z</time>
      </trkpt>
      <trkpt lat="59.5202898215" lon="17.896091425">
        <ele>14.2</ele>
        <time>2012-10-02T20:54:39Z</time>
      </trkpt>
      <trkpt lat="59.5202463195" lon="17.8960109588">
        <ele>14.6</ele>
        <time>2012-10-02T20:54:40Z</time>
      </trkpt>
      <trkpt lat="59.5202021469" lon="17.8959252119">
        <ele>15</ele>
        <time>2012-10-02T20:54:41Z</time>
      </trkpt>
      <trkpt lat="59.5201577228" lon="17.8958366152">
        <ele>15.4</ele>
        <time>2012-10-02T20:54:42Z</time>
      </trkpt>
      <trkpt lat="59.5201118738" lon="17.8957481862">
        <ele>16</ele>
        <time>2012-10-02T20:54:43Z</time>
      </trkpt>
      <trkpt lat="59.5200664439" lon="17.895658919">
        <ele>16.4</ele>
        <time>2012-10-02T20:54:44Z</time>
      </trkpt>
      <trkpt lat="59.5200210978" lon="17.8955680592">
        <ele>16.8</ele>
        <time>2012-10-02T20:54:45Z</time>
      </trkpt>
      <trkpt lat="59.5199785178" lon="17.8954807198">
        <ele>17.8</ele>
        <time>2012-10-02T20:54:46Z</time>
      </trkpt>
      <trkpt lat="59.5199383685" lon="17.8953963978">
        <ele>18.2</ele>
        <time>2012-10-02T20:54:47Z</time>
      </trkpt>
      <trkpt lat="59.5199022425" lon="17.8953146743">
        <ele>18.6</ele>
        <time>2012-10-02T20:54:48Z</time>
      </trkpt>
      <trkpt lat="59.5198673738" lon="17.8952352139">
        <ele>19</ele>
        <time>2012-10-02T20:54:49Z</time>
      </trkpt>
      <trkpt lat="59.5198334271" lon="17.8951694998">
        <ele>19.4</ele>
        <time>2012-10-02T20:54:50Z</time>
      </trkpt>
      <trkpt lat="59.5197164996" lon="17.8949629698">
        <ele>19.4</ele>
        <time>2012-10-02T20:54:53Z</time>
      </trkpt>
      <trkpt lat="59.5193976521" lon="17.8943530189">
        <ele>19.4</ele>
        <time>2012-10-02T20:55:01Z</time>
      </trkpt>
      <trkpt lat="59.5192525614" lon="17.8940739855">
        <ele>19.4</ele>
        <time>2012-10-02T20:55:05Z</time>
      </trkpt>
      <trkpt lat="59.5191964865" lon="17.8940272145">
        <ele>19.4</ele>
        <time>2012-10-02T20:55:06Z</time>
      </trkpt>
      <trkpt lat="59.5189784733" lon="17.8940158151">
        <ele>19.4</ele>
        <time>2012-10-02T20:55:09Z</time>
      </trkpt>
      <trkpt lat="59.5184890541" lon="17.8940619155">
        <ele>19.4</ele>
        <time>2012-10-02T20:55:15Z</time>
      </trkpt>
      <trkpt lat="59.5179805243" lon="17.8940317407">
        <ele>19.4</ele>
        <time>2012-10-02T20:55:21Z</time>
      </trkpt>
      <trkpt lat="59.5178998904" lon="17.8939971235">
        <ele>19.4</ele>
        <time>2012-10-02T20:55:22Z</time>
      </trkpt>
      <trkpt lat="59.5178211843" lon="17.8939421382">
        <ele>19</ele>
        <time>2012-10-02T20:55:23Z</time>
      </trkpt>
      <trkpt lat="59.5177498544" lon="17.893864438">
        <ele>18.6</ele>
        <time>2012-10-02T20:55:24Z</time>
      </trkpt>
      <trkpt lat="59.5176876607" lon="17.893760251">
        <ele>18.2</ele>
        <time>2012-10-02T20:55:25Z</time>
      </trkpt>
      <trkpt lat="59.5176410573" lon="17.8936374561">
        <ele>17.8</ele>
        <time>2012-10-02T20:55:26Z</time>
      </trkpt>
      <trkpt lat="59.5176015786" lon="17.8935035134">
        <ele>17.4</ele>
        <time>2012-10-02T20:55:27Z</time>
      </trkpt>
      <trkpt lat="59.5175704817" lon="17.8933788745">
        <ele>17.4</ele>
        <time>2012-10-02T20:55:28Z</time>
      </trkpt>
      <trkpt lat="59.5175187654" lon="17.8931269984">
        <ele>17.4</ele>
        <time>2012-10-02T20:55:30Z</time>
      </trkpt>
      <trkpt lat="59.517478197" lon="17.8928736136">
        <ele>17.4</ele>
        <time>2012-10-02T20:55:32Z</time>
      </trkpt>
      <trkpt lat="59.5174161709" lon="17.8923634073">
        <ele>17.4</ele>
        <time>2012-10-02T20:55:36Z</time>
      </trkpt>
      <trkpt lat="59.5173718307" lon="17.8916220283">
        <ele>17.4</ele>
        <time>2012-10-02T20:55:42Z</time>
      </trkpt>
      <trkpt lat="59.5173672206" lon="17.8915066933">
        <ele>17.4</ele>
        <time>2012-10-02T20:55:43Z</time>
      </trkpt>
      <trkpt lat="59.5173417397" lon="17.8910109039">
        <ele>17.4</ele>
        <time>2012-10-02T20:55:47Z</time>
      </trkpt>
      <trkpt lat="59.5172444258" lon="17.8901593867">
        <ele>17.4</ele>
        <time>2012-10-02T20:55:53Z</time>
      </trkpt>
      <trkpt lat="59.5171848305" lon="17.8897429739">
        <ele>17</ele>
        <time>2012-10-02T20:55:57Z</time>
      </trkpt>
      <trkpt lat="59.5171722576" lon="17.8896657766">
        <ele>16.4</ele>
        <time>2012-10-02T20:55:58Z</time>
      </trkpt>
      <trkpt lat="59.5171569188" lon="17.8895729052">
        <ele>15.4</ele>
        <time>2012-10-02T20:55:59Z</time>
      </trkpt>
      <trkpt lat="59.5171413284" lon="17.8894650301">
        <ele>14.8</ele>
        <time>2012-10-02T20:56:00Z</time>
      </trkpt>
      <trkpt lat="59.517124397" lon="17.8893465101">
        <ele>14.8</ele>
        <time>2012-10-02T20:56:01Z</time>
      </trkpt>
      <trkpt lat="59.5170537376" lon="17.8889786285">
        <ele>14.4</ele>
        <time>2012-10-02T20:56:04Z</time>
      </trkpt>
      <trkpt lat="59.5170224731" lon="17.888850553">
        <ele>14</ele>
        <time>2012-10-02T20:56:05Z</time>
      </trkpt>
      <trkpt lat="59.516987772" lon="17.8887257465">
        <ele>13.6</ele>
        <time>2012-10-02T20:56:06Z</time>
      </trkpt>
      <trkpt lat="59.516949802" lon="17.8886034546">
        <ele>13</ele>
        <time>2012-10-02T20:56:07Z</time>
      </trkpt>
      <trkpt lat="59.5169093174" lon="17.8884822524">
        <ele>12.6</ele>
        <time>2012-10-02T20:56:08Z</time>
      </trkpt>
      <trkpt lat="59.5167486364" lon="17.8880012989">
        <ele>12.6</ele>
        <time>2012-10-02T20:56:12Z</time>
      </trkpt>
      <trkpt lat="59.5165850217" lon="17.8875435634">
        <ele>12.6</ele>
        <time>2012-10-02T20:56:16Z</time>
      </trkpt>
      <trkpt lat="59.5164821758" lon="17.8874039209">
        <ele>12.6</ele>
        <time>2012-10-02T20:56:18Z</time>
      </trkpt>
      <trkpt lat="59.5163583752" lon="17.8873185094">
        <ele>12.6</ele>
        <time>2012-10-02T20:56:20Z</time>
      </trkpt>
      <trkpt lat="59.5161777452" lon="17.8871843151">
        <ele>12.6</ele>
        <time>2012-10-02T20:56:23Z</time>
      </trkpt>
      <trkpt lat="59.515916649" lon="17.8868129131">
        <ele>12.6</ele>
        <time>2012-10-02T20:56:28Z</time>
      </trkpt>
      <trkpt lat="59.5158665253" lon="17.8867696625">
        <ele>12.6</ele>
        <time>2012-10-02T20:56:29Z</time>
      </trkpt>
      <trkpt lat="59.5156864821" lon="17.8865441894">
        <ele>12.2</ele>
        <time>2012-10-02T20:56:33Z</time>
      </trkpt>
      <trkpt lat="59.515643902" lon="17.8864502283">
        <ele>11.8</ele>
        <time>2012-10-02T20:56:34Z</time>
      </trkpt>
      <trkpt lat="59.5156062673" lon="17.8863486397">
        <ele>11.4</ele>
        <time>2012-10-02T20:56:35Z</time>
      </trkpt>
      <trkpt lat="59.5155699736" lon="17.8862370766">
        <ele>11</ele>
        <time>2012-10-02T20:56:36Z</time>
      </trkpt>
      <trkpt lat="59.5155346858" lon="17.8861292854">
        <ele>10.6</ele>
        <time>2012-10-02T20:56:37Z</time>
      </trkpt>
      <trkpt lat="59.5155036728" lon="17.8860188119">
        <ele>10.6</ele>
        <time>2012-10-02T20:56:38Z</time>
      </trkpt>
      <trkpt lat="59.5153624378" lon="17.8852823782">
        <ele>10.6</ele>
        <time>2012-10-02T20:56:44Z</time>
      </trkpt>
      <trkpt lat="59.5152350329" lon="17.8846983274">
        <ele>10.6</ele>
        <time>2012-10-02T20:56:49Z</time>
      </trkpt>
      <trkpt lat="59.5151773654" lon="17.8844653106">
        <ele>10.6</ele>
        <time>2012-10-02T20:56:51Z</time>
      </trkpt>
      <trkpt lat="59.5149480367" lon="17.8836541941">
        <ele>10.6</ele>
        <time>2012-10-02T20:56:58Z</time>
      </trkpt>
      <trkpt lat="59.5146742" lon="17.8828673852">
        <ele>10.6</ele>
        <time>2012-10-02T20:57:05Z</time>
      </trkpt>
      <trkpt lat="59.5143595435" lon="17.8821088232">
        <ele>10.6</ele>
        <time>2012-10-02T20:57:12Z</time>
      </trkpt>
      <trkpt lat="59.5140391872" lon="17.881357805">
        <ele>10.6</ele>
        <time>2012-10-02T20:57:19Z</time>
      </trkpt>
      <trkpt lat="59.513720256" lon="17.880580719">
        <ele>10.6</ele>
        <time>2012-10-02T20:57:26Z</time>
      </trkpt>
      <trkpt lat="59.513364109" lon="17.8797512462">
        <ele>10.6</ele>
        <time>2012-10-02T20:57:34Z</time>
      </trkpt>
      <trkpt lat="59.5133192659" lon="17.8796479812">
        <ele>10.6</ele>
        <time>2012-10-02T20:57:35Z</time>
      </trkpt>
      <trkpt lat="59.5129595985" lon="17.8788648603">
        <ele>10.6</ele>
        <time>2012-10-02T20:57:43Z</time>
      </trkpt>
      <trkpt lat="59.5125863525" lon="17.8780778837">
        <ele>10.6</ele>
        <time>2012-10-02T20:57:51Z</time>
      </trkpt>
      <trkpt lat="59.5125389948" lon="17.8779741158">
        <ele>10.6</ele>
        <time>2012-10-02T20:57:52Z</time>
      </trkpt>
      <trkpt lat="59.5121441235" lon="17.8770905797">
        <ele>10.6</ele>
        <time>2012-10-02T20:58:01Z</time>
      </trkpt>
      <trkpt lat="59.5118432971" lon="17.8764076225">
        <ele>11</ele>
        <time>2012-10-02T20:58:08Z</time>
      </trkpt>
      <trkpt lat="59.5117996274" lon="17.8763074588">
        <ele>11.4</ele>
        <time>2012-10-02T20:58:09Z</time>
      </trkpt>
      <trkpt lat="59.5117556224" lon="17.8762064569">
        <ele>11.8</ele>
        <time>2012-10-02T20:58:10Z</time>
      </trkpt>
      <trkpt lat="59.5117110307" lon="17.8761074667">
        <ele>12.2</ele>
        <time>2012-10-02T20:58:11Z</time>
      </trkpt>
      <trkpt lat="59.5116672772" lon="17.8760096499">
        <ele>12.8</ele>
        <time>2012-10-02T20:58:12Z</time>
      </trkpt>
      <trkpt lat="59.5114072706" lon="17.8754223301">
        <ele>12.8</ele>
        <time>2012-10-02T20:58:18Z</time>
      </trkpt>
      <trkpt lat="59.5110612658" lon="17.8746387901">
        <ele>12.8</ele>
        <time>2012-10-02T20:58:26Z</time>
      </trkpt>
      <trkpt lat="59.5108757744" lon="17.8742560726">
        <ele>12.8</ele>
        <time>2012-10-02T20:58:30Z</time>
      </trkpt>
      <trkpt lat="59.5107822324" lon="17.8740529791">
        <ele>12.8</ele>
        <time>2012-10-02T20:58:32Z</time>
      </trkpt>
      <trkpt lat="59.5104833338" lon="17.8733723689">
        <ele>12.8</ele>
        <time>2012-10-02T20:58:39Z</time>
      </trkpt>
      <trkpt lat="59.5104446094" lon="17.8732718699">
        <ele>12.8</ele>
        <time>2012-10-02T20:58:40Z</time>
      </trkpt>
      <trkpt lat="59.510158619" lon="17.8725765913">
        <ele>12.8</ele>
        <time>2012-10-02T20:58:47Z</time>
      </trkpt>
      <trkpt lat="59.5098838603" lon="17.8719096435">
        <ele>12.8</ele>
        <time>2012-10-02T20:58:54Z</time>
      </trkpt>
      <trkpt lat="59.5096332415" lon="17.8712395944">
        <ele>12.8</ele>
        <time>2012-10-02T20:59:01Z</time>
      </trkpt>
      <trkpt lat="59.5093707204" lon="17.8705024063">
        <ele>12.8</ele>
        <time>2012-10-02T20:59:09Z</time>
      </trkpt>
      <trkpt lat="59.5092158229" lon="17.8700414018">
        <ele>13.2</ele>
        <time>2012-10-02T20:59:14Z</time>
      </trkpt>
      <trkpt lat="59.5091846422" lon="17.869943585">
        <ele>13.6</ele>
        <time>2012-10-02T20:59:15Z</time>
      </trkpt>
      <trkpt lat="59.5091547188" lon="17.8698502945">
        <ele>14</ele>
        <time>2012-10-02T20:59:16Z</time>
      </trkpt>
      <trkpt lat="59.5091228676" lon="17.8697523101">
        <ele>14.8</ele>
        <time>2012-10-02T20:59:17Z</time>
      </trkpt>
      <trkpt lat="59.5088005836" lon="17.8687572947">
        <ele>14.8</ele>
        <time>2012-10-02T20:59:27Z</time>
      </trkpt>
      <trkpt lat="59.5085912037" lon="17.8680187655">
        <ele>14.8</ele>
        <time>2012-10-02T20:59:34Z</time>
      </trkpt>
      <trkpt lat="59.5083974142" lon="17.8672998499">
        <ele>14.8</ele>
        <time>2012-10-02T20:59:41Z</time>
      </trkpt>
      <trkpt lat="59.5081817479" lon="17.8664854645">
        <ele>14.8</ele>
        <time>2012-10-02T20:59:48Z</time>
      </trkpt>
      <trkpt lat="59.5079658301" lon="17.8656019285">
        <ele>14.8</ele>
        <time>2012-10-02T20:59:55Z</time>
      </trkpt>
      <trkpt lat="59.5079342304" lon="17.8654694106">
        <ele>14.4</ele>
        <time>2012-10-02T20:59:56Z</time>
      </trkpt>
      <trkpt lat="59.5079041394" lon="17.8653357193">
        <ele>14</ele>
        <time>2012-10-02T20:59:57Z</time>
      </trkpt>
      <trkpt lat="59.5078729587" lon="17.8652043749">
        <ele>13.4</ele>
        <time>2012-10-02T20:59:58Z</time>
      </trkpt>
      <trkpt lat="59.5078412751" lon="17.8650733659">
        <ele>13</ele>
        <time>2012-10-02T20:59:59Z</time>
      </trkpt>
      <trkpt lat="59.5078075799" lon="17.8649339749">
        <ele>12.6</ele>
        <time>2012-10-02T21:00:00Z</time>
      </trkpt>
      <trkpt lat="59.5076780795" lon="17.8644062504">
        <ele>12.2</ele>
        <time>2012-10-02T21:00:04Z</time>
      </trkpt>
      <trkpt lat="59.5076456416" lon="17.8642749061">
        <ele>11.8</ele>
        <time>2012-10-02T21:00:05Z</time>
      </trkpt>
      <trkpt lat="59.5076131198" lon="17.864139706">
        <ele>11.4</ele>
        <time>2012-10-02T21:00:06Z</time>
      </trkpt>
      <trkpt lat="59.5075840346" lon="17.8640101218">
        <ele>10.6</ele>
        <time>2012-10-02T21:00:07Z</time>
      </trkpt>
      <trkpt lat="59.5074451465" lon="17.8633833234">
        <ele>10.6</ele>
        <time>2012-10-02T21:00:12Z</time>
      </trkpt>
      <trkpt lat="59.507230067" lon="17.8624782458">
        <ele>10.6</ele>
        <time>2012-10-02T21:00:20Z</time>
      </trkpt>
      <trkpt lat="59.5071574797" lon="17.8621918363">
        <ele>11</ele>
        <time>2012-10-02T21:00:23Z</time>
      </trkpt>
      <trkpt lat="59.5071343457" lon="17.8620949415">
        <ele>11.6</ele>
        <time>2012-10-02T21:00:24Z</time>
      </trkpt>
      <trkpt lat="59.5071124689" lon="17.8619979629">
        <ele>12</ele>
        <time>2012-10-02T21:00:25Z</time>
      </trkpt>
      <trkpt lat="59.5070916818" lon="17.86190023">
        <ele>12.4</ele>
        <time>2012-10-02T21:00:26Z</time>
      </trkpt>
      <trkpt lat="59.5070709785" lon="17.8618030837">
        <ele>12.8</ele>
        <time>2012-10-02T21:00:27Z</time>
      </trkpt>
      <trkpt lat="59.5070312483" lon="17.8616139881">
        <ele>13.2</ele>
        <time>2012-10-02T21:00:29Z</time>
      </trkpt>
      <trkpt lat="59.5070087848" lon="17.8615178477">
        <ele>13.6</ele>
        <time>2012-10-02T21:00:30Z</time>
      </trkpt>
      <trkpt lat="59.5069876624" lon="17.8614256468">
        <ele>14</ele>
        <time>2012-10-02T21:00:31Z</time>
      </trkpt>
      <trkpt lat="59.506968384" lon="17.8613351223">
        <ele>14.8</ele>
        <time>2012-10-02T21:00:32Z</time>
      </trkpt>
      <trkpt lat="59.5068967188" lon="17.8610602798">
        <ele>15.4</ele>
        <time>2012-10-02T21:00:35Z</time>
      </trkpt>
      <trkpt lat="59.5068691423" lon="17.8609707611">
        <ele>15.8</ele>
        <time>2012-10-02T21:00:36Z</time>
      </trkpt>
      <trkpt lat="59.5068394704" lon="17.8608778058">
        <ele>16.4</ele>
        <time>2012-10-02T21:00:37Z</time>
      </trkpt>
      <trkpt lat="59.5068108043" lon="17.8607897959">
        <ele>16.8</ele>
        <time>2012-10-02T21:00:38Z</time>
      </trkpt>
      <trkpt lat="59.506781803" lon="17.8607027079">
        <ele>17.2</ele>
        <time>2012-10-02T21:00:39Z</time>
      </trkpt>
      <trkpt lat="59.5067195254" lon="17.8605355728">
        <ele>17.8</ele>
        <time>2012-10-02T21:00:41Z</time>
      </trkpt>
      <trkpt lat="59.5066899373" lon="17.8604550228">
        <ele>18.2</ele>
        <time>2012-10-02T21:00:42Z</time>
      </trkpt>
      <trkpt lat="59.5066588405" lon="17.8603717905">
        <ele>18.6</ele>
        <time>2012-10-02T21:00:43Z</time>
      </trkpt>
      <trkpt lat="59.506627576" lon="17.8602933359">
        <ele>19</ele>
        <time>2012-10-02T21:00:44Z</time>
      </trkpt>
      <trkpt lat="59.5065962277" lon="17.8602145461">
        <ele>19.6</ele>
        <time>2012-10-02T21:00:45Z</time>
      </trkpt>
      <trkpt lat="59.5064368878" lon="17.8598519451">
        <ele>20</ele>
        <time>2012-10-02T21:00:50Z</time>
      </trkpt>
      <trkpt lat="59.5064049527" lon="17.8597822077">
        <ele>20.4</ele>
        <time>2012-10-02T21:00:51Z</time>
      </trkpt>
      <trkpt lat="59.5063730177" lon="17.8597189243">
        <ele>20.8</ele>
        <time>2012-10-02T21:00:52Z</time>
      </trkpt>
      <trkpt lat="59.5063398254" lon="17.8596590775">
        <ele>21.4</ele>
        <time>2012-10-02T21:00:53Z</time>
      </trkpt>
      <trkpt lat="59.5063078903" lon="17.8596061039">
        <ele>21.8</ele>
        <time>2012-10-02T21:00:54Z</time>
      </trkpt>
      <trkpt lat="59.5061178727" lon="17.8592859154">
        <ele>21.8</ele>
        <time>2012-10-02T21:01:00Z</time>
      </trkpt>
      <trkpt lat="59.50608577" lon="17.8592379709">
        <ele>22.2</ele>
        <time>2012-10-02T21:01:01Z</time>
      </trkpt>
      <trkpt lat="59.5060540864" lon="17.8591870928">
        <ele>22.6</ele>
        <time>2012-10-02T21:01:02Z</time>
      </trkpt>
      <trkpt lat="59.5060215646" lon="17.8591452671">
        <ele>23</ele>
        <time>2012-10-02T21:01:03Z</time>
      </trkpt>
      <trkpt lat="59.5059856063" lon="17.8591066265">
        <ele>23.4</ele>
        <time>2012-10-02T21:01:04Z</time>
      </trkpt>
      <trkpt lat="59.505947301" lon="17.8590616157">
        <ele>23.8</ele>
        <time>2012-10-02T21:01:05Z</time>
      </trkpt>
      <trkpt lat="59.5058628114" lon="17.8589564229">
        <ele>23.8</ele>
        <time>2012-10-02T21:01:07Z</time>
      </trkpt>
      <trkpt lat="59.5057727898" lon="17.8588515653">
        <ele>24.4</ele>
        <time>2012-10-02T21:01:09Z</time>
      </trkpt>
      <trkpt lat="59.5057294554" lon="17.8588032017">
        <ele>24.8</ele>
        <time>2012-10-02T21:01:10Z</time>
      </trkpt>
      <trkpt lat="59.5056868754" lon="17.8587580233">
        <ele>25.2</ele>
        <time>2012-10-02T21:01:11Z</time>
      </trkpt>
      <trkpt lat="59.5056436248" lon="17.8587124258">
        <ele>25.8</ele>
        <time>2012-10-02T21:01:12Z</time>
      </trkpt>
      <trkpt lat="59.5056002065" lon="17.8586700133">
        <ele>26.2</ele>
        <time>2012-10-02T21:01:13Z</time>
      </trkpt>
      <trkpt lat="59.5055101011" lon="17.8585896309">
        <ele>26.2</ele>
        <time>2012-10-02T21:01:15Z</time>
      </trkpt>
      <trkpt lat="59.505289238" lon="17.8583763116">
        <ele>26.6</ele>
        <time>2012-10-02T21:01:20Z</time>
      </trkpt>
      <trkpt lat="59.505249424" lon="17.8583359108">
        <ele>27.4</ele>
        <time>2012-10-02T21:01:21Z</time>
      </trkpt>
      <trkpt lat="59.5052103643" lon="17.8582915706">
        <ele>27.8</ele>
        <time>2012-10-02T21:01:22Z</time>
      </trkpt>
      <trkpt lat="59.5051669461" lon="17.8582396028">
        <ele>28.2</ele>
        <time>2012-10-02T21:01:23Z</time>
      </trkpt>
      <trkpt lat="59.5049461669" lon="17.8580255291">
        <ele>28.2</ele>
        <time>2012-10-02T21:01:28Z</time>
      </trkpt>
      <trkpt lat="59.5048110506" lon="17.8578814442">
        <ele>28.6</ele>
        <time>2012-10-02T21:01:31Z</time>
      </trkpt>
      <trkpt lat="59.5047680515" lon="17.8578309013">
        <ele>29</ele>
        <time>2012-10-02T21:01:32Z</time>
      </trkpt>
      <trkpt lat="59.5047234598" lon="17.8577858067">
        <ele>29.4</ele>
        <time>2012-10-02T21:01:33Z</time>
      </trkpt>
      <trkpt lat="59.5046785328" lon="17.8577434781">
        <ele>29.8</ele>
        <time>2012-10-02T21:01:34Z</time>
      </trkpt>
      <trkpt lat="59.5046349469" lon="17.8577019877">
        <ele>30.4</ele>
        <time>2012-10-02T21:01:35Z</time>
      </trkpt>
      <trkpt lat="59.5044590108" lon="17.8575304102">
        <ele>30.8</ele>
        <time>2012-10-02T21:01:39Z</time>
      </trkpt>
      <trkpt lat="59.504416347" lon="17.857483723">
        <ele>31.2</ele>
        <time>2012-10-02T21:01:40Z</time>
      </trkpt>
      <trkpt lat="59.5043735154" lon="17.8574263908">
        <ele>31.8</ele>
        <time>2012-10-02T21:01:41Z</time>
      </trkpt>
      <trkpt lat="59.5043310192" lon="17.8573775244">
        <ele>32.2</ele>
        <time>2012-10-02T21:01:42Z</time>
      </trkpt>
      <trkpt lat="59.5042882715" lon="17.8573361178">
        <ele>32.6</ele>
        <time>2012-10-02T21:01:43Z</time>
      </trkpt>
      <trkpt lat="59.5041632974" lon="17.8572212019">
        <ele>33.6</ele>
        <time>2012-10-02T21:01:46Z</time>
      </trkpt>
      <trkpt lat="59.5041242377" lon="17.8571896022">
        <ele>34</ele>
        <time>2012-10-02T21:01:47Z</time>
      </trkpt>
      <trkpt lat="59.5040846752" lon="17.8571577509">
        <ele>34.6</ele>
        <time>2012-10-02T21:01:48Z</time>
      </trkpt>
      <trkpt lat="59.504044945" lon="17.857121122">
        <ele>35</ele>
        <time>2012-10-02T21:01:49Z</time>
      </trkpt>
      <trkpt lat="59.5038728646" lon="17.8569422523">
        <ele>35</ele>
        <time>2012-10-02T21:01:53Z</time>
      </trkpt>
      <trkpt lat="59.5038289434" lon="17.8568971577">
        <ele>35.4</ele>
        <time>2012-10-02T21:01:54Z</time>
      </trkpt>
      <trkpt lat="59.5037851899" lon="17.8568528174">
        <ele>35.8</ele>
        <time>2012-10-02T21:01:55Z</time>
      </trkpt>
      <trkpt lat="59.5037411011" lon="17.856806717">
        <ele>36.2</ele>
        <time>2012-10-02T21:01:56Z</time>
      </trkpt>
      <trkpt lat="59.5036946654" lon="17.8567617062">
        <ele>36.6</ele>
        <time>2012-10-02T21:01:57Z</time>
      </trkpt>
      <trkpt lat="59.5036472238" lon="17.8567146837">
        <ele>37</ele>
        <time>2012-10-02T21:01:58Z</time>
      </trkpt>
      <trkpt lat="59.5035441264" lon="17.8566191301">
        <ele>37</ele>
        <time>2012-10-02T21:02:00Z</time>
      </trkpt>
      <trkpt lat="59.5034876324" lon="17.8565702636">
        <ele>37.6</ele>
        <time>2012-10-02T21:02:01Z</time>
      </trkpt>
      <trkpt lat="59.503435497" lon="17.8565214809">
        <ele>38</ele>
        <time>2012-10-02T21:02:02Z</time>
      </trkpt>
      <trkpt lat="59.5033851218" lon="17.856468172">
        <ele>38.4</ele>
        <time>2012-10-02T21:02:03Z</time>
      </trkpt>
      <trkpt lat="59.5033346628" lon="17.8564167072">
        <ele>38.8</ele>
        <time>2012-10-02T21:02:04Z</time>
      </trkpt>
      <trkpt lat="59.5032840361" lon="17.8563633145">
        <ele>39.4</ele>
        <time>2012-10-02T21:02:05Z</time>
      </trkpt>
      <trkpt lat="59.5031789271" lon="17.8562567805">
        <ele>39.4</ele>
        <time>2012-10-02T21:02:07Z</time>
      </trkpt>
      <trkpt lat="59.5031269593" lon="17.8562043098">
        <ele>39.8</ele>
        <time>2012-10-02T21:02:08Z</time>
      </trkpt>
      <trkpt lat="59.5030721416" lon="17.8561530964">
        <ele>40.2</ele>
        <time>2012-10-02T21:02:09Z</time>
      </trkpt>
      <trkpt lat="59.5030214312" lon="17.8561050681">
        <ele>41</ele>
        <time>2012-10-02T21:02:10Z</time>
      </trkpt>
      <trkpt lat="59.502974744" lon="17.8560572913">
        <ele>41.4</ele>
        <time>2012-10-02T21:02:11Z</time>
      </trkpt>
      <trkpt lat="59.5028357721" lon="17.8559182356">
        <ele>41.4</ele>
        <time>2012-10-02T21:02:14Z</time>
      </trkpt>
      <trkpt lat="59.5025914397" lon="17.8556438122">
        <ele>41.8</ele>
        <time>2012-10-02T21:02:19Z</time>
      </trkpt>
      <trkpt lat="59.5025446687" lon="17.8555861447">
        <ele>42.2</ele>
        <time>2012-10-02T21:02:20Z</time>
      </trkpt>
      <trkpt lat="59.5024939582" lon="17.8555366077">
        <ele>42.8</ele>
        <time>2012-10-02T21:02:21Z</time>
      </trkpt>
      <trkpt lat="59.5024433315" lon="17.8554901719">
        <ele>43.2</ele>
        <time>2012-10-02T21:02:22Z</time>
      </trkpt>
      <trkpt lat="59.5023951356" lon="17.8554450773">
        <ele>43.6</ele>
        <time>2012-10-02T21:02:23Z</time>
      </trkpt>
      <trkpt lat="59.5021438462" lon="17.8551917763">
        <ele>43.6</ele>
        <time>2012-10-02T21:02:28Z</time>
      </trkpt>
      <trkpt lat="59.5018170359" lon="17.8548450171">
        <ele>43.6</ele>
        <time>2012-10-02T21:02:34Z</time>
      </trkpt>
      <trkpt lat="59.5013402735" lon="17.8543277701">
        <ele>43.6</ele>
        <time>2012-10-02T21:02:42Z</time>
      </trkpt>
      <trkpt lat="59.5009700449" lon="17.8539604752">
        <ele>43.6</ele>
        <time>2012-10-02T21:02:48Z</time>
      </trkpt>
      <trkpt lat="59.5004872475" lon="17.8534480058">
        <ele>43.6</ele>
        <time>2012-10-02T21:02:56Z</time>
      </trkpt>
      <trkpt lat="59.5003729184" lon="17.8533200142">
        <ele>43.6</ele>
        <time>2012-10-02T21:02:58Z</time>
      </trkpt>
      <trkpt lat="59.499954913" lon="17.8528750191">
        <ele>43.6</ele>
        <time>2012-10-02T21:03:05Z</time>
      </trkpt>
      <trkpt lat="59.4994667512" lon="17.8523728595">
        <ele>43.6</ele>
        <time>2012-10-02T21:03:13Z</time>
      </trkpt>
      <trkpt lat="59.499201967" lon="17.8520926526">
        <ele>43.2</ele>
        <time>2012-10-02T21:03:17Z</time>
      </trkpt>
      <trkpt lat="59.4991349956" lon="17.8520244239">
        <ele>42.8</ele>
        <time>2012-10-02T21:03:18Z</time>
      </trkpt>
      <trkpt lat="59.4990712093" lon="17.8519575364">
        <ele>42.2</ele>
        <time>2012-10-02T21:03:19Z</time>
      </trkpt>
      <trkpt lat="59.4990074231" lon="17.8518929119">
        <ele>41.8</ele>
        <time>2012-10-02T21:03:20Z</time>
      </trkpt>
      <trkpt lat="59.4989431339" lon="17.8518300477">
        <ele>41.4</ele>
        <time>2012-10-02T21:03:21Z</time>
      </trkpt>
      <trkpt lat="59.4986157369" lon="17.8514942688">
        <ele>41.4</ele>
        <time>2012-10-02T21:03:26Z</time>
      </trkpt>
      <trkpt lat="59.4982156688" lon="17.8510827175">
        <ele>41.8</ele>
        <time>2012-10-02T21:03:32Z</time>
      </trkpt>
      <trkpt lat="59.4981499547" lon="17.8510157461">
        <ele>42.2</ele>
        <time>2012-10-02T21:03:33Z</time>
      </trkpt>
      <trkpt lat="59.498083151" lon="17.8509477689">
        <ele>42.6</ele>
        <time>2012-10-02T21:03:34Z</time>
      </trkpt>
      <trkpt lat="59.4980150899" lon="17.8508833959">
        <ele>43</ele>
        <time>2012-10-02T21:03:35Z</time>
      </trkpt>
      <trkpt lat="59.4979461907" lon="17.8508213698">
        <ele>43.4</ele>
        <time>2012-10-02T21:03:36Z</time>
      </trkpt>
      <trkpt lat="59.4975823324" lon="17.8505279195">
        <ele>43.4</ele>
        <time>2012-10-02T21:03:41Z</time>
      </trkpt>
      <trkpt lat="59.4971385108" lon="17.8503333756">
        <ele>43.4</ele>
        <time>2012-10-02T21:03:47Z</time>
      </trkpt>
      <trkpt lat="59.4967693719" lon="17.8502624647">
        <ele>43.4</ele>
        <time>2012-10-02T21:03:52Z</time>
      </trkpt>
      <trkpt lat="59.4962550586" lon="17.8502847606">
        <ele>43.4</ele>
        <time>2012-10-02T21:03:59Z</time>
      </trkpt>
      <trkpt lat="59.4957452714" lon="17.8502948189">
        <ele>43.4</ele>
        <time>2012-10-02T21:04:06Z</time>
      </trkpt>
      <trkpt lat="59.4951845223" lon="17.8502898735">
        <ele>43.4</ele>
        <time>2012-10-02T21:04:13Z</time>
      </trkpt>
      <trkpt lat="59.4946888167" lon="17.8502981716">
        <ele>43</ele>
        <time>2012-10-02T21:04:19Z</time>
      </trkpt>
      <trkpt lat="59.4946092725" lon="17.8503011053">
        <ele>42.6</ele>
        <time>2012-10-02T21:04:20Z</time>
      </trkpt>
      <trkpt lat="59.4945295606" lon="17.8503033684">
        <ele>42.2</ele>
        <time>2012-10-02T21:04:21Z</time>
      </trkpt>
      <trkpt lat="59.4944504355" lon="17.8503009377">
        <ele>41.8</ele>
        <time>2012-10-02T21:04:22Z</time>
      </trkpt>
      <trkpt lat="59.4943719809" lon="17.8502988422">
        <ele>41.4</ele>
        <time>2012-10-02T21:04:23Z</time>
      </trkpt>
      <trkpt lat="59.4938376348" lon="17.8503076432">
        <ele>41.4</ele>
        <time>2012-10-02T21:04:30Z</time>
      </trkpt>
      <trkpt lat="59.4932327131" lon="17.850448962">
        <ele>41.4</ele>
        <time>2012-10-02T21:04:38Z</time>
      </trkpt>
      <trkpt lat="59.4928227543" lon="17.8506280832">
        <ele>41</ele>
        <time>2012-10-02T21:04:44Z</time>
      </trkpt>
      <trkpt lat="59.4927494965" lon="17.8506682325">
        <ele>40.6</ele>
        <time>2012-10-02T21:04:45Z</time>
      </trkpt>
      <trkpt lat="59.4926781666" lon="17.8507103935">
        <ele>40.2</ele>
        <time>2012-10-02T21:04:46Z</time>
      </trkpt>
      <trkpt lat="59.4926059984" lon="17.8507538117">
        <ele>39.8</ele>
        <time>2012-10-02T21:04:47Z</time>
      </trkpt>
      <trkpt lat="59.4925365963" lon="17.8508104734">
        <ele>39.4</ele>
        <time>2012-10-02T21:04:48Z</time>
      </trkpt>
      <trkpt lat="59.492181539" lon="17.8510895068">
        <ele>39.4</ele>
        <time>2012-10-02T21:04:53Z</time>
      </trkpt>
      <trkpt lat="59.4917194448" lon="17.8515018125">
        <ele>38.8</ele>
        <time>2012-10-02T21:05:00Z</time>
      </trkpt>
      <trkpt lat="59.4916561615" lon="17.8515623298">
        <ele>38.4</ele>
        <time>2012-10-02T21:05:01Z</time>
      </trkpt>
      <trkpt lat="59.4915906988" lon="17.8516262837">
        <ele>38</ele>
        <time>2012-10-02T21:05:02Z</time>
      </trkpt>
      <trkpt lat="59.4915283375" lon="17.8516878906">
        <ele>37.6</ele>
        <time>2012-10-02T21:05:03Z</time>
      </trkpt>
      <trkpt lat="59.4914629587" lon="17.8517458096">
        <ele>37</ele>
        <time>2012-10-02T21:05:04Z</time>
      </trkpt>
      <trkpt lat="59.4911461229" lon="17.8520128569">
        <ele>37</ele>
        <time>2012-10-02T21:05:09Z</time>
      </trkpt>
      <trkpt lat="59.4907220826" lon="17.8524055489">
        <ele>37</ele>
        <time>2012-10-02T21:05:16Z</time>
      </trkpt>
      <trkpt lat="59.4904193283" lon="17.8526616998">
        <ele>37</ele>
        <time>2012-10-02T21:05:21Z</time>
      </trkpt>
      <trkpt lat="59.489928149" lon="17.8530796213">
        <ele>37</ele>
        <time>2012-10-02T21:05:29Z</time>
      </trkpt>
      <trkpt lat="59.4894722574" lon="17.8535100319">
        <ele>37</ele>
        <time>2012-10-02T21:05:36Z</time>
      </trkpt>
      <trkpt lat="59.4889793179" lon="17.8538702021">
        <ele>37</ele>
        <time>2012-10-02T21:05:43Z</time>
      </trkpt>
      <trkpt lat="59.4883754858" lon="17.8541932406">
        <ele>37</ele>
        <time>2012-10-02T21:05:51Z</time>
      </trkpt>
      <trkpt lat="59.4878323387" lon="17.8544714358">
        <ele>37</ele>
        <time>2012-10-02T21:05:58Z</time>
      </trkpt>
      <trkpt lat="59.4876735855" lon="17.8545567636">
        <ele>37</ele>
        <time>2012-10-02T21:06:00Z</time>
      </trkpt>
      <trkpt lat="59.4872083063" lon="17.8547813985">
        <ele>36.6</ele>
        <time>2012-10-02T21:06:06Z</time>
      </trkpt>
      <trkpt lat="59.4871323662" lon="17.8548234756">
        <ele>36.2</ele>
        <time>2012-10-02T21:06:07Z</time>
      </trkpt>
      <trkpt lat="59.4870558395" lon="17.8548620324">
        <ele>35.8</ele>
        <time>2012-10-02T21:06:08Z</time>
      </trkpt>
      <trkpt lat="59.4869747865" lon="17.8548963143">
        <ele>35.4</ele>
        <time>2012-10-02T21:06:09Z</time>
      </trkpt>
      <trkpt lat="59.4868941526" lon="17.8549270759">
        <ele>35</ele>
        <time>2012-10-02T21:06:10Z</time>
      </trkpt>
      <trkpt lat="59.4865525902" lon="17.8550142477">
        <ele>34.6</ele>
        <time>2012-10-02T21:06:14Z</time>
      </trkpt>
      <trkpt lat="59.486464245" lon="17.8550258985">
        <ele>34.2</ele>
        <time>2012-10-02T21:06:15Z</time>
      </trkpt>
      <trkpt lat="59.4863724632" lon="17.85503076">
        <ele>33.8</ele>
        <time>2012-10-02T21:06:16Z</time>
      </trkpt>
      <trkpt lat="59.4862830283" lon="17.8550315982">
        <ele>33.4</ele>
        <time>2012-10-02T21:06:17Z</time>
      </trkpt>
      <trkpt lat="59.4861923362" lon="17.8550281616">
        <ele>32.8</ele>
        <time>2012-10-02T21:06:18Z</time>
      </trkpt>
      <trkpt lat="59.4858268015" lon="17.8549953884">
        <ele>32.8</ele>
        <time>2012-10-02T21:06:22Z</time>
      </trkpt>
      <trkpt lat="59.4856465068" lon="17.8549753556">
        <ele>32.4</ele>
        <time>2012-10-02T21:06:24Z</time>
      </trkpt>
      <trkpt lat="59.4855577425" lon="17.8549651297">
        <ele>32</ele>
        <time>2012-10-02T21:06:25Z</time>
      </trkpt>
      <trkpt lat="59.4854691458" lon="17.8549546524">
        <ele>31.6</ele>
        <time>2012-10-02T21:06:26Z</time>
      </trkpt>
      <trkpt lat="59.4853817226" lon="17.8549430015">
        <ele>31.2</ele>
        <time>2012-10-02T21:06:27Z</time>
      </trkpt>
      <trkpt lat="59.4852950538" lon="17.8549379724">
        <ele>30.8</ele>
        <time>2012-10-02T21:06:28Z</time>
      </trkpt>
      <trkpt lat="59.4850338738" lon="17.854918694">
        <ele>30.8</ele>
        <time>2012-10-02T21:06:31Z</time>
      </trkpt>
      <trkpt lat="59.4849477078" lon="17.8549143354">
        <ele>30.4</ele>
        <time>2012-10-02T21:06:32Z</time>
      </trkpt>
      <trkpt lat="59.484863805" lon="17.8549074623">
        <ele>30</ele>
        <time>2012-10-02T21:06:33Z</time>
      </trkpt>
      <trkpt lat="59.4847793993" lon="17.8549027684">
        <ele>29.4</ele>
        <time>2012-10-02T21:06:34Z</time>
      </trkpt>
      <trkpt lat="59.484696167" lon="17.8548980745">
        <ele>29</ele>
        <time>2012-10-02T21:06:35Z</time>
      </trkpt>
      <trkpt lat="59.4846138567" lon="17.8548891059">
        <ele>28.6</ele>
        <time>2012-10-02T21:06:36Z</time>
      </trkpt>
      <trkpt lat="59.4842792513" lon="17.8548652175">
        <ele>28.6</ele>
        <time>2012-10-02T21:06:40Z</time>
      </trkpt>
      <trkpt lat="59.4837105394" lon="17.8548018503">
        <ele>28.6</ele>
        <time>2012-10-02T21:06:47Z</time>
      </trkpt>
      <trkpt lat="59.4836295702" lon="17.854792714">
        <ele>28.6</ele>
        <time>2012-10-02T21:06:48Z</time>
      </trkpt>
      <trkpt lat="59.4830536499" lon="17.8547396566">
        <ele>28.6</ele>
        <time>2012-10-02T21:06:55Z</time>
      </trkpt>
      <trkpt lat="59.4829705853" lon="17.8547265809">
        <ele>28.6</ele>
        <time>2012-10-02T21:06:56Z</time>
      </trkpt>
      <trkpt lat="59.4823879594" lon="17.8546622079">
        <ele>28.6</ele>
        <time>2012-10-02T21:07:03Z</time>
      </trkpt>
      <trkpt lat="59.4823028831" lon="17.8546569273">
        <ele>28.6</ele>
        <time>2012-10-02T21:07:04Z</time>
      </trkpt>
      <trkpt lat="59.4822204052" lon="17.854650557">
        <ele>28.2</ele>
        <time>2012-10-02T21:07:05Z</time>
      </trkpt>
      <trkpt lat="59.4821380111" lon="17.8546454441">
        <ele>27.8</ele>
        <time>2012-10-02T21:07:06Z</time>
      </trkpt>
      <trkpt lat="59.4820526834" lon="17.8546425942">
        <ele>27.2</ele>
        <time>2012-10-02T21:07:07Z</time>
      </trkpt>
      <trkpt lat="59.4819725524" lon="17.8546481263">
        <ele>26.8</ele>
        <time>2012-10-02T21:07:08Z</time>
      </trkpt>
      <trkpt lat="59.4818906613" lon="17.8546555862">
        <ele>26.4</ele>
        <time>2012-10-02T21:07:09Z</time>
      </trkpt>
      <trkpt lat="59.4816397072" lon="17.8546824082">
        <ele>26.4</ele>
        <time>2012-10-02T21:07:12Z</time>
      </trkpt>
      <trkpt lat="59.4812098833" lon="17.8548803049">
        <ele>26.4</ele>
        <time>2012-10-02T21:07:17Z</time>
      </trkpt>
      <trkpt lat="59.4806432669" lon="17.8552508687">
        <ele>26.4</ele>
        <time>2012-10-02T21:07:24Z</time>
      </trkpt>
      <trkpt lat="59.480565902" lon="17.8552984779">
        <ele>26.4</ele>
        <time>2012-10-02T21:07:25Z</time>
      </trkpt>
      <trkpt lat="59.480012026" lon="17.855521185">
        <ele>26.4</ele>
        <time>2012-10-02T21:07:32Z</time>
      </trkpt>
      <trkpt lat="59.4794436494" lon="17.8555273876">
        <ele>26.4</ele>
        <time>2012-10-02T21:07:39Z</time>
      </trkpt>
      <trkpt lat="59.4793667873" lon="17.8555300698">
        <ele>26.4</ele>
        <time>2012-10-02T21:07:40Z</time>
      </trkpt>
      <trkpt lat="59.4792905121" lon="17.8555356857">
        <ele>26</ele>
        <time>2012-10-02T21:07:41Z</time>
      </trkpt>
      <trkpt lat="59.479215997" lon="17.8555455763">
        <ele>25.6</ele>
        <time>2012-10-02T21:07:42Z</time>
      </trkpt>
      <trkpt lat="59.4791453375" lon="17.8555553831">
        <ele>25.2</ele>
        <time>2012-10-02T21:07:43Z</time>
      </trkpt>
      <trkpt lat="59.4790698166" lon="17.8555542097">
        <ele>24.8</ele>
        <time>2012-10-02T21:07:44Z</time>
      </trkpt>
      <trkpt lat="59.479001085" lon="17.8555537067">
        <ele>24.4</ele>
        <time>2012-10-02T21:07:45Z</time>
      </trkpt>
      <trkpt lat="59.4789341137" lon="17.8555543773">
        <ele>24.4</ele>
        <time>2012-10-02T21:07:46Z</time>
      </trkpt>
      <trkpt lat="59.4788707465" lon="17.8555356857">
        <ele>24.4</ele>
        <time>2012-10-02T21:07:47Z</time>
      </trkpt>
      <trkpt lat="59.4787724268" lon="17.8554045089">
        <ele>24.4</ele>
        <time>2012-10-02T21:07:49Z</time>
      </trkpt>
      <trkpt lat="59.4787664757" lon="17.8551476875">
        <ele>24.4</ele>
        <time>2012-10-02T21:07:51Z</time>
      </trkpt>
      <trkpt lat="59.4787670624" lon="17.8549072946">
        <ele>24.4</ele>
        <time>2012-10-02T21:07:53Z</time>
      </trkpt>
      <trkpt lat="59.4787559145" lon="17.8547870144">
        <ele>24.4</ele>
        <time>2012-10-02T21:07:54Z</time>
      </trkpt>
      <trkpt lat="59.4786917929" lon="17.8545846753">
        <ele>24.4</ele>
        <time>2012-10-02T21:07:56Z</time>
      </trkpt>
      <trkpt lat="59.4785248255" lon="17.8543799893">
        <ele>24.4</ele>
        <time>2012-10-02T21:07:59Z</time>
      </trkpt>
      <trkpt lat="59.4783902122" lon="17.8542902191">
        <ele>24.4</ele>
        <time>2012-10-02T21:08:01Z</time>
      </trkpt>
      <trkpt lat="59.4782617176" lon="17.8542154526">
        <ele>24.4</ele>
        <time>2012-10-02T21:08:03Z</time>
      </trkpt>
      <trkpt lat="59.4777618211" lon="17.8539038136">
        <ele>24.4</ele>
        <time>2012-10-02T21:08:11Z</time>
      </trkpt>
      <trkpt lat="59.4772866512" lon="17.8536061723">
        <ele>24.4</ele>
        <time>2012-10-02T21:08:19Z</time>
      </trkpt>
      <trkpt lat="59.4768904388" lon="17.8532824633">
        <ele>24.4</ele>
        <time>2012-10-02T21:08:26Z</time>
      </trkpt>
      <trkpt lat="59.4766329468" lon="17.8529773621">
        <ele>24.4</ele>
        <time>2012-10-02T21:08:31Z</time>
      </trkpt>
      <trkpt lat="59.4766221342" lon="17.8528525557">
        <ele>24.4</ele>
        <time>2012-10-02T21:08:32Z</time>
      </trkpt>
      <trkpt lat="59.4766586793" lon="17.8525193751">
        <ele>24.4</ele>
        <time>2012-10-02T21:08:35Z</time>
      </trkpt>
      <trkpt lat="59.4766761136" lon="17.8524183732">
        <ele>24.8</ele>
        <time>2012-10-02T21:08:36Z</time>
      </trkpt>
      <trkpt lat="59.4766945538" lon="17.852308738">
        <ele>25.2</ele>
        <time>2012-10-02T21:08:37Z</time>
      </trkpt>
      <trkpt lat="59.4767083839" lon="17.8521938221">
        <ele>25.6</ele>
        <time>2012-10-02T21:08:38Z</time>
      </trkpt>
      <trkpt lat="59.4767299254" lon="17.8520845222">
        <ele>26</ele>
        <time>2012-10-02T21:08:39Z</time>
      </trkpt>
      <trkpt lat="59.4767477789" lon="17.851970696">
        <ele>26.4</ele>
        <time>2012-10-02T21:08:40Z</time>
      </trkpt>
      <trkpt lat="59.4767672249" lon="17.851858127">
        <ele>26.4</ele>
        <time>2012-10-02T21:08:41Z</time>
      </trkpt>
      <trkpt lat="59.4767900236" lon="17.8517422054">
        <ele>26.8</ele>
        <time>2012-10-02T21:08:42Z</time>
      </trkpt>
      <trkpt lat="59.4768094697" lon="17.851622428">
        <ele>27.2</ele>
        <time>2012-10-02T21:08:43Z</time>
      </trkpt>
      <trkpt lat="59.4768330228" lon="17.851506674">
        <ele>27.6</ele>
        <time>2012-10-02T21:08:44Z</time>
      </trkpt>
      <trkpt lat="59.4768518821" lon="17.8513868966">
        <ele>28</ele>
        <time>2012-10-02T21:08:45Z</time>
      </trkpt>
      <trkpt lat="59.4768730883" lon="17.8512671193">
        <ele>28.4</ele>
        <time>2012-10-02T21:08:46Z</time>
      </trkpt>
      <trkpt lat="59.476906113" lon="17.8510340186">
        <ele>28.4</ele>
        <time>2012-10-02T21:08:48Z</time>
      </trkpt>
      <trkpt lat="59.4769754313" lon="17.8505818989">
        <ele>28.8</ele>
        <time>2012-10-02T21:08:52Z</time>
      </trkpt>
      <trkpt lat="59.4769928656" lon="17.8504683242">
        <ele>29.2</ele>
        <time>2012-10-02T21:08:53Z</time>
      </trkpt>
      <trkpt lat="59.477007953" lon="17.8503467866">
        <ele>29.6</ele>
        <time>2012-10-02T21:08:54Z</time>
      </trkpt>
      <trkpt lat="59.4770220346" lon="17.8502348045">
        <ele>30.2</ele>
        <time>2012-10-02T21:08:55Z</time>
      </trkpt>
      <trkpt lat="59.4770387984" lon="17.8501273485">
        <ele>30.6</ele>
        <time>2012-10-02T21:08:56Z</time>
      </trkpt>
      <trkpt lat="59.4771539657" lon="17.8494307288">
        <ele>30.6</ele>
        <time>2012-10-02T21:09:03Z</time>
      </trkpt>
      <trkpt lat="59.4771688017" lon="17.8493332473">
        <ele>31</ele>
        <time>2012-10-02T21:09:04Z</time>
      </trkpt>
      <trkpt lat="59.4771868228" lon="17.8492349276">
        <ele>31.4</ele>
        <time>2012-10-02T21:09:05Z</time>
      </trkpt>
      <trkpt lat="59.4772031675" lon="17.8491319141">
        <ele>31.8</ele>
        <time>2012-10-02T21:09:06Z</time>
      </trkpt>
      <trkpt lat="59.4772176682" lon="17.8490305769">
        <ele>32.2</ele>
        <time>2012-10-02T21:09:07Z</time>
      </trkpt>
      <trkpt lat="59.477232588" lon="17.8489210255">
        <ele>32.6</ele>
        <time>2012-10-02T21:09:08Z</time>
      </trkpt>
      <trkpt lat="59.4772667861" lon="17.8487196922">
        <ele>32.6</ele>
        <time>2012-10-02T21:09:10Z</time>
      </trkpt>
      <trkpt lat="59.4773249565" lon="17.8482977474">
        <ele>33</ele>
        <time>2012-10-02T21:09:14Z</time>
      </trkpt>
      <trkpt lat="59.4773373617" lon="17.8481881959">
        <ele>33.4</ele>
        <time>2012-10-02T21:09:15Z</time>
      </trkpt>
      <trkpt lat="59.4773514433" lon="17.8480856015">
        <ele>33.8</ele>
        <time>2012-10-02T21:09:16Z</time>
      </trkpt>
      <trkpt lat="59.4773656087" lon="17.8479825041">
        <ele>34.2</ele>
        <time>2012-10-02T21:09:17Z</time>
      </trkpt>
      <trkpt lat="59.4773778463" lon="17.8478831786">
        <ele>34.6</ele>
        <time>2012-10-02T21:09:18Z</time>
      </trkpt>
      <trkpt lat="59.4774601566" lon="17.8471662747">
        <ele>34.6</ele>
        <time>2012-10-02T21:09:25Z</time>
      </trkpt>
      <trkpt lat="59.4775379406" lon="17.8465005842">
        <ele>35.2</ele>
        <time>2012-10-02T21:09:31Z</time>
      </trkpt>
      <trkpt lat="59.4775544529" lon="17.8463865065">
        <ele>35.6</ele>
        <time>2012-10-02T21:09:32Z</time>
      </trkpt>
      <trkpt lat="59.4775628348" lon="17.8462732671">
        <ele>36</ele>
        <time>2012-10-02T21:09:33Z</time>
      </trkpt>
      <trkpt lat="59.4775739828" lon="17.8461608658">
        <ele>36.4</ele>
        <time>2012-10-02T21:09:34Z</time>
      </trkpt>
      <trkpt lat="59.477588232" lon="17.8460477101">
        <ele>36.8</ele>
        <time>2012-10-02T21:09:35Z</time>
      </trkpt>
      <trkpt lat="59.4776001343" lon="17.845813436">
        <ele>36.8</ele>
        <time>2012-10-02T21:09:37Z</time>
      </trkpt>
      <trkpt lat="59.4776196641" lon="17.8455763121">
        <ele>36.8</ele>
        <time>2012-10-02T21:09:39Z</time>
      </trkpt>
      <trkpt lat="59.4776548681" lon="17.844992848">
        <ele>36.8</ele>
        <time>2012-10-02T21:09:44Z</time>
      </trkpt>
      <trkpt lat="59.4777107754" lon="17.84406296">
        <ele>36.8</ele>
        <time>2012-10-02T21:09:52Z</time>
      </trkpt>
      <trkpt lat="59.4777396091" lon="17.843235918">
        <ele>36.8</ele>
        <time>2012-10-02T21:09:59Z</time>
      </trkpt>
      <trkpt lat="59.4777686943" lon="17.8421485341">
        <ele>36.8</ele>
        <time>2012-10-02T21:10:08Z</time>
      </trkpt>
      <trkpt lat="59.4777660121" lon="17.841219149">
        <ele>36.8</ele>
        <time>2012-10-02T21:10:15Z</time>
      </trkpt>
      <trkpt lat="59.4777557862" lon="17.8402899316">
        <ele>36.8</ele>
        <time>2012-10-02T21:10:22Z</time>
      </trkpt>
      <trkpt lat="59.477728545" lon="17.8393443694">
        <ele>36.8</ele>
        <time>2012-10-02T21:10:29Z</time>
      </trkpt>
      <trkpt lat="59.4777076741" lon="17.8383969633">
        <ele>36.8</ele>
        <time>2012-10-02T21:10:36Z</time>
      </trkpt>
      <trkpt lat="59.477679008" lon="17.8374137664">
        <ele>36.8</ele>
        <time>2012-10-02T21:10:43Z</time>
      </trkpt>
      <trkpt lat="59.4776399483" lon="17.8364612473">
        <ele>36.8</ele>
        <time>2012-10-02T21:10:50Z</time>
      </trkpt>
      <trkpt lat="59.4775886511" lon="17.8354744462">
        <ele>36.8</ele>
        <time>2012-10-02T21:10:58Z</time>
      </trkpt>
      <trkpt lat="59.4775608232" lon="17.8348820973">
        <ele>37.2</ele>
        <time>2012-10-02T21:11:03Z</time>
      </trkpt>
      <trkpt lat="59.4775546206" lon="17.8347670138">
        <ele>37.6</ele>
        <time>2012-10-02T21:11:04Z</time>
      </trkpt>
      <trkpt lat="59.4775503458" lon="17.834649332">
        <ele>38.2</ele>
        <time>2012-10-02T21:11:05Z</time>
      </trkpt>
      <trkpt lat="59.4775441432" lon="17.8345417084">
        <ele>38.6</ele>
        <time>2012-10-02T21:11:06Z</time>
      </trkpt>
      <trkpt lat="59.4775397008" lon="17.8344302291">
        <ele>39</ele>
        <time>2012-10-02T21:11:07Z</time>
      </trkpt>
      <trkpt lat="59.4774999706" lon="17.8338551469">
        <ele>39</ele>
        <time>2012-10-02T21:11:12Z</time>
      </trkpt>
      <trkpt lat="59.4774806922" lon="17.8334128341">
        <ele>39</ele>
        <time>2012-10-02T21:11:16Z</time>
      </trkpt>
      <trkpt lat="59.4774740705" lon="17.8333015224">
        <ele>39.4</ele>
        <time>2012-10-02T21:11:17Z</time>
      </trkpt>
      <trkpt lat="59.4774648504" lon="17.8331938988">
        <ele>39.8</ele>
        <time>2012-10-02T21:11:18Z</time>
      </trkpt>
      <trkpt lat="59.477455295" lon="17.8330837607">
        <ele>40.2</ele>
        <time>2012-10-02T21:11:19Z</time>
      </trkpt>
      <trkpt lat="59.4774511879" lon="17.8329816691">
        <ele>40.8</ele>
        <time>2012-10-02T21:11:20Z</time>
      </trkpt>
      <trkpt lat="59.4774477513" lon="17.8328707766">
        <ele>41.2</ele>
        <time>2012-10-02T21:11:21Z</time>
      </trkpt>
      <trkpt lat="59.4774221865" lon="17.8325235983">
        <ele>41.6</ele>
        <time>2012-10-02T21:11:24Z</time>
      </trkpt>
      <trkpt lat="59.4774171574" lon="17.8323997138">
        <ele>42</ele>
        <time>2012-10-02T21:11:25Z</time>
      </trkpt>
      <trkpt lat="59.4774121283" lon="17.8322809423">
        <ele>42.4</ele>
        <time>2012-10-02T21:11:26Z</time>
      </trkpt>
      <trkpt lat="59.4774001421" lon="17.8321652721">
        <ele>42.8</ele>
        <time>2012-10-02T21:11:27Z</time>
      </trkpt>
      <trkpt lat="59.477395113" lon="17.832056475">
        <ele>43.2</ele>
        <time>2012-10-02T21:11:28Z</time>
      </trkpt>
      <trkpt lat="59.4773778463" lon="17.8318280682">
        <ele>43.2</ele>
        <time>2012-10-02T21:11:30Z</time>
      </trkpt>
      <trkpt lat="59.4773708893" lon="17.8317144097">
        <ele>43.6</ele>
        <time>2012-10-02T21:11:31Z</time>
      </trkpt>
      <trkpt lat="59.4773635132" lon="17.8316101388">
        <ele>44.2</ele>
        <time>2012-10-02T21:11:32Z</time>
      </trkpt>
      <trkpt lat="59.4773557181" lon="17.831482231">
        <ele>44.6</ele>
        <time>2012-10-02T21:11:33Z</time>
      </trkpt>
      <trkpt lat="59.4773490964" lon="17.8313640463">
        <ele>45</ele>
        <time>2012-10-02T21:11:34Z</time>
      </trkpt>
      <trkpt lat="59.477336775" lon="17.8312446042">
        <ele>45.4</ele>
        <time>2012-10-02T21:11:35Z</time>
      </trkpt>
      <trkpt lat="59.4773230287" lon="17.831132622">
        <ele>45.4</ele>
        <time>2012-10-02T21:11:36Z</time>
      </trkpt>
      <trkpt lat="59.4773176643" lon="17.8310354758">
        <ele>45.8</ele>
        <time>2012-10-02T21:11:37Z</time>
      </trkpt>
      <trkpt lat="59.4773106235" lon="17.8309365694">
        <ele>46.2</ele>
        <time>2012-10-02T21:11:38Z</time>
      </trkpt>
      <trkpt lat="59.477304337" lon="17.8308423568">
        <ele>46.6</ele>
        <time>2012-10-02T21:11:39Z</time>
      </trkpt>
      <trkpt lat="59.4772977991" lon="17.8307438695">
        <ele>47.2</ele>
        <time>2012-10-02T21:11:40Z</time>
      </trkpt>
      <trkpt lat="59.4772910098" lon="17.8306549375">
        <ele>47.6</ele>
        <time>2012-10-02T21:11:41Z</time>
      </trkpt>
      <trkpt lat="59.4772840528" lon="17.8305643292">
        <ele>47.6</ele>
        <time>2012-10-02T21:11:42Z</time>
      </trkpt>
      <trkpt lat="59.4772449094" lon="17.8300894107">
        <ele>48</ele>
        <time>2012-10-02T21:11:47Z</time>
      </trkpt>
      <trkpt lat="59.4772387906" lon="17.8299899176">
        <ele>48.4</ele>
        <time>2012-10-02T21:11:48Z</time>
      </trkpt>
      <trkpt lat="59.4772290676" lon="17.8298965432">
        <ele>48.8</ele>
        <time>2012-10-02T21:11:49Z</time>
      </trkpt>
      <trkpt lat="59.4772229488" lon="17.8298044261">
        <ele>49.2</ele>
        <time>2012-10-02T21:11:50Z</time>
      </trkpt>
      <trkpt lat="59.4772203504" lon="17.8297133987">
        <ele>49.6</ele>
        <time>2012-10-02T21:11:51Z</time>
      </trkpt>
      <trkpt lat="59.4771716516" lon="17.8292058746">
        <ele>49.6</ele>
        <time>2012-10-02T21:11:56Z</time>
      </trkpt>
      <trkpt lat="59.4771080329" lon="17.8285170501">
        <ele>49.6</ele>
        <time>2012-10-02T21:12:02Z</time>
      </trkpt>
      <trkpt lat="59.4770988967" lon="17.828408253">
        <ele>50</ele>
        <time>2012-10-02T21:12:03Z</time>
      </trkpt>
      <trkpt lat="59.4770887546" lon="17.8283015515">
        <ele>50.6</ele>
        <time>2012-10-02T21:12:04Z</time>
      </trkpt>
      <trkpt lat="59.4770828872" lon="17.8282045729">
        <ele>51</ele>
        <time>2012-10-02T21:12:05Z</time>
      </trkpt>
      <trkpt lat="59.4770773552" lon="17.8280879806">
        <ele>51.4</ele>
        <time>2012-10-02T21:12:06Z</time>
      </trkpt>
      <trkpt lat="59.4770584121" lon="17.8279861406">
        <ele>51.8</ele>
        <time>2012-10-02T21:12:07Z</time>
      </trkpt>
      <trkpt lat="59.4770496949" lon="17.8278602444">
        <ele>51.8</ele>
        <time>2012-10-02T21:12:08Z</time>
      </trkpt>
      <trkpt lat="59.476947771" lon="17.8269294344">
        <ele>51.8</ele>
        <time>2012-10-02T21:12:16Z</time>
      </trkpt>
      <trkpt lat="59.4768626947" lon="17.8262435435">
        <ele>52.2</ele>
        <time>2012-10-02T21:12:21Z</time>
      </trkpt>
      <trkpt lat="59.4768470206" lon="17.8261032305">
        <ele>52.6</ele>
        <time>2012-10-02T21:12:22Z</time>
      </trkpt>
      <trkpt lat="59.4768293348" lon="17.8259491712">
        <ele>53</ele>
        <time>2012-10-02T21:12:23Z</time>
      </trkpt>
      <trkpt lat="59.4768090506" lon="17.8257991352">
        <ele>53.4</ele>
        <time>2012-10-02T21:12:24Z</time>
      </trkpt>
      <trkpt lat="59.4767883473" lon="17.825651949">
        <ele>53.8</ele>
        <time>2012-10-02T21:12:25Z</time>
      </trkpt>
      <trkpt lat="59.4767265727" lon="17.8251891843">
        <ele>53.8</ele>
        <time>2012-10-02T21:12:28Z</time>
      </trkpt>
      <trkpt lat="59.4765750279" lon="17.8241399381">
        <ele>53.8</ele>
        <time>2012-10-02T21:12:35Z</time>
      </trkpt>
      <trkpt lat="59.476504117" lon="17.8236941048">
        <ele>53.8</ele>
        <time>2012-10-02T21:12:38Z</time>
      </trkpt>
      <trkpt lat="59.4763280971" lon="17.8226016918">
        <ele>53.8</ele>
        <time>2012-10-02T21:12:45Z</time>
      </trkpt>
      <trkpt lat="59.4762991796" lon="17.8224471296">
        <ele>53.8</ele>
        <time>2012-10-02T21:12:46Z</time>
      </trkpt>
      <trkpt lat="59.4760927334" lon="17.8213295709">
        <ele>53.8</ele>
        <time>2012-10-02T21:12:53Z</time>
      </trkpt>
      <trkpt lat="59.4760644026" lon="17.8211709853">
        <ele>53.4</ele>
        <time>2012-10-02T21:12:54Z</time>
      </trkpt>
      <trkpt lat="59.4760348145" lon="17.8210094661">
        <ele>53</ele>
        <time>2012-10-02T21:12:55Z</time>
      </trkpt>
      <trkpt lat="59.4760005325" lon="17.8208481983">
        <ele>52.6</ele>
        <time>2012-10-02T21:12:56Z</time>
      </trkpt>
      <trkpt lat="59.4759677593" lon="17.8206934685">
        <ele>52.2</ele>
        <time>2012-10-02T21:12:57Z</time>
      </trkpt>
      <trkpt lat="59.4759366624" lon="17.8205364755">
        <ele>51.8</ele>
        <time>2012-10-02T21:12:58Z</time>
      </trkpt>
      <trkpt lat="59.4757625703" lon="17.819725359">
        <ele>51.8</ele>
        <time>2012-10-02T21:13:03Z</time>
      </trkpt>
      <trkpt lat="59.4755479937" lon="17.8187048627">
        <ele>51.8</ele>
        <time>2012-10-02T21:13:09Z</time>
      </trkpt>
      <trkpt lat="59.4755091855" lon="17.8185298486">
        <ele>51.8</ele>
        <time>2012-10-02T21:13:10Z</time>
      </trkpt>
      <trkpt lat="59.4752631767" lon="17.8174598991">
        <ele>51.8</ele>
        <time>2012-10-02T21:13:16Z</time>
      </trkpt>
      <trkpt lat="59.4752231951" lon="17.8172884054">
        <ele>51.2</ele>
        <time>2012-10-02T21:13:17Z</time>
      </trkpt>
      <trkpt lat="59.4751830458" lon="17.8171110444">
        <ele>50.8</ele>
        <time>2012-10-02T21:13:18Z</time>
      </trkpt>
      <trkpt lat="59.4751413039" lon="17.8169299954">
        <ele>50.4</ele>
        <time>2012-10-02T21:13:19Z</time>
      </trkpt>
      <trkpt lat="59.4750975504" lon="17.8167669674">
        <ele>49.8</ele>
        <time>2012-10-02T21:13:20Z</time>
      </trkpt>
      <trkpt lat="59.4750556409" lon="17.8165962281">
        <ele>49.4</ele>
        <time>2012-10-02T21:13:21Z</time>
      </trkpt>
      <trkpt lat="59.4748763521" lon="17.8159251732">
        <ele>49.4</ele>
        <time>2012-10-02T21:13:25Z</time>
      </trkpt>
      <trkpt lat="59.4746549861" lon="17.8151326645">
        <ele>49</ele>
        <time>2012-10-02T21:13:30Z</time>
      </trkpt>
      <trkpt lat="59.4746057843" lon="17.8149725703">
        <ele>48.6</ele>
        <time>2012-10-02T21:13:31Z</time>
      </trkpt>
      <trkpt lat="59.4745554929" lon="17.8148032559">
        <ele>48.2</ele>
        <time>2012-10-02T21:13:32Z</time>
      </trkpt>
      <trkpt lat="59.474502687" lon="17.8146317622">
        <ele>47.8</ele>
        <time>2012-10-02T21:13:33Z</time>
      </trkpt>
      <trkpt lat="59.4744463606" lon="17.8144452649">
        <ele>47.4</ele>
        <time>2012-10-02T21:13:34Z</time>
      </trkpt>
      <trkpt lat="59.474073869" lon="17.8134158838">
        <ele>47.4</ele>
        <time>2012-10-02T21:13:40Z</time>
      </trkpt>
      <trkpt lat="59.4737138663" lon="17.8126788633">
        <ele>47.4</ele>
        <time>2012-10-02T21:13:45Z</time>
      </trkpt>
      <trkpt lat="59.4736330648" lon="17.8125673841">
        <ele>47.4</ele>
        <time>2012-10-02T21:13:46Z</time>
      </trkpt>
      <trkpt lat="59.4734870521" lon="17.8123032704">
        <ele>47.4</ele>
        <time>2012-10-02T21:13:48Z</time>
      </trkpt>
      <trkpt lat="59.4733858826" lon="17.8120363069">
        <ele>47</ele>
        <time>2012-10-02T21:13:50Z</time>
      </trkpt>
      <trkpt lat="59.4733391954" lon="17.8119027832">
        <ele>46.4</ele>
        <time>2012-10-02T21:13:51Z</time>
      </trkpt>
      <trkpt lat="59.4732942684" lon="17.8117679184">
        <ele>46</ele>
        <time>2012-10-02T21:13:52Z</time>
      </trkpt>
      <trkpt lat="59.473231488" lon="17.811641687">
        <ele>45.2</ele>
        <time>2012-10-02T21:13:53Z</time>
      </trkpt>
      <trkpt lat="59.4731775086" lon="17.8115431997">
        <ele>45.2</ele>
        <time>2012-10-02T21:13:54Z</time>
      </trkpt>
      <trkpt lat="59.473094863" lon="17.8114531781">
        <ele>45.2</ele>
        <time>2012-10-02T21:13:55Z</time>
      </trkpt>
      <trkpt lat="59.4729283985" lon="17.8113116078">
        <ele>45.2</ele>
        <time>2012-10-02T21:13:57Z</time>
      </trkpt>
      <trkpt lat="59.4724297593" lon="17.810843311">
        <ele>45.2</ele>
        <time>2012-10-02T21:14:03Z</time>
      </trkpt>
      <trkpt lat="59.4723497121" lon="17.8107681254">
        <ele>44.8</ele>
        <time>2012-10-02T21:14:04Z</time>
      </trkpt>
      <trkpt lat="59.4722699164" lon="17.8106971307">
        <ele>44.4</ele>
        <time>2012-10-02T21:14:05Z</time>
      </trkpt>
      <trkpt lat="59.4721854269" lon="17.8106353561">
        <ele>44</ele>
        <time>2012-10-02T21:14:06Z</time>
      </trkpt>
      <trkpt lat="59.4721022784" lon="17.8105761799">
        <ele>43.6</ele>
        <time>2012-10-02T21:14:07Z</time>
      </trkpt>
      <trkpt lat="59.4720178727" lon="17.8105144053">
        <ele>43.2</ele>
        <time>2012-10-02T21:14:08Z</time>
      </trkpt>
      <trkpt lat="59.471755184" lon="17.8103625253">
        <ele>43.2</ele>
        <time>2012-10-02T21:14:11Z</time>
      </trkpt>
      <trkpt lat="59.4714176448" lon="17.8101930432">
        <ele>42.6</ele>
        <time>2012-10-02T21:14:15Z</time>
      </trkpt>
      <trkpt lat="59.4713322333" lon="17.8101555761">
        <ele>42.2</ele>
        <time>2012-10-02T21:14:16Z</time>
      </trkpt>
      <trkpt lat="59.4712458997" lon="17.81012691">
        <ele>41.8</ele>
        <time>2012-10-02T21:14:17Z</time>
      </trkpt>
      <trkpt lat="59.4711512681" lon="17.8100966514">
        <ele>41</ele>
        <time>2012-10-02T21:14:18Z</time>
      </trkpt>
      <trkpt lat="59.4706119766" lon="17.8099746109">
        <ele>41</ele>
        <time>2012-10-02T21:14:24Z</time>
      </trkpt>
      <trkpt lat="59.4704215398" lon="17.809947705">
        <ele>40.6</ele>
        <time>2012-10-02T21:14:26Z</time>
      </trkpt>
      <trkpt lat="59.4703264891" lon="17.8099356351">
        <ele>40</ele>
        <time>2012-10-02T21:14:27Z</time>
      </trkpt>
      <trkpt lat="59.4702311869" lon="17.8099269179">
        <ele>39.4</ele>
        <time>2012-10-02T21:14:28Z</time>
      </trkpt>
      <trkpt lat="59.470132951" lon="17.8099200448">
        <ele>39</ele>
        <time>2012-10-02T21:14:29Z</time>
      </trkpt>
      <trkpt lat="59.4700364754" lon="17.8099155185">
        <ele>38.4</ele>
        <time>2012-10-02T21:14:30Z</time>
      </trkpt>
      <trkpt lat="59.4697357328" lon="17.8098929712">
        <ele>38</ele>
        <time>2012-10-02T21:14:33Z</time>
      </trkpt>
      <trkpt lat="59.4696436995" lon="17.8098927198">
        <ele>37.4</ele>
        <time>2012-10-02T21:14:34Z</time>
      </trkpt>
      <trkpt lat="59.4695495708" lon="17.8098957372">
        <ele>36.8</ele>
        <time>2012-10-02T21:14:35Z</time>
      </trkpt>
      <trkpt lat="59.4694575375" lon="17.809900012">
        <ele>36.4</ele>
        <time>2012-10-02T21:14:36Z</time>
      </trkpt>
      <trkpt lat="59.469363325" lon="17.8098878583">
        <ele>35.8</ele>
        <time>2012-10-02T21:14:37Z</time>
      </trkpt>
      <trkpt lat="59.4691839523" lon="17.8098230662">
        <ele>35.8</ele>
        <time>2012-10-02T21:14:39Z</time>
      </trkpt>
      <trkpt lat="59.4690879796" lon="17.8097672427">
        <ele>35.4</ele>
        <time>2012-10-02T21:14:40Z</time>
      </trkpt>
      <trkpt lat="59.4689966168" lon="17.8096959966">
        <ele>35</ele>
        <time>2012-10-02T21:14:41Z</time>
      </trkpt>
      <trkpt lat="59.4689065952" lon="17.8096104174">
        <ele>34.6</ele>
        <time>2012-10-02T21:14:42Z</time>
      </trkpt>
      <trkpt lat="59.4688130532" lon="17.8095343935">
        <ele>33.6</ele>
        <time>2012-10-02T21:14:43Z</time>
      </trkpt>
      <trkpt lat="59.4686151566" lon="17.8094720322">
        <ele>33.6</ele>
        <time>2012-10-02T21:14:45Z</time>
      </trkpt>
      <trkpt lat="59.4683189402" lon="17.8093975171">
        <ele>33.6</ele>
        <time>2012-10-02T21:14:48Z</time>
      </trkpt>
      <trkpt lat="59.4681356281" lon="17.809333647">
        <ele>33.2</ele>
        <time>2012-10-02T21:14:50Z</time>
      </trkpt>
      <trkpt lat="59.4680439301" lon="17.8093138657">
        <ele>32.8</ele>
        <time>2012-10-02T21:14:51Z</time>
      </trkpt>
      <trkpt lat="59.4679548305" lon="17.8092894744">
        <ele>32.4</ele>
        <time>2012-10-02T21:14:52Z</time>
      </trkpt>
      <trkpt lat="59.4678700057" lon="17.809264664">
        <ele>32</ele>
        <time>2012-10-02T21:14:53Z</time>
      </trkpt>
      <trkpt lat="59.4677853485" lon="17.809238261">
        <ele>31.6</ele>
        <time>2012-10-02T21:14:54Z</time>
      </trkpt>
      <trkpt lat="59.4677027868" lon="17.8092287895">
        <ele>31.6</ele>
        <time>2012-10-02T21:14:55Z</time>
      </trkpt>
      <trkpt lat="59.4676274335" lon="17.8092250176">
        <ele>31.6</ele>
        <time>2012-10-02T21:14:56Z</time>
      </trkpt>
      <trkpt lat="59.4673421136" lon="17.8092741355">
        <ele>31.6</ele>
        <time>2012-10-02T21:15:00Z</time>
      </trkpt>
      <trkpt lat="59.4672741364" lon="17.8093014605">
        <ele>31.6</ele>
        <time>2012-10-02T21:15:01Z</time>
      </trkpt>
      <trkpt lat="59.4670233499" lon="17.8094431146">
        <ele>31.6</ele>
        <time>2012-10-02T21:15:05Z</time>
      </trkpt>
      <trkpt lat="59.4667563864" lon="17.809667079">
        <ele>31.6</ele>
        <time>2012-10-02T21:15:10Z</time>
      </trkpt>
      <trkpt lat="59.4667008983" lon="17.8097304462">
        <ele>31.6</ele>
        <time>2012-10-02T21:15:11Z</time>
      </trkpt>
      <trkpt lat="59.4664925242" lon="17.8100186997">
        <ele>31.6</ele>
        <time>2012-10-02T21:15:15Z</time>
      </trkpt>
      <trkpt lat="59.4663411471" lon="17.8102914467">
        <ele>32</ele>
        <time>2012-10-02T21:15:18Z</time>
      </trkpt>
      <trkpt lat="59.466290269" lon="17.8103971425">
        <ele>32.4</ele>
        <time>2012-10-02T21:15:19Z</time>
      </trkpt>
      <trkpt lat="59.4662364572" lon="17.8105110525">
        <ele>32.8</ele>
        <time>2012-10-02T21:15:20Z</time>
      </trkpt>
      <trkpt lat="59.4661836512" lon="17.8106393794">
        <ele>33.2</ele>
        <time>2012-10-02T21:15:21Z</time>
      </trkpt>
      <trkpt lat="59.4661337789" lon="17.8107749147">
        <ele>33.6</ele>
        <time>2012-10-02T21:15:22Z</time>
      </trkpt>
      <trkpt lat="59.4660850801" lon="17.8109051695">
        <ele>34</ele>
        <time>2012-10-02T21:15:23Z</time>
      </trkpt>
      <trkpt lat="59.4660379738" lon="17.811029976">
        <ele>34.4</ele>
        <time>2012-10-02T21:15:24Z</time>
      </trkpt>
      <trkpt lat="59.4659938012" lon="17.8111480769">
        <ele>35</ele>
        <time>2012-10-02T21:15:25Z</time>
      </trkpt>
      <trkpt lat="59.4659492933" lon="17.8112680219">
        <ele>35.4</ele>
        <time>2012-10-02T21:15:26Z</time>
      </trkpt>
      <trkpt lat="59.4659080543" lon="17.8113806747">
        <ele>35.8</ele>
        <time>2012-10-02T21:15:27Z</time>
      </trkpt>
      <trkpt lat="59.4658296836" lon="17.8115857797">
        <ele>35.8</ele>
        <time>2012-10-02T21:15:29Z</time>
      </trkpt>
      <trkpt lat="59.4655473812" lon="17.8123706609">
        <ele>35.8</ele>
        <time>2012-10-02T21:15:37Z</time>
      </trkpt>
      <trkpt lat="59.4653846047" lon="17.8128025802">
        <ele>35.8</ele>
        <time>2012-10-02T21:15:42Z</time>
      </trkpt>
      <trkpt lat="59.465338169" lon="17.8128445735">
        <ele>35.8</ele>
        <time>2012-10-02T21:15:43Z</time>
      </trkpt>
      <trkpt lat="59.4651784938" lon="17.8127631852">
        <ele>35.8</ele>
        <time>2012-10-02T21:15:46Z</time>
      </trkpt>
      <trkpt lat="59.4650485743" lon="17.8125420707">
        <ele>35.8</ele>
        <time>2012-10-02T21:15:49Z</time>
      </trkpt>
      <trkpt lat="59.4650040664" lon="17.8124486963">
        <ele>35.8</ele>
        <time>2012-10-02T21:15:50Z</time>
      </trkpt>
      <trkpt lat="59.4649628275" lon="17.8123456828">
        <ele>35.8</ele>
        <time>2012-10-02T21:15:51Z</time>
      </trkpt>
      <trkpt lat="59.464823185" lon="17.8118652323">
        <ele>35.8</ele>
        <time>2012-10-02T21:15:55Z</time>
      </trkpt>
      <trkpt lat="59.4646428903" lon="17.8111862984">
        <ele>35.8</ele>
        <time>2012-10-02T21:16:00Z</time>
      </trkpt>
      <trkpt lat="59.4644890825" lon="17.8105862382">
        <ele>35.8</ele>
        <time>2012-10-02T21:16:04Z</time>
      </trkpt>
      <trkpt lat="59.4644583209" lon="17.8104288261">
        <ele>35.4</ele>
        <time>2012-10-02T21:16:05Z</time>
      </trkpt>
      <trkpt lat="59.4644255477" lon="17.8102729227">
        <ele>35</ele>
        <time>2012-10-02T21:16:06Z</time>
      </trkpt>
      <trkpt lat="59.4643921877" lon="17.8101198693">
        <ele>34.6</ele>
        <time>2012-10-02T21:16:07Z</time>
      </trkpt>
      <trkpt lat="59.4643625158" lon="17.8099608646">
        <ele>34.2</ele>
        <time>2012-10-02T21:16:08Z</time>
      </trkpt>
      <trkpt lat="59.4643365319" lon="17.8097987587">
        <ele>33.8</ele>
        <time>2012-10-02T21:16:09Z</time>
      </trkpt>
      <trkpt lat="59.4643186785" lon="17.8096339705">
        <ele>33.8</ele>
        <time>2012-10-02T21:16:10Z</time>
      </trkpt>
      <trkpt lat="59.4643097098" lon="17.8094662487">
        <ele>33.8</ele>
        <time>2012-10-02T21:16:11Z</time>
      </trkpt>
      <trkpt lat="59.4643194328" lon="17.8086581497">
        <ele>33.8</ele>
        <time>2012-10-02T21:16:16Z</time>
      </trkpt>
      <trkpt lat="59.4643245458" lon="17.8084936968">
        <ele>33.2</ele>
        <time>2012-10-02T21:16:17Z</time>
      </trkpt>
      <trkpt lat="59.464329072" lon="17.8083240472">
        <ele>32.8</ele>
        <time>2012-10-02T21:16:18Z</time>
      </trkpt>
      <trkpt lat="59.4643319219" lon="17.8081491169">
        <ele>32.4</ele>
        <time>2012-10-02T21:16:19Z</time>
      </trkpt>
      <trkpt lat="59.4643325086" lon="17.8079893579">
        <ele>32</ele>
        <time>2012-10-02T21:16:20Z</time>
      </trkpt>
      <trkpt lat="59.4643223665" lon="17.8078332031">
        <ele>31.4</ele>
        <time>2012-10-02T21:16:21Z</time>
      </trkpt>
      <trkpt lat="59.4642430737" lon="17.8073881242">
        <ele>31.8</ele>
        <time>2012-10-02T21:16:24Z</time>
      </trkpt>
      <trkpt lat="59.4642084565" lon="17.8072525051">
        <ele>32.2</ele>
        <time>2012-10-02T21:16:25Z</time>
      </trkpt>
      <trkpt lat="59.4641696483" lon="17.8071218313">
        <ele>32.6</ele>
        <time>2012-10-02T21:16:26Z</time>
      </trkpt>
      <trkpt lat="59.4641232964" lon="17.8069939235">
        <ele>33</ele>
        <time>2012-10-02T21:16:27Z</time>
      </trkpt>
      <trkpt lat="59.4640724182" lon="17.8068854617">
        <ele>33.4</ele>
        <time>2012-10-02T21:16:28Z</time>
      </trkpt>
      <trkpt lat="59.4640171815" lon="17.806788064">
        <ele>33.4</ele>
        <time>2012-10-02T21:16:29Z</time>
      </trkpt>
      <trkpt lat="59.4637537384" lon="17.8064918477">
        <ele>33.4</ele>
        <time>2012-10-02T21:16:33Z</time>
      </trkpt>
      <trkpt lat="59.4635068076" lon="17.8063338488">
        <ele>33.4</ele>
        <time>2012-10-02T21:16:36Z</time>
      </trkpt>
      <trkpt lat="59.463417708" lon="17.8063107148">
        <ele>33.4</ele>
        <time>2012-10-02T21:16:37Z</time>
      </trkpt>
      <trkpt lat="59.4629638281" lon="17.8063247964">
        <ele>33.4</ele>
        <time>2012-10-02T21:16:42Z</time>
      </trkpt>
      <trkpt lat="59.4624095331" lon="17.8064729046">
        <ele>33.4</ele>
        <time>2012-10-02T21:16:48Z</time>
      </trkpt>
      <trkpt lat="59.4622245446" lon="17.8065258782">
        <ele>33.4</ele>
        <time>2012-10-02T21:16:50Z</time>
      </trkpt>
      <trkpt lat="59.4621384624" lon="17.8065418876">
        <ele>33.4</ele>
        <time>2012-10-02T21:16:51Z</time>
      </trkpt>
      <trkpt lat="59.4619019252" lon="17.8065623394">
        <ele>33.4</ele>
        <time>2012-10-02T21:16:54Z</time>
      </trkpt>
      <trkpt lat="59.4614019449" lon="17.8065992198">
        <ele>33.4</ele>
        <time>2012-10-02T21:17:01Z</time>
      </trkpt>
      <trkpt lat="59.4613314531" lon="17.8066043328">
        <ele>33</ele>
        <time>2012-10-02T21:17:02Z</time>
      </trkpt>
      <trkpt lat="59.4612634759" lon="17.8066114574">
        <ele>32.6</ele>
        <time>2012-10-02T21:17:03Z</time>
      </trkpt>
      <trkpt lat="59.4611975104" lon="17.8066200069">
        <ele>32.2</ele>
        <time>2012-10-02T21:17:04Z</time>
      </trkpt>
      <trkpt lat="59.4611310419" lon="17.8066311548">
        <ele>31.8</ele>
        <time>2012-10-02T21:17:05Z</time>
      </trkpt>
      <trkpt lat="59.4610695187" lon="17.8066428895">
        <ele>31.4</ele>
        <time>2012-10-02T21:17:06Z</time>
      </trkpt>
      <trkpt lat="59.4609343187" lon="17.8066506847">
        <ele>31.4</ele>
        <time>2012-10-02T21:17:08Z</time>
      </trkpt>
      <trkpt lat="59.4605782556" lon="17.8066513552">
        <ele>31.4</ele>
        <time>2012-10-02T21:17:13Z</time>
      </trkpt>
      <trkpt lat="59.460248344" lon="17.8066183305">
        <ele>31.4</ele>
        <time>2012-10-02T21:17:18Z</time>
      </trkpt>
      <trkpt lat="59.4597992418" lon="17.8065444022">
        <ele>31.4</ele>
        <time>2012-10-02T21:17:25Z</time>
      </trkpt>
      <trkpt lat="59.4594746946" lon="17.8065019059">
        <ele>31.4</ele>
        <time>2012-10-02T21:17:30Z</time>
      </trkpt>
      <trkpt lat="59.4593456972" lon="17.8064834658">
        <ele>31.4</ele>
        <time>2012-10-02T21:17:32Z</time>
      </trkpt>
      <trkpt lat="59.4588664201" lon="17.8064019937">
        <ele>31.4</ele>
        <time>2012-10-02T21:17:39Z</time>
      </trkpt>
      <trkpt lat="59.458391837" lon="17.8062703979">
        <ele>31.4</ele>
        <time>2012-10-02T21:17:45Z</time>
      </trkpt>
      <trkpt lat="59.4580663678" lon="17.8061762691">
        <ele>30.8</ele>
        <time>2012-10-02T21:17:49Z</time>
      </trkpt>
      <trkpt lat="59.4579840575" lon="17.8061506205">
        <ele>30.4</ele>
        <time>2012-10-02T21:17:50Z</time>
      </trkpt>
      <trkpt lat="59.4579087881" lon="17.8061189369">
        <ele>30</ele>
        <time>2012-10-02T21:17:51Z</time>
      </trkpt>
      <trkpt lat="59.4578364523" lon="17.8060859122">
        <ele>29.6</ele>
        <time>2012-10-02T21:17:52Z</time>
      </trkpt>
      <trkpt lat="59.4577664634" lon="17.8060552345">
        <ele>29.2</ele>
        <time>2012-10-02T21:17:53Z</time>
      </trkpt>
      <trkpt lat="59.4575586761" lon="17.8059663025">
        <ele>28.8</ele>
        <time>2012-10-02T21:17:55Z</time>
      </trkpt>
      <trkpt lat="59.4574876814" lon="17.8059335293">
        <ele>28.2</ele>
        <time>2012-10-02T21:17:57Z</time>
      </trkpt>
      <trkpt lat="59.4574210453" lon="17.8058999179">
        <ele>27.8</ele>
        <time>2012-10-02T21:17:58Z</time>
      </trkpt>
      <trkpt lat="59.4573554989" lon="17.805866977">
        <ele>27.4</ele>
        <time>2012-10-02T21:17:59Z</time>
      </trkpt>
      <trkpt lat="59.45729012" lon="17.8058408255">
        <ele>27</ele>
        <time>2012-10-02T21:18:00Z</time>
      </trkpt>
      <trkpt lat="59.4572314467" lon="17.8058125785">
        <ele>27</ele>
        <time>2012-10-02T21:18:01Z</time>
      </trkpt>
      <trkpt lat="59.4571587757" lon="17.8056836649">
        <ele>27</ele>
        <time>2012-10-02T21:18:03Z</time>
      </trkpt>
      <trkpt lat="59.4571821612" lon="17.8054167852">
        <ele>27</ele>
        <time>2012-10-02T21:18:06Z</time>
      </trkpt>
      <trkpt lat="59.4572896171" lon="17.8051741292">
        <ele>27</ele>
        <time>2012-10-02T21:18:09Z</time>
      </trkpt>
      <trkpt lat="59.4573335383" lon="17.8050941658">
        <ele>27</ele>
        <time>2012-10-02T21:18:10Z</time>
      </trkpt>
      <trkpt lat="59.4573811475" lon="17.8050167171">
        <ele>27</ele>
        <time>2012-10-02T21:18:11Z</time>
      </trkpt>
      <trkpt lat="59.457586504" lon="17.8047431319">
        <ele>27</ele>
        <time>2012-10-02T21:18:15Z</time>
      </trkpt>
      <trkpt lat="59.4578848997" lon="17.8044620868">
        <ele>27</ele>
        <time>2012-10-02T21:18:20Z</time>
      </trkpt>
      <trkpt lat="59.4579486021" lon="17.8044246197">
        <ele>27</ele>
        <time>2012-10-02T21:18:21Z</time>
      </trkpt>
      <trkpt lat="59.4580146515" lon="17.8043975461">
        <ele>27</ele>
        <time>2012-10-02T21:18:22Z</time>
      </trkpt>
      <trkpt lat="59.4582092792" lon="17.8043781001">
        <ele>26.2</ele>
        <time>2012-10-02T21:18:25Z</time>
      </trkpt>
      <trkpt lat="59.458274658" lon="17.8043843027">
        <ele>25.8</ele>
        <time>2012-10-02T21:18:26Z</time>
      </trkpt>
      <trkpt lat="59.4583361812" lon="17.8043954506">
        <ele>25.4</ele>
        <time>2012-10-02T21:18:27Z</time>
      </trkpt>
      <trkpt lat="59.4583951059" lon="17.8044065148">
        <ele>24.8</ele>
        <time>2012-10-02T21:18:28Z</time>
      </trkpt>
      <trkpt lat="59.4585556193" lon="17.80442353">
        <ele>24.8</ele>
        <time>2012-10-02T21:18:31Z</time>
      </trkpt>
      <trkpt lat="59.4587387638" lon="17.804395283">
        <ele>24.8</ele>
        <time>2012-10-02T21:18:35Z</time>
      </trkpt>
      <trkpt lat="59.4587738001" lon="17.8043729033">
        <ele>24.8</ele>
        <time>2012-10-02T21:18:36Z</time>
      </trkpt>
      <trkpt lat="59.4589051445" lon="17.8042423972">
        <ele>24.8</ele>
        <time>2012-10-02T21:18:41Z</time>
      </trkpt>
      <trkpt lat="59.458915119" lon="17.8042148207">
        <ele>24.8</ele>
        <time>2012-10-02T21:18:46Z</time>
      </trkpt>
    </trkseg>
  </trk>
</gpx>